<?xml version="1.0" encoding="UTF-8" standalone="no" ?>
<gpx xmlns="http://www.topografix.com/GPX/1/1" xmlns:xsi="http://www.w3.org/2001/XMLSchema-instance" xsi:schemaLocation="http://www.topografix.com/GPX/1/1 http://www.topografix.com/GPX/1/1/gpx.xsd" version="1.1" creator="VisuGPX - https://www.visugpx.com">
  <metadata>
    <name>VTT 21/07/2013</name>
    <desc><![CDATA[(°I°)
\'----\']]></desc>
  </metadata>
  <trk>
    <name><![CDATA[385 Chemin du Pillet]]></name>
    <desc><![CDATA[]]></desc>
    <trkseg>
      <trkpt lat="45.91081" lon="4.82886">
        <ele>256.9</ele>
        <time>2013-07-21T15:28:00.000Z</time>
      </trkpt>
      <trkpt lat="45.91083" lon="4.82881">
        <ele>270.9</ele>
        <time>2013-07-21T15:28:12.000Z</time>
      </trkpt>
      <trkpt lat="45.91086" lon="4.82883">
        <ele>271.7</ele>
        <time>2013-07-21T15:28:13.000Z</time>
      </trkpt>
      <trkpt lat="45.91089" lon="4.8288">
        <ele>277.1</ele>
        <time>2013-07-21T15:28:17.000Z</time>
      </trkpt>
      <trkpt lat="45.9109" lon="4.82881">
        <ele>280.9</ele>
        <time>2013-07-21T15:28:18.000Z</time>
      </trkpt>
      <trkpt lat="45.91094" lon="4.82879">
        <ele>282</ele>
        <time>2013-07-21T15:28:20.000Z</time>
      </trkpt>
      <trkpt lat="45.91095" lon="4.82879">
        <ele>282.9</ele>
        <time>2013-07-21T15:28:21.000Z</time>
      </trkpt>
      <trkpt lat="45.91099" lon="4.82877">
        <ele>283</ele>
        <time>2013-07-21T15:28:24.000Z</time>
      </trkpt>
      <trkpt lat="45.911" lon="4.82877">
        <ele>283.2</ele>
        <time>2013-07-21T15:28:25.000Z</time>
      </trkpt>
      <trkpt lat="45.91104" lon="4.82876">
        <ele>284.9</ele>
        <time>2013-07-21T15:28:28.000Z</time>
      </trkpt>
      <trkpt lat="45.91106" lon="4.82875">
        <ele>285.7</ele>
        <time>2013-07-21T15:28:29.000Z</time>
      </trkpt>
      <trkpt lat="45.9111" lon="4.82876">
        <ele>285.9</ele>
        <time>2013-07-21T15:28:31.000Z</time>
      </trkpt>
      <trkpt lat="45.91112" lon="4.82877">
        <ele>285.6</ele>
        <time>2013-07-21T15:28:32.000Z</time>
      </trkpt>
      <trkpt lat="45.91116" lon="4.82877">
        <ele>286.2</ele>
        <time>2013-07-21T15:28:34.000Z</time>
      </trkpt>
      <trkpt lat="45.91118" lon="4.82877">
        <ele>285.4</ele>
        <time>2013-07-21T15:28:35.000Z</time>
      </trkpt>
      <trkpt lat="45.91121" lon="4.82875">
        <ele>285.5</ele>
        <time>2013-07-21T15:28:37.000Z</time>
      </trkpt>
      <trkpt lat="45.91122" lon="4.82875">
        <ele>287.2</ele>
        <time>2013-07-21T15:28:38.000Z</time>
      </trkpt>
      <trkpt lat="45.91125" lon="4.82873">
        <ele>288.5</ele>
        <time>2013-07-21T15:28:40.000Z</time>
      </trkpt>
      <trkpt lat="45.91127" lon="4.82873">
        <ele>287.6</ele>
        <time>2013-07-21T15:28:41.000Z</time>
      </trkpt>
      <trkpt lat="45.91129" lon="4.82871">
        <ele>286.6</ele>
        <time>2013-07-21T15:28:43.000Z</time>
      </trkpt>
      <trkpt lat="45.91131" lon="4.8287">
        <ele>286.9</ele>
        <time>2013-07-21T15:28:44.000Z</time>
      </trkpt>
      <trkpt lat="45.91133" lon="4.82869">
        <ele>287</ele>
        <time>2013-07-21T15:28:46.000Z</time>
      </trkpt>
      <trkpt lat="45.91135" lon="4.82868">
        <ele>287.2</ele>
        <time>2013-07-21T15:28:47.000Z</time>
      </trkpt>
      <trkpt lat="45.91139" lon="4.82866">
        <ele>286.3</ele>
        <time>2013-07-21T15:28:49.000Z</time>
      </trkpt>
      <trkpt lat="45.91141" lon="4.82866">
        <ele>285.7</ele>
        <time>2013-07-21T15:28:50.000Z</time>
      </trkpt>
      <trkpt lat="45.91143" lon="4.82865">
        <ele>284.7</ele>
        <time>2013-07-21T15:28:51.000Z</time>
      </trkpt>
      <trkpt lat="45.91147" lon="4.82863">
        <ele>289.2</ele>
        <time>2013-07-21T15:28:52.589Z</time>
      </trkpt>
      <trkpt lat="45.91149" lon="4.82861">
        <ele>289</ele>
        <time>2013-07-21T15:28:54.000Z</time>
      </trkpt>
      <trkpt lat="45.91151" lon="4.82859">
        <ele>290.3</ele>
        <time>2013-07-21T15:28:55.000Z</time>
      </trkpt>
      <trkpt lat="45.91153" lon="4.82856">
        <ele>290.9</ele>
        <time>2013-07-21T15:28:57.000Z</time>
      </trkpt>
      <trkpt lat="45.91155" lon="4.82854">
        <ele>291</ele>
        <time>2013-07-21T15:28:58.000Z</time>
      </trkpt>
      <trkpt lat="45.91157" lon="4.82849">
        <ele>290.5</ele>
        <time>2013-07-21T15:29:02.000Z</time>
      </trkpt>
      <trkpt lat="45.91158" lon="4.82849">
        <ele>290.2</ele>
        <time>2013-07-21T15:29:03.000Z</time>
      </trkpt>
      <trkpt lat="45.91162" lon="4.82847">
        <ele>289.7</ele>
        <time>2013-07-21T15:29:05.000Z</time>
      </trkpt>
      <trkpt lat="45.91164" lon="4.82846">
        <ele>289.8</ele>
        <time>2013-07-21T15:29:06.000Z</time>
      </trkpt>
      <trkpt lat="45.91167" lon="4.82845">
        <ele>290.4</ele>
        <time>2013-07-21T15:29:07.000Z</time>
      </trkpt>
      <trkpt lat="45.9117" lon="4.82845">
        <ele>292</ele>
        <time>2013-07-21T15:29:08.000Z</time>
      </trkpt>
      <trkpt lat="45.91172" lon="4.82845">
        <ele>292.7</ele>
        <time>2013-07-21T15:29:09.000Z</time>
      </trkpt>
      <trkpt lat="45.91175" lon="4.82844">
        <ele>291.9</ele>
        <time>2013-07-21T15:29:10.000Z</time>
      </trkpt>
      <trkpt lat="45.91178" lon="4.82842">
        <ele>288.7</ele>
        <time>2013-07-21T15:29:11.000Z</time>
      </trkpt>
      <trkpt lat="45.9118" lon="4.8284">
        <ele>287.5</ele>
        <time>2013-07-21T15:29:12.000Z</time>
      </trkpt>
      <trkpt lat="45.91183" lon="4.82839">
        <ele>287.9</ele>
        <time>2013-07-21T15:29:13.000Z</time>
      </trkpt>
      <trkpt lat="45.91185" lon="4.82838">
        <ele>287.6</ele>
        <time>2013-07-21T15:29:14.000Z</time>
      </trkpt>
      <trkpt lat="45.91188" lon="4.82836">
        <ele>286.8</ele>
        <time>2013-07-21T15:29:15.000Z</time>
      </trkpt>
      <trkpt lat="45.9119" lon="4.82834">
        <ele>286.2</ele>
        <time>2013-07-21T15:29:16.000Z</time>
      </trkpt>
      <trkpt lat="45.91193" lon="4.82832">
        <ele>286.8</ele>
        <time>2013-07-21T15:29:17.000Z</time>
      </trkpt>
      <trkpt lat="45.91196" lon="4.8283">
        <ele>287</ele>
        <time>2013-07-21T15:29:18.000Z</time>
      </trkpt>
      <trkpt lat="45.91199" lon="4.82828">
        <ele>286.4</ele>
        <time>2013-07-21T15:29:19.000Z</time>
      </trkpt>
      <trkpt lat="45.91203" lon="4.82827">
        <ele>287.2</ele>
        <time>2013-07-21T15:29:20.000Z</time>
      </trkpt>
      <trkpt lat="45.91206" lon="4.82825">
        <ele>287.3</ele>
        <time>2013-07-21T15:29:21.000Z</time>
      </trkpt>
      <trkpt lat="45.9121" lon="4.82823">
        <ele>287.7</ele>
        <time>2013-07-21T15:29:22.000Z</time>
      </trkpt>
      <trkpt lat="45.91214" lon="4.82821">
        <ele>288.1</ele>
        <time>2013-07-21T15:29:23.000Z</time>
      </trkpt>
      <trkpt lat="45.91219" lon="4.8282">
        <ele>287.7</ele>
        <time>2013-07-21T15:29:24.000Z</time>
      </trkpt>
      <trkpt lat="45.91225" lon="4.82824">
        <ele>287</ele>
        <time>2013-07-21T15:29:25.000Z</time>
      </trkpt>
      <trkpt lat="45.9123" lon="4.82826">
        <ele>285.4</ele>
        <time>2013-07-21T15:29:26.000Z</time>
      </trkpt>
      <trkpt lat="45.91235" lon="4.82829">
        <ele>284.8</ele>
        <time>2013-07-21T15:29:27.000Z</time>
      </trkpt>
      <trkpt lat="45.91238" lon="4.82832">
        <ele>285.1</ele>
        <time>2013-07-21T15:29:28.000Z</time>
      </trkpt>
      <trkpt lat="45.91241" lon="4.82837">
        <ele>284.7</ele>
        <time>2013-07-21T15:29:29.000Z</time>
      </trkpt>
      <trkpt lat="45.91244" lon="4.82842">
        <ele>283.2</ele>
        <time>2013-07-21T15:29:30.000Z</time>
      </trkpt>
      <trkpt lat="45.91247" lon="4.82846">
        <ele>282.3</ele>
        <time>2013-07-21T15:29:31.000Z</time>
      </trkpt>
      <trkpt lat="45.91249" lon="4.82851">
        <ele>282.6</ele>
        <time>2013-07-21T15:29:32.000Z</time>
      </trkpt>
      <trkpt lat="45.91251" lon="4.82855">
        <ele>280.5</ele>
        <time>2013-07-21T15:29:33.000Z</time>
      </trkpt>
      <trkpt lat="45.91253" lon="4.82859">
        <ele>280.6</ele>
        <time>2013-07-21T15:29:34.000Z</time>
      </trkpt>
      <trkpt lat="45.91254" lon="4.82864">
        <ele>283.4</ele>
        <time>2013-07-21T15:29:35.000Z</time>
      </trkpt>
      <trkpt lat="45.91256" lon="4.82868">
        <ele>284.5</ele>
        <time>2013-07-21T15:29:36.000Z</time>
      </trkpt>
      <trkpt lat="45.91257" lon="4.82873">
        <ele>284.8</ele>
        <time>2013-07-21T15:29:37.000Z</time>
      </trkpt>
      <trkpt lat="45.91259" lon="4.82877">
        <ele>284.3</ele>
        <time>2013-07-21T15:29:38.000Z</time>
      </trkpt>
      <trkpt lat="45.91261" lon="4.82881">
        <ele>285.1</ele>
        <time>2013-07-21T15:29:39.000Z</time>
      </trkpt>
      <trkpt lat="45.91262" lon="4.82886">
        <ele>284.1</ele>
        <time>2013-07-21T15:29:40.000Z</time>
      </trkpt>
      <trkpt lat="45.91264" lon="4.82891">
        <ele>284.7</ele>
        <time>2013-07-21T15:29:41.000Z</time>
      </trkpt>
      <trkpt lat="45.91266" lon="4.82895">
        <ele>285.1</ele>
        <time>2013-07-21T15:29:42.000Z</time>
      </trkpt>
      <trkpt lat="45.91268" lon="4.82899">
        <ele>285.7</ele>
        <time>2013-07-21T15:29:43.000Z</time>
      </trkpt>
      <trkpt lat="45.9127" lon="4.82902">
        <ele>284.8</ele>
        <time>2013-07-21T15:29:44.000Z</time>
      </trkpt>
      <trkpt lat="45.91273" lon="4.82906">
        <ele>284.5</ele>
        <time>2013-07-21T15:29:45.000Z</time>
      </trkpt>
      <trkpt lat="45.91274" lon="4.8291">
        <ele>284.5</ele>
        <time>2013-07-21T15:29:46.000Z</time>
      </trkpt>
      <trkpt lat="45.91277" lon="4.82913">
        <ele>285.1</ele>
        <time>2013-07-21T15:29:47.000Z</time>
      </trkpt>
      <trkpt lat="45.91279" lon="4.82917">
        <ele>284.9</ele>
        <time>2013-07-21T15:29:48.000Z</time>
      </trkpt>
      <trkpt lat="45.9128" lon="4.82922">
        <ele>284</ele>
        <time>2013-07-21T15:29:49.000Z</time>
      </trkpt>
      <trkpt lat="45.91282" lon="4.82926">
        <ele>282.5</ele>
        <time>2013-07-21T15:29:50.000Z</time>
      </trkpt>
      <trkpt lat="45.91284" lon="4.82929">
        <ele>280.7</ele>
        <time>2013-07-21T15:29:51.000Z</time>
      </trkpt>
      <trkpt lat="45.91287" lon="4.82934">
        <ele>281.2</ele>
        <time>2013-07-21T15:29:52.492Z</time>
      </trkpt>
      <trkpt lat="45.91289" lon="4.82939">
        <ele>282.3</ele>
        <time>2013-07-21T15:29:54.000Z</time>
      </trkpt>
      <trkpt lat="45.9129" lon="4.82942">
        <ele>282.3</ele>
        <time>2013-07-21T15:29:55.000Z</time>
      </trkpt>
      <trkpt lat="45.91292" lon="4.82945">
        <ele>282.4</ele>
        <time>2013-07-21T15:29:56.000Z</time>
      </trkpt>
      <trkpt lat="45.91294" lon="4.82948">
        <ele>282.3</ele>
        <time>2013-07-21T15:29:57.000Z</time>
      </trkpt>
      <trkpt lat="45.91296" lon="4.82952">
        <ele>282.5</ele>
        <time>2013-07-21T15:29:58.000Z</time>
      </trkpt>
      <trkpt lat="45.91298" lon="4.82956">
        <ele>281.6</ele>
        <time>2013-07-21T15:29:59.000Z</time>
      </trkpt>
      <trkpt lat="45.913" lon="4.8296">
        <ele>281.1</ele>
        <time>2013-07-21T15:30:00.000Z</time>
      </trkpt>
      <trkpt lat="45.91303" lon="4.82963">
        <ele>282.5</ele>
        <time>2013-07-21T15:30:01.000Z</time>
      </trkpt>
      <trkpt lat="45.91305" lon="4.82967">
        <ele>282.9</ele>
        <time>2013-07-21T15:30:02.000Z</time>
      </trkpt>
      <trkpt lat="45.91308" lon="4.82971">
        <ele>283.1</ele>
        <time>2013-07-21T15:30:03.000Z</time>
      </trkpt>
      <trkpt lat="45.91311" lon="4.82975">
        <ele>282.8</ele>
        <time>2013-07-21T15:30:04.000Z</time>
      </trkpt>
      <trkpt lat="45.91314" lon="4.82979">
        <ele>283.4</ele>
        <time>2013-07-21T15:30:05.000Z</time>
      </trkpt>
      <trkpt lat="45.91316" lon="4.82983">
        <ele>282.7</ele>
        <time>2013-07-21T15:30:06.000Z</time>
      </trkpt>
      <trkpt lat="45.91318" lon="4.82987">
        <ele>280.9</ele>
        <time>2013-07-21T15:30:07.000Z</time>
      </trkpt>
      <trkpt lat="45.9132" lon="4.82991">
        <ele>280.7</ele>
        <time>2013-07-21T15:30:08.000Z</time>
      </trkpt>
      <trkpt lat="45.91323" lon="4.82996">
        <ele>281.4</ele>
        <time>2013-07-21T15:30:09.000Z</time>
      </trkpt>
      <trkpt lat="45.91325" lon="4.83001">
        <ele>281.6</ele>
        <time>2013-07-21T15:30:10.000Z</time>
      </trkpt>
      <trkpt lat="45.91327" lon="4.83006">
        <ele>280.4</ele>
        <time>2013-07-21T15:30:11.000Z</time>
      </trkpt>
      <trkpt lat="45.91328" lon="4.83011">
        <ele>280.4</ele>
        <time>2013-07-21T15:30:12.000Z</time>
      </trkpt>
      <trkpt lat="45.9133" lon="4.83016">
        <ele>280.4</ele>
        <time>2013-07-21T15:30:13.000Z</time>
      </trkpt>
      <trkpt lat="45.91332" lon="4.83022">
        <ele>280.7</ele>
        <time>2013-07-21T15:30:14.000Z</time>
      </trkpt>
      <trkpt lat="45.91333" lon="4.83027">
        <ele>281.1</ele>
        <time>2013-07-21T15:30:15.000Z</time>
      </trkpt>
      <trkpt lat="45.91335" lon="4.83032">
        <ele>282</ele>
        <time>2013-07-21T15:30:16.000Z</time>
      </trkpt>
      <trkpt lat="45.91336" lon="4.83037">
        <ele>282.5</ele>
        <time>2013-07-21T15:30:17.000Z</time>
      </trkpt>
      <trkpt lat="45.91338" lon="4.83041">
        <ele>282.4</ele>
        <time>2013-07-21T15:30:18.000Z</time>
      </trkpt>
      <trkpt lat="45.9134" lon="4.83046">
        <ele>282.3</ele>
        <time>2013-07-21T15:30:19.000Z</time>
      </trkpt>
      <trkpt lat="45.91341" lon="4.83051">
        <ele>282.2</ele>
        <time>2013-07-21T15:30:20.000Z</time>
      </trkpt>
      <trkpt lat="45.91343" lon="4.83056">
        <ele>281.6</ele>
        <time>2013-07-21T15:30:21.000Z</time>
      </trkpt>
      <trkpt lat="45.91345" lon="4.83061">
        <ele>281.7</ele>
        <time>2013-07-21T15:30:22.000Z</time>
      </trkpt>
      <trkpt lat="45.91347" lon="4.83066">
        <ele>282.6</ele>
        <time>2013-07-21T15:30:23.000Z</time>
      </trkpt>
      <trkpt lat="45.9135" lon="4.8307">
        <ele>283</ele>
        <time>2013-07-21T15:30:24.000Z</time>
      </trkpt>
      <trkpt lat="45.91352" lon="4.83073">
        <ele>283</ele>
        <time>2013-07-21T15:30:25.000Z</time>
      </trkpt>
      <trkpt lat="45.91355" lon="4.83077">
        <ele>282.2</ele>
        <time>2013-07-21T15:30:26.000Z</time>
      </trkpt>
      <trkpt lat="45.91359" lon="4.8308">
        <ele>281.6</ele>
        <time>2013-07-21T15:30:27.000Z</time>
      </trkpt>
      <trkpt lat="45.91362" lon="4.83083">
        <ele>281.1</ele>
        <time>2013-07-21T15:30:28.000Z</time>
      </trkpt>
      <trkpt lat="45.91365" lon="4.83087">
        <ele>283.4</ele>
        <time>2013-07-21T15:30:29.000Z</time>
      </trkpt>
      <trkpt lat="45.91369" lon="4.83091">
        <ele>283.2</ele>
        <time>2013-07-21T15:30:30.000Z</time>
      </trkpt>
      <trkpt lat="45.91372" lon="4.83095">
        <ele>283</ele>
        <time>2013-07-21T15:30:31.000Z</time>
      </trkpt>
      <trkpt lat="45.91375" lon="4.83099">
        <ele>283.5</ele>
        <time>2013-07-21T15:30:32.000Z</time>
      </trkpt>
      <trkpt lat="45.91378" lon="4.83103">
        <ele>283.8</ele>
        <time>2013-07-21T15:30:33.000Z</time>
      </trkpt>
      <trkpt lat="45.91382" lon="4.83107">
        <ele>283.9</ele>
        <time>2013-07-21T15:30:34.000Z</time>
      </trkpt>
      <trkpt lat="45.91385" lon="4.83111">
        <ele>284.3</ele>
        <time>2013-07-21T15:30:35.000Z</time>
      </trkpt>
      <trkpt lat="45.91388" lon="4.83115">
        <ele>284.6</ele>
        <time>2013-07-21T15:30:36.000Z</time>
      </trkpt>
      <trkpt lat="45.91391" lon="4.83119">
        <ele>285.5</ele>
        <time>2013-07-21T15:30:37.000Z</time>
      </trkpt>
      <trkpt lat="45.91394" lon="4.83123">
        <ele>285.4</ele>
        <time>2013-07-21T15:30:38.000Z</time>
      </trkpt>
      <trkpt lat="45.91396" lon="4.83127">
        <ele>284.6</ele>
        <time>2013-07-21T15:30:39.000Z</time>
      </trkpt>
      <trkpt lat="45.91399" lon="4.83132">
        <ele>285.1</ele>
        <time>2013-07-21T15:30:40.000Z</time>
      </trkpt>
      <trkpt lat="45.91401" lon="4.83136">
        <ele>285.8</ele>
        <time>2013-07-21T15:30:41.000Z</time>
      </trkpt>
      <trkpt lat="45.91404" lon="4.83141">
        <ele>286</ele>
        <time>2013-07-21T15:30:42.000Z</time>
      </trkpt>
      <trkpt lat="45.91406" lon="4.83146">
        <ele>286.6</ele>
        <time>2013-07-21T15:30:43.000Z</time>
      </trkpt>
      <trkpt lat="45.91409" lon="4.83151">
        <ele>286.2</ele>
        <time>2013-07-21T15:30:44.000Z</time>
      </trkpt>
      <trkpt lat="45.91411" lon="4.83156">
        <ele>285.7</ele>
        <time>2013-07-21T15:30:45.000Z</time>
      </trkpt>
      <trkpt lat="45.91413" lon="4.83161">
        <ele>286.6</ele>
        <time>2013-07-21T15:30:46.000Z</time>
      </trkpt>
      <trkpt lat="45.91416" lon="4.83166">
        <ele>286.9</ele>
        <time>2013-07-21T15:30:47.000Z</time>
      </trkpt>
      <trkpt lat="45.91418" lon="4.8317">
        <ele>287.1</ele>
        <time>2013-07-21T15:30:48.000Z</time>
      </trkpt>
      <trkpt lat="45.9142" lon="4.83175">
        <ele>288</ele>
        <time>2013-07-21T15:30:49.000Z</time>
      </trkpt>
      <trkpt lat="45.91422" lon="4.83179">
        <ele>287.4</ele>
        <time>2013-07-21T15:30:50.000Z</time>
      </trkpt>
      <trkpt lat="45.91424" lon="4.83184">
        <ele>286.3</ele>
        <time>2013-07-21T15:30:51.000Z</time>
      </trkpt>
      <trkpt lat="45.91426" lon="4.83191">
        <ele>285.8</ele>
        <time>2013-07-21T15:30:52.517Z</time>
      </trkpt>
      <trkpt lat="45.91429" lon="4.83198">
        <ele>285.9</ele>
        <time>2013-07-21T15:30:54.000Z</time>
      </trkpt>
      <trkpt lat="45.91432" lon="4.83203">
        <ele>285.8</ele>
        <time>2013-07-21T15:30:55.000Z</time>
      </trkpt>
      <trkpt lat="45.91434" lon="4.83208">
        <ele>286.4</ele>
        <time>2013-07-21T15:30:56.000Z</time>
      </trkpt>
      <trkpt lat="45.91437" lon="4.83212">
        <ele>287</ele>
        <time>2013-07-21T15:30:57.000Z</time>
      </trkpt>
      <trkpt lat="45.91439" lon="4.83217">
        <ele>286.7</ele>
        <time>2013-07-21T15:30:58.000Z</time>
      </trkpt>
      <trkpt lat="45.91441" lon="4.83222">
        <ele>285.8</ele>
        <time>2013-07-21T15:30:59.000Z</time>
      </trkpt>
      <trkpt lat="45.91443" lon="4.83226">
        <ele>285.8</ele>
        <time>2013-07-21T15:31:00.000Z</time>
      </trkpt>
      <trkpt lat="45.91446" lon="4.83231">
        <ele>286.2</ele>
        <time>2013-07-21T15:31:01.000Z</time>
      </trkpt>
      <trkpt lat="45.91448" lon="4.83235">
        <ele>286.7</ele>
        <time>2013-07-21T15:31:02.000Z</time>
      </trkpt>
      <trkpt lat="45.9145" lon="4.8324">
        <ele>285.3</ele>
        <time>2013-07-21T15:31:03.000Z</time>
      </trkpt>
      <trkpt lat="45.91453" lon="4.83244">
        <ele>284.6</ele>
        <time>2013-07-21T15:31:04.000Z</time>
      </trkpt>
      <trkpt lat="45.91455" lon="4.83249">
        <ele>284.9</ele>
        <time>2013-07-21T15:31:05.000Z</time>
      </trkpt>
      <trkpt lat="45.91457" lon="4.83253">
        <ele>285</ele>
        <time>2013-07-21T15:31:06.000Z</time>
      </trkpt>
      <trkpt lat="45.9146" lon="4.83258">
        <ele>284.7</ele>
        <time>2013-07-21T15:31:07.000Z</time>
      </trkpt>
      <trkpt lat="45.91462" lon="4.83263">
        <ele>283.9</ele>
        <time>2013-07-21T15:31:08.000Z</time>
      </trkpt>
      <trkpt lat="45.91464" lon="4.83268">
        <ele>283.6</ele>
        <time>2013-07-21T15:31:09.000Z</time>
      </trkpt>
      <trkpt lat="45.91467" lon="4.83273">
        <ele>283.4</ele>
        <time>2013-07-21T15:31:10.000Z</time>
      </trkpt>
      <trkpt lat="45.91471" lon="4.83278">
        <ele>282.9</ele>
        <time>2013-07-21T15:31:11.000Z</time>
      </trkpt>
      <trkpt lat="45.91473" lon="4.83283">
        <ele>282.6</ele>
        <time>2013-07-21T15:31:12.000Z</time>
      </trkpt>
      <trkpt lat="45.91476" lon="4.83289">
        <ele>282.9</ele>
        <time>2013-07-21T15:31:13.000Z</time>
      </trkpt>
      <trkpt lat="45.91479" lon="4.83293">
        <ele>283.4</ele>
        <time>2013-07-21T15:31:14.000Z</time>
      </trkpt>
      <trkpt lat="45.91481" lon="4.83298">
        <ele>283.3</ele>
        <time>2013-07-21T15:31:15.000Z</time>
      </trkpt>
      <trkpt lat="45.91484" lon="4.83303">
        <ele>283.4</ele>
        <time>2013-07-21T15:31:16.000Z</time>
      </trkpt>
      <trkpt lat="45.91487" lon="4.83309">
        <ele>283.2</ele>
        <time>2013-07-21T15:31:17.000Z</time>
      </trkpt>
      <trkpt lat="45.91489" lon="4.83314">
        <ele>282.9</ele>
        <time>2013-07-21T15:31:18.000Z</time>
      </trkpt>
      <trkpt lat="45.91492" lon="4.83319">
        <ele>282.7</ele>
        <time>2013-07-21T15:31:19.000Z</time>
      </trkpt>
      <trkpt lat="45.91494" lon="4.83324">
        <ele>283.8</ele>
        <time>2013-07-21T15:31:20.000Z</time>
      </trkpt>
      <trkpt lat="45.91496" lon="4.83329">
        <ele>284.1</ele>
        <time>2013-07-21T15:31:21.000Z</time>
      </trkpt>
      <trkpt lat="45.91499" lon="4.83334">
        <ele>283.6</ele>
        <time>2013-07-21T15:31:22.000Z</time>
      </trkpt>
      <trkpt lat="45.91501" lon="4.83339">
        <ele>283.6</ele>
        <time>2013-07-21T15:31:23.000Z</time>
      </trkpt>
      <trkpt lat="45.91503" lon="4.83343">
        <ele>283.5</ele>
        <time>2013-07-21T15:31:24.000Z</time>
      </trkpt>
      <trkpt lat="45.91506" lon="4.83348">
        <ele>283.5</ele>
        <time>2013-07-21T15:31:25.000Z</time>
      </trkpt>
      <trkpt lat="45.91508" lon="4.83352">
        <ele>283.2</ele>
        <time>2013-07-21T15:31:26.000Z</time>
      </trkpt>
      <trkpt lat="45.91511" lon="4.83357">
        <ele>281.7</ele>
        <time>2013-07-21T15:31:27.000Z</time>
      </trkpt>
      <trkpt lat="45.91513" lon="4.83362">
        <ele>282.5</ele>
        <time>2013-07-21T15:31:28.000Z</time>
      </trkpt>
      <trkpt lat="45.91515" lon="4.83367">
        <ele>282.4</ele>
        <time>2013-07-21T15:31:29.000Z</time>
      </trkpt>
      <trkpt lat="45.91517" lon="4.83372">
        <ele>283.1</ele>
        <time>2013-07-21T15:31:30.000Z</time>
      </trkpt>
      <trkpt lat="45.91519" lon="4.83377">
        <ele>284</ele>
        <time>2013-07-21T15:31:31.000Z</time>
      </trkpt>
      <trkpt lat="45.91522" lon="4.83382">
        <ele>283.5</ele>
        <time>2013-07-21T15:31:32.000Z</time>
      </trkpt>
      <trkpt lat="45.91524" lon="4.83388">
        <ele>283.7</ele>
        <time>2013-07-21T15:31:33.000Z</time>
      </trkpt>
      <trkpt lat="45.91527" lon="4.83393">
        <ele>283.3</ele>
        <time>2013-07-21T15:31:34.000Z</time>
      </trkpt>
      <trkpt lat="45.91529" lon="4.83398">
        <ele>283.2</ele>
        <time>2013-07-21T15:31:35.000Z</time>
      </trkpt>
      <trkpt lat="45.91532" lon="4.83404">
        <ele>283.9</ele>
        <time>2013-07-21T15:31:36.000Z</time>
      </trkpt>
      <trkpt lat="45.91535" lon="4.83409">
        <ele>284.8</ele>
        <time>2013-07-21T15:31:37.000Z</time>
      </trkpt>
      <trkpt lat="45.91538" lon="4.83414">
        <ele>285.2</ele>
        <time>2013-07-21T15:31:38.000Z</time>
      </trkpt>
      <trkpt lat="45.9154" lon="4.83419">
        <ele>284.8</ele>
        <time>2013-07-21T15:31:39.000Z</time>
      </trkpt>
      <trkpt lat="45.91542" lon="4.83423">
        <ele>285.2</ele>
        <time>2013-07-21T15:31:40.000Z</time>
      </trkpt>
      <trkpt lat="45.91544" lon="4.83429">
        <ele>284.8</ele>
        <time>2013-07-21T15:31:41.000Z</time>
      </trkpt>
      <trkpt lat="45.91546" lon="4.83434">
        <ele>284.6</ele>
        <time>2013-07-21T15:31:42.000Z</time>
      </trkpt>
      <trkpt lat="45.91549" lon="4.83439">
        <ele>284.9</ele>
        <time>2013-07-21T15:31:43.000Z</time>
      </trkpt>
      <trkpt lat="45.91551" lon="4.83445">
        <ele>285.1</ele>
        <time>2013-07-21T15:31:44.000Z</time>
      </trkpt>
      <trkpt lat="45.91553" lon="4.8345">
        <ele>285.4</ele>
        <time>2013-07-21T15:31:45.000Z</time>
      </trkpt>
      <trkpt lat="45.91555" lon="4.83455">
        <ele>285.5</ele>
        <time>2013-07-21T15:31:46.000Z</time>
      </trkpt>
      <trkpt lat="45.91558" lon="4.8346">
        <ele>285.8</ele>
        <time>2013-07-21T15:31:47.000Z</time>
      </trkpt>
      <trkpt lat="45.91561" lon="4.83466">
        <ele>285.7</ele>
        <time>2013-07-21T15:31:48.000Z</time>
      </trkpt>
      <trkpt lat="45.91563" lon="4.83471">
        <ele>285.8</ele>
        <time>2013-07-21T15:31:49.000Z</time>
      </trkpt>
      <trkpt lat="45.91565" lon="4.83477">
        <ele>285.5</ele>
        <time>2013-07-21T15:31:50.000Z</time>
      </trkpt>
      <trkpt lat="45.91567" lon="4.83482">
        <ele>285.2</ele>
        <time>2013-07-21T15:31:51.000Z</time>
      </trkpt>
      <trkpt lat="45.91571" lon="4.8349">
        <ele>284.7</ele>
        <time>2013-07-21T15:31:52.497Z</time>
      </trkpt>
      <trkpt lat="45.91573" lon="4.83498">
        <ele>284.8</ele>
        <time>2013-07-21T15:31:54.000Z</time>
      </trkpt>
      <trkpt lat="45.91576" lon="4.83503">
        <ele>284.7</ele>
        <time>2013-07-21T15:31:55.000Z</time>
      </trkpt>
      <trkpt lat="45.91578" lon="4.83508">
        <ele>285</ele>
        <time>2013-07-21T15:31:56.000Z</time>
      </trkpt>
      <trkpt lat="45.9158" lon="4.83514">
        <ele>285.1</ele>
        <time>2013-07-21T15:31:57.000Z</time>
      </trkpt>
      <trkpt lat="45.91582" lon="4.83519">
        <ele>285.3</ele>
        <time>2013-07-21T15:31:58.000Z</time>
      </trkpt>
      <trkpt lat="45.91584" lon="4.83525">
        <ele>284.7</ele>
        <time>2013-07-21T15:31:59.000Z</time>
      </trkpt>
      <trkpt lat="45.91587" lon="4.8353">
        <ele>284.2</ele>
        <time>2013-07-21T15:32:00.000Z</time>
      </trkpt>
      <trkpt lat="45.91589" lon="4.83536">
        <ele>283.7</ele>
        <time>2013-07-21T15:32:01.000Z</time>
      </trkpt>
      <trkpt lat="45.91591" lon="4.83542">
        <ele>283.5</ele>
        <time>2013-07-21T15:32:02.000Z</time>
      </trkpt>
      <trkpt lat="45.91593" lon="4.83547">
        <ele>284</ele>
        <time>2013-07-21T15:32:03.000Z</time>
      </trkpt>
      <trkpt lat="45.91596" lon="4.83552">
        <ele>284.4</ele>
        <time>2013-07-21T15:32:04.000Z</time>
      </trkpt>
      <trkpt lat="45.91598" lon="4.83558">
        <ele>285.1</ele>
        <time>2013-07-21T15:32:05.000Z</time>
      </trkpt>
      <trkpt lat="45.916" lon="4.83562">
        <ele>286</ele>
        <time>2013-07-21T15:32:06.000Z</time>
      </trkpt>
      <trkpt lat="45.91603" lon="4.83568">
        <ele>286.5</ele>
        <time>2013-07-21T15:32:07.000Z</time>
      </trkpt>
      <trkpt lat="45.91606" lon="4.83573">
        <ele>286.3</ele>
        <time>2013-07-21T15:32:08.000Z</time>
      </trkpt>
      <trkpt lat="45.91609" lon="4.83579">
        <ele>286.7</ele>
        <time>2013-07-21T15:32:09.000Z</time>
      </trkpt>
      <trkpt lat="45.9161" lon="4.83583">
        <ele>286.9</ele>
        <time>2013-07-21T15:32:10.000Z</time>
      </trkpt>
      <trkpt lat="45.91613" lon="4.83587">
        <ele>286.9</ele>
        <time>2013-07-21T15:32:11.000Z</time>
      </trkpt>
      <trkpt lat="45.91615" lon="4.83592">
        <ele>286.9</ele>
        <time>2013-07-21T15:32:12.000Z</time>
      </trkpt>
      <trkpt lat="45.91617" lon="4.83597">
        <ele>286.9</ele>
        <time>2013-07-21T15:32:13.000Z</time>
      </trkpt>
      <trkpt lat="45.9162" lon="4.83604">
        <ele>287.4</ele>
        <time>2013-07-21T15:32:14.000Z</time>
      </trkpt>
      <trkpt lat="45.91623" lon="4.83609">
        <ele>287.8</ele>
        <time>2013-07-21T15:32:15.000Z</time>
      </trkpt>
      <trkpt lat="45.91625" lon="4.83614">
        <ele>288.2</ele>
        <time>2013-07-21T15:32:16.000Z</time>
      </trkpt>
      <trkpt lat="45.91627" lon="4.83621">
        <ele>288.5</ele>
        <time>2013-07-21T15:32:17.000Z</time>
      </trkpt>
      <trkpt lat="45.9163" lon="4.83627">
        <ele>289.3</ele>
        <time>2013-07-21T15:32:18.000Z</time>
      </trkpt>
      <trkpt lat="45.91633" lon="4.83632">
        <ele>289</ele>
        <time>2013-07-21T15:32:19.000Z</time>
      </trkpt>
      <trkpt lat="45.91635" lon="4.83637">
        <ele>289.2</ele>
        <time>2013-07-21T15:32:20.000Z</time>
      </trkpt>
      <trkpt lat="45.91637" lon="4.8364">
        <ele>290.3</ele>
        <time>2013-07-21T15:32:21.000Z</time>
      </trkpt>
      <trkpt lat="45.91639" lon="4.83645">
        <ele>289.9</ele>
        <time>2013-07-21T15:32:22.000Z</time>
      </trkpt>
      <trkpt lat="45.91641" lon="4.8365">
        <ele>289.8</ele>
        <time>2013-07-21T15:32:23.000Z</time>
      </trkpt>
      <trkpt lat="45.91643" lon="4.83654">
        <ele>289.8</ele>
        <time>2013-07-21T15:32:24.000Z</time>
      </trkpt>
      <trkpt lat="45.91645" lon="4.83658">
        <ele>288.9</ele>
        <time>2013-07-21T15:32:25.000Z</time>
      </trkpt>
      <trkpt lat="45.91648" lon="4.83662">
        <ele>288.6</ele>
        <time>2013-07-21T15:32:26.000Z</time>
      </trkpt>
      <trkpt lat="45.9165" lon="4.83666">
        <ele>288.4</ele>
        <time>2013-07-21T15:32:27.000Z</time>
      </trkpt>
      <trkpt lat="45.91654" lon="4.83662">
        <ele>289.6</ele>
        <time>2013-07-21T15:32:28.000Z</time>
      </trkpt>
      <trkpt lat="45.91657" lon="4.83663">
        <ele>290</ele>
        <time>2013-07-21T15:32:29.000Z</time>
      </trkpt>
      <trkpt lat="45.91658" lon="4.83657">
        <ele>290.9</ele>
        <time>2013-07-21T15:32:30.000Z</time>
      </trkpt>
      <trkpt lat="45.9166" lon="4.83655">
        <ele>291.1</ele>
        <time>2013-07-21T15:32:31.000Z</time>
      </trkpt>
      <trkpt lat="45.91662" lon="4.83652">
        <ele>291.5</ele>
        <time>2013-07-21T15:32:32.000Z</time>
      </trkpt>
      <trkpt lat="45.91664" lon="4.83649">
        <ele>291.6</ele>
        <time>2013-07-21T15:32:33.000Z</time>
      </trkpt>
      <trkpt lat="45.91667" lon="4.83645">
        <ele>292.4</ele>
        <time>2013-07-21T15:32:34.000Z</time>
      </trkpt>
      <trkpt lat="45.91669" lon="4.83641">
        <ele>292.7</ele>
        <time>2013-07-21T15:32:35.000Z</time>
      </trkpt>
      <trkpt lat="45.91671" lon="4.83638">
        <ele>292.9</ele>
        <time>2013-07-21T15:32:36.000Z</time>
      </trkpt>
      <trkpt lat="45.91674" lon="4.83634">
        <ele>293.1</ele>
        <time>2013-07-21T15:32:37.000Z</time>
      </trkpt>
      <trkpt lat="45.91676" lon="4.83631">
        <ele>293.1</ele>
        <time>2013-07-21T15:32:38.000Z</time>
      </trkpt>
      <trkpt lat="45.91678" lon="4.83627">
        <ele>292.8</ele>
        <time>2013-07-21T15:32:39.000Z</time>
      </trkpt>
      <trkpt lat="45.91681" lon="4.83624">
        <ele>292.8</ele>
        <time>2013-07-21T15:32:40.000Z</time>
      </trkpt>
      <trkpt lat="45.91684" lon="4.8362">
        <ele>292.8</ele>
        <time>2013-07-21T15:32:41.000Z</time>
      </trkpt>
      <trkpt lat="45.91687" lon="4.83616">
        <ele>293.1</ele>
        <time>2013-07-21T15:32:42.000Z</time>
      </trkpt>
      <trkpt lat="45.9169" lon="4.83613">
        <ele>293.4</ele>
        <time>2013-07-21T15:32:43.000Z</time>
      </trkpt>
      <trkpt lat="45.91693" lon="4.83609">
        <ele>293.2</ele>
        <time>2013-07-21T15:32:44.000Z</time>
      </trkpt>
      <trkpt lat="45.91696" lon="4.83605">
        <ele>293.8</ele>
        <time>2013-07-21T15:32:45.000Z</time>
      </trkpt>
      <trkpt lat="45.91698" lon="4.83601">
        <ele>294.4</ele>
        <time>2013-07-21T15:32:46.000Z</time>
      </trkpt>
      <trkpt lat="45.91701" lon="4.83598">
        <ele>294.5</ele>
        <time>2013-07-21T15:32:47.000Z</time>
      </trkpt>
      <trkpt lat="45.91704" lon="4.83594">
        <ele>294.6</ele>
        <time>2013-07-21T15:32:48.000Z</time>
      </trkpt>
      <trkpt lat="45.91707" lon="4.83591">
        <ele>294.8</ele>
        <time>2013-07-21T15:32:49.000Z</time>
      </trkpt>
      <trkpt lat="45.91709" lon="4.83588">
        <ele>294.9</ele>
        <time>2013-07-21T15:32:50.000Z</time>
      </trkpt>
      <trkpt lat="45.91712" lon="4.83585">
        <ele>295.3</ele>
        <time>2013-07-21T15:32:51.000Z</time>
      </trkpt>
      <trkpt lat="45.91717" lon="4.8358">
        <ele>295.2</ele>
        <time>2013-07-21T15:32:52.498Z</time>
      </trkpt>
      <trkpt lat="45.91721" lon="4.83575">
        <ele>295.5</ele>
        <time>2013-07-21T15:32:54.000Z</time>
      </trkpt>
      <trkpt lat="45.91723" lon="4.83572">
        <ele>295.6</ele>
        <time>2013-07-21T15:32:55.000Z</time>
      </trkpt>
      <trkpt lat="45.91726" lon="4.83568">
        <ele>295.5</ele>
        <time>2013-07-21T15:32:56.000Z</time>
      </trkpt>
      <trkpt lat="45.91728" lon="4.83565">
        <ele>294.2</ele>
        <time>2013-07-21T15:32:57.000Z</time>
      </trkpt>
      <trkpt lat="45.9173" lon="4.83561">
        <ele>293.2</ele>
        <time>2013-07-21T15:32:58.000Z</time>
      </trkpt>
      <trkpt lat="45.91733" lon="4.83558">
        <ele>293.1</ele>
        <time>2013-07-21T15:32:59.000Z</time>
      </trkpt>
      <trkpt lat="45.91735" lon="4.83554">
        <ele>293.5</ele>
        <time>2013-07-21T15:33:00.000Z</time>
      </trkpt>
      <trkpt lat="45.91737" lon="4.83551">
        <ele>293</ele>
        <time>2013-07-21T15:33:01.000Z</time>
      </trkpt>
      <trkpt lat="45.9174" lon="4.83548">
        <ele>293.5</ele>
        <time>2013-07-21T15:33:02.000Z</time>
      </trkpt>
      <trkpt lat="45.91742" lon="4.83545">
        <ele>292</ele>
        <time>2013-07-21T15:33:03.000Z</time>
      </trkpt>
      <trkpt lat="45.91745" lon="4.83541">
        <ele>292</ele>
        <time>2013-07-21T15:33:04.000Z</time>
      </trkpt>
      <trkpt lat="45.91749" lon="4.83539">
        <ele>292.2</ele>
        <time>2013-07-21T15:33:05.000Z</time>
      </trkpt>
      <trkpt lat="45.91751" lon="4.83536">
        <ele>292.3</ele>
        <time>2013-07-21T15:33:06.000Z</time>
      </trkpt>
      <trkpt lat="45.91754" lon="4.83538">
        <ele>292.8</ele>
        <time>2013-07-21T15:33:07.000Z</time>
      </trkpt>
      <trkpt lat="45.91756" lon="4.83538">
        <ele>292.9</ele>
        <time>2013-07-21T15:33:08.000Z</time>
      </trkpt>
      <trkpt lat="45.91759" lon="4.83539">
        <ele>289.7</ele>
        <time>2013-07-21T15:33:09.000Z</time>
      </trkpt>
      <trkpt lat="45.9176" lon="4.83539">
        <ele>288.9</ele>
        <time>2013-07-21T15:33:10.000Z</time>
      </trkpt>
      <trkpt lat="45.91764" lon="4.83539">
        <ele>288.8</ele>
        <time>2013-07-21T15:33:12.000Z</time>
      </trkpt>
      <trkpt lat="45.91766" lon="4.83538">
        <ele>288.6</ele>
        <time>2013-07-21T15:33:13.000Z</time>
      </trkpt>
      <trkpt lat="45.91768" lon="4.83536">
        <ele>291.1</ele>
        <time>2013-07-21T15:33:14.000Z</time>
      </trkpt>
      <trkpt lat="45.9177" lon="4.83533">
        <ele>292.6</ele>
        <time>2013-07-21T15:33:15.000Z</time>
      </trkpt>
      <trkpt lat="45.91773" lon="4.83531">
        <ele>294.4</ele>
        <time>2013-07-21T15:33:16.000Z</time>
      </trkpt>
      <trkpt lat="45.91774" lon="4.83528">
        <ele>296.3</ele>
        <time>2013-07-21T15:33:17.000Z</time>
      </trkpt>
      <trkpt lat="45.91776" lon="4.83526">
        <ele>296.6</ele>
        <time>2013-07-21T15:33:18.000Z</time>
      </trkpt>
      <trkpt lat="45.91779" lon="4.83523">
        <ele>297</ele>
        <time>2013-07-21T15:33:19.000Z</time>
      </trkpt>
      <trkpt lat="45.91782" lon="4.8352">
        <ele>298.8</ele>
        <time>2013-07-21T15:33:20.000Z</time>
      </trkpt>
      <trkpt lat="45.91784" lon="4.83517">
        <ele>299.3</ele>
        <time>2013-07-21T15:33:21.000Z</time>
      </trkpt>
      <trkpt lat="45.91787" lon="4.83514">
        <ele>298.8</ele>
        <time>2013-07-21T15:33:22.000Z</time>
      </trkpt>
      <trkpt lat="45.91791" lon="4.8351">
        <ele>298.3</ele>
        <time>2013-07-21T15:33:23.000Z</time>
      </trkpt>
      <trkpt lat="45.91794" lon="4.83506">
        <ele>297.8</ele>
        <time>2013-07-21T15:33:24.000Z</time>
      </trkpt>
      <trkpt lat="45.91797" lon="4.83503">
        <ele>296.9</ele>
        <time>2013-07-21T15:33:25.000Z</time>
      </trkpt>
      <trkpt lat="45.91803" lon="4.83497">
        <ele>297.2</ele>
        <time>2013-07-21T15:33:26.000Z</time>
      </trkpt>
      <trkpt lat="45.91807" lon="4.83493">
        <ele>297.5</ele>
        <time>2013-07-21T15:33:27.000Z</time>
      </trkpt>
      <trkpt lat="45.91811" lon="4.83489">
        <ele>297.1</ele>
        <time>2013-07-21T15:33:28.000Z</time>
      </trkpt>
      <trkpt lat="45.91817" lon="4.83485">
        <ele>296.6</ele>
        <time>2013-07-21T15:33:29.000Z</time>
      </trkpt>
      <trkpt lat="45.91822" lon="4.83481">
        <ele>296.4</ele>
        <time>2013-07-21T15:33:30.000Z</time>
      </trkpt>
      <trkpt lat="45.91827" lon="4.83477">
        <ele>295.8</ele>
        <time>2013-07-21T15:33:31.000Z</time>
      </trkpt>
      <trkpt lat="45.9183" lon="4.83474">
        <ele>295.5</ele>
        <time>2013-07-21T15:33:32.000Z</time>
      </trkpt>
      <trkpt lat="45.91837" lon="4.83473">
        <ele>295.3</ele>
        <time>2013-07-21T15:33:33.000Z</time>
      </trkpt>
      <trkpt lat="45.91843" lon="4.8347">
        <ele>295.2</ele>
        <time>2013-07-21T15:33:34.000Z</time>
      </trkpt>
      <trkpt lat="45.91848" lon="4.83468">
        <ele>294.8</ele>
        <time>2013-07-21T15:33:35.000Z</time>
      </trkpt>
      <trkpt lat="45.91853" lon="4.83465">
        <ele>293.8</ele>
        <time>2013-07-21T15:33:36.000Z</time>
      </trkpt>
      <trkpt lat="45.91858" lon="4.83463">
        <ele>293.1</ele>
        <time>2013-07-21T15:33:37.000Z</time>
      </trkpt>
      <trkpt lat="45.91865" lon="4.83461">
        <ele>289.8</ele>
        <time>2013-07-21T15:33:38.000Z</time>
      </trkpt>
      <trkpt lat="45.91871" lon="4.83458">
        <ele>288.9</ele>
        <time>2013-07-21T15:33:39.000Z</time>
      </trkpt>
      <trkpt lat="45.91875" lon="4.83456">
        <ele>288.7</ele>
        <time>2013-07-21T15:33:40.000Z</time>
      </trkpt>
      <trkpt lat="45.91879" lon="4.83454">
        <ele>288.5</ele>
        <time>2013-07-21T15:33:41.000Z</time>
      </trkpt>
      <trkpt lat="45.91883" lon="4.8345">
        <ele>288.4</ele>
        <time>2013-07-21T15:33:42.000Z</time>
      </trkpt>
      <trkpt lat="45.91888" lon="4.83447">
        <ele>288.2</ele>
        <time>2013-07-21T15:33:43.000Z</time>
      </trkpt>
      <trkpt lat="45.91892" lon="4.83441">
        <ele>289.4</ele>
        <time>2013-07-21T15:33:44.000Z</time>
      </trkpt>
      <trkpt lat="45.91896" lon="4.83439">
        <ele>289.7</ele>
        <time>2013-07-21T15:33:45.000Z</time>
      </trkpt>
      <trkpt lat="45.919" lon="4.83435">
        <ele>289.5</ele>
        <time>2013-07-21T15:33:46.000Z</time>
      </trkpt>
      <trkpt lat="45.91903" lon="4.83431">
        <ele>288.9</ele>
        <time>2013-07-21T15:33:47.000Z</time>
      </trkpt>
      <trkpt lat="45.91907" lon="4.83429">
        <ele>288.6</ele>
        <time>2013-07-21T15:33:48.000Z</time>
      </trkpt>
      <trkpt lat="45.91911" lon="4.83427">
        <ele>288.5</ele>
        <time>2013-07-21T15:33:49.000Z</time>
      </trkpt>
      <trkpt lat="45.91915" lon="4.83423">
        <ele>288.4</ele>
        <time>2013-07-21T15:33:50.000Z</time>
      </trkpt>
      <trkpt lat="45.91918" lon="4.83421">
        <ele>288.7</ele>
        <time>2013-07-21T15:33:51.000Z</time>
      </trkpt>
      <trkpt lat="45.91922" lon="4.83417">
        <ele>288.7</ele>
        <time>2013-07-21T15:33:52.456Z</time>
      </trkpt>
      <trkpt lat="45.91926" lon="4.83413">
        <ele>288.3</ele>
        <time>2013-07-21T15:33:54.000Z</time>
      </trkpt>
      <trkpt lat="45.91931" lon="4.83411">
        <ele>288.3</ele>
        <time>2013-07-21T15:33:55.000Z</time>
      </trkpt>
      <trkpt lat="45.91936" lon="4.83409">
        <ele>288.5</ele>
        <time>2013-07-21T15:33:56.000Z</time>
      </trkpt>
      <trkpt lat="45.9194" lon="4.83407">
        <ele>288.4</ele>
        <time>2013-07-21T15:33:57.000Z</time>
      </trkpt>
      <trkpt lat="45.91943" lon="4.83405">
        <ele>288.5</ele>
        <time>2013-07-21T15:33:58.000Z</time>
      </trkpt>
      <trkpt lat="45.91947" lon="4.83402">
        <ele>288.4</ele>
        <time>2013-07-21T15:33:59.000Z</time>
      </trkpt>
      <trkpt lat="45.9195" lon="4.83399">
        <ele>288.9</ele>
        <time>2013-07-21T15:34:00.000Z</time>
      </trkpt>
      <trkpt lat="45.91955" lon="4.83396">
        <ele>288.9</ele>
        <time>2013-07-21T15:34:01.000Z</time>
      </trkpt>
      <trkpt lat="45.91958" lon="4.83394">
        <ele>288.9</ele>
        <time>2013-07-21T15:34:02.000Z</time>
      </trkpt>
      <trkpt lat="45.91962" lon="4.83391">
        <ele>289</ele>
        <time>2013-07-21T15:34:03.000Z</time>
      </trkpt>
      <trkpt lat="45.91965" lon="4.83387">
        <ele>288.7</ele>
        <time>2013-07-21T15:34:04.000Z</time>
      </trkpt>
      <trkpt lat="45.91968" lon="4.83383">
        <ele>288.5</ele>
        <time>2013-07-21T15:34:05.000Z</time>
      </trkpt>
      <trkpt lat="45.91972" lon="4.83381">
        <ele>288.3</ele>
        <time>2013-07-21T15:34:06.000Z</time>
      </trkpt>
      <trkpt lat="45.91975" lon="4.83378">
        <ele>287.9</ele>
        <time>2013-07-21T15:34:07.000Z</time>
      </trkpt>
      <trkpt lat="45.91978" lon="4.83375">
        <ele>287.7</ele>
        <time>2013-07-21T15:34:08.000Z</time>
      </trkpt>
      <trkpt lat="45.9198" lon="4.83373">
        <ele>287.2</ele>
        <time>2013-07-21T15:34:09.000Z</time>
      </trkpt>
      <trkpt lat="45.91983" lon="4.83371">
        <ele>286.6</ele>
        <time>2013-07-21T15:34:10.000Z</time>
      </trkpt>
      <trkpt lat="45.91985" lon="4.83369">
        <ele>286.4</ele>
        <time>2013-07-21T15:34:11.000Z</time>
      </trkpt>
      <trkpt lat="45.91988" lon="4.83366">
        <ele>285.5</ele>
        <time>2013-07-21T15:34:12.000Z</time>
      </trkpt>
      <trkpt lat="45.91991" lon="4.83363">
        <ele>285.3</ele>
        <time>2013-07-21T15:34:13.000Z</time>
      </trkpt>
      <trkpt lat="45.91994" lon="4.8336">
        <ele>285.8</ele>
        <time>2013-07-21T15:34:14.000Z</time>
      </trkpt>
      <trkpt lat="45.91997" lon="4.83356">
        <ele>284.4</ele>
        <time>2013-07-21T15:34:15.000Z</time>
      </trkpt>
      <trkpt lat="45.92002" lon="4.83352">
        <ele>283.8</ele>
        <time>2013-07-21T15:34:16.000Z</time>
      </trkpt>
      <trkpt lat="45.92005" lon="4.83348">
        <ele>283.7</ele>
        <time>2013-07-21T15:34:17.000Z</time>
      </trkpt>
      <trkpt lat="45.92009" lon="4.83344">
        <ele>283.5</ele>
        <time>2013-07-21T15:34:18.000Z</time>
      </trkpt>
      <trkpt lat="45.92013" lon="4.83339">
        <ele>283.3</ele>
        <time>2013-07-21T15:34:19.000Z</time>
      </trkpt>
      <trkpt lat="45.92016" lon="4.83335">
        <ele>282.5</ele>
        <time>2013-07-21T15:34:20.000Z</time>
      </trkpt>
      <trkpt lat="45.92018" lon="4.83332">
        <ele>282.7</ele>
        <time>2013-07-21T15:34:21.000Z</time>
      </trkpt>
      <trkpt lat="45.92021" lon="4.83328">
        <ele>282.8</ele>
        <time>2013-07-21T15:34:22.000Z</time>
      </trkpt>
      <trkpt lat="45.92025" lon="4.83324">
        <ele>282.8</ele>
        <time>2013-07-21T15:34:23.000Z</time>
      </trkpt>
      <trkpt lat="45.92027" lon="4.8332">
        <ele>282.8</ele>
        <time>2013-07-21T15:34:24.000Z</time>
      </trkpt>
      <trkpt lat="45.92032" lon="4.83316">
        <ele>282.9</ele>
        <time>2013-07-21T15:34:25.000Z</time>
      </trkpt>
      <trkpt lat="45.92035" lon="4.83311">
        <ele>282.6</ele>
        <time>2013-07-21T15:34:26.000Z</time>
      </trkpt>
      <trkpt lat="45.92039" lon="4.83308">
        <ele>282.7</ele>
        <time>2013-07-21T15:34:27.000Z</time>
      </trkpt>
      <trkpt lat="45.92042" lon="4.83305">
        <ele>283.6</ele>
        <time>2013-07-21T15:34:28.000Z</time>
      </trkpt>
      <trkpt lat="45.92045" lon="4.83301">
        <ele>283.8</ele>
        <time>2013-07-21T15:34:29.000Z</time>
      </trkpt>
      <trkpt lat="45.92048" lon="4.83298">
        <ele>284.4</ele>
        <time>2013-07-21T15:34:30.000Z</time>
      </trkpt>
      <trkpt lat="45.92052" lon="4.83294">
        <ele>284.1</ele>
        <time>2013-07-21T15:34:31.000Z</time>
      </trkpt>
      <trkpt lat="45.92056" lon="4.8329">
        <ele>283.4</ele>
        <time>2013-07-21T15:34:32.000Z</time>
      </trkpt>
      <trkpt lat="45.9206" lon="4.83286">
        <ele>284.2</ele>
        <time>2013-07-21T15:34:33.000Z</time>
      </trkpt>
      <trkpt lat="45.92065" lon="4.83283">
        <ele>283.7</ele>
        <time>2013-07-21T15:34:34.000Z</time>
      </trkpt>
      <trkpt lat="45.92069" lon="4.83279">
        <ele>282.8</ele>
        <time>2013-07-21T15:34:35.000Z</time>
      </trkpt>
      <trkpt lat="45.92073" lon="4.83276">
        <ele>282.1</ele>
        <time>2013-07-21T15:34:36.000Z</time>
      </trkpt>
      <trkpt lat="45.92077" lon="4.83272">
        <ele>282.4</ele>
        <time>2013-07-21T15:34:37.000Z</time>
      </trkpt>
      <trkpt lat="45.92081" lon="4.8327">
        <ele>282.6</ele>
        <time>2013-07-21T15:34:38.000Z</time>
      </trkpt>
      <trkpt lat="45.92085" lon="4.83267">
        <ele>282.7</ele>
        <time>2013-07-21T15:34:39.000Z</time>
      </trkpt>
      <trkpt lat="45.9209" lon="4.83266">
        <ele>282</ele>
        <time>2013-07-21T15:34:40.000Z</time>
      </trkpt>
      <trkpt lat="45.92095" lon="4.83263">
        <ele>282.3</ele>
        <time>2013-07-21T15:34:41.000Z</time>
      </trkpt>
      <trkpt lat="45.921" lon="4.83261">
        <ele>282.4</ele>
        <time>2013-07-21T15:34:42.000Z</time>
      </trkpt>
      <trkpt lat="45.92106" lon="4.83259">
        <ele>282.6</ele>
        <time>2013-07-21T15:34:43.000Z</time>
      </trkpt>
      <trkpt lat="45.92111" lon="4.83256">
        <ele>282.3</ele>
        <time>2013-07-21T15:34:44.000Z</time>
      </trkpt>
      <trkpt lat="45.92117" lon="4.83253">
        <ele>281.8</ele>
        <time>2013-07-21T15:34:45.000Z</time>
      </trkpt>
      <trkpt lat="45.92122" lon="4.8325">
        <ele>282.4</ele>
        <time>2013-07-21T15:34:46.000Z</time>
      </trkpt>
      <trkpt lat="45.92126" lon="4.83246">
        <ele>281.3</ele>
        <time>2013-07-21T15:34:47.000Z</time>
      </trkpt>
      <trkpt lat="45.92131" lon="4.83241">
        <ele>280.9</ele>
        <time>2013-07-21T15:34:48.000Z</time>
      </trkpt>
      <trkpt lat="45.92135" lon="4.83237">
        <ele>280.4</ele>
        <time>2013-07-21T15:34:49.000Z</time>
      </trkpt>
      <trkpt lat="45.92139" lon="4.83233">
        <ele>280.1</ele>
        <time>2013-07-21T15:34:50.000Z</time>
      </trkpt>
      <trkpt lat="45.92143" lon="4.83229">
        <ele>281.1</ele>
        <time>2013-07-21T15:34:51.000Z</time>
      </trkpt>
      <trkpt lat="45.92147" lon="4.83224">
        <ele>281.9</ele>
        <time>2013-07-21T15:34:52.455Z</time>
      </trkpt>
      <trkpt lat="45.92151" lon="4.83219">
        <ele>278.5</ele>
        <time>2013-07-21T15:34:54.000Z</time>
      </trkpt>
      <trkpt lat="45.92153" lon="4.83215">
        <ele>277.9</ele>
        <time>2013-07-21T15:34:55.000Z</time>
      </trkpt>
      <trkpt lat="45.92154" lon="4.83212">
        <ele>277.1</ele>
        <time>2013-07-21T15:34:56.000Z</time>
      </trkpt>
      <trkpt lat="45.92155" lon="4.83208">
        <ele>276.6</ele>
        <time>2013-07-21T15:34:57.000Z</time>
      </trkpt>
      <trkpt lat="45.92155" lon="4.83202">
        <ele>279.5</ele>
        <time>2013-07-21T15:34:58.000Z</time>
      </trkpt>
      <trkpt lat="45.92156" lon="4.83199">
        <ele>279.8</ele>
        <time>2013-07-21T15:34:59.000Z</time>
      </trkpt>
      <trkpt lat="45.92157" lon="4.83194">
        <ele>279</ele>
        <time>2013-07-21T15:35:00.000Z</time>
      </trkpt>
      <trkpt lat="45.92158" lon="4.83189">
        <ele>278.7</ele>
        <time>2013-07-21T15:35:01.000Z</time>
      </trkpt>
      <trkpt lat="45.92159" lon="4.83185">
        <ele>278.6</ele>
        <time>2013-07-21T15:35:02.000Z</time>
      </trkpt>
      <trkpt lat="45.9216" lon="4.83181">
        <ele>278.2</ele>
        <time>2013-07-21T15:35:03.000Z</time>
      </trkpt>
      <trkpt lat="45.92161" lon="4.83179">
        <ele>275.6</ele>
        <time>2013-07-21T15:35:04.000Z</time>
      </trkpt>
      <trkpt lat="45.92164" lon="4.83179">
        <ele>275</ele>
        <time>2013-07-21T15:35:06.000Z</time>
      </trkpt>
      <trkpt lat="45.92166" lon="4.83181">
        <ele>274.1</ele>
        <time>2013-07-21T15:35:07.000Z</time>
      </trkpt>
      <trkpt lat="45.92168" lon="4.83185">
        <ele>273.8</ele>
        <time>2013-07-21T15:35:08.000Z</time>
      </trkpt>
      <trkpt lat="45.92171" lon="4.83189">
        <ele>273</ele>
        <time>2013-07-21T15:35:09.000Z</time>
      </trkpt>
      <trkpt lat="45.92173" lon="4.83193">
        <ele>272.7</ele>
        <time>2013-07-21T15:35:10.000Z</time>
      </trkpt>
      <trkpt lat="45.92174" lon="4.83198">
        <ele>272.7</ele>
        <time>2013-07-21T15:35:11.000Z</time>
      </trkpt>
      <trkpt lat="45.92176" lon="4.83203">
        <ele>273.1</ele>
        <time>2013-07-21T15:35:12.000Z</time>
      </trkpt>
      <trkpt lat="45.92177" lon="4.83207">
        <ele>273.4</ele>
        <time>2013-07-21T15:35:13.000Z</time>
      </trkpt>
      <trkpt lat="45.92178" lon="4.83211">
        <ele>272.8</ele>
        <time>2013-07-21T15:35:14.000Z</time>
      </trkpt>
      <trkpt lat="45.92179" lon="4.83215">
        <ele>272.6</ele>
        <time>2013-07-21T15:35:15.000Z</time>
      </trkpt>
      <trkpt lat="45.92179" lon="4.83218">
        <ele>272.9</ele>
        <time>2013-07-21T15:35:16.000Z</time>
      </trkpt>
      <trkpt lat="45.9218" lon="4.83222">
        <ele>271.6</ele>
        <time>2013-07-21T15:35:17.000Z</time>
      </trkpt>
      <trkpt lat="45.92181" lon="4.83225">
        <ele>271.5</ele>
        <time>2013-07-21T15:35:18.000Z</time>
      </trkpt>
      <trkpt lat="45.9218" lon="4.8323">
        <ele>271.4</ele>
        <time>2013-07-21T15:35:19.000Z</time>
      </trkpt>
      <trkpt lat="45.92181" lon="4.83234">
        <ele>271</ele>
        <time>2013-07-21T15:35:20.000Z</time>
      </trkpt>
      <trkpt lat="45.92182" lon="4.83239">
        <ele>270.9</ele>
        <time>2013-07-21T15:35:21.000Z</time>
      </trkpt>
      <trkpt lat="45.92182" lon="4.83243">
        <ele>270.3</ele>
        <time>2013-07-21T15:35:22.000Z</time>
      </trkpt>
      <trkpt lat="45.92183" lon="4.83247">
        <ele>270.4</ele>
        <time>2013-07-21T15:35:23.000Z</time>
      </trkpt>
      <trkpt lat="45.92184" lon="4.83251">
        <ele>269.6</ele>
        <time>2013-07-21T15:35:24.000Z</time>
      </trkpt>
      <trkpt lat="45.92184" lon="4.83256">
        <ele>269.7</ele>
        <time>2013-07-21T15:35:25.000Z</time>
      </trkpt>
      <trkpt lat="45.92185" lon="4.83259">
        <ele>269.2</ele>
        <time>2013-07-21T15:35:26.000Z</time>
      </trkpt>
      <trkpt lat="45.92185" lon="4.83263">
        <ele>269</ele>
        <time>2013-07-21T15:35:27.000Z</time>
      </trkpt>
      <trkpt lat="45.92187" lon="4.83268">
        <ele>269.3</ele>
        <time>2013-07-21T15:35:29.000Z</time>
      </trkpt>
      <trkpt lat="45.92188" lon="4.83271">
        <ele>269.3</ele>
        <time>2013-07-21T15:35:30.000Z</time>
      </trkpt>
      <trkpt lat="45.92191" lon="4.83276">
        <ele>268.9</ele>
        <time>2013-07-21T15:35:32.000Z</time>
      </trkpt>
      <trkpt lat="45.92192" lon="4.83278">
        <ele>268.3</ele>
        <time>2013-07-21T15:35:33.000Z</time>
      </trkpt>
      <trkpt lat="45.92194" lon="4.83283">
        <ele>269.5</ele>
        <time>2013-07-21T15:35:35.000Z</time>
      </trkpt>
      <trkpt lat="45.92195" lon="4.83286">
        <ele>270.2</ele>
        <time>2013-07-21T15:35:36.000Z</time>
      </trkpt>
      <trkpt lat="45.92197" lon="4.83291">
        <ele>269.8</ele>
        <time>2013-07-21T15:35:38.000Z</time>
      </trkpt>
      <trkpt lat="45.92198" lon="4.83293">
        <ele>269.4</ele>
        <time>2013-07-21T15:35:39.000Z</time>
      </trkpt>
      <trkpt lat="45.922" lon="4.83298">
        <ele>270.1</ele>
        <time>2013-07-21T15:35:41.000Z</time>
      </trkpt>
      <trkpt lat="45.92202" lon="4.833">
        <ele>270.3</ele>
        <time>2013-07-21T15:35:42.000Z</time>
      </trkpt>
      <trkpt lat="45.92204" lon="4.83304">
        <ele>270.5</ele>
        <time>2013-07-21T15:35:44.000Z</time>
      </trkpt>
      <trkpt lat="45.92204" lon="4.83305">
        <ele>270.8</ele>
        <time>2013-07-21T15:35:45.000Z</time>
      </trkpt>
      <trkpt lat="45.92206" lon="4.83309">
        <ele>270.5</ele>
        <time>2013-07-21T15:35:47.000Z</time>
      </trkpt>
      <trkpt lat="45.92207" lon="4.83311">
        <ele>270.5</ele>
        <time>2013-07-21T15:35:48.000Z</time>
      </trkpt>
      <trkpt lat="45.9221" lon="4.83314">
        <ele>270.9</ele>
        <time>2013-07-21T15:35:50.000Z</time>
      </trkpt>
      <trkpt lat="45.92211" lon="4.83315">
        <ele>271.3</ele>
        <time>2013-07-21T15:35:51.000Z</time>
      </trkpt>
      <trkpt lat="45.92214" lon="4.83317">
        <ele>271.5</ele>
        <time>2013-07-21T15:35:53.410Z</time>
      </trkpt>
      <trkpt lat="45.92216" lon="4.83318">
        <ele>271.6</ele>
        <time>2013-07-21T15:35:55.000Z</time>
      </trkpt>
      <trkpt lat="45.9222" lon="4.83319">
        <ele>273.9</ele>
        <time>2013-07-21T15:35:57.000Z</time>
      </trkpt>
      <trkpt lat="45.92222" lon="4.8332">
        <ele>274.4</ele>
        <time>2013-07-21T15:35:58.000Z</time>
      </trkpt>
      <trkpt lat="45.92224" lon="4.83321">
        <ele>275.1</ele>
        <time>2013-07-21T15:35:59.000Z</time>
      </trkpt>
      <trkpt lat="45.92227" lon="4.83322">
        <ele>275.7</ele>
        <time>2013-07-21T15:36:00.000Z</time>
      </trkpt>
      <trkpt lat="45.92229" lon="4.83323">
        <ele>276.9</ele>
        <time>2013-07-21T15:36:01.000Z</time>
      </trkpt>
      <trkpt lat="45.92232" lon="4.83325">
        <ele>278.7</ele>
        <time>2013-07-21T15:36:02.000Z</time>
      </trkpt>
      <trkpt lat="45.92234" lon="4.83327">
        <ele>276.8</ele>
        <time>2013-07-21T15:36:03.000Z</time>
      </trkpt>
      <trkpt lat="45.92237" lon="4.83329">
        <ele>277.2</ele>
        <time>2013-07-21T15:36:04.000Z</time>
      </trkpt>
      <trkpt lat="45.92238" lon="4.83332">
        <ele>277.1</ele>
        <time>2013-07-21T15:36:05.000Z</time>
      </trkpt>
      <trkpt lat="45.9224" lon="4.83333">
        <ele>277</ele>
        <time>2013-07-21T15:36:06.000Z</time>
      </trkpt>
      <trkpt lat="45.92244" lon="4.83337">
        <ele>277.4</ele>
        <time>2013-07-21T15:36:08.000Z</time>
      </trkpt>
      <trkpt lat="45.92246" lon="4.83339">
        <ele>276.8</ele>
        <time>2013-07-21T15:36:09.000Z</time>
      </trkpt>
      <trkpt lat="45.92247" lon="4.8334">
        <ele>276.1</ele>
        <time>2013-07-21T15:36:10.000Z</time>
      </trkpt>
      <trkpt lat="45.92249" lon="4.83343">
        <ele>276.6</ele>
        <time>2013-07-21T15:36:11.000Z</time>
      </trkpt>
      <trkpt lat="45.92251" lon="4.83345">
        <ele>276.6</ele>
        <time>2013-07-21T15:36:12.000Z</time>
      </trkpt>
      <trkpt lat="45.92253" lon="4.83347">
        <ele>275.5</ele>
        <time>2013-07-21T15:36:13.000Z</time>
      </trkpt>
      <trkpt lat="45.92254" lon="4.8335">
        <ele>274.8</ele>
        <time>2013-07-21T15:36:14.000Z</time>
      </trkpt>
      <trkpt lat="45.92257" lon="4.83356">
        <ele>272.4</ele>
        <time>2013-07-21T15:36:15.000Z</time>
      </trkpt>
      <trkpt lat="45.92259" lon="4.83359">
        <ele>272</ele>
        <time>2013-07-21T15:36:16.000Z</time>
      </trkpt>
      <trkpt lat="45.9226" lon="4.83363">
        <ele>271.7</ele>
        <time>2013-07-21T15:36:17.000Z</time>
      </trkpt>
      <trkpt lat="45.92262" lon="4.83366">
        <ele>271.8</ele>
        <time>2013-07-21T15:36:18.000Z</time>
      </trkpt>
      <trkpt lat="45.92264" lon="4.83369">
        <ele>272</ele>
        <time>2013-07-21T15:36:19.000Z</time>
      </trkpt>
      <trkpt lat="45.92266" lon="4.83371">
        <ele>273.2</ele>
        <time>2013-07-21T15:36:20.000Z</time>
      </trkpt>
      <trkpt lat="45.92267" lon="4.83374">
        <ele>273</ele>
        <time>2013-07-21T15:36:21.000Z</time>
      </trkpt>
      <trkpt lat="45.9227" lon="4.83378">
        <ele>273.6</ele>
        <time>2013-07-21T15:36:23.000Z</time>
      </trkpt>
      <trkpt lat="45.92271" lon="4.83381">
        <ele>273.1</ele>
        <time>2013-07-21T15:36:24.000Z</time>
      </trkpt>
      <trkpt lat="45.92272" lon="4.83384">
        <ele>273.3</ele>
        <time>2013-07-21T15:36:25.000Z</time>
      </trkpt>
      <trkpt lat="45.92273" lon="4.83386">
        <ele>272.3</ele>
        <time>2013-07-21T15:36:26.000Z</time>
      </trkpt>
      <trkpt lat="45.92275" lon="4.83389">
        <ele>272.7</ele>
        <time>2013-07-21T15:36:27.000Z</time>
      </trkpt>
      <trkpt lat="45.92276" lon="4.83391">
        <ele>272.6</ele>
        <time>2013-07-21T15:36:28.000Z</time>
      </trkpt>
      <trkpt lat="45.92278" lon="4.83394">
        <ele>272.2</ele>
        <time>2013-07-21T15:36:29.000Z</time>
      </trkpt>
      <trkpt lat="45.9228" lon="4.83398">
        <ele>272</ele>
        <time>2013-07-21T15:36:30.000Z</time>
      </trkpt>
      <trkpt lat="45.92281" lon="4.83401">
        <ele>272.1</ele>
        <time>2013-07-21T15:36:31.000Z</time>
      </trkpt>
      <trkpt lat="45.92283" lon="4.83403">
        <ele>272.2</ele>
        <time>2013-07-21T15:36:32.000Z</time>
      </trkpt>
      <trkpt lat="45.92285" lon="4.83408">
        <ele>272.8</ele>
        <time>2013-07-21T15:36:34.000Z</time>
      </trkpt>
      <trkpt lat="45.92287" lon="4.8341">
        <ele>272.9</ele>
        <time>2013-07-21T15:36:35.000Z</time>
      </trkpt>
      <trkpt lat="45.92289" lon="4.83414">
        <ele>273.3</ele>
        <time>2013-07-21T15:36:37.000Z</time>
      </trkpt>
      <trkpt lat="45.9229" lon="4.83415">
        <ele>273.4</ele>
        <time>2013-07-21T15:36:38.000Z</time>
      </trkpt>
      <trkpt lat="45.92292" lon="4.83418">
        <ele>273.4</ele>
        <time>2013-07-21T15:36:40.000Z</time>
      </trkpt>
      <trkpt lat="45.92294" lon="4.83419">
        <ele>273.4</ele>
        <time>2013-07-21T15:36:41.000Z</time>
      </trkpt>
      <trkpt lat="45.92297" lon="4.83422">
        <ele>273</ele>
        <time>2013-07-21T15:36:43.000Z</time>
      </trkpt>
      <trkpt lat="45.92299" lon="4.83423">
        <ele>272.5</ele>
        <time>2013-07-21T15:36:44.000Z</time>
      </trkpt>
      <trkpt lat="45.92302" lon="4.83426">
        <ele>272.9</ele>
        <time>2013-07-21T15:36:46.000Z</time>
      </trkpt>
      <trkpt lat="45.92303" lon="4.83428">
        <ele>273.2</ele>
        <time>2013-07-21T15:36:47.000Z</time>
      </trkpt>
      <trkpt lat="45.92306" lon="4.83432">
        <ele>275.4</ele>
        <time>2013-07-21T15:36:50.000Z</time>
      </trkpt>
      <trkpt lat="45.92307" lon="4.83433">
        <ele>276.8</ele>
        <time>2013-07-21T15:36:51.000Z</time>
      </trkpt>
      <trkpt lat="45.92309" lon="4.83428">
        <ele>281.3</ele>
        <time>2013-07-21T15:37:00.000Z</time>
      </trkpt>
      <trkpt lat="45.9231" lon="4.83426">
        <ele>281.1</ele>
        <time>2013-07-21T15:37:01.000Z</time>
      </trkpt>
      <trkpt lat="45.92312" lon="4.83421">
        <ele>283.3</ele>
        <time>2013-07-21T15:37:04.000Z</time>
      </trkpt>
      <trkpt lat="45.92313" lon="4.83419">
        <ele>283</ele>
        <time>2013-07-21T15:37:05.000Z</time>
      </trkpt>
      <trkpt lat="45.92314" lon="4.83414">
        <ele>282.1</ele>
        <time>2013-07-21T15:37:08.000Z</time>
      </trkpt>
      <trkpt lat="45.92314" lon="4.83412">
        <ele>282.5</ele>
        <time>2013-07-21T15:37:09.000Z</time>
      </trkpt>
      <trkpt lat="45.92315" lon="4.83408">
        <ele>282.8</ele>
        <time>2013-07-21T15:37:11.000Z</time>
      </trkpt>
      <trkpt lat="45.92317" lon="4.83407">
        <ele>283.9</ele>
        <time>2013-07-21T15:37:12.000Z</time>
      </trkpt>
      <trkpt lat="45.92319" lon="4.83406">
        <ele>281.8</ele>
        <time>2013-07-21T15:37:13.000Z</time>
      </trkpt>
      <trkpt lat="45.92322" lon="4.83405">
        <ele>281.5</ele>
        <time>2013-07-21T15:37:14.000Z</time>
      </trkpt>
      <trkpt lat="45.92325" lon="4.83406">
        <ele>282.3</ele>
        <time>2013-07-21T15:37:16.000Z</time>
      </trkpt>
      <trkpt lat="45.92326" lon="4.83407">
        <ele>282.6</ele>
        <time>2013-07-21T15:37:17.000Z</time>
      </trkpt>
      <trkpt lat="45.92326" lon="4.83412">
        <ele>289.1</ele>
        <time>2013-07-21T15:37:22.000Z</time>
      </trkpt>
      <trkpt lat="45.92324" lon="4.83413">
        <ele>289.4</ele>
        <time>2013-07-21T15:37:23.000Z</time>
      </trkpt>
      <trkpt lat="45.92322" lon="4.83416">
        <ele>287.1</ele>
        <time>2013-07-21T15:37:25.000Z</time>
      </trkpt>
      <trkpt lat="45.92321" lon="4.83418">
        <ele>286.4</ele>
        <time>2013-07-21T15:37:26.000Z</time>
      </trkpt>
      <trkpt lat="45.9232" lon="4.83424">
        <ele>284.3</ele>
        <time>2013-07-21T15:37:29.000Z</time>
      </trkpt>
      <trkpt lat="45.9232" lon="4.83426">
        <ele>284</ele>
        <time>2013-07-21T15:37:30.000Z</time>
      </trkpt>
      <trkpt lat="45.92321" lon="4.83431">
        <ele>285.5</ele>
        <time>2013-07-21T15:37:32.000Z</time>
      </trkpt>
      <trkpt lat="45.92321" lon="4.83433">
        <ele>285.4</ele>
        <time>2013-07-21T15:37:33.000Z</time>
      </trkpt>
      <trkpt lat="45.92322" lon="4.83437">
        <ele>285</ele>
        <time>2013-07-21T15:37:35.000Z</time>
      </trkpt>
      <trkpt lat="45.92322" lon="4.8344">
        <ele>284.8</ele>
        <time>2013-07-21T15:37:36.000Z</time>
      </trkpt>
      <trkpt lat="45.92322" lon="4.83443">
        <ele>284.3</ele>
        <time>2013-07-21T15:37:37.000Z</time>
      </trkpt>
      <trkpt lat="45.92323" lon="4.83447">
        <ele>284.4</ele>
        <time>2013-07-21T15:37:38.000Z</time>
      </trkpt>
      <trkpt lat="45.92323" lon="4.8345">
        <ele>284.6</ele>
        <time>2013-07-21T15:37:39.000Z</time>
      </trkpt>
      <trkpt lat="45.92324" lon="4.83453">
        <ele>285.1</ele>
        <time>2013-07-21T15:37:40.000Z</time>
      </trkpt>
      <trkpt lat="45.92324" lon="4.83457">
        <ele>285.5</ele>
        <time>2013-07-21T15:37:41.000Z</time>
      </trkpt>
      <trkpt lat="45.92325" lon="4.83459">
        <ele>285.2</ele>
        <time>2013-07-21T15:37:42.000Z</time>
      </trkpt>
      <trkpt lat="45.92325" lon="4.83463">
        <ele>286.3</ele>
        <time>2013-07-21T15:37:43.000Z</time>
      </trkpt>
      <trkpt lat="45.92324" lon="4.83466">
        <ele>285.8</ele>
        <time>2013-07-21T15:37:44.000Z</time>
      </trkpt>
      <trkpt lat="45.92324" lon="4.83471">
        <ele>287.3</ele>
        <time>2013-07-21T15:37:46.000Z</time>
      </trkpt>
      <trkpt lat="45.92325" lon="4.83473">
        <ele>287.7</ele>
        <time>2013-07-21T15:37:47.000Z</time>
      </trkpt>
      <trkpt lat="45.92327" lon="4.83478">
        <ele>292</ele>
        <time>2013-07-21T15:37:54.000Z</time>
      </trkpt>
      <trkpt lat="45.92328" lon="4.83478">
        <ele>294.5</ele>
        <time>2013-07-21T15:37:55.000Z</time>
      </trkpt>
      <trkpt lat="45.9233" lon="4.83473">
        <ele>300.9</ele>
        <time>2013-07-21T15:37:58.000Z</time>
      </trkpt>
      <trkpt lat="45.92331" lon="4.83471">
        <ele>302.1</ele>
        <time>2013-07-21T15:37:59.000Z</time>
      </trkpt>
      <trkpt lat="45.92334" lon="4.8347">
        <ele>300.5</ele>
        <time>2013-07-21T15:38:01.000Z</time>
      </trkpt>
      <trkpt lat="45.92336" lon="4.8347">
        <ele>299.9</ele>
        <time>2013-07-21T15:38:02.000Z</time>
      </trkpt>
      <trkpt lat="45.92341" lon="4.8347">
        <ele>300</ele>
        <time>2013-07-21T15:38:04.000Z</time>
      </trkpt>
      <trkpt lat="45.92343" lon="4.8347">
        <ele>300.7</ele>
        <time>2013-07-21T15:38:05.000Z</time>
      </trkpt>
      <trkpt lat="45.92346" lon="4.83473">
        <ele>296.9</ele>
        <time>2013-07-21T15:38:06.000Z</time>
      </trkpt>
      <trkpt lat="45.92348" lon="4.83473">
        <ele>295.3</ele>
        <time>2013-07-21T15:38:07.000Z</time>
      </trkpt>
      <trkpt lat="45.92351" lon="4.83474">
        <ele>294.4</ele>
        <time>2013-07-21T15:38:08.000Z</time>
      </trkpt>
      <trkpt lat="45.92354" lon="4.83475">
        <ele>297.4</ele>
        <time>2013-07-21T15:38:09.000Z</time>
      </trkpt>
      <trkpt lat="45.92356" lon="4.83475">
        <ele>298.4</ele>
        <time>2013-07-21T15:38:10.000Z</time>
      </trkpt>
      <trkpt lat="45.92358" lon="4.83475">
        <ele>298.6</ele>
        <time>2013-07-21T15:38:11.000Z</time>
      </trkpt>
      <trkpt lat="45.92362" lon="4.83475">
        <ele>298.7</ele>
        <time>2013-07-21T15:38:13.000Z</time>
      </trkpt>
      <trkpt lat="45.92364" lon="4.83475">
        <ele>299</ele>
        <time>2013-07-21T15:38:14.000Z</time>
      </trkpt>
      <trkpt lat="45.92366" lon="4.83472">
        <ele>307.2</ele>
        <time>2013-07-21T15:38:16.000Z</time>
      </trkpt>
      <trkpt lat="45.92368" lon="4.83471">
        <ele>308.7</ele>
        <time>2013-07-21T15:38:17.000Z</time>
      </trkpt>
      <trkpt lat="45.9237" lon="4.83467">
        <ele>310.4</ele>
        <time>2013-07-21T15:38:19.000Z</time>
      </trkpt>
      <trkpt lat="45.92372" lon="4.83465">
        <ele>310.9</ele>
        <time>2013-07-21T15:38:20.000Z</time>
      </trkpt>
      <trkpt lat="45.92375" lon="4.83464">
        <ele>310.9</ele>
        <time>2013-07-21T15:38:22.000Z</time>
      </trkpt>
      <trkpt lat="45.92378" lon="4.83463">
        <ele>310.9</ele>
        <time>2013-07-21T15:38:23.000Z</time>
      </trkpt>
      <trkpt lat="45.9238" lon="4.83463">
        <ele>311.2</ele>
        <time>2013-07-21T15:38:24.000Z</time>
      </trkpt>
      <trkpt lat="45.92383" lon="4.83463">
        <ele>310.8</ele>
        <time>2013-07-21T15:38:25.000Z</time>
      </trkpt>
      <trkpt lat="45.92385" lon="4.83464">
        <ele>310.7</ele>
        <time>2013-07-21T15:38:26.000Z</time>
      </trkpt>
      <trkpt lat="45.92387" lon="4.83464">
        <ele>310.5</ele>
        <time>2013-07-21T15:38:27.000Z</time>
      </trkpt>
      <trkpt lat="45.9239" lon="4.83464">
        <ele>312.1</ele>
        <time>2013-07-21T15:38:28.000Z</time>
      </trkpt>
      <trkpt lat="45.92392" lon="4.83465">
        <ele>312.6</ele>
        <time>2013-07-21T15:38:29.000Z</time>
      </trkpt>
      <trkpt lat="45.92396" lon="4.83465">
        <ele>314.2</ele>
        <time>2013-07-21T15:38:31.000Z</time>
      </trkpt>
      <trkpt lat="45.92398" lon="4.83465">
        <ele>315.3</ele>
        <time>2013-07-21T15:38:32.000Z</time>
      </trkpt>
      <trkpt lat="45.92402" lon="4.83466">
        <ele>316.9</ele>
        <time>2013-07-21T15:38:34.000Z</time>
      </trkpt>
      <trkpt lat="45.92404" lon="4.83467">
        <ele>317</ele>
        <time>2013-07-21T15:38:35.000Z</time>
      </trkpt>
      <trkpt lat="45.92407" lon="4.83466">
        <ele>318.5</ele>
        <time>2013-07-21T15:38:37.000Z</time>
      </trkpt>
      <trkpt lat="45.92409" lon="4.83465">
        <ele>318.3</ele>
        <time>2013-07-21T15:38:38.000Z</time>
      </trkpt>
      <trkpt lat="45.92413" lon="4.83464">
        <ele>317.5</ele>
        <time>2013-07-21T15:38:40.000Z</time>
      </trkpt>
      <trkpt lat="45.92414" lon="4.83464">
        <ele>318.1</ele>
        <time>2013-07-21T15:38:41.000Z</time>
      </trkpt>
      <trkpt lat="45.92418" lon="4.83465">
        <ele>319.2</ele>
        <time>2013-07-21T15:38:43.000Z</time>
      </trkpt>
      <trkpt lat="45.9242" lon="4.83466">
        <ele>319.5</ele>
        <time>2013-07-21T15:38:44.000Z</time>
      </trkpt>
      <trkpt lat="45.92423" lon="4.83467">
        <ele>321.5</ele>
        <time>2013-07-21T15:38:46.000Z</time>
      </trkpt>
      <trkpt lat="45.92425" lon="4.83467">
        <ele>321.9</ele>
        <time>2013-07-21T15:38:47.000Z</time>
      </trkpt>
      <trkpt lat="45.92428" lon="4.83467">
        <ele>322.3</ele>
        <time>2013-07-21T15:38:49.000Z</time>
      </trkpt>
      <trkpt lat="45.9243" lon="4.83466">
        <ele>327.1</ele>
        <time>2013-07-21T15:38:50.000Z</time>
      </trkpt>
      <trkpt lat="45.92432" lon="4.83466">
        <ele>328.6</ele>
        <time>2013-07-21T15:38:51.000Z</time>
      </trkpt>
      <trkpt lat="45.92434" lon="4.83466">
        <ele>329.2</ele>
        <time>2013-07-21T15:38:52.636Z</time>
      </trkpt>
      <trkpt lat="45.92438" lon="4.83466">
        <ele>332.1</ele>
        <time>2013-07-21T15:38:55.000Z</time>
      </trkpt>
      <trkpt lat="45.92441" lon="4.83468">
        <ele>330.9</ele>
        <time>2013-07-21T15:38:56.000Z</time>
      </trkpt>
      <trkpt lat="45.92444" lon="4.83468">
        <ele>331.4</ele>
        <time>2013-07-21T15:38:58.000Z</time>
      </trkpt>
      <trkpt lat="45.92446" lon="4.83467">
        <ele>332</ele>
        <time>2013-07-21T15:38:59.000Z</time>
      </trkpt>
      <trkpt lat="45.92449" lon="4.83467">
        <ele>332.2</ele>
        <time>2013-07-21T15:39:01.000Z</time>
      </trkpt>
      <trkpt lat="45.92451" lon="4.83466">
        <ele>332.6</ele>
        <time>2013-07-21T15:39:02.000Z</time>
      </trkpt>
      <trkpt lat="45.92455" lon="4.83465">
        <ele>333</ele>
        <time>2013-07-21T15:39:04.000Z</time>
      </trkpt>
      <trkpt lat="45.92456" lon="4.83465">
        <ele>333</ele>
        <time>2013-07-21T15:39:05.000Z</time>
      </trkpt>
      <trkpt lat="45.9246" lon="4.83464">
        <ele>332.5</ele>
        <time>2013-07-21T15:39:07.000Z</time>
      </trkpt>
      <trkpt lat="45.92462" lon="4.83464">
        <ele>332.2</ele>
        <time>2013-07-21T15:39:08.000Z</time>
      </trkpt>
      <trkpt lat="45.92463" lon="4.83463">
        <ele>332.2</ele>
        <time>2013-07-21T15:39:09.000Z</time>
      </trkpt>
      <trkpt lat="45.92466" lon="4.83464">
        <ele>332.6</ele>
        <time>2013-07-21T15:39:10.000Z</time>
      </trkpt>
      <trkpt lat="45.92468" lon="4.83463">
        <ele>332.7</ele>
        <time>2013-07-21T15:39:11.000Z</time>
      </trkpt>
      <trkpt lat="45.92472" lon="4.83463">
        <ele>333.2</ele>
        <time>2013-07-21T15:39:12.000Z</time>
      </trkpt>
      <trkpt lat="45.92474" lon="4.83463">
        <ele>333.2</ele>
        <time>2013-07-21T15:39:13.000Z</time>
      </trkpt>
      <trkpt lat="45.92476" lon="4.83463">
        <ele>333.4</ele>
        <time>2013-07-21T15:39:14.000Z</time>
      </trkpt>
      <trkpt lat="45.92479" lon="4.83464">
        <ele>332.8</ele>
        <time>2013-07-21T15:39:15.000Z</time>
      </trkpt>
      <trkpt lat="45.92481" lon="4.83464">
        <ele>333.3</ele>
        <time>2013-07-21T15:39:16.000Z</time>
      </trkpt>
      <trkpt lat="45.92483" lon="4.83466">
        <ele>333.6</ele>
        <time>2013-07-21T15:39:17.000Z</time>
      </trkpt>
      <trkpt lat="45.92485" lon="4.83466">
        <ele>333</ele>
        <time>2013-07-21T15:39:18.000Z</time>
      </trkpt>
      <trkpt lat="45.92488" lon="4.83468">
        <ele>331.7</ele>
        <time>2013-07-21T15:39:19.000Z</time>
      </trkpt>
      <trkpt lat="45.9249" lon="4.83469">
        <ele>331.7</ele>
        <time>2013-07-21T15:39:20.000Z</time>
      </trkpt>
      <trkpt lat="45.92494" lon="4.83471">
        <ele>332.8</ele>
        <time>2013-07-21T15:39:22.000Z</time>
      </trkpt>
      <trkpt lat="45.92496" lon="4.83471">
        <ele>333.7</ele>
        <time>2013-07-21T15:39:23.000Z</time>
      </trkpt>
      <trkpt lat="45.925" lon="4.83472">
        <ele>334.5</ele>
        <time>2013-07-21T15:39:25.000Z</time>
      </trkpt>
      <trkpt lat="45.92502" lon="4.83472">
        <ele>335.5</ele>
        <time>2013-07-21T15:39:26.000Z</time>
      </trkpt>
      <trkpt lat="45.92504" lon="4.83472">
        <ele>336.3</ele>
        <time>2013-07-21T15:39:27.000Z</time>
      </trkpt>
      <trkpt lat="45.92507" lon="4.83472">
        <ele>335.7</ele>
        <time>2013-07-21T15:39:28.000Z</time>
      </trkpt>
      <trkpt lat="45.92509" lon="4.83472">
        <ele>335.8</ele>
        <time>2013-07-21T15:39:29.000Z</time>
      </trkpt>
      <trkpt lat="45.92512" lon="4.83472">
        <ele>335.9</ele>
        <time>2013-07-21T15:39:30.000Z</time>
      </trkpt>
      <trkpt lat="45.92514" lon="4.83473">
        <ele>335.6</ele>
        <time>2013-07-21T15:39:31.000Z</time>
      </trkpt>
      <trkpt lat="45.92516" lon="4.83473">
        <ele>335.5</ele>
        <time>2013-07-21T15:39:32.000Z</time>
      </trkpt>
      <trkpt lat="45.92518" lon="4.83473">
        <ele>335.7</ele>
        <time>2013-07-21T15:39:33.000Z</time>
      </trkpt>
      <trkpt lat="45.92521" lon="4.83473">
        <ele>335.9</ele>
        <time>2013-07-21T15:39:34.000Z</time>
      </trkpt>
      <trkpt lat="45.92524" lon="4.83474">
        <ele>335.9</ele>
        <time>2013-07-21T15:39:35.000Z</time>
      </trkpt>
      <trkpt lat="45.92526" lon="4.83472">
        <ele>338.5</ele>
        <time>2013-07-21T15:39:36.000Z</time>
      </trkpt>
      <trkpt lat="45.9253" lon="4.83471">
        <ele>339.3</ele>
        <time>2013-07-21T15:39:38.000Z</time>
      </trkpt>
      <trkpt lat="45.92532" lon="4.8347">
        <ele>339.4</ele>
        <time>2013-07-21T15:39:39.000Z</time>
      </trkpt>
      <trkpt lat="45.92536" lon="4.83468">
        <ele>339.7</ele>
        <time>2013-07-21T15:39:41.000Z</time>
      </trkpt>
      <trkpt lat="45.92538" lon="4.83467">
        <ele>339.2</ele>
        <time>2013-07-21T15:39:42.000Z</time>
      </trkpt>
      <trkpt lat="45.92542" lon="4.83466">
        <ele>341.3</ele>
        <time>2013-07-21T15:39:44.000Z</time>
      </trkpt>
      <trkpt lat="45.92544" lon="4.83466">
        <ele>342.5</ele>
        <time>2013-07-21T15:39:45.000Z</time>
      </trkpt>
      <trkpt lat="45.92548" lon="4.83464">
        <ele>347.3</ele>
        <time>2013-07-21T15:39:48.000Z</time>
      </trkpt>
      <trkpt lat="45.92549" lon="4.83463">
        <ele>350.8</ele>
        <time>2013-07-21T15:39:49.000Z</time>
      </trkpt>
      <trkpt lat="45.92553" lon="4.83462">
        <ele>348.2</ele>
        <time>2013-07-21T15:39:52.676Z</time>
      </trkpt>
      <trkpt lat="45.92555" lon="4.83462">
        <ele>348.4</ele>
        <time>2013-07-21T15:39:54.000Z</time>
      </trkpt>
      <trkpt lat="45.92559" lon="4.83462">
        <ele>353.3</ele>
        <time>2013-07-21T15:39:56.000Z</time>
      </trkpt>
      <trkpt lat="45.92561" lon="4.83463">
        <ele>351.3</ele>
        <time>2013-07-21T15:39:57.000Z</time>
      </trkpt>
      <trkpt lat="45.92565" lon="4.83463">
        <ele>353.8</ele>
        <time>2013-07-21T15:39:59.000Z</time>
      </trkpt>
      <trkpt lat="45.92568" lon="4.83463">
        <ele>354.1</ele>
        <time>2013-07-21T15:40:00.000Z</time>
      </trkpt>
      <trkpt lat="45.9257" lon="4.83463">
        <ele>354.3</ele>
        <time>2013-07-21T15:40:01.000Z</time>
      </trkpt>
      <trkpt lat="45.92573" lon="4.83463">
        <ele>354.1</ele>
        <time>2013-07-21T15:40:02.000Z</time>
      </trkpt>
      <trkpt lat="45.92576" lon="4.83463">
        <ele>354.6</ele>
        <time>2013-07-21T15:40:03.000Z</time>
      </trkpt>
      <trkpt lat="45.9258" lon="4.83464">
        <ele>355</ele>
        <time>2013-07-21T15:40:04.000Z</time>
      </trkpt>
      <trkpt lat="45.92582" lon="4.83464">
        <ele>354.5</ele>
        <time>2013-07-21T15:40:05.000Z</time>
      </trkpt>
      <trkpt lat="45.92585" lon="4.83463">
        <ele>354.2</ele>
        <time>2013-07-21T15:40:06.000Z</time>
      </trkpt>
      <trkpt lat="45.92587" lon="4.83463">
        <ele>353.5</ele>
        <time>2013-07-21T15:40:07.000Z</time>
      </trkpt>
      <trkpt lat="45.92589" lon="4.83463">
        <ele>351.8</ele>
        <time>2013-07-21T15:40:08.000Z</time>
      </trkpt>
      <trkpt lat="45.92593" lon="4.83465">
        <ele>348.1</ele>
        <time>2013-07-21T15:40:10.000Z</time>
      </trkpt>
      <trkpt lat="45.92595" lon="4.83466">
        <ele>346.7</ele>
        <time>2013-07-21T15:40:11.000Z</time>
      </trkpt>
      <trkpt lat="45.92597" lon="4.83467">
        <ele>346.9</ele>
        <time>2013-07-21T15:40:12.000Z</time>
      </trkpt>
      <trkpt lat="45.926" lon="4.83467">
        <ele>348.4</ele>
        <time>2013-07-21T15:40:13.000Z</time>
      </trkpt>
      <trkpt lat="45.92602" lon="4.83467">
        <ele>346.4</ele>
        <time>2013-07-21T15:40:14.000Z</time>
      </trkpt>
      <trkpt lat="45.92605" lon="4.83468">
        <ele>345.9</ele>
        <time>2013-07-21T15:40:15.000Z</time>
      </trkpt>
      <trkpt lat="45.92608" lon="4.83467">
        <ele>344</ele>
        <time>2013-07-21T15:40:16.000Z</time>
      </trkpt>
      <trkpt lat="45.9261" lon="4.83468">
        <ele>345.1</ele>
        <time>2013-07-21T15:40:17.000Z</time>
      </trkpt>
      <trkpt lat="45.92613" lon="4.83468">
        <ele>344.9</ele>
        <time>2013-07-21T15:40:18.000Z</time>
      </trkpt>
      <trkpt lat="45.92616" lon="4.83468">
        <ele>346.6</ele>
        <time>2013-07-21T15:40:19.000Z</time>
      </trkpt>
      <trkpt lat="45.92619" lon="4.83469">
        <ele>346.7</ele>
        <time>2013-07-21T15:40:20.000Z</time>
      </trkpt>
      <trkpt lat="45.92622" lon="4.83469">
        <ele>346.3</ele>
        <time>2013-07-21T15:40:21.000Z</time>
      </trkpt>
      <trkpt lat="45.92624" lon="4.83469">
        <ele>342.2</ele>
        <time>2013-07-21T15:40:22.000Z</time>
      </trkpt>
      <trkpt lat="45.92627" lon="4.83469">
        <ele>339.7</ele>
        <time>2013-07-21T15:40:23.000Z</time>
      </trkpt>
      <trkpt lat="45.92628" lon="4.83466">
        <ele>339.4</ele>
        <time>2013-07-21T15:40:24.000Z</time>
      </trkpt>
      <trkpt lat="45.92631" lon="4.83466">
        <ele>335.7</ele>
        <time>2013-07-21T15:40:25.000Z</time>
      </trkpt>
      <trkpt lat="45.92633" lon="4.83463">
        <ele>335.7</ele>
        <time>2013-07-21T15:40:26.000Z</time>
      </trkpt>
      <trkpt lat="45.92635" lon="4.83461">
        <ele>335.7</ele>
        <time>2013-07-21T15:40:27.000Z</time>
      </trkpt>
      <trkpt lat="45.92637" lon="4.83459">
        <ele>336.6</ele>
        <time>2013-07-21T15:40:28.000Z</time>
      </trkpt>
      <trkpt lat="45.92639" lon="4.83457">
        <ele>336.1</ele>
        <time>2013-07-21T15:40:29.000Z</time>
      </trkpt>
      <trkpt lat="45.92641" lon="4.83454">
        <ele>336</ele>
        <time>2013-07-21T15:40:30.000Z</time>
      </trkpt>
      <trkpt lat="45.92643" lon="4.83452">
        <ele>336.1</ele>
        <time>2013-07-21T15:40:31.000Z</time>
      </trkpt>
      <trkpt lat="45.92644" lon="4.83449">
        <ele>334.5</ele>
        <time>2013-07-21T15:40:32.000Z</time>
      </trkpt>
      <trkpt lat="45.92646" lon="4.83447">
        <ele>332.5</ele>
        <time>2013-07-21T15:40:33.000Z</time>
      </trkpt>
      <trkpt lat="45.92649" lon="4.83443">
        <ele>331.5</ele>
        <time>2013-07-21T15:40:34.000Z</time>
      </trkpt>
      <trkpt lat="45.92651" lon="4.83441">
        <ele>331.8</ele>
        <time>2013-07-21T15:40:35.000Z</time>
      </trkpt>
      <trkpt lat="45.92653" lon="4.83437">
        <ele>331.1</ele>
        <time>2013-07-21T15:40:36.000Z</time>
      </trkpt>
      <trkpt lat="45.92656" lon="4.83434">
        <ele>330.9</ele>
        <time>2013-07-21T15:40:37.000Z</time>
      </trkpt>
      <trkpt lat="45.92658" lon="4.83431">
        <ele>333.6</ele>
        <time>2013-07-21T15:40:38.000Z</time>
      </trkpt>
      <trkpt lat="45.92659" lon="4.83428">
        <ele>335</ele>
        <time>2013-07-21T15:40:39.000Z</time>
      </trkpt>
      <trkpt lat="45.92662" lon="4.83424">
        <ele>334.4</ele>
        <time>2013-07-21T15:40:40.000Z</time>
      </trkpt>
      <trkpt lat="45.92664" lon="4.83422">
        <ele>335.1</ele>
        <time>2013-07-21T15:40:41.000Z</time>
      </trkpt>
      <trkpt lat="45.92666" lon="4.83418">
        <ele>335.9</ele>
        <time>2013-07-21T15:40:42.000Z</time>
      </trkpt>
      <trkpt lat="45.92668" lon="4.83414">
        <ele>335</ele>
        <time>2013-07-21T15:40:43.000Z</time>
      </trkpt>
      <trkpt lat="45.92672" lon="4.8341">
        <ele>335</ele>
        <time>2013-07-21T15:40:44.000Z</time>
      </trkpt>
      <trkpt lat="45.92674" lon="4.83407">
        <ele>334.1</ele>
        <time>2013-07-21T15:40:45.000Z</time>
      </trkpt>
      <trkpt lat="45.92677" lon="4.83404">
        <ele>334</ele>
        <time>2013-07-21T15:40:46.000Z</time>
      </trkpt>
      <trkpt lat="45.92678" lon="4.83401">
        <ele>334.6</ele>
        <time>2013-07-21T15:40:47.000Z</time>
      </trkpt>
      <trkpt lat="45.92681" lon="4.83399">
        <ele>334.1</ele>
        <time>2013-07-21T15:40:48.000Z</time>
      </trkpt>
      <trkpt lat="45.92684" lon="4.83396">
        <ele>334.1</ele>
        <time>2013-07-21T15:40:49.000Z</time>
      </trkpt>
      <trkpt lat="45.92686" lon="4.83393">
        <ele>334.8</ele>
        <time>2013-07-21T15:40:50.000Z</time>
      </trkpt>
      <trkpt lat="45.92689" lon="4.83391">
        <ele>335.1</ele>
        <time>2013-07-21T15:40:51.000Z</time>
      </trkpt>
      <trkpt lat="45.92693" lon="4.83387">
        <ele>334.7</ele>
        <time>2013-07-21T15:40:52.654Z</time>
      </trkpt>
      <trkpt lat="45.92696" lon="4.83383">
        <ele>335.1</ele>
        <time>2013-07-21T15:40:54.000Z</time>
      </trkpt>
      <trkpt lat="45.92699" lon="4.8338">
        <ele>335.9</ele>
        <time>2013-07-21T15:40:55.000Z</time>
      </trkpt>
      <trkpt lat="45.92703" lon="4.83377">
        <ele>335.7</ele>
        <time>2013-07-21T15:40:56.000Z</time>
      </trkpt>
      <trkpt lat="45.92705" lon="4.83375">
        <ele>336.3</ele>
        <time>2013-07-21T15:40:57.000Z</time>
      </trkpt>
      <trkpt lat="45.92709" lon="4.83372">
        <ele>337.1</ele>
        <time>2013-07-21T15:40:58.000Z</time>
      </trkpt>
      <trkpt lat="45.92712" lon="4.83369">
        <ele>339.2</ele>
        <time>2013-07-21T15:40:59.000Z</time>
      </trkpt>
      <trkpt lat="45.92715" lon="4.83367">
        <ele>340.6</ele>
        <time>2013-07-21T15:41:00.000Z</time>
      </trkpt>
      <trkpt lat="45.92719" lon="4.83364">
        <ele>340</ele>
        <time>2013-07-21T15:41:01.000Z</time>
      </trkpt>
      <trkpt lat="45.92722" lon="4.83361">
        <ele>339.8</ele>
        <time>2013-07-21T15:41:02.000Z</time>
      </trkpt>
      <trkpt lat="45.92724" lon="4.83359">
        <ele>340.4</ele>
        <time>2013-07-21T15:41:03.000Z</time>
      </trkpt>
      <trkpt lat="45.92728" lon="4.83355">
        <ele>340.8</ele>
        <time>2013-07-21T15:41:04.000Z</time>
      </trkpt>
      <trkpt lat="45.92731" lon="4.83352">
        <ele>344</ele>
        <time>2013-07-21T15:41:05.000Z</time>
      </trkpt>
      <trkpt lat="45.92735" lon="4.83348">
        <ele>341.2</ele>
        <time>2013-07-21T15:41:06.000Z</time>
      </trkpt>
      <trkpt lat="45.92739" lon="4.83344">
        <ele>341.5</ele>
        <time>2013-07-21T15:41:07.000Z</time>
      </trkpt>
      <trkpt lat="45.92742" lon="4.83341">
        <ele>343.9</ele>
        <time>2013-07-21T15:41:08.000Z</time>
      </trkpt>
      <trkpt lat="45.92746" lon="4.83337">
        <ele>344.3</ele>
        <time>2013-07-21T15:41:09.000Z</time>
      </trkpt>
      <trkpt lat="45.92749" lon="4.83333">
        <ele>343.8</ele>
        <time>2013-07-21T15:41:10.000Z</time>
      </trkpt>
      <trkpt lat="45.92752" lon="4.83329">
        <ele>344.6</ele>
        <time>2013-07-21T15:41:11.000Z</time>
      </trkpt>
      <trkpt lat="45.92756" lon="4.83327">
        <ele>345.3</ele>
        <time>2013-07-21T15:41:12.000Z</time>
      </trkpt>
      <trkpt lat="45.9276" lon="4.83324">
        <ele>345.2</ele>
        <time>2013-07-21T15:41:13.000Z</time>
      </trkpt>
      <trkpt lat="45.92763" lon="4.83321">
        <ele>346</ele>
        <time>2013-07-21T15:41:14.000Z</time>
      </trkpt>
      <trkpt lat="45.92766" lon="4.83318">
        <ele>346</ele>
        <time>2013-07-21T15:41:15.000Z</time>
      </trkpt>
      <trkpt lat="45.9277" lon="4.83315">
        <ele>347.3</ele>
        <time>2013-07-21T15:41:16.000Z</time>
      </trkpt>
      <trkpt lat="45.92772" lon="4.83312">
        <ele>348.6</ele>
        <time>2013-07-21T15:41:17.000Z</time>
      </trkpt>
      <trkpt lat="45.92776" lon="4.83309">
        <ele>349.2</ele>
        <time>2013-07-21T15:41:18.000Z</time>
      </trkpt>
      <trkpt lat="45.92779" lon="4.83306">
        <ele>348.5</ele>
        <time>2013-07-21T15:41:19.000Z</time>
      </trkpt>
      <trkpt lat="45.92782" lon="4.83303">
        <ele>348.7</ele>
        <time>2013-07-21T15:41:20.000Z</time>
      </trkpt>
      <trkpt lat="45.92785" lon="4.83299">
        <ele>346.3</ele>
        <time>2013-07-21T15:41:21.000Z</time>
      </trkpt>
      <trkpt lat="45.92788" lon="4.83296">
        <ele>345.5</ele>
        <time>2013-07-21T15:41:22.000Z</time>
      </trkpt>
      <trkpt lat="45.9279" lon="4.83292">
        <ele>346.3</ele>
        <time>2013-07-21T15:41:23.000Z</time>
      </trkpt>
      <trkpt lat="45.92794" lon="4.83289">
        <ele>345</ele>
        <time>2013-07-21T15:41:24.000Z</time>
      </trkpt>
      <trkpt lat="45.92797" lon="4.83286">
        <ele>345.1</ele>
        <time>2013-07-21T15:41:25.000Z</time>
      </trkpt>
      <trkpt lat="45.928" lon="4.83283">
        <ele>343.2</ele>
        <time>2013-07-21T15:41:26.000Z</time>
      </trkpt>
      <trkpt lat="45.92803" lon="4.83279">
        <ele>342.8</ele>
        <time>2013-07-21T15:41:27.000Z</time>
      </trkpt>
      <trkpt lat="45.92806" lon="4.83277">
        <ele>341.9</ele>
        <time>2013-07-21T15:41:28.000Z</time>
      </trkpt>
      <trkpt lat="45.92809" lon="4.83274">
        <ele>341.3</ele>
        <time>2013-07-21T15:41:29.000Z</time>
      </trkpt>
      <trkpt lat="45.92811" lon="4.83273">
        <ele>341.4</ele>
        <time>2013-07-21T15:41:30.000Z</time>
      </trkpt>
      <trkpt lat="45.92814" lon="4.8327">
        <ele>341.9</ele>
        <time>2013-07-21T15:41:31.000Z</time>
      </trkpt>
      <trkpt lat="45.92817" lon="4.83267">
        <ele>341.9</ele>
        <time>2013-07-21T15:41:32.000Z</time>
      </trkpt>
      <trkpt lat="45.9282" lon="4.83264">
        <ele>341.9</ele>
        <time>2013-07-21T15:41:33.000Z</time>
      </trkpt>
      <trkpt lat="45.92824" lon="4.83261">
        <ele>341.7</ele>
        <time>2013-07-21T15:41:34.000Z</time>
      </trkpt>
      <trkpt lat="45.92827" lon="4.83257">
        <ele>341</ele>
        <time>2013-07-21T15:41:35.000Z</time>
      </trkpt>
      <trkpt lat="45.92831" lon="4.83253">
        <ele>342.2</ele>
        <time>2013-07-21T15:41:36.000Z</time>
      </trkpt>
      <trkpt lat="45.92836" lon="4.83249">
        <ele>341.7</ele>
        <time>2013-07-21T15:41:37.000Z</time>
      </trkpt>
      <trkpt lat="45.9284" lon="4.83245">
        <ele>342.5</ele>
        <time>2013-07-21T15:41:38.000Z</time>
      </trkpt>
      <trkpt lat="45.92843" lon="4.83243">
        <ele>343.9</ele>
        <time>2013-07-21T15:41:39.000Z</time>
      </trkpt>
      <trkpt lat="45.92847" lon="4.8324">
        <ele>343.7</ele>
        <time>2013-07-21T15:41:40.000Z</time>
      </trkpt>
      <trkpt lat="45.92851" lon="4.83236">
        <ele>343.3</ele>
        <time>2013-07-21T15:41:41.000Z</time>
      </trkpt>
      <trkpt lat="45.92856" lon="4.83233">
        <ele>342.4</ele>
        <time>2013-07-21T15:41:42.000Z</time>
      </trkpt>
      <trkpt lat="45.92859" lon="4.83231">
        <ele>342.7</ele>
        <time>2013-07-21T15:41:43.000Z</time>
      </trkpt>
      <trkpt lat="45.92863" lon="4.83229">
        <ele>342.2</ele>
        <time>2013-07-21T15:41:44.000Z</time>
      </trkpt>
      <trkpt lat="45.92871" lon="4.8322">
        <ele>337.1</ele>
        <time>2013-07-21T15:41:45.000Z</time>
      </trkpt>
      <trkpt lat="45.92875" lon="4.83214">
        <ele>336.4</ele>
        <time>2013-07-21T15:41:46.000Z</time>
      </trkpt>
      <trkpt lat="45.9288" lon="4.83208">
        <ele>335.4</ele>
        <time>2013-07-21T15:41:47.000Z</time>
      </trkpt>
      <trkpt lat="45.92884" lon="4.83205">
        <ele>337</ele>
        <time>2013-07-21T15:41:48.000Z</time>
      </trkpt>
      <trkpt lat="45.92888" lon="4.83202">
        <ele>336</ele>
        <time>2013-07-21T15:41:49.000Z</time>
      </trkpt>
      <trkpt lat="45.92892" lon="4.83197">
        <ele>335.3</ele>
        <time>2013-07-21T15:41:50.000Z</time>
      </trkpt>
      <trkpt lat="45.92895" lon="4.83193">
        <ele>335.5</ele>
        <time>2013-07-21T15:41:51.000Z</time>
      </trkpt>
      <trkpt lat="45.92898" lon="4.8319">
        <ele>335.6</ele>
        <time>2013-07-21T15:41:52.000Z</time>
      </trkpt>
      <trkpt lat="45.929" lon="4.83182">
        <ele>336.8</ele>
        <time>2013-07-21T15:41:53.554Z</time>
      </trkpt>
      <trkpt lat="45.92902" lon="4.83179">
        <ele>337.5</ele>
        <time>2013-07-21T15:41:55.000Z</time>
      </trkpt>
      <trkpt lat="45.92904" lon="4.83177">
        <ele>337.4</ele>
        <time>2013-07-21T15:41:56.000Z</time>
      </trkpt>
      <trkpt lat="45.92908" lon="4.83175">
        <ele>337.3</ele>
        <time>2013-07-21T15:41:57.000Z</time>
      </trkpt>
      <trkpt lat="45.92911" lon="4.83172">
        <ele>337.5</ele>
        <time>2013-07-21T15:41:58.000Z</time>
      </trkpt>
      <trkpt lat="45.92914" lon="4.8317">
        <ele>337.5</ele>
        <time>2013-07-21T15:41:59.000Z</time>
      </trkpt>
      <trkpt lat="45.92917" lon="4.83166">
        <ele>336.6</ele>
        <time>2013-07-21T15:42:00.000Z</time>
      </trkpt>
      <trkpt lat="45.92922" lon="4.83163">
        <ele>337.8</ele>
        <time>2013-07-21T15:42:01.000Z</time>
      </trkpt>
      <trkpt lat="45.92926" lon="4.83159">
        <ele>336.3</ele>
        <time>2013-07-21T15:42:02.000Z</time>
      </trkpt>
      <trkpt lat="45.92928" lon="4.83155">
        <ele>335.1</ele>
        <time>2013-07-21T15:42:03.000Z</time>
      </trkpt>
      <trkpt lat="45.92931" lon="4.83151">
        <ele>334.3</ele>
        <time>2013-07-21T15:42:04.000Z</time>
      </trkpt>
      <trkpt lat="45.92934" lon="4.83148">
        <ele>333</ele>
        <time>2013-07-21T15:42:05.000Z</time>
      </trkpt>
      <trkpt lat="45.92937" lon="4.83145">
        <ele>332.8</ele>
        <time>2013-07-21T15:42:06.000Z</time>
      </trkpt>
      <trkpt lat="45.9294" lon="4.83141">
        <ele>330.3</ele>
        <time>2013-07-21T15:42:07.000Z</time>
      </trkpt>
      <trkpt lat="45.92943" lon="4.83138">
        <ele>330.2</ele>
        <time>2013-07-21T15:42:08.000Z</time>
      </trkpt>
      <trkpt lat="45.92947" lon="4.83133">
        <ele>329.6</ele>
        <time>2013-07-21T15:42:09.000Z</time>
      </trkpt>
      <trkpt lat="45.92951" lon="4.83129">
        <ele>330.3</ele>
        <time>2013-07-21T15:42:10.000Z</time>
      </trkpt>
      <trkpt lat="45.92955" lon="4.83125">
        <ele>330.2</ele>
        <time>2013-07-21T15:42:11.000Z</time>
      </trkpt>
      <trkpt lat="45.92958" lon="4.83122">
        <ele>330.3</ele>
        <time>2013-07-21T15:42:12.000Z</time>
      </trkpt>
      <trkpt lat="45.92962" lon="4.83119">
        <ele>330.8</ele>
        <time>2013-07-21T15:42:13.000Z</time>
      </trkpt>
      <trkpt lat="45.92966" lon="4.83115">
        <ele>330.2</ele>
        <time>2013-07-21T15:42:14.000Z</time>
      </trkpt>
      <trkpt lat="45.92971" lon="4.83112">
        <ele>329.4</ele>
        <time>2013-07-21T15:42:15.000Z</time>
      </trkpt>
      <trkpt lat="45.92975" lon="4.8311">
        <ele>329.5</ele>
        <time>2013-07-21T15:42:16.000Z</time>
      </trkpt>
      <trkpt lat="45.92978" lon="4.83107">
        <ele>329.6</ele>
        <time>2013-07-21T15:42:17.000Z</time>
      </trkpt>
      <trkpt lat="45.92982" lon="4.83104">
        <ele>329.6</ele>
        <time>2013-07-21T15:42:18.000Z</time>
      </trkpt>
      <trkpt lat="45.92986" lon="4.83101">
        <ele>330.3</ele>
        <time>2013-07-21T15:42:19.000Z</time>
      </trkpt>
      <trkpt lat="45.92988" lon="4.83099">
        <ele>330.5</ele>
        <time>2013-07-21T15:42:20.000Z</time>
      </trkpt>
      <trkpt lat="45.92991" lon="4.83096">
        <ele>331.8</ele>
        <time>2013-07-21T15:42:21.000Z</time>
      </trkpt>
      <trkpt lat="45.92994" lon="4.83094">
        <ele>331.8</ele>
        <time>2013-07-21T15:42:22.000Z</time>
      </trkpt>
      <trkpt lat="45.92997" lon="4.83091">
        <ele>331.9</ele>
        <time>2013-07-21T15:42:23.000Z</time>
      </trkpt>
      <trkpt lat="45.93" lon="4.83088">
        <ele>332.6</ele>
        <time>2013-07-21T15:42:24.000Z</time>
      </trkpt>
      <trkpt lat="45.93003" lon="4.83085">
        <ele>332.5</ele>
        <time>2013-07-21T15:42:25.000Z</time>
      </trkpt>
      <trkpt lat="45.93006" lon="4.83082">
        <ele>332.6</ele>
        <time>2013-07-21T15:42:26.000Z</time>
      </trkpt>
      <trkpt lat="45.93009" lon="4.8308">
        <ele>332.4</ele>
        <time>2013-07-21T15:42:27.000Z</time>
      </trkpt>
      <trkpt lat="45.93012" lon="4.83077">
        <ele>332.8</ele>
        <time>2013-07-21T15:42:28.000Z</time>
      </trkpt>
      <trkpt lat="45.93015" lon="4.83074">
        <ele>333.4</ele>
        <time>2013-07-21T15:42:29.000Z</time>
      </trkpt>
      <trkpt lat="45.93019" lon="4.83071">
        <ele>333</ele>
        <time>2013-07-21T15:42:30.000Z</time>
      </trkpt>
      <trkpt lat="45.93022" lon="4.83068">
        <ele>333.9</ele>
        <time>2013-07-21T15:42:31.000Z</time>
      </trkpt>
      <trkpt lat="45.93025" lon="4.83065">
        <ele>334.2</ele>
        <time>2013-07-21T15:42:32.000Z</time>
      </trkpt>
      <trkpt lat="45.93028" lon="4.83062">
        <ele>337.1</ele>
        <time>2013-07-21T15:42:33.000Z</time>
      </trkpt>
      <trkpt lat="45.93032" lon="4.83059">
        <ele>337.9</ele>
        <time>2013-07-21T15:42:34.000Z</time>
      </trkpt>
      <trkpt lat="45.93035" lon="4.83056">
        <ele>337.8</ele>
        <time>2013-07-21T15:42:35.000Z</time>
      </trkpt>
      <trkpt lat="45.93038" lon="4.83054">
        <ele>337.9</ele>
        <time>2013-07-21T15:42:36.000Z</time>
      </trkpt>
      <trkpt lat="45.93041" lon="4.83051">
        <ele>338</ele>
        <time>2013-07-21T15:42:37.000Z</time>
      </trkpt>
      <trkpt lat="45.93045" lon="4.83048">
        <ele>335.2</ele>
        <time>2013-07-21T15:42:38.000Z</time>
      </trkpt>
      <trkpt lat="45.93047" lon="4.83045">
        <ele>335.6</ele>
        <time>2013-07-21T15:42:39.000Z</time>
      </trkpt>
      <trkpt lat="45.9305" lon="4.83042">
        <ele>335.4</ele>
        <time>2013-07-21T15:42:40.000Z</time>
      </trkpt>
      <trkpt lat="45.93054" lon="4.83039">
        <ele>334.8</ele>
        <time>2013-07-21T15:42:41.000Z</time>
      </trkpt>
      <trkpt lat="45.93056" lon="4.83036">
        <ele>335</ele>
        <time>2013-07-21T15:42:42.000Z</time>
      </trkpt>
      <trkpt lat="45.93059" lon="4.83033">
        <ele>334.4</ele>
        <time>2013-07-21T15:42:43.000Z</time>
      </trkpt>
      <trkpt lat="45.93062" lon="4.83031">
        <ele>334.4</ele>
        <time>2013-07-21T15:42:44.000Z</time>
      </trkpt>
      <trkpt lat="45.93064" lon="4.83028">
        <ele>334.7</ele>
        <time>2013-07-21T15:42:45.000Z</time>
      </trkpt>
      <trkpt lat="45.93066" lon="4.83026">
        <ele>333.9</ele>
        <time>2013-07-21T15:42:46.000Z</time>
      </trkpt>
      <trkpt lat="45.93069" lon="4.83025">
        <ele>334.2</ele>
        <time>2013-07-21T15:42:47.000Z</time>
      </trkpt>
      <trkpt lat="45.93073" lon="4.83023">
        <ele>332.6</ele>
        <time>2013-07-21T15:42:48.000Z</time>
      </trkpt>
      <trkpt lat="45.93076" lon="4.83021">
        <ele>331.5</ele>
        <time>2013-07-21T15:42:49.000Z</time>
      </trkpt>
      <trkpt lat="45.93079" lon="4.83019">
        <ele>332.1</ele>
        <time>2013-07-21T15:42:50.000Z</time>
      </trkpt>
      <trkpt lat="45.93083" lon="4.83017">
        <ele>331.3</ele>
        <time>2013-07-21T15:42:51.000Z</time>
      </trkpt>
      <trkpt lat="45.93085" lon="4.83016">
        <ele>331.6</ele>
        <time>2013-07-21T15:42:52.000Z</time>
      </trkpt>
      <trkpt lat="45.93091" lon="4.83013">
        <ele>330.2</ele>
        <time>2013-07-21T15:42:53.537Z</time>
      </trkpt>
      <trkpt lat="45.93095" lon="4.8301">
        <ele>330.3</ele>
        <time>2013-07-21T15:42:55.000Z</time>
      </trkpt>
      <trkpt lat="45.93099" lon="4.83009">
        <ele>329.8</ele>
        <time>2013-07-21T15:42:56.000Z</time>
      </trkpt>
      <trkpt lat="45.93103" lon="4.8301">
        <ele>329.8</ele>
        <time>2013-07-21T15:42:57.000Z</time>
      </trkpt>
      <trkpt lat="45.93107" lon="4.83009">
        <ele>328.3</ele>
        <time>2013-07-21T15:42:58.000Z</time>
      </trkpt>
      <trkpt lat="45.9311" lon="4.8301">
        <ele>328.2</ele>
        <time>2013-07-21T15:42:59.000Z</time>
      </trkpt>
      <trkpt lat="45.93115" lon="4.8301">
        <ele>331.1</ele>
        <time>2013-07-21T15:43:00.000Z</time>
      </trkpt>
      <trkpt lat="45.93118" lon="4.83011">
        <ele>330.7</ele>
        <time>2013-07-21T15:43:01.000Z</time>
      </trkpt>
      <trkpt lat="45.93122" lon="4.83011">
        <ele>329.9</ele>
        <time>2013-07-21T15:43:02.000Z</time>
      </trkpt>
      <trkpt lat="45.93126" lon="4.83012">
        <ele>329.9</ele>
        <time>2013-07-21T15:43:03.000Z</time>
      </trkpt>
      <trkpt lat="45.9313" lon="4.83013">
        <ele>329.9</ele>
        <time>2013-07-21T15:43:04.000Z</time>
      </trkpt>
      <trkpt lat="45.93133" lon="4.83013">
        <ele>330.6</ele>
        <time>2013-07-21T15:43:05.000Z</time>
      </trkpt>
      <trkpt lat="45.93136" lon="4.83012">
        <ele>330.5</ele>
        <time>2013-07-21T15:43:06.000Z</time>
      </trkpt>
      <trkpt lat="45.93139" lon="4.83011">
        <ele>333.1</ele>
        <time>2013-07-21T15:43:07.000Z</time>
      </trkpt>
      <trkpt lat="45.93141" lon="4.83009">
        <ele>333.9</ele>
        <time>2013-07-21T15:43:08.000Z</time>
      </trkpt>
      <trkpt lat="45.93144" lon="4.83008">
        <ele>333</ele>
        <time>2013-07-21T15:43:09.000Z</time>
      </trkpt>
      <trkpt lat="45.93147" lon="4.83006">
        <ele>332.6</ele>
        <time>2013-07-21T15:43:10.000Z</time>
      </trkpt>
      <trkpt lat="45.9315" lon="4.83004">
        <ele>332.8</ele>
        <time>2013-07-21T15:43:11.000Z</time>
      </trkpt>
      <trkpt lat="45.93153" lon="4.83001">
        <ele>333.2</ele>
        <time>2013-07-21T15:43:12.000Z</time>
      </trkpt>
      <trkpt lat="45.93156" lon="4.82998">
        <ele>333.3</ele>
        <time>2013-07-21T15:43:13.000Z</time>
      </trkpt>
      <trkpt lat="45.93159" lon="4.82995">
        <ele>332.9</ele>
        <time>2013-07-21T15:43:14.000Z</time>
      </trkpt>
      <trkpt lat="45.93162" lon="4.82993">
        <ele>334.8</ele>
        <time>2013-07-21T15:43:15.000Z</time>
      </trkpt>
      <trkpt lat="45.93166" lon="4.82991">
        <ele>335.6</ele>
        <time>2013-07-21T15:43:16.000Z</time>
      </trkpt>
      <trkpt lat="45.93169" lon="4.82989">
        <ele>336.3</ele>
        <time>2013-07-21T15:43:17.000Z</time>
      </trkpt>
      <trkpt lat="45.93173" lon="4.82987">
        <ele>336.2</ele>
        <time>2013-07-21T15:43:18.000Z</time>
      </trkpt>
      <trkpt lat="45.93177" lon="4.82986">
        <ele>336</ele>
        <time>2013-07-21T15:43:19.000Z</time>
      </trkpt>
      <trkpt lat="45.93181" lon="4.82984">
        <ele>334.7</ele>
        <time>2013-07-21T15:43:20.000Z</time>
      </trkpt>
      <trkpt lat="45.93185" lon="4.82982">
        <ele>334.9</ele>
        <time>2013-07-21T15:43:21.000Z</time>
      </trkpt>
      <trkpt lat="45.93188" lon="4.82981">
        <ele>335</ele>
        <time>2013-07-21T15:43:22.000Z</time>
      </trkpt>
      <trkpt lat="45.93192" lon="4.82979">
        <ele>334.7</ele>
        <time>2013-07-21T15:43:23.000Z</time>
      </trkpt>
      <trkpt lat="45.93196" lon="4.82977">
        <ele>335</ele>
        <time>2013-07-21T15:43:24.000Z</time>
      </trkpt>
      <trkpt lat="45.93198" lon="4.82976">
        <ele>335.6</ele>
        <time>2013-07-21T15:43:25.000Z</time>
      </trkpt>
      <trkpt lat="45.93202" lon="4.82974">
        <ele>335.1</ele>
        <time>2013-07-21T15:43:26.000Z</time>
      </trkpt>
      <trkpt lat="45.93205" lon="4.82973">
        <ele>335.4</ele>
        <time>2013-07-21T15:43:27.000Z</time>
      </trkpt>
      <trkpt lat="45.93208" lon="4.82972">
        <ele>338.5</ele>
        <time>2013-07-21T15:43:28.000Z</time>
      </trkpt>
      <trkpt lat="45.93211" lon="4.82971">
        <ele>340.1</ele>
        <time>2013-07-21T15:43:29.000Z</time>
      </trkpt>
      <trkpt lat="45.93213" lon="4.82968">
        <ele>337</ele>
        <time>2013-07-21T15:43:30.000Z</time>
      </trkpt>
      <trkpt lat="45.93216" lon="4.82967">
        <ele>335</ele>
        <time>2013-07-21T15:43:31.000Z</time>
      </trkpt>
      <trkpt lat="45.93219" lon="4.82966">
        <ele>334.4</ele>
        <time>2013-07-21T15:43:32.000Z</time>
      </trkpt>
      <trkpt lat="45.93221" lon="4.82965">
        <ele>334.2</ele>
        <time>2013-07-21T15:43:33.000Z</time>
      </trkpt>
      <trkpt lat="45.93224" lon="4.82963">
        <ele>334.4</ele>
        <time>2013-07-21T15:43:34.000Z</time>
      </trkpt>
      <trkpt lat="45.93226" lon="4.82962">
        <ele>334.4</ele>
        <time>2013-07-21T15:43:35.000Z</time>
      </trkpt>
      <trkpt lat="45.93229" lon="4.82961">
        <ele>334.3</ele>
        <time>2013-07-21T15:43:36.000Z</time>
      </trkpt>
      <trkpt lat="45.93232" lon="4.82961">
        <ele>334.3</ele>
        <time>2013-07-21T15:43:37.000Z</time>
      </trkpt>
      <trkpt lat="45.93235" lon="4.82961">
        <ele>334.3</ele>
        <time>2013-07-21T15:43:38.000Z</time>
      </trkpt>
      <trkpt lat="45.93237" lon="4.8296">
        <ele>334.4</ele>
        <time>2013-07-21T15:43:39.000Z</time>
      </trkpt>
      <trkpt lat="45.93239" lon="4.8296">
        <ele>334.4</ele>
        <time>2013-07-21T15:43:40.000Z</time>
      </trkpt>
      <trkpt lat="45.93242" lon="4.82959">
        <ele>334.4</ele>
        <time>2013-07-21T15:43:41.000Z</time>
      </trkpt>
      <trkpt lat="45.93244" lon="4.82958">
        <ele>334.5</ele>
        <time>2013-07-21T15:43:42.000Z</time>
      </trkpt>
      <trkpt lat="45.93246" lon="4.82956">
        <ele>334</ele>
        <time>2013-07-21T15:43:43.000Z</time>
      </trkpt>
      <trkpt lat="45.93248" lon="4.82955">
        <ele>334</ele>
        <time>2013-07-21T15:43:44.000Z</time>
      </trkpt>
      <trkpt lat="45.93252" lon="4.82953">
        <ele>333.4</ele>
        <time>2013-07-21T15:43:45.000Z</time>
      </trkpt>
      <trkpt lat="45.93256" lon="4.82951">
        <ele>333.4</ele>
        <time>2013-07-21T15:43:46.000Z</time>
      </trkpt>
      <trkpt lat="45.93261" lon="4.82948">
        <ele>333.1</ele>
        <time>2013-07-21T15:43:47.000Z</time>
      </trkpt>
      <trkpt lat="45.93264" lon="4.82946">
        <ele>333.3</ele>
        <time>2013-07-21T15:43:48.000Z</time>
      </trkpt>
      <trkpt lat="45.93268" lon="4.82943">
        <ele>332.7</ele>
        <time>2013-07-21T15:43:49.000Z</time>
      </trkpt>
      <trkpt lat="45.93271" lon="4.82941">
        <ele>333.1</ele>
        <time>2013-07-21T15:43:50.000Z</time>
      </trkpt>
      <trkpt lat="45.93275" lon="4.8294">
        <ele>332.8</ele>
        <time>2013-07-21T15:43:51.000Z</time>
      </trkpt>
      <trkpt lat="45.93278" lon="4.82938">
        <ele>332.5</ele>
        <time>2013-07-21T15:43:52.000Z</time>
      </trkpt>
      <trkpt lat="45.93283" lon="4.82936">
        <ele>332.6</ele>
        <time>2013-07-21T15:43:53.542Z</time>
      </trkpt>
      <trkpt lat="45.93288" lon="4.82935">
        <ele>332</ele>
        <time>2013-07-21T15:43:55.000Z</time>
      </trkpt>
      <trkpt lat="45.93292" lon="4.82934">
        <ele>331.4</ele>
        <time>2013-07-21T15:43:56.000Z</time>
      </trkpt>
      <trkpt lat="45.93296" lon="4.82932">
        <ele>331.4</ele>
        <time>2013-07-21T15:43:57.000Z</time>
      </trkpt>
      <trkpt lat="45.93299" lon="4.82931">
        <ele>332.1</ele>
        <time>2013-07-21T15:43:58.000Z</time>
      </trkpt>
      <trkpt lat="45.93302" lon="4.8293">
        <ele>332.2</ele>
        <time>2013-07-21T15:43:59.000Z</time>
      </trkpt>
      <trkpt lat="45.93306" lon="4.82928">
        <ele>331.9</ele>
        <time>2013-07-21T15:44:00.000Z</time>
      </trkpt>
      <trkpt lat="45.93311" lon="4.82928">
        <ele>332.3</ele>
        <time>2013-07-21T15:44:01.000Z</time>
      </trkpt>
      <trkpt lat="45.93315" lon="4.82927">
        <ele>332.1</ele>
        <time>2013-07-21T15:44:02.000Z</time>
      </trkpt>
      <trkpt lat="45.93318" lon="4.82925">
        <ele>331.8</ele>
        <time>2013-07-21T15:44:03.000Z</time>
      </trkpt>
      <trkpt lat="45.93322" lon="4.82924">
        <ele>332.2</ele>
        <time>2013-07-21T15:44:04.000Z</time>
      </trkpt>
      <trkpt lat="45.93325" lon="4.82923">
        <ele>332.9</ele>
        <time>2013-07-21T15:44:05.000Z</time>
      </trkpt>
      <trkpt lat="45.93328" lon="4.82922">
        <ele>332.2</ele>
        <time>2013-07-21T15:44:06.000Z</time>
      </trkpt>
      <trkpt lat="45.9333" lon="4.82921">
        <ele>332.2</ele>
        <time>2013-07-21T15:44:07.000Z</time>
      </trkpt>
      <trkpt lat="45.93334" lon="4.8292">
        <ele>332.2</ele>
        <time>2013-07-21T15:44:08.000Z</time>
      </trkpt>
      <trkpt lat="45.93336" lon="4.82919">
        <ele>332.9</ele>
        <time>2013-07-21T15:44:09.000Z</time>
      </trkpt>
      <trkpt lat="45.93338" lon="4.82917">
        <ele>333.1</ele>
        <time>2013-07-21T15:44:10.000Z</time>
      </trkpt>
      <trkpt lat="45.93341" lon="4.82916">
        <ele>333.3</ele>
        <time>2013-07-21T15:44:11.000Z</time>
      </trkpt>
      <trkpt lat="45.93344" lon="4.82912">
        <ele>333.8</ele>
        <time>2013-07-21T15:44:13.000Z</time>
      </trkpt>
      <trkpt lat="45.93345" lon="4.82911">
        <ele>334.2</ele>
        <time>2013-07-21T15:44:14.000Z</time>
      </trkpt>
      <trkpt lat="45.93347" lon="4.82908">
        <ele>335.1</ele>
        <time>2013-07-21T15:44:15.000Z</time>
      </trkpt>
      <trkpt lat="45.93349" lon="4.82906">
        <ele>335.2</ele>
        <time>2013-07-21T15:44:16.000Z</time>
      </trkpt>
      <trkpt lat="45.93352" lon="4.82904">
        <ele>336.7</ele>
        <time>2013-07-21T15:44:18.000Z</time>
      </trkpt>
      <trkpt lat="45.93353" lon="4.82903">
        <ele>335.4</ele>
        <time>2013-07-21T15:44:19.000Z</time>
      </trkpt>
      <trkpt lat="45.93357" lon="4.82904">
        <ele>335.3</ele>
        <time>2013-07-21T15:44:21.000Z</time>
      </trkpt>
      <trkpt lat="45.93358" lon="4.82905">
        <ele>335.2</ele>
        <time>2013-07-21T15:44:22.000Z</time>
      </trkpt>
      <trkpt lat="45.93361" lon="4.8291">
        <ele>331.7</ele>
        <time>2013-07-21T15:44:24.000Z</time>
      </trkpt>
      <trkpt lat="45.93362" lon="4.82913">
        <ele>328.8</ele>
        <time>2013-07-21T15:44:25.000Z</time>
      </trkpt>
      <trkpt lat="45.93363" lon="4.82916">
        <ele>327.5</ele>
        <time>2013-07-21T15:44:26.000Z</time>
      </trkpt>
      <trkpt lat="45.93364" lon="4.8292">
        <ele>325.4</ele>
        <time>2013-07-21T15:44:27.000Z</time>
      </trkpt>
      <trkpt lat="45.93365" lon="4.82924">
        <ele>324.6</ele>
        <time>2013-07-21T15:44:28.000Z</time>
      </trkpt>
      <trkpt lat="45.93368" lon="4.82928">
        <ele>325.3</ele>
        <time>2013-07-21T15:44:29.000Z</time>
      </trkpt>
      <trkpt lat="45.93369" lon="4.82931">
        <ele>323.9</ele>
        <time>2013-07-21T15:44:30.000Z</time>
      </trkpt>
      <trkpt lat="45.9337" lon="4.82935">
        <ele>325.2</ele>
        <time>2013-07-21T15:44:31.000Z</time>
      </trkpt>
      <trkpt lat="45.93371" lon="4.82938">
        <ele>325</ele>
        <time>2013-07-21T15:44:32.000Z</time>
      </trkpt>
      <trkpt lat="45.93373" lon="4.82942">
        <ele>324.3</ele>
        <time>2013-07-21T15:44:33.000Z</time>
      </trkpt>
      <trkpt lat="45.93374" lon="4.82945">
        <ele>323.7</ele>
        <time>2013-07-21T15:44:34.000Z</time>
      </trkpt>
      <trkpt lat="45.93375" lon="4.82949">
        <ele>321.6</ele>
        <time>2013-07-21T15:44:35.000Z</time>
      </trkpt>
      <trkpt lat="45.93376" lon="4.82954">
        <ele>320.7</ele>
        <time>2013-07-21T15:44:36.000Z</time>
      </trkpt>
      <trkpt lat="45.93377" lon="4.82957">
        <ele>320.2</ele>
        <time>2013-07-21T15:44:37.000Z</time>
      </trkpt>
      <trkpt lat="45.93378" lon="4.82962">
        <ele>321.1</ele>
        <time>2013-07-21T15:44:38.000Z</time>
      </trkpt>
      <trkpt lat="45.93378" lon="4.82965">
        <ele>320.9</ele>
        <time>2013-07-21T15:44:39.000Z</time>
      </trkpt>
      <trkpt lat="45.93378" lon="4.8297">
        <ele>321.5</ele>
        <time>2013-07-21T15:44:40.000Z</time>
      </trkpt>
      <trkpt lat="45.93378" lon="4.82973">
        <ele>322.2</ele>
        <time>2013-07-21T15:44:41.000Z</time>
      </trkpt>
      <trkpt lat="45.93378" lon="4.82979">
        <ele>322.8</ele>
        <time>2013-07-21T15:44:43.000Z</time>
      </trkpt>
      <trkpt lat="45.93378" lon="4.82982">
        <ele>321.1</ele>
        <time>2013-07-21T15:44:44.000Z</time>
      </trkpt>
      <trkpt lat="45.93379" lon="4.82986">
        <ele>320.4</ele>
        <time>2013-07-21T15:44:45.000Z</time>
      </trkpt>
      <trkpt lat="45.93379" lon="4.8299">
        <ele>320.3</ele>
        <time>2013-07-21T15:44:46.000Z</time>
      </trkpt>
      <trkpt lat="45.9338" lon="4.82996">
        <ele>321.4</ele>
        <time>2013-07-21T15:44:48.000Z</time>
      </trkpt>
      <trkpt lat="45.9338" lon="4.83">
        <ele>322.1</ele>
        <time>2013-07-21T15:44:49.000Z</time>
      </trkpt>
      <trkpt lat="45.93381" lon="4.83003">
        <ele>321.2</ele>
        <time>2013-07-21T15:44:50.000Z</time>
      </trkpt>
      <trkpt lat="45.93382" lon="4.83007">
        <ele>319.7</ele>
        <time>2013-07-21T15:44:51.000Z</time>
      </trkpt>
      <trkpt lat="45.93382" lon="4.83012">
        <ele>320.5</ele>
        <time>2013-07-21T15:44:52.000Z</time>
      </trkpt>
      <trkpt lat="45.93383" lon="4.83017">
        <ele>320.5</ele>
        <time>2013-07-21T15:44:53.564Z</time>
      </trkpt>
      <trkpt lat="45.93383" lon="4.83023">
        <ele>319.3</ele>
        <time>2013-07-21T15:44:55.000Z</time>
      </trkpt>
      <trkpt lat="45.93384" lon="4.83027">
        <ele>320.1</ele>
        <time>2013-07-21T15:44:56.000Z</time>
      </trkpt>
      <trkpt lat="45.93384" lon="4.83032">
        <ele>320.1</ele>
        <time>2013-07-21T15:44:57.000Z</time>
      </trkpt>
      <trkpt lat="45.93385" lon="4.83036">
        <ele>320.8</ele>
        <time>2013-07-21T15:44:58.000Z</time>
      </trkpt>
      <trkpt lat="45.93385" lon="4.8304">
        <ele>320.7</ele>
        <time>2013-07-21T15:44:59.000Z</time>
      </trkpt>
      <trkpt lat="45.93386" lon="4.83044">
        <ele>320.1</ele>
        <time>2013-07-21T15:45:00.000Z</time>
      </trkpt>
      <trkpt lat="45.93387" lon="4.83048">
        <ele>318.7</ele>
        <time>2013-07-21T15:45:01.000Z</time>
      </trkpt>
      <trkpt lat="45.93388" lon="4.83052">
        <ele>319</ele>
        <time>2013-07-21T15:45:02.000Z</time>
      </trkpt>
      <trkpt lat="45.93389" lon="4.83056">
        <ele>319.1</ele>
        <time>2013-07-21T15:45:03.000Z</time>
      </trkpt>
      <trkpt lat="45.9339" lon="4.83059">
        <ele>318.8</ele>
        <time>2013-07-21T15:45:04.000Z</time>
      </trkpt>
      <trkpt lat="45.93391" lon="4.83062">
        <ele>318.1</ele>
        <time>2013-07-21T15:45:05.000Z</time>
      </trkpt>
      <trkpt lat="45.93392" lon="4.83065">
        <ele>317.9</ele>
        <time>2013-07-21T15:45:06.000Z</time>
      </trkpt>
      <trkpt lat="45.93393" lon="4.83068">
        <ele>317.6</ele>
        <time>2013-07-21T15:45:07.000Z</time>
      </trkpt>
      <trkpt lat="45.93394" lon="4.83071">
        <ele>317.4</ele>
        <time>2013-07-21T15:45:08.000Z</time>
      </trkpt>
      <trkpt lat="45.93395" lon="4.83074">
        <ele>317.1</ele>
        <time>2013-07-21T15:45:09.000Z</time>
      </trkpt>
      <trkpt lat="45.93396" lon="4.83077">
        <ele>318.1</ele>
        <time>2013-07-21T15:45:10.000Z</time>
      </trkpt>
      <trkpt lat="45.93397" lon="4.83081">
        <ele>317.9</ele>
        <time>2013-07-21T15:45:11.000Z</time>
      </trkpt>
      <trkpt lat="45.93398" lon="4.83084">
        <ele>318.3</ele>
        <time>2013-07-21T15:45:12.000Z</time>
      </trkpt>
      <trkpt lat="45.934" lon="4.8309">
        <ele>318.3</ele>
        <time>2013-07-21T15:45:14.000Z</time>
      </trkpt>
      <trkpt lat="45.93401" lon="4.83093">
        <ele>318</ele>
        <time>2013-07-21T15:45:15.000Z</time>
      </trkpt>
      <trkpt lat="45.93401" lon="4.83097">
        <ele>318.3</ele>
        <time>2013-07-21T15:45:16.000Z</time>
      </trkpt>
      <trkpt lat="45.93402" lon="4.83101">
        <ele>318.2</ele>
        <time>2013-07-21T15:45:17.000Z</time>
      </trkpt>
      <trkpt lat="45.93403" lon="4.83104">
        <ele>318</ele>
        <time>2013-07-21T15:45:18.000Z</time>
      </trkpt>
      <trkpt lat="45.93403" lon="4.83109">
        <ele>317.6</ele>
        <time>2013-07-21T15:45:19.000Z</time>
      </trkpt>
      <trkpt lat="45.93403" lon="4.83113">
        <ele>317.6</ele>
        <time>2013-07-21T15:45:20.000Z</time>
      </trkpt>
      <trkpt lat="45.93404" lon="4.83118">
        <ele>317.5</ele>
        <time>2013-07-21T15:45:21.000Z</time>
      </trkpt>
      <trkpt lat="45.93405" lon="4.83122">
        <ele>315.9</ele>
        <time>2013-07-21T15:45:22.000Z</time>
      </trkpt>
      <trkpt lat="45.93405" lon="4.83126">
        <ele>315.1</ele>
        <time>2013-07-21T15:45:23.000Z</time>
      </trkpt>
      <trkpt lat="45.93405" lon="4.83129">
        <ele>315.2</ele>
        <time>2013-07-21T15:45:24.000Z</time>
      </trkpt>
      <trkpt lat="45.93405" lon="4.83133">
        <ele>315</ele>
        <time>2013-07-21T15:45:25.000Z</time>
      </trkpt>
      <trkpt lat="45.93405" lon="4.83137">
        <ele>315.3</ele>
        <time>2013-07-21T15:45:26.000Z</time>
      </trkpt>
      <trkpt lat="45.93406" lon="4.8314">
        <ele>315.6</ele>
        <time>2013-07-21T15:45:27.000Z</time>
      </trkpt>
      <trkpt lat="45.93405" lon="4.83144">
        <ele>315.3</ele>
        <time>2013-07-21T15:45:28.000Z</time>
      </trkpt>
      <trkpt lat="45.93405" lon="4.83148">
        <ele>315.3</ele>
        <time>2013-07-21T15:45:29.000Z</time>
      </trkpt>
      <trkpt lat="45.93406" lon="4.83152">
        <ele>314.5</ele>
        <time>2013-07-21T15:45:30.000Z</time>
      </trkpt>
      <trkpt lat="45.93407" lon="4.83156">
        <ele>313.7</ele>
        <time>2013-07-21T15:45:31.000Z</time>
      </trkpt>
      <trkpt lat="45.93408" lon="4.83159">
        <ele>313.5</ele>
        <time>2013-07-21T15:45:32.000Z</time>
      </trkpt>
      <trkpt lat="45.93408" lon="4.83162">
        <ele>313.4</ele>
        <time>2013-07-21T15:45:33.000Z</time>
      </trkpt>
      <trkpt lat="45.93411" lon="4.83167">
        <ele>310.1</ele>
        <time>2013-07-21T15:45:36.000Z</time>
      </trkpt>
      <trkpt lat="45.93412" lon="4.83167">
        <ele>310.5</ele>
        <time>2013-07-21T15:45:37.000Z</time>
      </trkpt>
      <trkpt lat="45.93415" lon="4.83167">
        <ele>310.3</ele>
        <time>2013-07-21T15:45:39.000Z</time>
      </trkpt>
      <trkpt lat="45.93418" lon="4.83167">
        <ele>310</ele>
        <time>2013-07-21T15:45:40.000Z</time>
      </trkpt>
      <trkpt lat="45.9342" lon="4.83167">
        <ele>309.7</ele>
        <time>2013-07-21T15:45:41.000Z</time>
      </trkpt>
      <trkpt lat="45.93422" lon="4.83166">
        <ele>310</ele>
        <time>2013-07-21T15:45:42.000Z</time>
      </trkpt>
      <trkpt lat="45.93426" lon="4.83165">
        <ele>309.1</ele>
        <time>2013-07-21T15:45:44.000Z</time>
      </trkpt>
      <trkpt lat="45.93429" lon="4.83164">
        <ele>308.8</ele>
        <time>2013-07-21T15:45:45.000Z</time>
      </trkpt>
      <trkpt lat="45.93432" lon="4.83162">
        <ele>308.4</ele>
        <time>2013-07-21T15:45:46.000Z</time>
      </trkpt>
      <trkpt lat="45.93435" lon="4.83161">
        <ele>308.3</ele>
        <time>2013-07-21T15:45:47.000Z</time>
      </trkpt>
      <trkpt lat="45.93437" lon="4.83158">
        <ele>308.4</ele>
        <time>2013-07-21T15:45:48.000Z</time>
      </trkpt>
      <trkpt lat="45.9344" lon="4.83155">
        <ele>308.1</ele>
        <time>2013-07-21T15:45:49.000Z</time>
      </trkpt>
      <trkpt lat="45.93443" lon="4.83151">
        <ele>308.2</ele>
        <time>2013-07-21T15:45:50.000Z</time>
      </trkpt>
      <trkpt lat="45.93445" lon="4.83147">
        <ele>308.4</ele>
        <time>2013-07-21T15:45:51.000Z</time>
      </trkpt>
      <trkpt lat="45.93448" lon="4.83144">
        <ele>308.1</ele>
        <time>2013-07-21T15:45:52.000Z</time>
      </trkpt>
      <trkpt lat="45.93452" lon="4.83137">
        <ele>308.2</ele>
        <time>2013-07-21T15:45:53.536Z</time>
      </trkpt>
      <trkpt lat="45.93456" lon="4.83133">
        <ele>308.5</ele>
        <time>2013-07-21T15:45:55.000Z</time>
      </trkpt>
      <trkpt lat="45.93459" lon="4.8313">
        <ele>308.9</ele>
        <time>2013-07-21T15:45:56.000Z</time>
      </trkpt>
      <trkpt lat="45.93463" lon="4.83125">
        <ele>309.1</ele>
        <time>2013-07-21T15:45:57.000Z</time>
      </trkpt>
      <trkpt lat="45.93464" lon="4.83119">
        <ele>302.9</ele>
        <time>2013-07-21T15:45:58.000Z</time>
      </trkpt>
      <trkpt lat="45.93464" lon="4.83114">
        <ele>300.3</ele>
        <time>2013-07-21T15:45:59.000Z</time>
      </trkpt>
      <trkpt lat="45.93464" lon="4.8311">
        <ele>299.5</ele>
        <time>2013-07-21T15:46:00.000Z</time>
      </trkpt>
      <trkpt lat="45.93464" lon="4.83107">
        <ele>299.6</ele>
        <time>2013-07-21T15:46:01.000Z</time>
      </trkpt>
      <trkpt lat="45.93467" lon="4.83108">
        <ele>296.3</ele>
        <time>2013-07-21T15:46:09.000Z</time>
      </trkpt>
      <trkpt lat="45.93468" lon="4.8311">
        <ele>295.6</ele>
        <time>2013-07-21T15:46:10.000Z</time>
      </trkpt>
      <trkpt lat="45.9347" lon="4.83113">
        <ele>296</ele>
        <time>2013-07-21T15:46:12.000Z</time>
      </trkpt>
      <trkpt lat="45.93471" lon="4.83115">
        <ele>296.6</ele>
        <time>2013-07-21T15:46:13.000Z</time>
      </trkpt>
      <trkpt lat="45.93472" lon="4.83119">
        <ele>297</ele>
        <time>2013-07-21T15:46:15.000Z</time>
      </trkpt>
      <trkpt lat="45.93474" lon="4.8312">
        <ele>295.7</ele>
        <time>2013-07-21T15:46:16.000Z</time>
      </trkpt>
      <trkpt lat="45.93477" lon="4.83124">
        <ele>294.2</ele>
        <time>2013-07-21T15:46:18.000Z</time>
      </trkpt>
      <trkpt lat="45.93477" lon="4.83125">
        <ele>294.4</ele>
        <time>2013-07-21T15:46:19.000Z</time>
      </trkpt>
      <trkpt lat="45.93481" lon="4.83128">
        <ele>293.4</ele>
        <time>2013-07-21T15:46:20.000Z</time>
      </trkpt>
      <trkpt lat="45.93482" lon="4.83129">
        <ele>293.1</ele>
        <time>2013-07-21T15:46:21.000Z</time>
      </trkpt>
      <trkpt lat="45.93486" lon="4.83131">
        <ele>292.2</ele>
        <time>2013-07-21T15:46:27.000Z</time>
      </trkpt>
      <trkpt lat="45.93486" lon="4.83132">
        <ele>292</ele>
        <time>2013-07-21T15:46:28.000Z</time>
      </trkpt>
      <trkpt lat="45.93487" lon="4.83135">
        <ele>291.4</ele>
        <time>2013-07-21T15:46:32.000Z</time>
      </trkpt>
      <trkpt lat="45.93489" lon="4.83139">
        <ele>290</ele>
        <time>2013-07-21T15:46:33.000Z</time>
      </trkpt>
      <trkpt lat="45.93491" lon="4.83143">
        <ele>288.1</ele>
        <time>2013-07-21T15:46:34.000Z</time>
      </trkpt>
      <trkpt lat="45.93493" lon="4.83146">
        <ele>288</ele>
        <time>2013-07-21T15:46:35.000Z</time>
      </trkpt>
      <trkpt lat="45.93495" lon="4.83152">
        <ele>287.4</ele>
        <time>2013-07-21T15:46:36.000Z</time>
      </trkpt>
      <trkpt lat="45.93497" lon="4.83157">
        <ele>286.9</ele>
        <time>2013-07-21T15:46:38.000Z</time>
      </trkpt>
      <trkpt lat="45.93497" lon="4.83159">
        <ele>287.8</ele>
        <time>2013-07-21T15:46:39.000Z</time>
      </trkpt>
      <trkpt lat="45.93499" lon="4.83164">
        <ele>289.9</ele>
        <time>2013-07-21T15:46:43.000Z</time>
      </trkpt>
      <trkpt lat="45.935" lon="4.83165">
        <ele>290.3</ele>
        <time>2013-07-21T15:46:44.000Z</time>
      </trkpt>
      <trkpt lat="45.93503" lon="4.83166">
        <ele>290.2</ele>
        <time>2013-07-21T15:46:46.000Z</time>
      </trkpt>
      <trkpt lat="45.93505" lon="4.83167">
        <ele>290.4</ele>
        <time>2013-07-21T15:46:47.000Z</time>
      </trkpt>
      <trkpt lat="45.93509" lon="4.83169">
        <ele>289.9</ele>
        <time>2013-07-21T15:46:50.000Z</time>
      </trkpt>
      <trkpt lat="45.9351" lon="4.8317">
        <ele>290.2</ele>
        <time>2013-07-21T15:46:51.000Z</time>
      </trkpt>
      <trkpt lat="45.93513" lon="4.83172">
        <ele>290.4</ele>
        <time>2013-07-21T15:46:56.000Z</time>
      </trkpt>
      <trkpt lat="45.93514" lon="4.83172">
        <ele>290.7</ele>
        <time>2013-07-21T15:46:57.000Z</time>
      </trkpt>
      <trkpt lat="45.93517" lon="4.83173">
        <ele>290.9</ele>
        <time>2013-07-21T15:46:59.000Z</time>
      </trkpt>
      <trkpt lat="45.93519" lon="4.83174">
        <ele>289.7</ele>
        <time>2013-07-21T15:47:00.000Z</time>
      </trkpt>
      <trkpt lat="45.93522" lon="4.83175">
        <ele>289.3</ele>
        <time>2013-07-21T15:47:02.000Z</time>
      </trkpt>
      <trkpt lat="45.93524" lon="4.83176">
        <ele>289.2</ele>
        <time>2013-07-21T15:47:03.000Z</time>
      </trkpt>
      <trkpt lat="45.93525" lon="4.83178">
        <ele>287.6</ele>
        <time>2013-07-21T15:47:04.000Z</time>
      </trkpt>
      <trkpt lat="45.93527" lon="4.8318">
        <ele>287.1</ele>
        <time>2013-07-21T15:47:05.000Z</time>
      </trkpt>
      <trkpt lat="45.9353" lon="4.83184">
        <ele>287.4</ele>
        <time>2013-07-21T15:47:07.000Z</time>
      </trkpt>
      <trkpt lat="45.93532" lon="4.83187">
        <ele>288.8</ele>
        <time>2013-07-21T15:47:08.000Z</time>
      </trkpt>
      <trkpt lat="45.93534" lon="4.83192">
        <ele>288.9</ele>
        <time>2013-07-21T15:47:10.000Z</time>
      </trkpt>
      <trkpt lat="45.93536" lon="4.83197">
        <ele>288.6</ele>
        <time>2013-07-21T15:47:12.000Z</time>
      </trkpt>
      <trkpt lat="45.93537" lon="4.83203">
        <ele>289.5</ele>
        <time>2013-07-21T15:47:14.000Z</time>
      </trkpt>
      <trkpt lat="45.93535" lon="4.83204">
        <ele>291.3</ele>
        <time>2013-07-21T15:47:15.000Z</time>
      </trkpt>
      <trkpt lat="45.93532" lon="4.83208">
        <ele>290.9</ele>
        <time>2013-07-21T15:47:17.000Z</time>
      </trkpt>
      <trkpt lat="45.9353" lon="4.83209">
        <ele>291.5</ele>
        <time>2013-07-21T15:47:18.000Z</time>
      </trkpt>
      <trkpt lat="45.93526" lon="4.8321">
        <ele>292.7</ele>
        <time>2013-07-21T15:47:20.000Z</time>
      </trkpt>
      <trkpt lat="45.93524" lon="4.83211">
        <ele>293.1</ele>
        <time>2013-07-21T15:47:21.000Z</time>
      </trkpt>
      <trkpt lat="45.9352" lon="4.83213">
        <ele>293.9</ele>
        <time>2013-07-21T15:47:23.000Z</time>
      </trkpt>
      <trkpt lat="45.93519" lon="4.83214">
        <ele>295.1</ele>
        <time>2013-07-21T15:47:24.000Z</time>
      </trkpt>
      <trkpt lat="45.93516" lon="4.83217">
        <ele>295.8</ele>
        <time>2013-07-21T15:47:26.000Z</time>
      </trkpt>
      <trkpt lat="45.93515" lon="4.83219">
        <ele>296</ele>
        <time>2013-07-21T15:47:27.000Z</time>
      </trkpt>
      <trkpt lat="45.93513" lon="4.83225">
        <ele>296.4</ele>
        <time>2013-07-21T15:47:32.000Z</time>
      </trkpt>
      <trkpt lat="45.93509" lon="4.83225">
        <ele>297.7</ele>
        <time>2013-07-21T15:47:33.000Z</time>
      </trkpt>
      <trkpt lat="45.93507" lon="4.83227">
        <ele>297.7</ele>
        <time>2013-07-21T15:47:34.000Z</time>
      </trkpt>
      <trkpt lat="45.93505" lon="4.83229">
        <ele>298.2</ele>
        <time>2013-07-21T15:47:35.000Z</time>
      </trkpt>
      <trkpt lat="45.93502" lon="4.8323">
        <ele>298.8</ele>
        <time>2013-07-21T15:47:36.000Z</time>
      </trkpt>
      <trkpt lat="45.93499" lon="4.83232">
        <ele>299.1</ele>
        <time>2013-07-21T15:47:37.000Z</time>
      </trkpt>
      <trkpt lat="45.93497" lon="4.83234">
        <ele>299.6</ele>
        <time>2013-07-21T15:47:38.000Z</time>
      </trkpt>
      <trkpt lat="45.93495" lon="4.83235">
        <ele>299.5</ele>
        <time>2013-07-21T15:47:39.000Z</time>
      </trkpt>
      <trkpt lat="45.93492" lon="4.83239">
        <ele>299.8</ele>
        <time>2013-07-21T15:47:41.000Z</time>
      </trkpt>
      <trkpt lat="45.93491" lon="4.8324">
        <ele>300</ele>
        <time>2013-07-21T15:47:42.000Z</time>
      </trkpt>
      <trkpt lat="45.93488" lon="4.83245">
        <ele>300.8</ele>
        <time>2013-07-21T15:47:48.000Z</time>
      </trkpt>
      <trkpt lat="45.93488" lon="4.83246">
        <ele>300.7</ele>
        <time>2013-07-21T15:47:49.000Z</time>
      </trkpt>
      <trkpt lat="45.93487" lon="4.83251">
        <ele>300.6</ele>
        <time>2013-07-21T15:47:59.000Z</time>
      </trkpt>
      <trkpt lat="45.93488" lon="4.83258">
        <ele>294.8</ele>
        <time>2013-07-21T15:48:00.000Z</time>
      </trkpt>
      <trkpt lat="45.93488" lon="4.83264">
        <ele>292</ele>
        <time>2013-07-21T15:48:01.000Z</time>
      </trkpt>
      <trkpt lat="45.93488" lon="4.83271">
        <ele>290.9</ele>
        <time>2013-07-21T15:48:02.000Z</time>
      </trkpt>
      <trkpt lat="45.93488" lon="4.83278">
        <ele>289.8</ele>
        <time>2013-07-21T15:48:03.000Z</time>
      </trkpt>
      <trkpt lat="45.93488" lon="4.83284">
        <ele>289.7</ele>
        <time>2013-07-21T15:48:04.000Z</time>
      </trkpt>
      <trkpt lat="45.93487" lon="4.8329">
        <ele>289.2</ele>
        <time>2013-07-21T15:48:05.000Z</time>
      </trkpt>
      <trkpt lat="45.93486" lon="4.83295">
        <ele>288.4</ele>
        <time>2013-07-21T15:48:06.000Z</time>
      </trkpt>
      <trkpt lat="45.93485" lon="4.833">
        <ele>287.5</ele>
        <time>2013-07-21T15:48:07.000Z</time>
      </trkpt>
      <trkpt lat="45.93484" lon="4.83305">
        <ele>287</ele>
        <time>2013-07-21T15:48:08.000Z</time>
      </trkpt>
      <trkpt lat="45.93483" lon="4.83309">
        <ele>287.4</ele>
        <time>2013-07-21T15:48:09.000Z</time>
      </trkpt>
      <trkpt lat="45.93482" lon="4.83312">
        <ele>287</ele>
        <time>2013-07-21T15:48:10.000Z</time>
      </trkpt>
      <trkpt lat="45.93482" lon="4.83315">
        <ele>287.1</ele>
        <time>2013-07-21T15:48:11.000Z</time>
      </trkpt>
      <trkpt lat="45.9348" lon="4.8332">
        <ele>288.4</ele>
        <time>2013-07-21T15:48:13.000Z</time>
      </trkpt>
      <trkpt lat="45.93478" lon="4.83323">
        <ele>289</ele>
        <time>2013-07-21T15:48:14.000Z</time>
      </trkpt>
      <trkpt lat="45.93477" lon="4.83325">
        <ele>289</ele>
        <time>2013-07-21T15:48:15.000Z</time>
      </trkpt>
      <trkpt lat="45.93475" lon="4.83328">
        <ele>290.7</ele>
        <time>2013-07-21T15:48:16.000Z</time>
      </trkpt>
      <trkpt lat="45.93472" lon="4.8333">
        <ele>292</ele>
        <time>2013-07-21T15:48:17.000Z</time>
      </trkpt>
      <trkpt lat="45.93469" lon="4.83333">
        <ele>293.1</ele>
        <time>2013-07-21T15:48:18.000Z</time>
      </trkpt>
      <trkpt lat="45.93467" lon="4.83334">
        <ele>293.6</ele>
        <time>2013-07-21T15:48:19.000Z</time>
      </trkpt>
      <trkpt lat="45.93464" lon="4.83336">
        <ele>294.4</ele>
        <time>2013-07-21T15:48:20.000Z</time>
      </trkpt>
      <trkpt lat="45.93461" lon="4.83338">
        <ele>295</ele>
        <time>2013-07-21T15:48:21.000Z</time>
      </trkpt>
      <trkpt lat="45.93458" lon="4.8334">
        <ele>295.3</ele>
        <time>2013-07-21T15:48:22.000Z</time>
      </trkpt>
      <trkpt lat="45.93456" lon="4.83342">
        <ele>296.2</ele>
        <time>2013-07-21T15:48:23.000Z</time>
      </trkpt>
      <trkpt lat="45.93453" lon="4.83345">
        <ele>296.2</ele>
        <time>2013-07-21T15:48:24.000Z</time>
      </trkpt>
      <trkpt lat="45.9345" lon="4.83347">
        <ele>296.8</ele>
        <time>2013-07-21T15:48:25.000Z</time>
      </trkpt>
      <trkpt lat="45.93448" lon="4.83349">
        <ele>297.3</ele>
        <time>2013-07-21T15:48:26.000Z</time>
      </trkpt>
      <trkpt lat="45.93446" lon="4.83352">
        <ele>297.8</ele>
        <time>2013-07-21T15:48:27.000Z</time>
      </trkpt>
      <trkpt lat="45.93443" lon="4.83353">
        <ele>299</ele>
        <time>2013-07-21T15:48:28.000Z</time>
      </trkpt>
      <trkpt lat="45.9344" lon="4.83355">
        <ele>299.7</ele>
        <time>2013-07-21T15:48:29.000Z</time>
      </trkpt>
      <trkpt lat="45.93438" lon="4.83357">
        <ele>300.1</ele>
        <time>2013-07-21T15:48:30.000Z</time>
      </trkpt>
      <trkpt lat="45.93435" lon="4.83358">
        <ele>300.4</ele>
        <time>2013-07-21T15:48:31.000Z</time>
      </trkpt>
      <trkpt lat="45.93433" lon="4.8336">
        <ele>300.4</ele>
        <time>2013-07-21T15:48:32.000Z</time>
      </trkpt>
      <trkpt lat="45.93431" lon="4.83361">
        <ele>301.1</ele>
        <time>2013-07-21T15:48:33.000Z</time>
      </trkpt>
      <trkpt lat="45.93429" lon="4.83362">
        <ele>300.9</ele>
        <time>2013-07-21T15:48:34.000Z</time>
      </trkpt>
      <trkpt lat="45.93426" lon="4.83364">
        <ele>301.9</ele>
        <time>2013-07-21T15:48:35.000Z</time>
      </trkpt>
      <trkpt lat="45.93424" lon="4.83365">
        <ele>303.3</ele>
        <time>2013-07-21T15:48:36.000Z</time>
      </trkpt>
      <trkpt lat="45.93422" lon="4.83368">
        <ele>305</ele>
        <time>2013-07-21T15:48:37.000Z</time>
      </trkpt>
      <trkpt lat="45.9342" lon="4.8337">
        <ele>305.8</ele>
        <time>2013-07-21T15:48:38.000Z</time>
      </trkpt>
      <trkpt lat="45.93418" lon="4.83372">
        <ele>306</ele>
        <time>2013-07-21T15:48:39.000Z</time>
      </trkpt>
      <trkpt lat="45.93413" lon="4.83375">
        <ele>306.3</ele>
        <time>2013-07-21T15:48:40.000Z</time>
      </trkpt>
      <trkpt lat="45.9341" lon="4.83378">
        <ele>306.6</ele>
        <time>2013-07-21T15:48:42.000Z</time>
      </trkpt>
      <trkpt lat="45.93408" lon="4.8338">
        <ele>307.3</ele>
        <time>2013-07-21T15:48:43.000Z</time>
      </trkpt>
      <trkpt lat="45.93406" lon="4.83382">
        <ele>308.5</ele>
        <time>2013-07-21T15:48:44.000Z</time>
      </trkpt>
      <trkpt lat="45.93404" lon="4.83383">
        <ele>309.1</ele>
        <time>2013-07-21T15:48:45.000Z</time>
      </trkpt>
      <trkpt lat="45.93401" lon="4.83385">
        <ele>309</ele>
        <time>2013-07-21T15:48:46.000Z</time>
      </trkpt>
      <trkpt lat="45.93399" lon="4.83386">
        <ele>309.3</ele>
        <time>2013-07-21T15:48:47.000Z</time>
      </trkpt>
      <trkpt lat="45.93397" lon="4.83388">
        <ele>309</ele>
        <time>2013-07-21T15:48:48.000Z</time>
      </trkpt>
      <trkpt lat="45.93396" lon="4.8339">
        <ele>308.9</ele>
        <time>2013-07-21T15:48:49.000Z</time>
      </trkpt>
      <trkpt lat="45.93394" lon="4.83393">
        <ele>309.3</ele>
        <time>2013-07-21T15:48:50.000Z</time>
      </trkpt>
      <trkpt lat="45.93392" lon="4.83395">
        <ele>309.4</ele>
        <time>2013-07-21T15:48:51.000Z</time>
      </trkpt>
      <trkpt lat="45.9339" lon="4.83398">
        <ele>309.4</ele>
        <time>2013-07-21T15:48:52.000Z</time>
      </trkpt>
      <trkpt lat="45.93387" lon="4.83404">
        <ele>310.3</ele>
        <time>2013-07-21T15:48:55.000Z</time>
      </trkpt>
      <trkpt lat="45.93384" lon="4.83408">
        <ele>311.3</ele>
        <time>2013-07-21T15:48:57.000Z</time>
      </trkpt>
      <trkpt lat="45.93382" lon="4.8341">
        <ele>311.1</ele>
        <time>2013-07-21T15:48:58.000Z</time>
      </trkpt>
      <trkpt lat="45.9338" lon="4.83413">
        <ele>311.8</ele>
        <time>2013-07-21T15:48:59.000Z</time>
      </trkpt>
      <trkpt lat="45.93377" lon="4.83416">
        <ele>312.2</ele>
        <time>2013-07-21T15:49:00.000Z</time>
      </trkpt>
      <trkpt lat="45.93374" lon="4.83419">
        <ele>312.8</ele>
        <time>2013-07-21T15:49:01.000Z</time>
      </trkpt>
      <trkpt lat="45.93372" lon="4.83423">
        <ele>313.3</ele>
        <time>2013-07-21T15:49:02.000Z</time>
      </trkpt>
      <trkpt lat="45.9337" lon="4.83426">
        <ele>313.9</ele>
        <time>2013-07-21T15:49:03.000Z</time>
      </trkpt>
      <trkpt lat="45.93368" lon="4.8343">
        <ele>314.7</ele>
        <time>2013-07-21T15:49:04.000Z</time>
      </trkpt>
      <trkpt lat="45.93364" lon="4.83432">
        <ele>314.5</ele>
        <time>2013-07-21T15:49:05.000Z</time>
      </trkpt>
      <trkpt lat="45.9336" lon="4.83435">
        <ele>313.5</ele>
        <time>2013-07-21T15:49:06.000Z</time>
      </trkpt>
      <trkpt lat="45.93356" lon="4.83438">
        <ele>310.9</ele>
        <time>2013-07-21T15:49:07.000Z</time>
      </trkpt>
      <trkpt lat="45.93352" lon="4.83441">
        <ele>311.3</ele>
        <time>2013-07-21T15:49:08.000Z</time>
      </trkpt>
      <trkpt lat="45.93348" lon="4.83443">
        <ele>310.7</ele>
        <time>2013-07-21T15:49:09.000Z</time>
      </trkpt>
      <trkpt lat="45.93344" lon="4.83444">
        <ele>311.6</ele>
        <time>2013-07-21T15:49:10.000Z</time>
      </trkpt>
      <trkpt lat="45.9334" lon="4.83446">
        <ele>310.3</ele>
        <time>2013-07-21T15:49:11.000Z</time>
      </trkpt>
      <trkpt lat="45.93338" lon="4.83447">
        <ele>310.3</ele>
        <time>2013-07-21T15:49:12.000Z</time>
      </trkpt>
      <trkpt lat="45.93335" lon="4.83448">
        <ele>310.2</ele>
        <time>2013-07-21T15:49:13.000Z</time>
      </trkpt>
      <trkpt lat="45.93333" lon="4.83448">
        <ele>309</ele>
        <time>2013-07-21T15:49:14.000Z</time>
      </trkpt>
      <trkpt lat="45.9333" lon="4.83448">
        <ele>307.5</ele>
        <time>2013-07-21T15:49:15.000Z</time>
      </trkpt>
      <trkpt lat="45.93328" lon="4.83448">
        <ele>306.1</ele>
        <time>2013-07-21T15:49:16.000Z</time>
      </trkpt>
      <trkpt lat="45.93324" lon="4.83448">
        <ele>302.9</ele>
        <time>2013-07-21T15:49:17.000Z</time>
      </trkpt>
      <trkpt lat="45.93322" lon="4.83448">
        <ele>302.3</ele>
        <time>2013-07-21T15:49:18.000Z</time>
      </trkpt>
      <trkpt lat="45.93319" lon="4.83449">
        <ele>302.7</ele>
        <time>2013-07-21T15:49:19.000Z</time>
      </trkpt>
      <trkpt lat="45.93316" lon="4.8345">
        <ele>302.1</ele>
        <time>2013-07-21T15:49:20.000Z</time>
      </trkpt>
      <trkpt lat="45.93314" lon="4.83451">
        <ele>302.1</ele>
        <time>2013-07-21T15:49:21.000Z</time>
      </trkpt>
      <trkpt lat="45.93312" lon="4.83451">
        <ele>301.6</ele>
        <time>2013-07-21T15:49:22.000Z</time>
      </trkpt>
      <trkpt lat="45.93307" lon="4.83453">
        <ele>303.2</ele>
        <time>2013-07-21T15:49:24.000Z</time>
      </trkpt>
      <trkpt lat="45.93306" lon="4.83454">
        <ele>303.2</ele>
        <time>2013-07-21T15:49:25.000Z</time>
      </trkpt>
      <trkpt lat="45.93303" lon="4.83456">
        <ele>303.4</ele>
        <time>2013-07-21T15:49:27.000Z</time>
      </trkpt>
      <trkpt lat="45.93301" lon="4.83456">
        <ele>303.4</ele>
        <time>2013-07-21T15:49:28.000Z</time>
      </trkpt>
      <trkpt lat="45.93298" lon="4.83458">
        <ele>304.6</ele>
        <time>2013-07-21T15:49:30.000Z</time>
      </trkpt>
      <trkpt lat="45.93297" lon="4.8346">
        <ele>305.7</ele>
        <time>2013-07-21T15:49:31.000Z</time>
      </trkpt>
      <trkpt lat="45.93294" lon="4.83463">
        <ele>305.8</ele>
        <time>2013-07-21T15:49:33.000Z</time>
      </trkpt>
      <trkpt lat="45.93292" lon="4.83465">
        <ele>305.5</ele>
        <time>2013-07-21T15:49:34.000Z</time>
      </trkpt>
      <trkpt lat="45.93289" lon="4.83469">
        <ele>306.9</ele>
        <time>2013-07-21T15:49:36.000Z</time>
      </trkpt>
      <trkpt lat="45.93287" lon="4.83472">
        <ele>307.8</ele>
        <time>2013-07-21T15:49:37.000Z</time>
      </trkpt>
      <trkpt lat="45.93285" lon="4.83474">
        <ele>308.1</ele>
        <time>2013-07-21T15:49:38.000Z</time>
      </trkpt>
      <trkpt lat="45.93284" lon="4.83477">
        <ele>308.1</ele>
        <time>2013-07-21T15:49:39.000Z</time>
      </trkpt>
      <trkpt lat="45.93282" lon="4.83479">
        <ele>307.8</ele>
        <time>2013-07-21T15:49:40.000Z</time>
      </trkpt>
      <trkpt lat="45.9328" lon="4.83481">
        <ele>307.3</ele>
        <time>2013-07-21T15:49:41.000Z</time>
      </trkpt>
      <trkpt lat="45.93278" lon="4.83486">
        <ele>307</ele>
        <time>2013-07-21T15:49:43.000Z</time>
      </trkpt>
      <trkpt lat="45.93277" lon="4.83488">
        <ele>306</ele>
        <time>2013-07-21T15:49:44.000Z</time>
      </trkpt>
      <trkpt lat="45.93275" lon="4.83493">
        <ele>305</ele>
        <time>2013-07-21T15:49:46.000Z</time>
      </trkpt>
      <trkpt lat="45.93275" lon="4.83497">
        <ele>302.5</ele>
        <time>2013-07-21T15:49:47.000Z</time>
      </trkpt>
      <trkpt lat="45.93273" lon="4.835">
        <ele>301.5</ele>
        <time>2013-07-21T15:49:48.000Z</time>
      </trkpt>
      <trkpt lat="45.93273" lon="4.83503">
        <ele>301.9</ele>
        <time>2013-07-21T15:49:49.000Z</time>
      </trkpt>
      <trkpt lat="45.93271" lon="4.83507">
        <ele>303</ele>
        <time>2013-07-21T15:49:50.000Z</time>
      </trkpt>
      <trkpt lat="45.93269" lon="4.83509">
        <ele>303.1</ele>
        <time>2013-07-21T15:49:51.000Z</time>
      </trkpt>
      <trkpt lat="45.93267" lon="4.83511">
        <ele>302.7</ele>
        <time>2013-07-21T15:49:52.000Z</time>
      </trkpt>
      <trkpt lat="45.93264" lon="4.83514">
        <ele>302.7</ele>
        <time>2013-07-21T15:49:53.558Z</time>
      </trkpt>
      <trkpt lat="45.93261" lon="4.83516">
        <ele>303.3</ele>
        <time>2013-07-21T15:49:55.000Z</time>
      </trkpt>
      <trkpt lat="45.93258" lon="4.83518">
        <ele>305</ele>
        <time>2013-07-21T15:49:56.000Z</time>
      </trkpt>
      <trkpt lat="45.93256" lon="4.8352">
        <ele>304.7</ele>
        <time>2013-07-21T15:49:57.000Z</time>
      </trkpt>
      <trkpt lat="45.93255" lon="4.83522">
        <ele>305.1</ele>
        <time>2013-07-21T15:49:58.000Z</time>
      </trkpt>
      <trkpt lat="45.93251" lon="4.83525">
        <ele>305.2</ele>
        <time>2013-07-21T15:50:00.000Z</time>
      </trkpt>
      <trkpt lat="45.9325" lon="4.83526">
        <ele>304.8</ele>
        <time>2013-07-21T15:50:01.000Z</time>
      </trkpt>
      <trkpt lat="45.93247" lon="4.8353">
        <ele>307.5</ele>
        <time>2013-07-21T15:50:04.000Z</time>
      </trkpt>
      <trkpt lat="45.93245" lon="4.83531">
        <ele>307.1</ele>
        <time>2013-07-21T15:50:05.000Z</time>
      </trkpt>
      <trkpt lat="45.93241" lon="4.83532">
        <ele>307.5</ele>
        <time>2013-07-21T15:50:07.000Z</time>
      </trkpt>
      <trkpt lat="45.93239" lon="4.83533">
        <ele>307.9</ele>
        <time>2013-07-21T15:50:08.000Z</time>
      </trkpt>
      <trkpt lat="45.93236" lon="4.83535">
        <ele>307.7</ele>
        <time>2013-07-21T15:50:09.000Z</time>
      </trkpt>
      <trkpt lat="45.93234" lon="4.83536">
        <ele>307.8</ele>
        <time>2013-07-21T15:50:10.000Z</time>
      </trkpt>
      <trkpt lat="45.93231" lon="4.83538">
        <ele>307.6</ele>
        <time>2013-07-21T15:50:11.000Z</time>
      </trkpt>
      <trkpt lat="45.93228" lon="4.83539">
        <ele>307</ele>
        <time>2013-07-21T15:50:12.000Z</time>
      </trkpt>
      <trkpt lat="45.93225" lon="4.83541">
        <ele>306.8</ele>
        <time>2013-07-21T15:50:13.000Z</time>
      </trkpt>
      <trkpt lat="45.93222" lon="4.83543">
        <ele>307.9</ele>
        <time>2013-07-21T15:50:14.000Z</time>
      </trkpt>
      <trkpt lat="45.93219" lon="4.83545">
        <ele>307.7</ele>
        <time>2013-07-21T15:50:15.000Z</time>
      </trkpt>
      <trkpt lat="45.93217" lon="4.83547">
        <ele>307.8</ele>
        <time>2013-07-21T15:50:16.000Z</time>
      </trkpt>
      <trkpt lat="45.93214" lon="4.83549">
        <ele>306.9</ele>
        <time>2013-07-21T15:50:17.000Z</time>
      </trkpt>
      <trkpt lat="45.93213" lon="4.83551">
        <ele>307.4</ele>
        <time>2013-07-21T15:50:18.000Z</time>
      </trkpt>
      <trkpt lat="45.93211" lon="4.83553">
        <ele>307.6</ele>
        <time>2013-07-21T15:50:19.000Z</time>
      </trkpt>
      <trkpt lat="45.93208" lon="4.83555">
        <ele>307.7</ele>
        <time>2013-07-21T15:50:20.000Z</time>
      </trkpt>
      <trkpt lat="45.93206" lon="4.83557">
        <ele>308.2</ele>
        <time>2013-07-21T15:50:21.000Z</time>
      </trkpt>
      <trkpt lat="45.93204" lon="4.83558">
        <ele>308</ele>
        <time>2013-07-21T15:50:22.000Z</time>
      </trkpt>
      <trkpt lat="45.932" lon="4.8356">
        <ele>308.4</ele>
        <time>2013-07-21T15:50:24.000Z</time>
      </trkpt>
      <trkpt lat="45.93199" lon="4.83562">
        <ele>308.7</ele>
        <time>2013-07-21T15:50:25.000Z</time>
      </trkpt>
      <trkpt lat="45.93195" lon="4.83563">
        <ele>308.5</ele>
        <time>2013-07-21T15:50:27.000Z</time>
      </trkpt>
      <trkpt lat="45.93192" lon="4.83564">
        <ele>307.4</ele>
        <time>2013-07-21T15:50:28.000Z</time>
      </trkpt>
      <trkpt lat="45.9319" lon="4.83565">
        <ele>306</ele>
        <time>2013-07-21T15:50:29.000Z</time>
      </trkpt>
      <trkpt lat="45.93188" lon="4.83566">
        <ele>306</ele>
        <time>2013-07-21T15:50:30.000Z</time>
      </trkpt>
      <trkpt lat="45.93184" lon="4.83567">
        <ele>305.7</ele>
        <time>2013-07-21T15:50:32.000Z</time>
      </trkpt>
      <trkpt lat="45.93182" lon="4.83568">
        <ele>305.4</ele>
        <time>2013-07-21T15:50:33.000Z</time>
      </trkpt>
      <trkpt lat="45.93178" lon="4.83569">
        <ele>303.3</ele>
        <time>2013-07-21T15:50:35.000Z</time>
      </trkpt>
      <trkpt lat="45.93176" lon="4.83569">
        <ele>301.7</ele>
        <time>2013-07-21T15:50:36.000Z</time>
      </trkpt>
      <trkpt lat="45.93174" lon="4.8357">
        <ele>301.7</ele>
        <time>2013-07-21T15:50:37.000Z</time>
      </trkpt>
      <trkpt lat="45.93172" lon="4.83571">
        <ele>302.4</ele>
        <time>2013-07-21T15:50:38.000Z</time>
      </trkpt>
      <trkpt lat="45.93169" lon="4.83572">
        <ele>302.4</ele>
        <time>2013-07-21T15:50:39.000Z</time>
      </trkpt>
      <trkpt lat="45.93167" lon="4.83574">
        <ele>302.4</ele>
        <time>2013-07-21T15:50:40.000Z</time>
      </trkpt>
      <trkpt lat="45.93163" lon="4.83575">
        <ele>302.8</ele>
        <time>2013-07-21T15:50:42.000Z</time>
      </trkpt>
      <trkpt lat="45.93161" lon="4.83575">
        <ele>303.5</ele>
        <time>2013-07-21T15:50:43.000Z</time>
      </trkpt>
      <trkpt lat="45.93157" lon="4.83577">
        <ele>305.9</ele>
        <time>2013-07-21T15:50:50.000Z</time>
      </trkpt>
      <trkpt lat="45.93157" lon="4.83578">
        <ele>307.1</ele>
        <time>2013-07-21T15:50:51.000Z</time>
      </trkpt>
      <trkpt lat="45.93153" lon="4.83581">
        <ele>308.1</ele>
        <time>2013-07-21T15:51:00.000Z</time>
      </trkpt>
      <trkpt lat="45.93153" lon="4.83582">
        <ele>307.2</ele>
        <time>2013-07-21T15:51:01.000Z</time>
      </trkpt>
      <trkpt lat="45.93152" lon="4.83585">
        <ele>306.6</ele>
        <time>2013-07-21T15:51:03.000Z</time>
      </trkpt>
      <trkpt lat="45.93151" lon="4.83588">
        <ele>306.7</ele>
        <time>2013-07-21T15:51:04.000Z</time>
      </trkpt>
      <trkpt lat="45.93149" lon="4.83589">
        <ele>306.7</ele>
        <time>2013-07-21T15:51:05.000Z</time>
      </trkpt>
      <trkpt lat="45.93146" lon="4.83594">
        <ele>304.7</ele>
        <time>2013-07-21T15:51:06.000Z</time>
      </trkpt>
      <trkpt lat="45.93144" lon="4.83598">
        <ele>306</ele>
        <time>2013-07-21T15:51:07.000Z</time>
      </trkpt>
      <trkpt lat="45.93142" lon="4.83602">
        <ele>306</ele>
        <time>2013-07-21T15:51:08.000Z</time>
      </trkpt>
      <trkpt lat="45.93139" lon="4.83606">
        <ele>307</ele>
        <time>2013-07-21T15:51:09.000Z</time>
      </trkpt>
      <trkpt lat="45.93137" lon="4.8361">
        <ele>306.9</ele>
        <time>2013-07-21T15:51:10.000Z</time>
      </trkpt>
      <trkpt lat="45.93134" lon="4.83613">
        <ele>306.8</ele>
        <time>2013-07-21T15:51:11.000Z</time>
      </trkpt>
      <trkpt lat="45.93131" lon="4.83617">
        <ele>307.7</ele>
        <time>2013-07-21T15:51:12.000Z</time>
      </trkpt>
      <trkpt lat="45.93129" lon="4.83621">
        <ele>306.9</ele>
        <time>2013-07-21T15:51:13.000Z</time>
      </trkpt>
      <trkpt lat="45.93126" lon="4.83625">
        <ele>309</ele>
        <time>2013-07-21T15:51:14.000Z</time>
      </trkpt>
      <trkpt lat="45.93124" lon="4.83628">
        <ele>310.3</ele>
        <time>2013-07-21T15:51:15.000Z</time>
      </trkpt>
      <trkpt lat="45.93121" lon="4.83632">
        <ele>311</ele>
        <time>2013-07-21T15:51:16.000Z</time>
      </trkpt>
      <trkpt lat="45.93119" lon="4.83635">
        <ele>311.2</ele>
        <time>2013-07-21T15:51:17.000Z</time>
      </trkpt>
      <trkpt lat="45.93117" lon="4.83638">
        <ele>311.3</ele>
        <time>2013-07-21T15:51:18.000Z</time>
      </trkpt>
      <trkpt lat="45.93115" lon="4.8364">
        <ele>311.6</ele>
        <time>2013-07-21T15:51:19.000Z</time>
      </trkpt>
      <trkpt lat="45.93114" lon="4.83642">
        <ele>312.1</ele>
        <time>2013-07-21T15:51:20.000Z</time>
      </trkpt>
      <trkpt lat="45.93112" lon="4.83645">
        <ele>311.8</ele>
        <time>2013-07-21T15:51:22.000Z</time>
      </trkpt>
      <trkpt lat="45.9311" lon="4.83647">
        <ele>311.5</ele>
        <time>2013-07-21T15:51:23.000Z</time>
      </trkpt>
      <trkpt lat="45.93108" lon="4.8365">
        <ele>312.6</ele>
        <time>2013-07-21T15:51:25.000Z</time>
      </trkpt>
      <trkpt lat="45.93106" lon="4.83651">
        <ele>312.4</ele>
        <time>2013-07-21T15:51:26.000Z</time>
      </trkpt>
      <trkpt lat="45.93102" lon="4.83653">
        <ele>313.8</ele>
        <time>2013-07-21T15:51:28.000Z</time>
      </trkpt>
      <trkpt lat="45.931" lon="4.83654">
        <ele>313.6</ele>
        <time>2013-07-21T15:51:29.000Z</time>
      </trkpt>
      <trkpt lat="45.93098" lon="4.83654">
        <ele>313.9</ele>
        <time>2013-07-21T15:51:30.000Z</time>
      </trkpt>
      <trkpt lat="45.93095" lon="4.83655">
        <ele>314.2</ele>
        <time>2013-07-21T15:51:31.000Z</time>
      </trkpt>
      <trkpt lat="45.93093" lon="4.83655">
        <ele>314.4</ele>
        <time>2013-07-21T15:51:32.000Z</time>
      </trkpt>
      <trkpt lat="45.93091" lon="4.83656">
        <ele>314.9</ele>
        <time>2013-07-21T15:51:33.000Z</time>
      </trkpt>
      <trkpt lat="45.93089" lon="4.83657">
        <ele>314.8</ele>
        <time>2013-07-21T15:51:34.000Z</time>
      </trkpt>
      <trkpt lat="45.93086" lon="4.83657">
        <ele>314.7</ele>
        <time>2013-07-21T15:51:35.000Z</time>
      </trkpt>
      <trkpt lat="45.93082" lon="4.83658">
        <ele>316.1</ele>
        <time>2013-07-21T15:51:37.000Z</time>
      </trkpt>
      <trkpt lat="45.93079" lon="4.83658">
        <ele>316.3</ele>
        <time>2013-07-21T15:51:38.000Z</time>
      </trkpt>
      <trkpt lat="45.93075" lon="4.83658">
        <ele>315.8</ele>
        <time>2013-07-21T15:51:40.000Z</time>
      </trkpt>
      <trkpt lat="45.93073" lon="4.83658">
        <ele>316</ele>
        <time>2013-07-21T15:51:41.000Z</time>
      </trkpt>
      <trkpt lat="45.93068" lon="4.83659">
        <ele>315.4</ele>
        <time>2013-07-21T15:51:43.000Z</time>
      </trkpt>
      <trkpt lat="45.93066" lon="4.8366">
        <ele>315.4</ele>
        <time>2013-07-21T15:51:44.000Z</time>
      </trkpt>
      <trkpt lat="45.93062" lon="4.83662">
        <ele>314.5</ele>
        <time>2013-07-21T15:51:46.000Z</time>
      </trkpt>
      <trkpt lat="45.9306" lon="4.83663">
        <ele>313.8</ele>
        <time>2013-07-21T15:51:47.000Z</time>
      </trkpt>
      <trkpt lat="45.93056" lon="4.83664">
        <ele>313</ele>
        <time>2013-07-21T15:51:49.000Z</time>
      </trkpt>
      <trkpt lat="45.93054" lon="4.83664">
        <ele>313</ele>
        <time>2013-07-21T15:51:50.000Z</time>
      </trkpt>
      <trkpt lat="45.9305" lon="4.83665">
        <ele>313.6</ele>
        <time>2013-07-21T15:51:53.000Z</time>
      </trkpt>
      <trkpt lat="45.93049" lon="4.83665">
        <ele>315.2</ele>
        <time>2013-07-21T15:51:54.000Z</time>
      </trkpt>
      <trkpt lat="45.93045" lon="4.83667">
        <ele>316.5</ele>
        <time>2013-07-21T15:51:56.000Z</time>
      </trkpt>
      <trkpt lat="45.93043" lon="4.83668">
        <ele>316.9</ele>
        <time>2013-07-21T15:51:57.000Z</time>
      </trkpt>
      <trkpt lat="45.93039" lon="4.83669">
        <ele>317.3</ele>
        <time>2013-07-21T15:51:59.000Z</time>
      </trkpt>
      <trkpt lat="45.93038" lon="4.8367">
        <ele>316.3</ele>
        <time>2013-07-21T15:52:00.000Z</time>
      </trkpt>
      <trkpt lat="45.93035" lon="4.83671">
        <ele>315.7</ele>
        <time>2013-07-21T15:52:02.000Z</time>
      </trkpt>
      <trkpt lat="45.93033" lon="4.83672">
        <ele>315.1</ele>
        <time>2013-07-21T15:52:03.000Z</time>
      </trkpt>
      <trkpt lat="45.93031" lon="4.83673">
        <ele>315.2</ele>
        <time>2013-07-21T15:52:04.000Z</time>
      </trkpt>
      <trkpt lat="45.93029" lon="4.83674">
        <ele>314.4</ele>
        <time>2013-07-21T15:52:05.000Z</time>
      </trkpt>
      <trkpt lat="45.93027" lon="4.83676">
        <ele>314.6</ele>
        <time>2013-07-21T15:52:06.000Z</time>
      </trkpt>
      <trkpt lat="45.93024" lon="4.83677">
        <ele>314.1</ele>
        <time>2013-07-21T15:52:07.000Z</time>
      </trkpt>
      <trkpt lat="45.93021" lon="4.83678">
        <ele>314.1</ele>
        <time>2013-07-21T15:52:08.000Z</time>
      </trkpt>
      <trkpt lat="45.93017" lon="4.83679">
        <ele>313.8</ele>
        <time>2013-07-21T15:52:09.000Z</time>
      </trkpt>
      <trkpt lat="45.93014" lon="4.8368">
        <ele>314.3</ele>
        <time>2013-07-21T15:52:10.000Z</time>
      </trkpt>
      <trkpt lat="45.93011" lon="4.83682">
        <ele>313.1</ele>
        <time>2013-07-21T15:52:11.000Z</time>
      </trkpt>
      <trkpt lat="45.93007" lon="4.83682">
        <ele>313</ele>
        <time>2013-07-21T15:52:12.000Z</time>
      </trkpt>
      <trkpt lat="45.93004" lon="4.83683">
        <ele>312.3</ele>
        <time>2013-07-21T15:52:13.000Z</time>
      </trkpt>
      <trkpt lat="45.93001" lon="4.83683">
        <ele>312.8</ele>
        <time>2013-07-21T15:52:14.000Z</time>
      </trkpt>
      <trkpt lat="45.92998" lon="4.83683">
        <ele>311.7</ele>
        <time>2013-07-21T15:52:15.000Z</time>
      </trkpt>
      <trkpt lat="45.92996" lon="4.83683">
        <ele>312</ele>
        <time>2013-07-21T15:52:16.000Z</time>
      </trkpt>
      <trkpt lat="45.92994" lon="4.83684">
        <ele>311.4</ele>
        <time>2013-07-21T15:52:17.000Z</time>
      </trkpt>
      <trkpt lat="45.92991" lon="4.83684">
        <ele>311.6</ele>
        <time>2013-07-21T15:52:18.000Z</time>
      </trkpt>
      <trkpt lat="45.92988" lon="4.83684">
        <ele>312.2</ele>
        <time>2013-07-21T15:52:19.000Z</time>
      </trkpt>
      <trkpt lat="45.92985" lon="4.83685">
        <ele>312</ele>
        <time>2013-07-21T15:52:20.000Z</time>
      </trkpt>
      <trkpt lat="45.92983" lon="4.83686">
        <ele>312</ele>
        <time>2013-07-21T15:52:21.000Z</time>
      </trkpt>
      <trkpt lat="45.9298" lon="4.83688">
        <ele>312.7</ele>
        <time>2013-07-21T15:52:22.000Z</time>
      </trkpt>
      <trkpt lat="45.92977" lon="4.83689">
        <ele>312.7</ele>
        <time>2013-07-21T15:52:23.000Z</time>
      </trkpt>
      <trkpt lat="45.92975" lon="4.8369">
        <ele>311.6</ele>
        <time>2013-07-21T15:52:24.000Z</time>
      </trkpt>
      <trkpt lat="45.92973" lon="4.83691">
        <ele>311.5</ele>
        <time>2013-07-21T15:52:25.000Z</time>
      </trkpt>
      <trkpt lat="45.9297" lon="4.83693">
        <ele>311.2</ele>
        <time>2013-07-21T15:52:26.000Z</time>
      </trkpt>
      <trkpt lat="45.92968" lon="4.83694">
        <ele>310.8</ele>
        <time>2013-07-21T15:52:27.000Z</time>
      </trkpt>
      <trkpt lat="45.92963" lon="4.83696">
        <ele>310.5</ele>
        <time>2013-07-21T15:52:29.000Z</time>
      </trkpt>
      <trkpt lat="45.92961" lon="4.83697">
        <ele>310.4</ele>
        <time>2013-07-21T15:52:30.000Z</time>
      </trkpt>
      <trkpt lat="45.92958" lon="4.83698">
        <ele>310.3</ele>
        <time>2013-07-21T15:52:31.000Z</time>
      </trkpt>
      <trkpt lat="45.92956" lon="4.837">
        <ele>307.2</ele>
        <time>2013-07-21T15:52:32.000Z</time>
      </trkpt>
      <trkpt lat="45.92954" lon="4.83701">
        <ele>306.7</ele>
        <time>2013-07-21T15:52:33.000Z</time>
      </trkpt>
      <trkpt lat="45.92952" lon="4.83702">
        <ele>306.6</ele>
        <time>2013-07-21T15:52:34.000Z</time>
      </trkpt>
      <trkpt lat="45.92948" lon="4.83703">
        <ele>307.5</ele>
        <time>2013-07-21T15:52:36.000Z</time>
      </trkpt>
      <trkpt lat="45.92946" lon="4.83703">
        <ele>307.8</ele>
        <time>2013-07-21T15:52:37.000Z</time>
      </trkpt>
      <trkpt lat="45.92942" lon="4.83704">
        <ele>307.9</ele>
        <time>2013-07-21T15:52:39.000Z</time>
      </trkpt>
      <trkpt lat="45.92941" lon="4.83705">
        <ele>307</ele>
        <time>2013-07-21T15:52:40.000Z</time>
      </trkpt>
      <trkpt lat="45.92938" lon="4.83707">
        <ele>308.1</ele>
        <time>2013-07-21T15:52:43.000Z</time>
      </trkpt>
      <trkpt lat="45.92937" lon="4.83708">
        <ele>307.2</ele>
        <time>2013-07-21T15:52:44.000Z</time>
      </trkpt>
      <trkpt lat="45.92935" lon="4.8371">
        <ele>307.4</ele>
        <time>2013-07-21T15:52:46.000Z</time>
      </trkpt>
      <trkpt lat="45.92934" lon="4.83713">
        <ele>305</ele>
        <time>2013-07-21T15:52:47.000Z</time>
      </trkpt>
      <trkpt lat="45.92931" lon="4.83716">
        <ele>304.7</ele>
        <time>2013-07-21T15:52:49.000Z</time>
      </trkpt>
      <trkpt lat="45.92929" lon="4.83719">
        <ele>304.5</ele>
        <time>2013-07-21T15:52:50.000Z</time>
      </trkpt>
      <trkpt lat="45.92926" lon="4.83721">
        <ele>304.7</ele>
        <time>2013-07-21T15:52:51.000Z</time>
      </trkpt>
      <trkpt lat="45.92924" lon="4.83723">
        <ele>305</ele>
        <time>2013-07-21T15:52:52.000Z</time>
      </trkpt>
      <trkpt lat="45.9292" lon="4.83726">
        <ele>305.9</ele>
        <time>2013-07-21T15:52:53.000Z</time>
      </trkpt>
      <trkpt lat="45.92917" lon="4.83728">
        <ele>307.2</ele>
        <time>2013-07-21T15:52:54.000Z</time>
      </trkpt>
      <trkpt lat="45.92913" lon="4.83729">
        <ele>311.3</ele>
        <time>2013-07-21T15:52:54.921Z</time>
      </trkpt>
      <trkpt lat="45.9291" lon="4.83731">
        <ele>311.6</ele>
        <time>2013-07-21T15:52:56.000Z</time>
      </trkpt>
      <trkpt lat="45.92905" lon="4.83732">
        <ele>311.3</ele>
        <time>2013-07-21T15:52:57.000Z</time>
      </trkpt>
      <trkpt lat="45.92902" lon="4.83734">
        <ele>311.8</ele>
        <time>2013-07-21T15:52:58.000Z</time>
      </trkpt>
      <trkpt lat="45.92898" lon="4.83736">
        <ele>311.8</ele>
        <time>2013-07-21T15:52:59.000Z</time>
      </trkpt>
      <trkpt lat="45.92895" lon="4.83738">
        <ele>312.6</ele>
        <time>2013-07-21T15:53:00.000Z</time>
      </trkpt>
      <trkpt lat="45.92891" lon="4.8374">
        <ele>312.1</ele>
        <time>2013-07-21T15:53:01.000Z</time>
      </trkpt>
      <trkpt lat="45.92888" lon="4.83742">
        <ele>311.8</ele>
        <time>2013-07-21T15:53:02.000Z</time>
      </trkpt>
      <trkpt lat="45.92885" lon="4.83744">
        <ele>311.5</ele>
        <time>2013-07-21T15:53:03.000Z</time>
      </trkpt>
      <trkpt lat="45.92882" lon="4.83746">
        <ele>312.3</ele>
        <time>2013-07-21T15:53:04.000Z</time>
      </trkpt>
      <trkpt lat="45.92879" lon="4.83749">
        <ele>313.6</ele>
        <time>2013-07-21T15:53:05.000Z</time>
      </trkpt>
      <trkpt lat="45.92876" lon="4.83751">
        <ele>313.1</ele>
        <time>2013-07-21T15:53:06.000Z</time>
      </trkpt>
      <trkpt lat="45.92874" lon="4.83753">
        <ele>313.5</ele>
        <time>2013-07-21T15:53:07.000Z</time>
      </trkpt>
      <trkpt lat="45.9287" lon="4.83755">
        <ele>313.3</ele>
        <time>2013-07-21T15:53:08.000Z</time>
      </trkpt>
      <trkpt lat="45.92868" lon="4.83757">
        <ele>313.4</ele>
        <time>2013-07-21T15:53:09.000Z</time>
      </trkpt>
      <trkpt lat="45.92865" lon="4.83759">
        <ele>313.2</ele>
        <time>2013-07-21T15:53:10.000Z</time>
      </trkpt>
      <trkpt lat="45.92864" lon="4.83761">
        <ele>313.3</ele>
        <time>2013-07-21T15:53:11.000Z</time>
      </trkpt>
      <trkpt lat="45.92862" lon="4.83763">
        <ele>313.1</ele>
        <time>2013-07-21T15:53:12.000Z</time>
      </trkpt>
      <trkpt lat="45.9286" lon="4.83765">
        <ele>313</ele>
        <time>2013-07-21T15:53:13.000Z</time>
      </trkpt>
      <trkpt lat="45.92858" lon="4.83767">
        <ele>312.9</ele>
        <time>2013-07-21T15:53:14.000Z</time>
      </trkpt>
      <trkpt lat="45.92856" lon="4.83769">
        <ele>312.9</ele>
        <time>2013-07-21T15:53:15.000Z</time>
      </trkpt>
      <trkpt lat="45.92853" lon="4.83771">
        <ele>312.3</ele>
        <time>2013-07-21T15:53:16.000Z</time>
      </trkpt>
      <trkpt lat="45.92851" lon="4.83773">
        <ele>312.4</ele>
        <time>2013-07-21T15:53:17.000Z</time>
      </trkpt>
      <trkpt lat="45.92848" lon="4.83775">
        <ele>312.1</ele>
        <time>2013-07-21T15:53:18.000Z</time>
      </trkpt>
      <trkpt lat="45.92846" lon="4.83776">
        <ele>312.3</ele>
        <time>2013-07-21T15:53:19.000Z</time>
      </trkpt>
      <trkpt lat="45.92843" lon="4.83778">
        <ele>312.4</ele>
        <time>2013-07-21T15:53:20.000Z</time>
      </trkpt>
      <trkpt lat="45.9284" lon="4.8378">
        <ele>311.9</ele>
        <time>2013-07-21T15:53:21.000Z</time>
      </trkpt>
      <trkpt lat="45.92837" lon="4.83783">
        <ele>312.8</ele>
        <time>2013-07-21T15:53:22.000Z</time>
      </trkpt>
      <trkpt lat="45.92835" lon="4.83785">
        <ele>312.8</ele>
        <time>2013-07-21T15:53:23.000Z</time>
      </trkpt>
      <trkpt lat="45.92832" lon="4.83787">
        <ele>312.8</ele>
        <time>2013-07-21T15:53:24.000Z</time>
      </trkpt>
      <trkpt lat="45.92828" lon="4.83789">
        <ele>313.2</ele>
        <time>2013-07-21T15:53:25.000Z</time>
      </trkpt>
      <trkpt lat="45.92824" lon="4.83789">
        <ele>312.4</ele>
        <time>2013-07-21T15:53:26.000Z</time>
      </trkpt>
      <trkpt lat="45.9282" lon="4.8379">
        <ele>312.4</ele>
        <time>2013-07-21T15:53:27.000Z</time>
      </trkpt>
      <trkpt lat="45.92815" lon="4.83791">
        <ele>312.5</ele>
        <time>2013-07-21T15:53:28.000Z</time>
      </trkpt>
      <trkpt lat="45.92811" lon="4.83791">
        <ele>312.7</ele>
        <time>2013-07-21T15:53:29.000Z</time>
      </trkpt>
      <trkpt lat="45.92807" lon="4.83792">
        <ele>313</ele>
        <time>2013-07-21T15:53:30.000Z</time>
      </trkpt>
      <trkpt lat="45.92804" lon="4.83794">
        <ele>313.6</ele>
        <time>2013-07-21T15:53:31.000Z</time>
      </trkpt>
      <trkpt lat="45.92802" lon="4.83795">
        <ele>313.7</ele>
        <time>2013-07-21T15:53:32.000Z</time>
      </trkpt>
      <trkpt lat="45.92799" lon="4.83797">
        <ele>313.3</ele>
        <time>2013-07-21T15:53:33.000Z</time>
      </trkpt>
      <trkpt lat="45.92796" lon="4.83798">
        <ele>312.8</ele>
        <time>2013-07-21T15:53:34.000Z</time>
      </trkpt>
      <trkpt lat="45.92794" lon="4.838">
        <ele>311.1</ele>
        <time>2013-07-21T15:53:35.000Z</time>
      </trkpt>
      <trkpt lat="45.92792" lon="4.83802">
        <ele>309.1</ele>
        <time>2013-07-21T15:53:36.000Z</time>
      </trkpt>
      <trkpt lat="45.92789" lon="4.83804">
        <ele>307.6</ele>
        <time>2013-07-21T15:53:37.000Z</time>
      </trkpt>
      <trkpt lat="45.92787" lon="4.83806">
        <ele>306.8</ele>
        <time>2013-07-21T15:53:38.000Z</time>
      </trkpt>
      <trkpt lat="45.92784" lon="4.83808">
        <ele>306.8</ele>
        <time>2013-07-21T15:53:39.000Z</time>
      </trkpt>
      <trkpt lat="45.92781" lon="4.8381">
        <ele>306.6</ele>
        <time>2013-07-21T15:53:40.000Z</time>
      </trkpt>
      <trkpt lat="45.92779" lon="4.83812">
        <ele>307.3</ele>
        <time>2013-07-21T15:53:41.000Z</time>
      </trkpt>
      <trkpt lat="45.92776" lon="4.83813">
        <ele>307.1</ele>
        <time>2013-07-21T15:53:42.000Z</time>
      </trkpt>
      <trkpt lat="45.92774" lon="4.83815">
        <ele>308.5</ele>
        <time>2013-07-21T15:53:43.000Z</time>
      </trkpt>
      <trkpt lat="45.92771" lon="4.83816">
        <ele>308.5</ele>
        <time>2013-07-21T15:53:44.000Z</time>
      </trkpt>
      <trkpt lat="45.92767" lon="4.83819">
        <ele>308.5</ele>
        <time>2013-07-21T15:53:46.000Z</time>
      </trkpt>
      <trkpt lat="45.92765" lon="4.8382">
        <ele>308.8</ele>
        <time>2013-07-21T15:53:47.000Z</time>
      </trkpt>
      <trkpt lat="45.92762" lon="4.83822">
        <ele>308.1</ele>
        <time>2013-07-21T15:53:49.000Z</time>
      </trkpt>
      <trkpt lat="45.92761" lon="4.83823">
        <ele>308.1</ele>
        <time>2013-07-21T15:53:50.000Z</time>
      </trkpt>
      <trkpt lat="45.92759" lon="4.83829">
        <ele>309.7</ele>
        <time>2013-07-21T15:53:52.000Z</time>
      </trkpt>
      <trkpt lat="45.9276" lon="4.83831">
        <ele>309.3</ele>
        <time>2013-07-21T15:53:53.000Z</time>
      </trkpt>
      <trkpt lat="45.92761" lon="4.83835">
        <ele>308</ele>
        <time>2013-07-21T15:53:54.000Z</time>
      </trkpt>
      <trkpt lat="45.92761" lon="4.83839">
        <ele>306.5</ele>
        <time>2013-07-21T15:53:54.876Z</time>
      </trkpt>
      <trkpt lat="45.92763" lon="4.83843">
        <ele>306</ele>
        <time>2013-07-21T15:53:56.000Z</time>
      </trkpt>
      <trkpt lat="45.92764" lon="4.83846">
        <ele>307.8</ele>
        <time>2013-07-21T15:53:57.000Z</time>
      </trkpt>
      <trkpt lat="45.92765" lon="4.8385">
        <ele>307.6</ele>
        <time>2013-07-21T15:53:58.000Z</time>
      </trkpt>
      <trkpt lat="45.92767" lon="4.83853">
        <ele>307.7</ele>
        <time>2013-07-21T15:53:59.000Z</time>
      </trkpt>
      <trkpt lat="45.92768" lon="4.83857">
        <ele>307.8</ele>
        <time>2013-07-21T15:54:00.000Z</time>
      </trkpt>
      <trkpt lat="45.9277" lon="4.8386">
        <ele>308.8</ele>
        <time>2013-07-21T15:54:01.000Z</time>
      </trkpt>
      <trkpt lat="45.92771" lon="4.83863">
        <ele>309.3</ele>
        <time>2013-07-21T15:54:02.000Z</time>
      </trkpt>
      <trkpt lat="45.92773" lon="4.83867">
        <ele>309.9</ele>
        <time>2013-07-21T15:54:03.000Z</time>
      </trkpt>
      <trkpt lat="45.92774" lon="4.8387">
        <ele>310</ele>
        <time>2013-07-21T15:54:04.000Z</time>
      </trkpt>
      <trkpt lat="45.92776" lon="4.83874">
        <ele>309.8</ele>
        <time>2013-07-21T15:54:05.000Z</time>
      </trkpt>
      <trkpt lat="45.92777" lon="4.83879">
        <ele>309.2</ele>
        <time>2013-07-21T15:54:06.000Z</time>
      </trkpt>
      <trkpt lat="45.92779" lon="4.83882">
        <ele>309</ele>
        <time>2013-07-21T15:54:07.000Z</time>
      </trkpt>
      <trkpt lat="45.9278" lon="4.83886">
        <ele>309.4</ele>
        <time>2013-07-21T15:54:08.000Z</time>
      </trkpt>
      <trkpt lat="45.92782" lon="4.83889">
        <ele>309.6</ele>
        <time>2013-07-21T15:54:09.000Z</time>
      </trkpt>
      <trkpt lat="45.92783" lon="4.83892">
        <ele>310</ele>
        <time>2013-07-21T15:54:10.000Z</time>
      </trkpt>
      <trkpt lat="45.92785" lon="4.83896">
        <ele>310.1</ele>
        <time>2013-07-21T15:54:11.000Z</time>
      </trkpt>
      <trkpt lat="45.92786" lon="4.83899">
        <ele>310</ele>
        <time>2013-07-21T15:54:12.000Z</time>
      </trkpt>
      <trkpt lat="45.92787" lon="4.83902">
        <ele>310.1</ele>
        <time>2013-07-21T15:54:13.000Z</time>
      </trkpt>
      <trkpt lat="45.92788" lon="4.83905">
        <ele>310.1</ele>
        <time>2013-07-21T15:54:14.000Z</time>
      </trkpt>
      <trkpt lat="45.92789" lon="4.83909">
        <ele>310.1</ele>
        <time>2013-07-21T15:54:15.000Z</time>
      </trkpt>
      <trkpt lat="45.9279" lon="4.83913">
        <ele>311.3</ele>
        <time>2013-07-21T15:54:16.000Z</time>
      </trkpt>
      <trkpt lat="45.92791" lon="4.83917">
        <ele>311.8</ele>
        <time>2013-07-21T15:54:17.000Z</time>
      </trkpt>
      <trkpt lat="45.92792" lon="4.83921">
        <ele>312.2</ele>
        <time>2013-07-21T15:54:18.000Z</time>
      </trkpt>
      <trkpt lat="45.92793" lon="4.83925">
        <ele>312.3</ele>
        <time>2013-07-21T15:54:19.000Z</time>
      </trkpt>
      <trkpt lat="45.92793" lon="4.8393">
        <ele>311.1</ele>
        <time>2013-07-21T15:54:20.000Z</time>
      </trkpt>
      <trkpt lat="45.92794" lon="4.83934">
        <ele>312</ele>
        <time>2013-07-21T15:54:21.000Z</time>
      </trkpt>
      <trkpt lat="45.92795" lon="4.83937">
        <ele>312.6</ele>
        <time>2013-07-21T15:54:22.000Z</time>
      </trkpt>
      <trkpt lat="45.92795" lon="4.83941">
        <ele>312.9</ele>
        <time>2013-07-21T15:54:23.000Z</time>
      </trkpt>
      <trkpt lat="45.92797" lon="4.83947">
        <ele>313.5</ele>
        <time>2013-07-21T15:54:25.000Z</time>
      </trkpt>
      <trkpt lat="45.92798" lon="4.8395">
        <ele>313.9</ele>
        <time>2013-07-21T15:54:26.000Z</time>
      </trkpt>
      <trkpt lat="45.92799" lon="4.83953">
        <ele>313.6</ele>
        <time>2013-07-21T15:54:27.000Z</time>
      </trkpt>
      <trkpt lat="45.92799" lon="4.83956">
        <ele>313.9</ele>
        <time>2013-07-21T15:54:28.000Z</time>
      </trkpt>
      <trkpt lat="45.92801" lon="4.8396">
        <ele>313.7</ele>
        <time>2013-07-21T15:54:29.000Z</time>
      </trkpt>
      <trkpt lat="45.92802" lon="4.83964">
        <ele>314.3</ele>
        <time>2013-07-21T15:54:30.000Z</time>
      </trkpt>
      <trkpt lat="45.92803" lon="4.83968">
        <ele>314.4</ele>
        <time>2013-07-21T15:54:31.000Z</time>
      </trkpt>
      <trkpt lat="45.92804" lon="4.83972">
        <ele>314.6</ele>
        <time>2013-07-21T15:54:32.000Z</time>
      </trkpt>
      <trkpt lat="45.92805" lon="4.83975">
        <ele>315</ele>
        <time>2013-07-21T15:54:33.000Z</time>
      </trkpt>
      <trkpt lat="45.92807" lon="4.8398">
        <ele>314.5</ele>
        <time>2013-07-21T15:54:34.000Z</time>
      </trkpt>
      <trkpt lat="45.92809" lon="4.83985">
        <ele>314.7</ele>
        <time>2013-07-21T15:54:35.000Z</time>
      </trkpt>
      <trkpt lat="45.9281" lon="4.83989">
        <ele>314.5</ele>
        <time>2013-07-21T15:54:36.000Z</time>
      </trkpt>
      <trkpt lat="45.92812" lon="4.83995">
        <ele>314.1</ele>
        <time>2013-07-21T15:54:37.000Z</time>
      </trkpt>
      <trkpt lat="45.92813" lon="4.84">
        <ele>314.4</ele>
        <time>2013-07-21T15:54:38.000Z</time>
      </trkpt>
      <trkpt lat="45.92815" lon="4.84005">
        <ele>314.1</ele>
        <time>2013-07-21T15:54:39.000Z</time>
      </trkpt>
      <trkpt lat="45.92817" lon="4.84009">
        <ele>314</ele>
        <time>2013-07-21T15:54:40.000Z</time>
      </trkpt>
      <trkpt lat="45.92818" lon="4.84014">
        <ele>313.8</ele>
        <time>2013-07-21T15:54:41.000Z</time>
      </trkpt>
      <trkpt lat="45.92819" lon="4.84018">
        <ele>313.3</ele>
        <time>2013-07-21T15:54:42.000Z</time>
      </trkpt>
      <trkpt lat="45.9282" lon="4.84022">
        <ele>313.5</ele>
        <time>2013-07-21T15:54:43.000Z</time>
      </trkpt>
      <trkpt lat="45.92822" lon="4.84026">
        <ele>313.8</ele>
        <time>2013-07-21T15:54:44.000Z</time>
      </trkpt>
      <trkpt lat="45.92822" lon="4.8403">
        <ele>314.3</ele>
        <time>2013-07-21T15:54:45.000Z</time>
      </trkpt>
      <trkpt lat="45.92823" lon="4.84034">
        <ele>314.4</ele>
        <time>2013-07-21T15:54:46.000Z</time>
      </trkpt>
      <trkpt lat="45.92825" lon="4.84038">
        <ele>314</ele>
        <time>2013-07-21T15:54:47.000Z</time>
      </trkpt>
      <trkpt lat="45.92826" lon="4.84042">
        <ele>314</ele>
        <time>2013-07-21T15:54:48.000Z</time>
      </trkpt>
      <trkpt lat="45.92828" lon="4.84047">
        <ele>313.8</ele>
        <time>2013-07-21T15:54:49.000Z</time>
      </trkpt>
      <trkpt lat="45.92831" lon="4.84051">
        <ele>313.2</ele>
        <time>2013-07-21T15:54:50.000Z</time>
      </trkpt>
      <trkpt lat="45.92832" lon="4.84055">
        <ele>313.7</ele>
        <time>2013-07-21T15:54:51.000Z</time>
      </trkpt>
      <trkpt lat="45.92834" lon="4.84059">
        <ele>315.1</ele>
        <time>2013-07-21T15:54:52.000Z</time>
      </trkpt>
      <trkpt lat="45.92835" lon="4.84063">
        <ele>315.1</ele>
        <time>2013-07-21T15:54:53.000Z</time>
      </trkpt>
      <trkpt lat="45.92836" lon="4.84069">
        <ele>315.1</ele>
        <time>2013-07-21T15:54:54.000Z</time>
      </trkpt>
      <trkpt lat="45.92837" lon="4.84073">
        <ele>315.1</ele>
        <time>2013-07-21T15:54:55.000Z</time>
      </trkpt>
      <trkpt lat="45.92838" lon="4.84078">
        <ele>315.2</ele>
        <time>2013-07-21T15:54:56.000Z</time>
      </trkpt>
      <trkpt lat="45.92839" lon="4.84083">
        <ele>315.4</ele>
        <time>2013-07-21T15:54:57.000Z</time>
      </trkpt>
      <trkpt lat="45.9284" lon="4.84088">
        <ele>315.3</ele>
        <time>2013-07-21T15:54:58.000Z</time>
      </trkpt>
      <trkpt lat="45.92842" lon="4.84094">
        <ele>315.6</ele>
        <time>2013-07-21T15:54:59.000Z</time>
      </trkpt>
      <trkpt lat="45.92843" lon="4.84098">
        <ele>315.7</ele>
        <time>2013-07-21T15:55:00.000Z</time>
      </trkpt>
      <trkpt lat="45.92844" lon="4.84103">
        <ele>315.2</ele>
        <time>2013-07-21T15:55:01.000Z</time>
      </trkpt>
      <trkpt lat="45.92846" lon="4.84108">
        <ele>315.7</ele>
        <time>2013-07-21T15:55:02.000Z</time>
      </trkpt>
      <trkpt lat="45.92847" lon="4.84112">
        <ele>315.9</ele>
        <time>2013-07-21T15:55:03.000Z</time>
      </trkpt>
      <trkpt lat="45.92849" lon="4.84116">
        <ele>316.3</ele>
        <time>2013-07-21T15:55:04.000Z</time>
      </trkpt>
      <trkpt lat="45.9285" lon="4.8412">
        <ele>316.5</ele>
        <time>2013-07-21T15:55:05.000Z</time>
      </trkpt>
      <trkpt lat="45.92852" lon="4.84125">
        <ele>317.3</ele>
        <time>2013-07-21T15:55:06.000Z</time>
      </trkpt>
      <trkpt lat="45.92854" lon="4.84128">
        <ele>317.4</ele>
        <time>2013-07-21T15:55:07.000Z</time>
      </trkpt>
      <trkpt lat="45.92856" lon="4.84133">
        <ele>317.5</ele>
        <time>2013-07-21T15:55:08.000Z</time>
      </trkpt>
      <trkpt lat="45.92858" lon="4.84138">
        <ele>317.7</ele>
        <time>2013-07-21T15:55:09.000Z</time>
      </trkpt>
      <trkpt lat="45.9286" lon="4.84142">
        <ele>318.9</ele>
        <time>2013-07-21T15:55:10.000Z</time>
      </trkpt>
      <trkpt lat="45.92861" lon="4.84146">
        <ele>319.1</ele>
        <time>2013-07-21T15:55:11.000Z</time>
      </trkpt>
      <trkpt lat="45.92863" lon="4.8415">
        <ele>319.1</ele>
        <time>2013-07-21T15:55:12.000Z</time>
      </trkpt>
      <trkpt lat="45.92865" lon="4.84154">
        <ele>319</ele>
        <time>2013-07-21T15:55:13.000Z</time>
      </trkpt>
      <trkpt lat="45.92867" lon="4.84158">
        <ele>319.4</ele>
        <time>2013-07-21T15:55:14.000Z</time>
      </trkpt>
      <trkpt lat="45.92869" lon="4.84163">
        <ele>319</ele>
        <time>2013-07-21T15:55:15.000Z</time>
      </trkpt>
      <trkpt lat="45.9287" lon="4.84167">
        <ele>318.7</ele>
        <time>2013-07-21T15:55:16.000Z</time>
      </trkpt>
      <trkpt lat="45.92872" lon="4.84171">
        <ele>318.6</ele>
        <time>2013-07-21T15:55:17.000Z</time>
      </trkpt>
      <trkpt lat="45.92874" lon="4.84175">
        <ele>318.7</ele>
        <time>2013-07-21T15:55:18.000Z</time>
      </trkpt>
      <trkpt lat="45.92875" lon="4.84179">
        <ele>318.8</ele>
        <time>2013-07-21T15:55:19.000Z</time>
      </trkpt>
      <trkpt lat="45.92875" lon="4.84183">
        <ele>319</ele>
        <time>2013-07-21T15:55:20.000Z</time>
      </trkpt>
      <trkpt lat="45.92877" lon="4.84187">
        <ele>318.8</ele>
        <time>2013-07-21T15:55:21.000Z</time>
      </trkpt>
      <trkpt lat="45.92877" lon="4.8419">
        <ele>318.8</ele>
        <time>2013-07-21T15:55:22.000Z</time>
      </trkpt>
      <trkpt lat="45.92878" lon="4.84194">
        <ele>318.9</ele>
        <time>2013-07-21T15:55:23.000Z</time>
      </trkpt>
      <trkpt lat="45.92879" lon="4.84198">
        <ele>318.6</ele>
        <time>2013-07-21T15:55:24.000Z</time>
      </trkpt>
      <trkpt lat="45.9288" lon="4.84201">
        <ele>319.7</ele>
        <time>2013-07-21T15:55:25.000Z</time>
      </trkpt>
      <trkpt lat="45.92882" lon="4.84204">
        <ele>321</ele>
        <time>2013-07-21T15:55:26.000Z</time>
      </trkpt>
      <trkpt lat="45.92884" lon="4.84206">
        <ele>322.4</ele>
        <time>2013-07-21T15:55:27.000Z</time>
      </trkpt>
      <trkpt lat="45.92886" lon="4.84206">
        <ele>322.6</ele>
        <time>2013-07-21T15:55:28.000Z</time>
      </trkpt>
      <trkpt lat="45.92889" lon="4.84206">
        <ele>322.7</ele>
        <time>2013-07-21T15:55:29.000Z</time>
      </trkpt>
      <trkpt lat="45.92891" lon="4.84204">
        <ele>322.2</ele>
        <time>2013-07-21T15:55:30.000Z</time>
      </trkpt>
      <trkpt lat="45.92894" lon="4.84202">
        <ele>322.8</ele>
        <time>2013-07-21T15:55:31.000Z</time>
      </trkpt>
      <trkpt lat="45.92897" lon="4.842">
        <ele>323.9</ele>
        <time>2013-07-21T15:55:32.000Z</time>
      </trkpt>
      <trkpt lat="45.92899" lon="4.84198">
        <ele>322.1</ele>
        <time>2013-07-21T15:55:33.000Z</time>
      </trkpt>
      <trkpt lat="45.92903" lon="4.84196">
        <ele>322</ele>
        <time>2013-07-21T15:55:34.000Z</time>
      </trkpt>
      <trkpt lat="45.92906" lon="4.84195">
        <ele>323</ele>
        <time>2013-07-21T15:55:35.000Z</time>
      </trkpt>
      <trkpt lat="45.92909" lon="4.84193">
        <ele>323</ele>
        <time>2013-07-21T15:55:36.000Z</time>
      </trkpt>
      <trkpt lat="45.92912" lon="4.84192">
        <ele>323.2</ele>
        <time>2013-07-21T15:55:37.000Z</time>
      </trkpt>
      <trkpt lat="45.92915" lon="4.8419">
        <ele>322.9</ele>
        <time>2013-07-21T15:55:38.000Z</time>
      </trkpt>
      <trkpt lat="45.92919" lon="4.84189">
        <ele>323.2</ele>
        <time>2013-07-21T15:55:39.000Z</time>
      </trkpt>
      <trkpt lat="45.92923" lon="4.84187">
        <ele>324.3</ele>
        <time>2013-07-21T15:55:40.000Z</time>
      </trkpt>
      <trkpt lat="45.92926" lon="4.84186">
        <ele>324.5</ele>
        <time>2013-07-21T15:55:41.000Z</time>
      </trkpt>
      <trkpt lat="45.9293" lon="4.84184">
        <ele>324.1</ele>
        <time>2013-07-21T15:55:42.000Z</time>
      </trkpt>
      <trkpt lat="45.92934" lon="4.84181">
        <ele>323.3</ele>
        <time>2013-07-21T15:55:43.000Z</time>
      </trkpt>
      <trkpt lat="45.92938" lon="4.84179">
        <ele>321.8</ele>
        <time>2013-07-21T15:55:44.000Z</time>
      </trkpt>
      <trkpt lat="45.92942" lon="4.84177">
        <ele>320.4</ele>
        <time>2013-07-21T15:55:45.000Z</time>
      </trkpt>
      <trkpt lat="45.92946" lon="4.84175">
        <ele>325.7</ele>
        <time>2013-07-21T15:55:46.000Z</time>
      </trkpt>
      <trkpt lat="45.9295" lon="4.84173">
        <ele>327.2</ele>
        <time>2013-07-21T15:55:47.000Z</time>
      </trkpt>
      <trkpt lat="45.92954" lon="4.84171">
        <ele>327.3</ele>
        <time>2013-07-21T15:55:48.000Z</time>
      </trkpt>
      <trkpt lat="45.92957" lon="4.84168">
        <ele>330.9</ele>
        <time>2013-07-21T15:55:49.000Z</time>
      </trkpt>
      <trkpt lat="45.92961" lon="4.84165">
        <ele>332.5</ele>
        <time>2013-07-21T15:55:50.000Z</time>
      </trkpt>
      <trkpt lat="45.92965" lon="4.84163">
        <ele>330.4</ele>
        <time>2013-07-21T15:55:51.000Z</time>
      </trkpt>
      <trkpt lat="45.92969" lon="4.84161">
        <ele>330.6</ele>
        <time>2013-07-21T15:55:52.000Z</time>
      </trkpt>
      <trkpt lat="45.92974" lon="4.8416">
        <ele>330</ele>
        <time>2013-07-21T15:55:53.000Z</time>
      </trkpt>
      <trkpt lat="45.92979" lon="4.84157">
        <ele>329.9</ele>
        <time>2013-07-21T15:55:54.000Z</time>
      </trkpt>
      <trkpt lat="45.92988" lon="4.84154">
        <ele>330</ele>
        <time>2013-07-21T15:55:55.635Z</time>
      </trkpt>
      <trkpt lat="45.92995" lon="4.84151">
        <ele>330.1</ele>
        <time>2013-07-21T15:55:57.000Z</time>
      </trkpt>
      <trkpt lat="45.92999" lon="4.84148">
        <ele>329.5</ele>
        <time>2013-07-21T15:55:58.000Z</time>
      </trkpt>
      <trkpt lat="45.93003" lon="4.84145">
        <ele>330.4</ele>
        <time>2013-07-21T15:55:59.000Z</time>
      </trkpt>
      <trkpt lat="45.93009" lon="4.8414">
        <ele>331.3</ele>
        <time>2013-07-21T15:56:00.000Z</time>
      </trkpt>
      <trkpt lat="45.93013" lon="4.84137">
        <ele>332</ele>
        <time>2013-07-21T15:56:01.000Z</time>
      </trkpt>
      <trkpt lat="45.93017" lon="4.84135">
        <ele>332.3</ele>
        <time>2013-07-21T15:56:02.000Z</time>
      </trkpt>
      <trkpt lat="45.93023" lon="4.84132">
        <ele>331.4</ele>
        <time>2013-07-21T15:56:03.000Z</time>
      </trkpt>
      <trkpt lat="45.93028" lon="4.8413">
        <ele>330.8</ele>
        <time>2013-07-21T15:56:04.000Z</time>
      </trkpt>
      <trkpt lat="45.93033" lon="4.84126">
        <ele>330.7</ele>
        <time>2013-07-21T15:56:05.000Z</time>
      </trkpt>
      <trkpt lat="45.93039" lon="4.84123">
        <ele>329.4</ele>
        <time>2013-07-21T15:56:06.000Z</time>
      </trkpt>
      <trkpt lat="45.93044" lon="4.8412">
        <ele>327.7</ele>
        <time>2013-07-21T15:56:07.000Z</time>
      </trkpt>
      <trkpt lat="45.9305" lon="4.84118">
        <ele>328.5</ele>
        <time>2013-07-21T15:56:08.000Z</time>
      </trkpt>
      <trkpt lat="45.93055" lon="4.84115">
        <ele>328.3</ele>
        <time>2013-07-21T15:56:09.000Z</time>
      </trkpt>
      <trkpt lat="45.93058" lon="4.84113">
        <ele>328.3</ele>
        <time>2013-07-21T15:56:10.000Z</time>
      </trkpt>
      <trkpt lat="45.93063" lon="4.8411">
        <ele>328.3</ele>
        <time>2013-07-21T15:56:11.000Z</time>
      </trkpt>
      <trkpt lat="45.93069" lon="4.8411">
        <ele>327.8</ele>
        <time>2013-07-21T15:56:12.000Z</time>
      </trkpt>
      <trkpt lat="45.93074" lon="4.84108">
        <ele>327.8</ele>
        <time>2013-07-21T15:56:13.000Z</time>
      </trkpt>
      <trkpt lat="45.93078" lon="4.84104">
        <ele>327.9</ele>
        <time>2013-07-21T15:56:14.000Z</time>
      </trkpt>
      <trkpt lat="45.93081" lon="4.84096">
        <ele>328.1</ele>
        <time>2013-07-21T15:56:15.000Z</time>
      </trkpt>
      <trkpt lat="45.93086" lon="4.84092">
        <ele>328.1</ele>
        <time>2013-07-21T15:56:16.000Z</time>
      </trkpt>
      <trkpt lat="45.93096" lon="4.84093">
        <ele>329.7</ele>
        <time>2013-07-21T15:56:17.000Z</time>
      </trkpt>
      <trkpt lat="45.93101" lon="4.8409">
        <ele>330.4</ele>
        <time>2013-07-21T15:56:18.000Z</time>
      </trkpt>
      <trkpt lat="45.93108" lon="4.84087">
        <ele>328.7</ele>
        <time>2013-07-21T15:56:19.000Z</time>
      </trkpt>
      <trkpt lat="45.93113" lon="4.84084">
        <ele>327.1</ele>
        <time>2013-07-21T15:56:20.000Z</time>
      </trkpt>
      <trkpt lat="45.93117" lon="4.84083">
        <ele>324.9</ele>
        <time>2013-07-21T15:56:21.000Z</time>
      </trkpt>
      <trkpt lat="45.93122" lon="4.84082">
        <ele>323</ele>
        <time>2013-07-21T15:56:22.000Z</time>
      </trkpt>
      <trkpt lat="45.93126" lon="4.84081">
        <ele>324.1</ele>
        <time>2013-07-21T15:56:23.000Z</time>
      </trkpt>
      <trkpt lat="45.93132" lon="4.84079">
        <ele>324.1</ele>
        <time>2013-07-21T15:56:24.000Z</time>
      </trkpt>
      <trkpt lat="45.93137" lon="4.84077">
        <ele>323.2</ele>
        <time>2013-07-21T15:56:25.000Z</time>
      </trkpt>
      <trkpt lat="45.93142" lon="4.84075">
        <ele>323.2</ele>
        <time>2013-07-21T15:56:26.000Z</time>
      </trkpt>
      <trkpt lat="45.93145" lon="4.84072">
        <ele>323</ele>
        <time>2013-07-21T15:56:27.000Z</time>
      </trkpt>
      <trkpt lat="45.9315" lon="4.84071">
        <ele>324</ele>
        <time>2013-07-21T15:56:28.000Z</time>
      </trkpt>
      <trkpt lat="45.93158" lon="4.84069">
        <ele>325.1</ele>
        <time>2013-07-21T15:56:29.000Z</time>
      </trkpt>
      <trkpt lat="45.93163" lon="4.84067">
        <ele>326</ele>
        <time>2013-07-21T15:56:30.000Z</time>
      </trkpt>
      <trkpt lat="45.9317" lon="4.84066">
        <ele>324</ele>
        <time>2013-07-21T15:56:31.000Z</time>
      </trkpt>
      <trkpt lat="45.93176" lon="4.84062">
        <ele>321.8</ele>
        <time>2013-07-21T15:56:32.000Z</time>
      </trkpt>
      <trkpt lat="45.93181" lon="4.84059">
        <ele>320.3</ele>
        <time>2013-07-21T15:56:33.000Z</time>
      </trkpt>
      <trkpt lat="45.93186" lon="4.84056">
        <ele>321.5</ele>
        <time>2013-07-21T15:56:34.000Z</time>
      </trkpt>
      <trkpt lat="45.93191" lon="4.84052">
        <ele>321.3</ele>
        <time>2013-07-21T15:56:35.000Z</time>
      </trkpt>
      <trkpt lat="45.93195" lon="4.84046">
        <ele>321.4</ele>
        <time>2013-07-21T15:56:36.000Z</time>
      </trkpt>
      <trkpt lat="45.932" lon="4.84043">
        <ele>320.9</ele>
        <time>2013-07-21T15:56:37.000Z</time>
      </trkpt>
      <trkpt lat="45.93203" lon="4.84039">
        <ele>320.2</ele>
        <time>2013-07-21T15:56:38.000Z</time>
      </trkpt>
      <trkpt lat="45.93207" lon="4.84036">
        <ele>320.9</ele>
        <time>2013-07-21T15:56:39.000Z</time>
      </trkpt>
      <trkpt lat="45.93212" lon="4.84035">
        <ele>321</ele>
        <time>2013-07-21T15:56:40.000Z</time>
      </trkpt>
      <trkpt lat="45.93216" lon="4.84033">
        <ele>321.2</ele>
        <time>2013-07-21T15:56:41.000Z</time>
      </trkpt>
      <trkpt lat="45.93223" lon="4.84031">
        <ele>319.6</ele>
        <time>2013-07-21T15:56:42.000Z</time>
      </trkpt>
      <trkpt lat="45.93228" lon="4.84029">
        <ele>319.5</ele>
        <time>2013-07-21T15:56:43.000Z</time>
      </trkpt>
      <trkpt lat="45.93234" lon="4.84026">
        <ele>320.7</ele>
        <time>2013-07-21T15:56:44.000Z</time>
      </trkpt>
      <trkpt lat="45.93239" lon="4.84023">
        <ele>321.2</ele>
        <time>2013-07-21T15:56:45.000Z</time>
      </trkpt>
      <trkpt lat="45.93244" lon="4.84021">
        <ele>321.6</ele>
        <time>2013-07-21T15:56:46.000Z</time>
      </trkpt>
      <trkpt lat="45.9325" lon="4.84019">
        <ele>321.6</ele>
        <time>2013-07-21T15:56:47.000Z</time>
      </trkpt>
      <trkpt lat="45.93255" lon="4.84017">
        <ele>321.2</ele>
        <time>2013-07-21T15:56:48.000Z</time>
      </trkpt>
      <trkpt lat="45.9326" lon="4.84014">
        <ele>321.3</ele>
        <time>2013-07-21T15:56:49.000Z</time>
      </trkpt>
      <trkpt lat="45.93266" lon="4.84011">
        <ele>321.6</ele>
        <time>2013-07-21T15:56:50.000Z</time>
      </trkpt>
      <trkpt lat="45.93272" lon="4.84009">
        <ele>322</ele>
        <time>2013-07-21T15:56:51.000Z</time>
      </trkpt>
      <trkpt lat="45.93277" lon="4.84007">
        <ele>321.2</ele>
        <time>2013-07-21T15:56:52.000Z</time>
      </trkpt>
      <trkpt lat="45.93283" lon="4.84005">
        <ele>320.1</ele>
        <time>2013-07-21T15:56:53.000Z</time>
      </trkpt>
      <trkpt lat="45.93289" lon="4.84">
        <ele>319.4</ele>
        <time>2013-07-21T15:56:54.000Z</time>
      </trkpt>
      <trkpt lat="45.93298" lon="4.83997">
        <ele>319.3</ele>
        <time>2013-07-21T15:56:55.558Z</time>
      </trkpt>
      <trkpt lat="45.93308" lon="4.83993">
        <ele>319.3</ele>
        <time>2013-07-21T15:56:57.000Z</time>
      </trkpt>
      <trkpt lat="45.93316" lon="4.83991">
        <ele>318.1</ele>
        <time>2013-07-21T15:56:58.000Z</time>
      </trkpt>
      <trkpt lat="45.93321" lon="4.83988">
        <ele>317.1</ele>
        <time>2013-07-21T15:56:59.000Z</time>
      </trkpt>
      <trkpt lat="45.93327" lon="4.83985">
        <ele>316.8</ele>
        <time>2013-07-21T15:57:00.000Z</time>
      </trkpt>
      <trkpt lat="45.93335" lon="4.83984">
        <ele>316.8</ele>
        <time>2013-07-21T15:57:01.000Z</time>
      </trkpt>
      <trkpt lat="45.93339" lon="4.8398">
        <ele>316.4</ele>
        <time>2013-07-21T15:57:02.000Z</time>
      </trkpt>
      <trkpt lat="45.93345" lon="4.83978">
        <ele>315.1</ele>
        <time>2013-07-21T15:57:03.000Z</time>
      </trkpt>
      <trkpt lat="45.93351" lon="4.83975">
        <ele>316.4</ele>
        <time>2013-07-21T15:57:04.000Z</time>
      </trkpt>
      <trkpt lat="45.93356" lon="4.83973">
        <ele>317.7</ele>
        <time>2013-07-21T15:57:05.000Z</time>
      </trkpt>
      <trkpt lat="45.93362" lon="4.83972">
        <ele>316.1</ele>
        <time>2013-07-21T15:57:06.000Z</time>
      </trkpt>
      <trkpt lat="45.93367" lon="4.8397">
        <ele>315.3</ele>
        <time>2013-07-21T15:57:07.000Z</time>
      </trkpt>
      <trkpt lat="45.93371" lon="4.83966">
        <ele>314.5</ele>
        <time>2013-07-21T15:57:08.000Z</time>
      </trkpt>
      <trkpt lat="45.93376" lon="4.83963">
        <ele>315.2</ele>
        <time>2013-07-21T15:57:09.000Z</time>
      </trkpt>
      <trkpt lat="45.93382" lon="4.8396">
        <ele>314.6</ele>
        <time>2013-07-21T15:57:10.000Z</time>
      </trkpt>
      <trkpt lat="45.93386" lon="4.83958">
        <ele>314.8</ele>
        <time>2013-07-21T15:57:11.000Z</time>
      </trkpt>
      <trkpt lat="45.9339" lon="4.83957">
        <ele>315.4</ele>
        <time>2013-07-21T15:57:12.000Z</time>
      </trkpt>
      <trkpt lat="45.93395" lon="4.83954">
        <ele>315.5</ele>
        <time>2013-07-21T15:57:13.000Z</time>
      </trkpt>
      <trkpt lat="45.934" lon="4.83953">
        <ele>316</ele>
        <time>2013-07-21T15:57:14.000Z</time>
      </trkpt>
      <trkpt lat="45.93405" lon="4.8395">
        <ele>316.2</ele>
        <time>2013-07-21T15:57:15.000Z</time>
      </trkpt>
      <trkpt lat="45.93411" lon="4.83947">
        <ele>314.1</ele>
        <time>2013-07-21T15:57:16.000Z</time>
      </trkpt>
      <trkpt lat="45.93417" lon="4.83944">
        <ele>314.5</ele>
        <time>2013-07-21T15:57:17.000Z</time>
      </trkpt>
      <trkpt lat="45.93421" lon="4.83941">
        <ele>313.8</ele>
        <time>2013-07-21T15:57:18.000Z</time>
      </trkpt>
      <trkpt lat="45.93427" lon="4.83938">
        <ele>314</ele>
        <time>2013-07-21T15:57:19.000Z</time>
      </trkpt>
      <trkpt lat="45.93433" lon="4.83937">
        <ele>314.4</ele>
        <time>2013-07-21T15:57:20.000Z</time>
      </trkpt>
      <trkpt lat="45.93439" lon="4.83935">
        <ele>315.1</ele>
        <time>2013-07-21T15:57:21.000Z</time>
      </trkpt>
      <trkpt lat="45.93444" lon="4.83933">
        <ele>314.8</ele>
        <time>2013-07-21T15:57:22.000Z</time>
      </trkpt>
      <trkpt lat="45.93449" lon="4.8393">
        <ele>314.8</ele>
        <time>2013-07-21T15:57:23.000Z</time>
      </trkpt>
      <trkpt lat="45.93454" lon="4.83926">
        <ele>314.8</ele>
        <time>2013-07-21T15:57:24.000Z</time>
      </trkpt>
      <trkpt lat="45.93458" lon="4.83924">
        <ele>315</ele>
        <time>2013-07-21T15:57:25.000Z</time>
      </trkpt>
      <trkpt lat="45.93464" lon="4.83921">
        <ele>315</ele>
        <time>2013-07-21T15:57:26.000Z</time>
      </trkpt>
      <trkpt lat="45.93469" lon="4.83919">
        <ele>314.2</ele>
        <time>2013-07-21T15:57:27.000Z</time>
      </trkpt>
      <trkpt lat="45.93474" lon="4.83917">
        <ele>314.4</ele>
        <time>2013-07-21T15:57:28.000Z</time>
      </trkpt>
      <trkpt lat="45.93479" lon="4.83916">
        <ele>314.3</ele>
        <time>2013-07-21T15:57:29.000Z</time>
      </trkpt>
      <trkpt lat="45.93483" lon="4.83914">
        <ele>314.1</ele>
        <time>2013-07-21T15:57:30.000Z</time>
      </trkpt>
      <trkpt lat="45.93486" lon="4.83912">
        <ele>314.2</ele>
        <time>2013-07-21T15:57:31.000Z</time>
      </trkpt>
      <trkpt lat="45.9349" lon="4.8391">
        <ele>314.2</ele>
        <time>2013-07-21T15:57:32.000Z</time>
      </trkpt>
      <trkpt lat="45.93494" lon="4.83908">
        <ele>314.5</ele>
        <time>2013-07-21T15:57:33.000Z</time>
      </trkpt>
      <trkpt lat="45.93499" lon="4.83905">
        <ele>314.3</ele>
        <time>2013-07-21T15:57:34.000Z</time>
      </trkpt>
      <trkpt lat="45.93503" lon="4.83901">
        <ele>315</ele>
        <time>2013-07-21T15:57:35.000Z</time>
      </trkpt>
      <trkpt lat="45.93508" lon="4.83898">
        <ele>315.1</ele>
        <time>2013-07-21T15:57:36.000Z</time>
      </trkpt>
      <trkpt lat="45.93511" lon="4.83896">
        <ele>315.2</ele>
        <time>2013-07-21T15:57:37.000Z</time>
      </trkpt>
      <trkpt lat="45.93513" lon="4.83895">
        <ele>315</ele>
        <time>2013-07-21T15:57:38.000Z</time>
      </trkpt>
      <trkpt lat="45.93515" lon="4.83893">
        <ele>315</ele>
        <time>2013-07-21T15:57:39.000Z</time>
      </trkpt>
      <trkpt lat="45.93518" lon="4.83891">
        <ele>315</ele>
        <time>2013-07-21T15:57:40.000Z</time>
      </trkpt>
      <trkpt lat="45.93521" lon="4.83888">
        <ele>315.5</ele>
        <time>2013-07-21T15:57:41.000Z</time>
      </trkpt>
      <trkpt lat="45.93524" lon="4.83883">
        <ele>315.2</ele>
        <time>2013-07-21T15:57:42.000Z</time>
      </trkpt>
      <trkpt lat="45.93527" lon="4.83879">
        <ele>314.8</ele>
        <time>2013-07-21T15:57:43.000Z</time>
      </trkpt>
      <trkpt lat="45.93529" lon="4.83874">
        <ele>315.2</ele>
        <time>2013-07-21T15:57:44.000Z</time>
      </trkpt>
      <trkpt lat="45.93531" lon="4.83865">
        <ele>315.1</ele>
        <time>2013-07-21T15:57:45.000Z</time>
      </trkpt>
      <trkpt lat="45.93532" lon="4.83859">
        <ele>315</ele>
        <time>2013-07-21T15:57:46.000Z</time>
      </trkpt>
      <trkpt lat="45.93533" lon="4.83853">
        <ele>314.3</ele>
        <time>2013-07-21T15:57:47.000Z</time>
      </trkpt>
      <trkpt lat="45.93533" lon="4.83846">
        <ele>313.7</ele>
        <time>2013-07-21T15:57:48.000Z</time>
      </trkpt>
      <trkpt lat="45.93535" lon="4.83839">
        <ele>313.7</ele>
        <time>2013-07-21T15:57:49.000Z</time>
      </trkpt>
      <trkpt lat="45.93536" lon="4.83832">
        <ele>314.1</ele>
        <time>2013-07-21T15:57:50.000Z</time>
      </trkpt>
      <trkpt lat="45.93536" lon="4.83825">
        <ele>313.8</ele>
        <time>2013-07-21T15:57:51.000Z</time>
      </trkpt>
      <trkpt lat="45.93536" lon="4.83819">
        <ele>313.7</ele>
        <time>2013-07-21T15:57:52.000Z</time>
      </trkpt>
      <trkpt lat="45.93538" lon="4.8381">
        <ele>312.1</ele>
        <time>2013-07-21T15:57:53.000Z</time>
      </trkpt>
      <trkpt lat="45.93538" lon="4.83804">
        <ele>312.7</ele>
        <time>2013-07-21T15:57:54.000Z</time>
      </trkpt>
      <trkpt lat="45.93539" lon="4.83795">
        <ele>312.1</ele>
        <time>2013-07-21T15:57:55.552Z</time>
      </trkpt>
      <trkpt lat="45.93541" lon="4.83784">
        <ele>312.5</ele>
        <time>2013-07-21T15:57:57.000Z</time>
      </trkpt>
      <trkpt lat="45.93545" lon="4.83776">
        <ele>313.4</ele>
        <time>2013-07-21T15:57:58.000Z</time>
      </trkpt>
      <trkpt lat="45.93548" lon="4.83769">
        <ele>312.9</ele>
        <time>2013-07-21T15:57:59.000Z</time>
      </trkpt>
      <trkpt lat="45.9355" lon="4.83763">
        <ele>312.6</ele>
        <time>2013-07-21T15:58:00.000Z</time>
      </trkpt>
      <trkpt lat="45.93552" lon="4.83753">
        <ele>314</ele>
        <time>2013-07-21T15:58:01.000Z</time>
      </trkpt>
      <trkpt lat="45.93554" lon="4.83745">
        <ele>314.2</ele>
        <time>2013-07-21T15:58:02.000Z</time>
      </trkpt>
      <trkpt lat="45.93559" lon="4.83738">
        <ele>313.9</ele>
        <time>2013-07-21T15:58:03.000Z</time>
      </trkpt>
      <trkpt lat="45.93563" lon="4.83732">
        <ele>314.2</ele>
        <time>2013-07-21T15:58:04.000Z</time>
      </trkpt>
      <trkpt lat="45.93567" lon="4.83725">
        <ele>315.1</ele>
        <time>2013-07-21T15:58:05.000Z</time>
      </trkpt>
      <trkpt lat="45.9357" lon="4.8372">
        <ele>315.8</ele>
        <time>2013-07-21T15:58:06.000Z</time>
      </trkpt>
      <trkpt lat="45.93573" lon="4.83714">
        <ele>316.2</ele>
        <time>2013-07-21T15:58:07.000Z</time>
      </trkpt>
      <trkpt lat="45.93576" lon="4.83708">
        <ele>315.5</ele>
        <time>2013-07-21T15:58:08.000Z</time>
      </trkpt>
      <trkpt lat="45.9358" lon="4.83702">
        <ele>316.2</ele>
        <time>2013-07-21T15:58:09.000Z</time>
      </trkpt>
      <trkpt lat="45.93583" lon="4.83697">
        <ele>315.7</ele>
        <time>2013-07-21T15:58:10.000Z</time>
      </trkpt>
      <trkpt lat="45.93587" lon="4.83691">
        <ele>315.4</ele>
        <time>2013-07-21T15:58:11.000Z</time>
      </trkpt>
      <trkpt lat="45.9359" lon="4.83686">
        <ele>315.5</ele>
        <time>2013-07-21T15:58:12.000Z</time>
      </trkpt>
      <trkpt lat="45.93593" lon="4.83681">
        <ele>314.6</ele>
        <time>2013-07-21T15:58:13.000Z</time>
      </trkpt>
      <trkpt lat="45.93598" lon="4.83675">
        <ele>314.5</ele>
        <time>2013-07-21T15:58:14.000Z</time>
      </trkpt>
      <trkpt lat="45.93602" lon="4.83668">
        <ele>314.6</ele>
        <time>2013-07-21T15:58:15.000Z</time>
      </trkpt>
      <trkpt lat="45.93607" lon="4.83661">
        <ele>314.5</ele>
        <time>2013-07-21T15:58:16.000Z</time>
      </trkpt>
      <trkpt lat="45.93611" lon="4.83656">
        <ele>316.4</ele>
        <time>2013-07-21T15:58:17.000Z</time>
      </trkpt>
      <trkpt lat="45.93614" lon="4.83651">
        <ele>318.1</ele>
        <time>2013-07-21T15:58:18.000Z</time>
      </trkpt>
      <trkpt lat="45.93617" lon="4.83647">
        <ele>317.9</ele>
        <time>2013-07-21T15:58:19.000Z</time>
      </trkpt>
      <trkpt lat="45.9362" lon="4.83642">
        <ele>317.6</ele>
        <time>2013-07-21T15:58:20.000Z</time>
      </trkpt>
      <trkpt lat="45.93624" lon="4.83637">
        <ele>318.4</ele>
        <time>2013-07-21T15:58:21.000Z</time>
      </trkpt>
      <trkpt lat="45.93627" lon="4.83632">
        <ele>319.2</ele>
        <time>2013-07-21T15:58:22.000Z</time>
      </trkpt>
      <trkpt lat="45.93631" lon="4.83627">
        <ele>319.9</ele>
        <time>2013-07-21T15:58:23.000Z</time>
      </trkpt>
      <trkpt lat="45.93633" lon="4.83621">
        <ele>321.8</ele>
        <time>2013-07-21T15:58:24.000Z</time>
      </trkpt>
      <trkpt lat="45.93636" lon="4.83616">
        <ele>322.5</ele>
        <time>2013-07-21T15:58:25.000Z</time>
      </trkpt>
      <trkpt lat="45.93639" lon="4.83608">
        <ele>320.3</ele>
        <time>2013-07-21T15:58:26.000Z</time>
      </trkpt>
      <trkpt lat="45.93642" lon="4.83603">
        <ele>320.3</ele>
        <time>2013-07-21T15:58:27.000Z</time>
      </trkpt>
      <trkpt lat="45.93644" lon="4.83596">
        <ele>320.8</ele>
        <time>2013-07-21T15:58:28.000Z</time>
      </trkpt>
      <trkpt lat="45.93647" lon="4.83589">
        <ele>321</ele>
        <time>2013-07-21T15:58:29.000Z</time>
      </trkpt>
      <trkpt lat="45.9365" lon="4.83583">
        <ele>320.9</ele>
        <time>2013-07-21T15:58:30.000Z</time>
      </trkpt>
      <trkpt lat="45.93653" lon="4.83577">
        <ele>320.9</ele>
        <time>2013-07-21T15:58:31.000Z</time>
      </trkpt>
      <trkpt lat="45.93657" lon="4.83576">
        <ele>321</ele>
        <time>2013-07-21T15:58:32.000Z</time>
      </trkpt>
      <trkpt lat="45.93659" lon="4.83571">
        <ele>321.4</ele>
        <time>2013-07-21T15:58:33.000Z</time>
      </trkpt>
      <trkpt lat="45.93662" lon="4.83566">
        <ele>321.8</ele>
        <time>2013-07-21T15:58:34.000Z</time>
      </trkpt>
      <trkpt lat="45.93665" lon="4.83558">
        <ele>322.2</ele>
        <time>2013-07-21T15:58:35.000Z</time>
      </trkpt>
      <trkpt lat="45.93668" lon="4.83552">
        <ele>322.5</ele>
        <time>2013-07-21T15:58:36.000Z</time>
      </trkpt>
      <trkpt lat="45.93672" lon="4.83544">
        <ele>323.4</ele>
        <time>2013-07-21T15:58:37.000Z</time>
      </trkpt>
      <trkpt lat="45.93675" lon="4.83536">
        <ele>323.7</ele>
        <time>2013-07-21T15:58:38.000Z</time>
      </trkpt>
      <trkpt lat="45.93678" lon="4.83529">
        <ele>324.2</ele>
        <time>2013-07-21T15:58:39.000Z</time>
      </trkpt>
      <trkpt lat="45.93683" lon="4.83524">
        <ele>323.4</ele>
        <time>2013-07-21T15:58:40.000Z</time>
      </trkpt>
      <trkpt lat="45.93688" lon="4.8352">
        <ele>325.2</ele>
        <time>2013-07-21T15:58:41.000Z</time>
      </trkpt>
      <trkpt lat="45.93691" lon="4.83513">
        <ele>325.7</ele>
        <time>2013-07-21T15:58:42.000Z</time>
      </trkpt>
      <trkpt lat="45.93695" lon="4.83506">
        <ele>325.4</ele>
        <time>2013-07-21T15:58:43.000Z</time>
      </trkpt>
      <trkpt lat="45.93698" lon="4.835">
        <ele>325.5</ele>
        <time>2013-07-21T15:58:44.000Z</time>
      </trkpt>
      <trkpt lat="45.93702" lon="4.83493">
        <ele>325.2</ele>
        <time>2013-07-21T15:58:45.000Z</time>
      </trkpt>
      <trkpt lat="45.93705" lon="4.83487">
        <ele>325.7</ele>
        <time>2013-07-21T15:58:46.000Z</time>
      </trkpt>
      <trkpt lat="45.93708" lon="4.83481">
        <ele>326.4</ele>
        <time>2013-07-21T15:58:47.000Z</time>
      </trkpt>
      <trkpt lat="45.93711" lon="4.83475">
        <ele>327.7</ele>
        <time>2013-07-21T15:58:48.000Z</time>
      </trkpt>
      <trkpt lat="45.93714" lon="4.83468">
        <ele>326.5</ele>
        <time>2013-07-21T15:58:49.000Z</time>
      </trkpt>
      <trkpt lat="45.93719" lon="4.83463">
        <ele>325.9</ele>
        <time>2013-07-21T15:58:50.000Z</time>
      </trkpt>
      <trkpt lat="45.93723" lon="4.83457">
        <ele>324.8</ele>
        <time>2013-07-21T15:58:51.000Z</time>
      </trkpt>
      <trkpt lat="45.93728" lon="4.83451">
        <ele>326.6</ele>
        <time>2013-07-21T15:58:52.000Z</time>
      </trkpt>
      <trkpt lat="45.93734" lon="4.83445">
        <ele>326.4</ele>
        <time>2013-07-21T15:58:53.000Z</time>
      </trkpt>
      <trkpt lat="45.93737" lon="4.83439">
        <ele>326.4</ele>
        <time>2013-07-21T15:58:54.000Z</time>
      </trkpt>
      <trkpt lat="45.93744" lon="4.83432">
        <ele>325.1</ele>
        <time>2013-07-21T15:58:55.560Z</time>
      </trkpt>
      <trkpt lat="45.9375" lon="4.83425">
        <ele>324.9</ele>
        <time>2013-07-21T15:58:57.000Z</time>
      </trkpt>
      <trkpt lat="45.93755" lon="4.83422">
        <ele>324</ele>
        <time>2013-07-21T15:58:58.000Z</time>
      </trkpt>
      <trkpt lat="45.93761" lon="4.8342">
        <ele>323.7</ele>
        <time>2013-07-21T15:58:59.000Z</time>
      </trkpt>
      <trkpt lat="45.93766" lon="4.83417">
        <ele>324.3</ele>
        <time>2013-07-21T15:59:00.000Z</time>
      </trkpt>
      <trkpt lat="45.93773" lon="4.83416">
        <ele>323.2</ele>
        <time>2013-07-21T15:59:01.000Z</time>
      </trkpt>
      <trkpt lat="45.93779" lon="4.83414">
        <ele>322.6</ele>
        <time>2013-07-21T15:59:02.000Z</time>
      </trkpt>
      <trkpt lat="45.93785" lon="4.83412">
        <ele>321.9</ele>
        <time>2013-07-21T15:59:03.000Z</time>
      </trkpt>
      <trkpt lat="45.93791" lon="4.83412">
        <ele>321.8</ele>
        <time>2013-07-21T15:59:04.000Z</time>
      </trkpt>
      <trkpt lat="45.93796" lon="4.8341">
        <ele>321.1</ele>
        <time>2013-07-21T15:59:05.000Z</time>
      </trkpt>
      <trkpt lat="45.93803" lon="4.83408">
        <ele>321.1</ele>
        <time>2013-07-21T15:59:06.000Z</time>
      </trkpt>
      <trkpt lat="45.93808" lon="4.83408">
        <ele>322</ele>
        <time>2013-07-21T15:59:07.000Z</time>
      </trkpt>
      <trkpt lat="45.93815" lon="4.83408">
        <ele>322</ele>
        <time>2013-07-21T15:59:08.000Z</time>
      </trkpt>
      <trkpt lat="45.93821" lon="4.83406">
        <ele>321.5</ele>
        <time>2013-07-21T15:59:09.000Z</time>
      </trkpt>
      <trkpt lat="45.93827" lon="4.83405">
        <ele>320.7</ele>
        <time>2013-07-21T15:59:10.000Z</time>
      </trkpt>
      <trkpt lat="45.93832" lon="4.83406">
        <ele>322</ele>
        <time>2013-07-21T15:59:11.000Z</time>
      </trkpt>
      <trkpt lat="45.93836" lon="4.83405">
        <ele>322.3</ele>
        <time>2013-07-21T15:59:12.000Z</time>
      </trkpt>
      <trkpt lat="45.93842" lon="4.83401">
        <ele>322.9</ele>
        <time>2013-07-21T15:59:13.000Z</time>
      </trkpt>
      <trkpt lat="45.93847" lon="4.834">
        <ele>323.6</ele>
        <time>2013-07-21T15:59:14.000Z</time>
      </trkpt>
      <trkpt lat="45.93852" lon="4.83398">
        <ele>321.7</ele>
        <time>2013-07-21T15:59:15.000Z</time>
      </trkpt>
      <trkpt lat="45.93858" lon="4.83397">
        <ele>321.4</ele>
        <time>2013-07-21T15:59:16.000Z</time>
      </trkpt>
      <trkpt lat="45.93862" lon="4.83395">
        <ele>320.2</ele>
        <time>2013-07-21T15:59:17.000Z</time>
      </trkpt>
      <trkpt lat="45.93868" lon="4.83395">
        <ele>319.9</ele>
        <time>2013-07-21T15:59:18.000Z</time>
      </trkpt>
      <trkpt lat="45.93873" lon="4.83394">
        <ele>319.3</ele>
        <time>2013-07-21T15:59:19.000Z</time>
      </trkpt>
      <trkpt lat="45.93877" lon="4.83391">
        <ele>319</ele>
        <time>2013-07-21T15:59:20.000Z</time>
      </trkpt>
      <trkpt lat="45.93881" lon="4.8339">
        <ele>318.9</ele>
        <time>2013-07-21T15:59:21.000Z</time>
      </trkpt>
      <trkpt lat="45.93886" lon="4.83388">
        <ele>318.9</ele>
        <time>2013-07-21T15:59:22.000Z</time>
      </trkpt>
      <trkpt lat="45.9389" lon="4.83387">
        <ele>318.8</ele>
        <time>2013-07-21T15:59:23.000Z</time>
      </trkpt>
      <trkpt lat="45.93893" lon="4.83386">
        <ele>318.9</ele>
        <time>2013-07-21T15:59:24.000Z</time>
      </trkpt>
      <trkpt lat="45.93896" lon="4.83385">
        <ele>318.3</ele>
        <time>2013-07-21T15:59:25.000Z</time>
      </trkpt>
      <trkpt lat="45.939" lon="4.83384">
        <ele>317.3</ele>
        <time>2013-07-21T15:59:26.000Z</time>
      </trkpt>
      <trkpt lat="45.93903" lon="4.83385">
        <ele>318.1</ele>
        <time>2013-07-21T15:59:28.000Z</time>
      </trkpt>
      <trkpt lat="45.93905" lon="4.83385">
        <ele>317.7</ele>
        <time>2013-07-21T15:59:29.000Z</time>
      </trkpt>
      <trkpt lat="45.93907" lon="4.83386">
        <ele>318.2</ele>
        <time>2013-07-21T15:59:30.000Z</time>
      </trkpt>
      <trkpt lat="45.9391" lon="4.83386">
        <ele>316.9</ele>
        <time>2013-07-21T15:59:31.000Z</time>
      </trkpt>
      <trkpt lat="45.93913" lon="4.83387">
        <ele>316.2</ele>
        <time>2013-07-21T15:59:32.000Z</time>
      </trkpt>
      <trkpt lat="45.93916" lon="4.83387">
        <ele>316</ele>
        <time>2013-07-21T15:59:33.000Z</time>
      </trkpt>
      <trkpt lat="45.93919" lon="4.83387">
        <ele>316.4</ele>
        <time>2013-07-21T15:59:34.000Z</time>
      </trkpt>
      <trkpt lat="45.93923" lon="4.83386">
        <ele>316.2</ele>
        <time>2013-07-21T15:59:35.000Z</time>
      </trkpt>
      <trkpt lat="45.93926" lon="4.83384">
        <ele>315.5</ele>
        <time>2013-07-21T15:59:36.000Z</time>
      </trkpt>
      <trkpt lat="45.9393" lon="4.83383">
        <ele>316.1</ele>
        <time>2013-07-21T15:59:37.000Z</time>
      </trkpt>
      <trkpt lat="45.93934" lon="4.83382">
        <ele>315.9</ele>
        <time>2013-07-21T15:59:38.000Z</time>
      </trkpt>
      <trkpt lat="45.93938" lon="4.8338">
        <ele>316.5</ele>
        <time>2013-07-21T15:59:39.000Z</time>
      </trkpt>
      <trkpt lat="45.93942" lon="4.83377">
        <ele>317</ele>
        <time>2013-07-21T15:59:40.000Z</time>
      </trkpt>
      <trkpt lat="45.93946" lon="4.83376">
        <ele>315.9</ele>
        <time>2013-07-21T15:59:41.000Z</time>
      </trkpt>
      <trkpt lat="45.93951" lon="4.83374">
        <ele>316.6</ele>
        <time>2013-07-21T15:59:42.000Z</time>
      </trkpt>
      <trkpt lat="45.93956" lon="4.83371">
        <ele>316.4</ele>
        <time>2013-07-21T15:59:43.000Z</time>
      </trkpt>
      <trkpt lat="45.93961" lon="4.8337">
        <ele>315.8</ele>
        <time>2013-07-21T15:59:44.000Z</time>
      </trkpt>
      <trkpt lat="45.93966" lon="4.83368">
        <ele>316.2</ele>
        <time>2013-07-21T15:59:45.000Z</time>
      </trkpt>
      <trkpt lat="45.93969" lon="4.83367">
        <ele>317.5</ele>
        <time>2013-07-21T15:59:46.000Z</time>
      </trkpt>
      <trkpt lat="45.93973" lon="4.83365">
        <ele>319.5</ele>
        <time>2013-07-21T15:59:47.000Z</time>
      </trkpt>
      <trkpt lat="45.93978" lon="4.83364">
        <ele>319.4</ele>
        <time>2013-07-21T15:59:48.000Z</time>
      </trkpt>
      <trkpt lat="45.93981" lon="4.83362">
        <ele>319.5</ele>
        <time>2013-07-21T15:59:49.000Z</time>
      </trkpt>
      <trkpt lat="45.93985" lon="4.83362">
        <ele>319.9</ele>
        <time>2013-07-21T15:59:50.000Z</time>
      </trkpt>
      <trkpt lat="45.9399" lon="4.83362">
        <ele>319.5</ele>
        <time>2013-07-21T15:59:51.000Z</time>
      </trkpt>
      <trkpt lat="45.93994" lon="4.8336">
        <ele>318.5</ele>
        <time>2013-07-21T15:59:52.000Z</time>
      </trkpt>
      <trkpt lat="45.93998" lon="4.83359">
        <ele>316.9</ele>
        <time>2013-07-21T15:59:53.000Z</time>
      </trkpt>
      <trkpt lat="45.94002" lon="4.83359">
        <ele>315.7</ele>
        <time>2013-07-21T15:59:54.000Z</time>
      </trkpt>
      <trkpt lat="45.94009" lon="4.83358">
        <ele>315.6</ele>
        <time>2013-07-21T15:59:55.560Z</time>
      </trkpt>
      <trkpt lat="45.94015" lon="4.83357">
        <ele>315.6</ele>
        <time>2013-07-21T15:59:57.000Z</time>
      </trkpt>
      <trkpt lat="45.94146" lon="4.83367">
        <ele>336</ele>
        <time>2013-07-21T16:00:29.000Z</time>
      </trkpt>
      <trkpt lat="45.94149" lon="4.8337">
        <ele>339</ele>
        <time>2013-07-21T16:00:30.000Z</time>
      </trkpt>
      <trkpt lat="45.94158" lon="4.8338">
        <ele>332.8</ele>
        <time>2013-07-21T16:00:31.000Z</time>
      </trkpt>
      <trkpt lat="45.94161" lon="4.8338">
        <ele>337.7</ele>
        <time>2013-07-21T16:00:32.000Z</time>
      </trkpt>
      <trkpt lat="45.94165" lon="4.8338">
        <ele>340.3</ele>
        <time>2013-07-21T16:00:33.000Z</time>
      </trkpt>
      <trkpt lat="45.94169" lon="4.83385">
        <ele>349.6</ele>
        <time>2013-07-21T16:00:34.000Z</time>
      </trkpt>
      <trkpt lat="45.94175" lon="4.83387">
        <ele>351.6</ele>
        <time>2013-07-21T16:00:35.000Z</time>
      </trkpt>
      <trkpt lat="45.94181" lon="4.83386">
        <ele>350.3</ele>
        <time>2013-07-21T16:00:36.000Z</time>
      </trkpt>
      <trkpt lat="45.94187" lon="4.83385">
        <ele>348.8</ele>
        <time>2013-07-21T16:00:37.000Z</time>
      </trkpt>
      <trkpt lat="45.94192" lon="4.83386">
        <ele>351.5</ele>
        <time>2013-07-21T16:00:38.000Z</time>
      </trkpt>
      <trkpt lat="45.94197" lon="4.83385">
        <ele>351.3</ele>
        <time>2013-07-21T16:00:39.000Z</time>
      </trkpt>
      <trkpt lat="45.94202" lon="4.83381">
        <ele>351.9</ele>
        <time>2013-07-21T16:00:40.000Z</time>
      </trkpt>
      <trkpt lat="45.94208" lon="4.83379">
        <ele>352</ele>
        <time>2013-07-21T16:00:41.000Z</time>
      </trkpt>
      <trkpt lat="45.94213" lon="4.83379">
        <ele>351.9</ele>
        <time>2013-07-21T16:00:42.000Z</time>
      </trkpt>
      <trkpt lat="45.94219" lon="4.83379">
        <ele>349.5</ele>
        <time>2013-07-21T16:00:43.000Z</time>
      </trkpt>
      <trkpt lat="45.94224" lon="4.83378">
        <ele>350.2</ele>
        <time>2013-07-21T16:00:44.000Z</time>
      </trkpt>
      <trkpt lat="45.94229" lon="4.83379">
        <ele>348.8</ele>
        <time>2013-07-21T16:00:45.000Z</time>
      </trkpt>
      <trkpt lat="45.94234" lon="4.83378">
        <ele>348.1</ele>
        <time>2013-07-21T16:00:46.000Z</time>
      </trkpt>
      <trkpt lat="45.94241" lon="4.83378">
        <ele>345.2</ele>
        <time>2013-07-21T16:00:47.000Z</time>
      </trkpt>
      <trkpt lat="45.94247" lon="4.83379">
        <ele>345.8</ele>
        <time>2013-07-21T16:00:48.000Z</time>
      </trkpt>
      <trkpt lat="45.94252" lon="4.83378">
        <ele>344.4</ele>
        <time>2013-07-21T16:00:49.000Z</time>
      </trkpt>
      <trkpt lat="45.94257" lon="4.83377">
        <ele>345.5</ele>
        <time>2013-07-21T16:00:50.000Z</time>
      </trkpt>
      <trkpt lat="45.94261" lon="4.83376">
        <ele>345.5</ele>
        <time>2013-07-21T16:00:51.000Z</time>
      </trkpt>
      <trkpt lat="45.94266" lon="4.83375">
        <ele>345.7</ele>
        <time>2013-07-21T16:00:52.000Z</time>
      </trkpt>
      <trkpt lat="45.94272" lon="4.83373">
        <ele>346.3</ele>
        <time>2013-07-21T16:00:53.000Z</time>
      </trkpt>
      <trkpt lat="45.94275" lon="4.83372">
        <ele>346.9</ele>
        <time>2013-07-21T16:00:54.000Z</time>
      </trkpt>
      <trkpt lat="45.94282" lon="4.83372">
        <ele>349</ele>
        <time>2013-07-21T16:00:55.568Z</time>
      </trkpt>
      <trkpt lat="45.94287" lon="4.83371">
        <ele>349.6</ele>
        <time>2013-07-21T16:00:57.000Z</time>
      </trkpt>
      <trkpt lat="45.9429" lon="4.83371">
        <ele>350.1</ele>
        <time>2013-07-21T16:00:58.000Z</time>
      </trkpt>
      <trkpt lat="45.94293" lon="4.83371">
        <ele>348.3</ele>
        <time>2013-07-21T16:00:59.000Z</time>
      </trkpt>
      <trkpt lat="45.94296" lon="4.83371">
        <ele>348.2</ele>
        <time>2013-07-21T16:01:00.000Z</time>
      </trkpt>
      <trkpt lat="45.94298" lon="4.83371">
        <ele>348.5</ele>
        <time>2013-07-21T16:01:01.000Z</time>
      </trkpt>
      <trkpt lat="45.94301" lon="4.8337">
        <ele>348.7</ele>
        <time>2013-07-21T16:01:02.000Z</time>
      </trkpt>
      <trkpt lat="45.94304" lon="4.83371">
        <ele>349.8</ele>
        <time>2013-07-21T16:01:03.000Z</time>
      </trkpt>
      <trkpt lat="45.94307" lon="4.83371">
        <ele>349.8</ele>
        <time>2013-07-21T16:01:04.000Z</time>
      </trkpt>
      <trkpt lat="45.9431" lon="4.83372">
        <ele>347.2</ele>
        <time>2013-07-21T16:01:05.000Z</time>
      </trkpt>
      <trkpt lat="45.94312" lon="4.83373">
        <ele>346.5</ele>
        <time>2013-07-21T16:01:06.000Z</time>
      </trkpt>
      <trkpt lat="45.94314" lon="4.83375">
        <ele>344.2</ele>
        <time>2013-07-21T16:01:07.000Z</time>
      </trkpt>
      <trkpt lat="45.94316" lon="4.83379">
        <ele>345</ele>
        <time>2013-07-21T16:01:09.000Z</time>
      </trkpt>
      <trkpt lat="45.94317" lon="4.83384">
        <ele>342.6</ele>
        <time>2013-07-21T16:01:10.000Z</time>
      </trkpt>
      <trkpt lat="45.94318" lon="4.83388">
        <ele>340.2</ele>
        <time>2013-07-21T16:01:11.000Z</time>
      </trkpt>
      <trkpt lat="45.94318" lon="4.83393">
        <ele>338.3</ele>
        <time>2013-07-21T16:01:12.000Z</time>
      </trkpt>
      <trkpt lat="45.94318" lon="4.83399">
        <ele>338.1</ele>
        <time>2013-07-21T16:01:13.000Z</time>
      </trkpt>
      <trkpt lat="45.94318" lon="4.83405">
        <ele>337.9</ele>
        <time>2013-07-21T16:01:14.000Z</time>
      </trkpt>
      <trkpt lat="45.94318" lon="4.83411">
        <ele>338.5</ele>
        <time>2013-07-21T16:01:15.000Z</time>
      </trkpt>
      <trkpt lat="45.94318" lon="4.83417">
        <ele>336.1</ele>
        <time>2013-07-21T16:01:16.000Z</time>
      </trkpt>
      <trkpt lat="45.94318" lon="4.83424">
        <ele>335.4</ele>
        <time>2013-07-21T16:01:17.000Z</time>
      </trkpt>
      <trkpt lat="45.94318" lon="4.83434">
        <ele>334.9</ele>
        <time>2013-07-21T16:01:18.000Z</time>
      </trkpt>
      <trkpt lat="45.94319" lon="4.83442">
        <ele>336.6</ele>
        <time>2013-07-21T16:01:19.000Z</time>
      </trkpt>
      <trkpt lat="45.94319" lon="4.83449">
        <ele>338.4</ele>
        <time>2013-07-21T16:01:20.000Z</time>
      </trkpt>
      <trkpt lat="45.94319" lon="4.83457">
        <ele>335.9</ele>
        <time>2013-07-21T16:01:21.000Z</time>
      </trkpt>
      <trkpt lat="45.9432" lon="4.83464">
        <ele>335.3</ele>
        <time>2013-07-21T16:01:22.000Z</time>
      </trkpt>
      <trkpt lat="45.9432" lon="4.83471">
        <ele>333.3</ele>
        <time>2013-07-21T16:01:23.000Z</time>
      </trkpt>
      <trkpt lat="45.94321" lon="4.83477">
        <ele>332.8</ele>
        <time>2013-07-21T16:01:24.000Z</time>
      </trkpt>
      <trkpt lat="45.94321" lon="4.83484">
        <ele>332.4</ele>
        <time>2013-07-21T16:01:25.000Z</time>
      </trkpt>
      <trkpt lat="45.94321" lon="4.83491">
        <ele>332.1</ele>
        <time>2013-07-21T16:01:26.000Z</time>
      </trkpt>
      <trkpt lat="45.94321" lon="4.83498">
        <ele>332.1</ele>
        <time>2013-07-21T16:01:27.000Z</time>
      </trkpt>
      <trkpt lat="45.94322" lon="4.83507">
        <ele>329.8</ele>
        <time>2013-07-21T16:01:28.000Z</time>
      </trkpt>
      <trkpt lat="45.94323" lon="4.83514">
        <ele>328.9</ele>
        <time>2013-07-21T16:01:29.000Z</time>
      </trkpt>
      <trkpt lat="45.94324" lon="4.83523">
        <ele>327.5</ele>
        <time>2013-07-21T16:01:30.000Z</time>
      </trkpt>
      <trkpt lat="45.94325" lon="4.8353">
        <ele>328</ele>
        <time>2013-07-21T16:01:31.000Z</time>
      </trkpt>
      <trkpt lat="45.94325" lon="4.83537">
        <ele>327.5</ele>
        <time>2013-07-21T16:01:32.000Z</time>
      </trkpt>
      <trkpt lat="45.94325" lon="4.83544">
        <ele>326.9</ele>
        <time>2013-07-21T16:01:33.000Z</time>
      </trkpt>
      <trkpt lat="45.94325" lon="4.83551">
        <ele>326.9</ele>
        <time>2013-07-21T16:01:34.000Z</time>
      </trkpt>
      <trkpt lat="45.94325" lon="4.83558">
        <ele>326.4</ele>
        <time>2013-07-21T16:01:35.000Z</time>
      </trkpt>
      <trkpt lat="45.94326" lon="4.83564">
        <ele>326.2</ele>
        <time>2013-07-21T16:01:36.000Z</time>
      </trkpt>
      <trkpt lat="45.94326" lon="4.83571">
        <ele>327.9</ele>
        <time>2013-07-21T16:01:37.000Z</time>
      </trkpt>
      <trkpt lat="45.94327" lon="4.83578">
        <ele>326.4</ele>
        <time>2013-07-21T16:01:38.000Z</time>
      </trkpt>
      <trkpt lat="45.94327" lon="4.83585">
        <ele>326.3</ele>
        <time>2013-07-21T16:01:39.000Z</time>
      </trkpt>
      <trkpt lat="45.94325" lon="4.83588">
        <ele>329.8</ele>
        <time>2013-07-21T16:01:40.000Z</time>
      </trkpt>
      <trkpt lat="45.94324" lon="4.83596">
        <ele>330.5</ele>
        <time>2013-07-21T16:01:41.000Z</time>
      </trkpt>
      <trkpt lat="45.94324" lon="4.83603">
        <ele>330.8</ele>
        <time>2013-07-21T16:01:42.000Z</time>
      </trkpt>
      <trkpt lat="45.94324" lon="4.8361">
        <ele>330.8</ele>
        <time>2013-07-21T16:01:43.000Z</time>
      </trkpt>
      <trkpt lat="45.94324" lon="4.83616">
        <ele>331.1</ele>
        <time>2013-07-21T16:01:44.000Z</time>
      </trkpt>
      <trkpt lat="45.94324" lon="4.83622">
        <ele>331.1</ele>
        <time>2013-07-21T16:01:45.000Z</time>
      </trkpt>
      <trkpt lat="45.94322" lon="4.83628">
        <ele>331.3</ele>
        <time>2013-07-21T16:01:46.000Z</time>
      </trkpt>
      <trkpt lat="45.94319" lon="4.83634">
        <ele>332.4</ele>
        <time>2013-07-21T16:01:47.000Z</time>
      </trkpt>
      <trkpt lat="45.94317" lon="4.83639">
        <ele>333.1</ele>
        <time>2013-07-21T16:01:48.000Z</time>
      </trkpt>
      <trkpt lat="45.94314" lon="4.83642">
        <ele>333.7</ele>
        <time>2013-07-21T16:01:49.000Z</time>
      </trkpt>
      <trkpt lat="45.94311" lon="4.83645">
        <ele>335.9</ele>
        <time>2013-07-21T16:01:50.000Z</time>
      </trkpt>
      <trkpt lat="45.94308" lon="4.83649">
        <ele>338</ele>
        <time>2013-07-21T16:01:51.000Z</time>
      </trkpt>
      <trkpt lat="45.94306" lon="4.83655">
        <ele>337.9</ele>
        <time>2013-07-21T16:01:52.000Z</time>
      </trkpt>
      <trkpt lat="45.94303" lon="4.83659">
        <ele>339</ele>
        <time>2013-07-21T16:01:53.000Z</time>
      </trkpt>
      <trkpt lat="45.94301" lon="4.83665">
        <ele>337.9</ele>
        <time>2013-07-21T16:01:54.000Z</time>
      </trkpt>
      <trkpt lat="45.94298" lon="4.83673">
        <ele>338.8</ele>
        <time>2013-07-21T16:01:55.562Z</time>
      </trkpt>
      <trkpt lat="45.94295" lon="4.83681">
        <ele>339.8</ele>
        <time>2013-07-21T16:01:57.000Z</time>
      </trkpt>
      <trkpt lat="45.94294" lon="4.83688">
        <ele>339</ele>
        <time>2013-07-21T16:01:58.000Z</time>
      </trkpt>
      <trkpt lat="45.94294" lon="4.837">
        <ele>338.6</ele>
        <time>2013-07-21T16:01:59.000Z</time>
      </trkpt>
      <trkpt lat="45.94295" lon="4.83717">
        <ele>334.8</ele>
        <time>2013-07-21T16:02:00.000Z</time>
      </trkpt>
      <trkpt lat="45.9429" lon="4.83723">
        <ele>334.8</ele>
        <time>2013-07-21T16:02:01.000Z</time>
      </trkpt>
      <trkpt lat="45.94288" lon="4.83732">
        <ele>333.9</ele>
        <time>2013-07-21T16:02:02.000Z</time>
      </trkpt>
      <trkpt lat="45.94287" lon="4.83738">
        <ele>333.6</ele>
        <time>2013-07-21T16:02:03.000Z</time>
      </trkpt>
      <trkpt lat="45.94286" lon="4.83745">
        <ele>333.1</ele>
        <time>2013-07-21T16:02:04.000Z</time>
      </trkpt>
      <trkpt lat="45.94285" lon="4.83752">
        <ele>333.1</ele>
        <time>2013-07-21T16:02:05.000Z</time>
      </trkpt>
      <trkpt lat="45.94284" lon="4.83759">
        <ele>332.9</ele>
        <time>2013-07-21T16:02:06.000Z</time>
      </trkpt>
      <trkpt lat="45.94281" lon="4.83764">
        <ele>332.7</ele>
        <time>2013-07-21T16:02:07.000Z</time>
      </trkpt>
      <trkpt lat="45.94281" lon="4.8377">
        <ele>332.4</ele>
        <time>2013-07-21T16:02:08.000Z</time>
      </trkpt>
      <trkpt lat="45.9428" lon="4.83777">
        <ele>332.2</ele>
        <time>2013-07-21T16:02:09.000Z</time>
      </trkpt>
      <trkpt lat="45.94278" lon="4.83784">
        <ele>331.6</ele>
        <time>2013-07-21T16:02:10.000Z</time>
      </trkpt>
      <trkpt lat="45.94278" lon="4.83789">
        <ele>331.6</ele>
        <time>2013-07-21T16:02:11.000Z</time>
      </trkpt>
      <trkpt lat="45.94276" lon="4.83795">
        <ele>331.4</ele>
        <time>2013-07-21T16:02:12.000Z</time>
      </trkpt>
      <trkpt lat="45.94273" lon="4.83801">
        <ele>331.6</ele>
        <time>2013-07-21T16:02:13.000Z</time>
      </trkpt>
      <trkpt lat="45.94271" lon="4.83806">
        <ele>331.5</ele>
        <time>2013-07-21T16:02:14.000Z</time>
      </trkpt>
      <trkpt lat="45.94269" lon="4.83813">
        <ele>331.3</ele>
        <time>2013-07-21T16:02:15.000Z</time>
      </trkpt>
      <trkpt lat="45.94268" lon="4.8382">
        <ele>330.7</ele>
        <time>2013-07-21T16:02:16.000Z</time>
      </trkpt>
      <trkpt lat="45.94266" lon="4.83826">
        <ele>330.9</ele>
        <time>2013-07-21T16:02:17.000Z</time>
      </trkpt>
      <trkpt lat="45.94264" lon="4.83833">
        <ele>330.7</ele>
        <time>2013-07-21T16:02:18.000Z</time>
      </trkpt>
      <trkpt lat="45.94264" lon="4.8384">
        <ele>329.1</ele>
        <time>2013-07-21T16:02:19.000Z</time>
      </trkpt>
      <trkpt lat="45.94262" lon="4.83846">
        <ele>328.9</ele>
        <time>2013-07-21T16:02:20.000Z</time>
      </trkpt>
      <trkpt lat="45.94262" lon="4.83851">
        <ele>328.6</ele>
        <time>2013-07-21T16:02:21.000Z</time>
      </trkpt>
      <trkpt lat="45.9426" lon="4.83857">
        <ele>328.9</ele>
        <time>2013-07-21T16:02:22.000Z</time>
      </trkpt>
      <trkpt lat="45.94256" lon="4.83864">
        <ele>328.7</ele>
        <time>2013-07-21T16:02:23.000Z</time>
      </trkpt>
      <trkpt lat="45.94253" lon="4.83871">
        <ele>328.5</ele>
        <time>2013-07-21T16:02:24.000Z</time>
      </trkpt>
      <trkpt lat="45.94248" lon="4.83878">
        <ele>328.9</ele>
        <time>2013-07-21T16:02:25.000Z</time>
      </trkpt>
      <trkpt lat="45.94245" lon="4.83885">
        <ele>328.9</ele>
        <time>2013-07-21T16:02:26.000Z</time>
      </trkpt>
      <trkpt lat="45.94241" lon="4.83892">
        <ele>328.9</ele>
        <time>2013-07-21T16:02:27.000Z</time>
      </trkpt>
      <trkpt lat="45.94238" lon="4.83898">
        <ele>329.1</ele>
        <time>2013-07-21T16:02:28.000Z</time>
      </trkpt>
      <trkpt lat="45.94234" lon="4.83905">
        <ele>329.6</ele>
        <time>2013-07-21T16:02:29.000Z</time>
      </trkpt>
      <trkpt lat="45.94232" lon="4.83912">
        <ele>329.5</ele>
        <time>2013-07-21T16:02:30.000Z</time>
      </trkpt>
      <trkpt lat="45.94228" lon="4.83918">
        <ele>330.7</ele>
        <time>2013-07-21T16:02:31.000Z</time>
      </trkpt>
      <trkpt lat="45.94227" lon="4.83926">
        <ele>331.5</ele>
        <time>2013-07-21T16:02:32.000Z</time>
      </trkpt>
      <trkpt lat="45.94225" lon="4.83932">
        <ele>330.9</ele>
        <time>2013-07-21T16:02:33.000Z</time>
      </trkpt>
      <trkpt lat="45.94225" lon="4.83939">
        <ele>330.2</ele>
        <time>2013-07-21T16:02:34.000Z</time>
      </trkpt>
      <trkpt lat="45.94223" lon="4.83945">
        <ele>329.9</ele>
        <time>2013-07-21T16:02:35.000Z</time>
      </trkpt>
      <trkpt lat="45.94222" lon="4.83952">
        <ele>329.8</ele>
        <time>2013-07-21T16:02:36.000Z</time>
      </trkpt>
      <trkpt lat="45.94217" lon="4.83958">
        <ele>331</ele>
        <time>2013-07-21T16:02:37.000Z</time>
      </trkpt>
      <trkpt lat="45.94215" lon="4.83962">
        <ele>331</ele>
        <time>2013-07-21T16:02:38.000Z</time>
      </trkpt>
      <trkpt lat="45.94213" lon="4.83967">
        <ele>331.3</ele>
        <time>2013-07-21T16:02:39.000Z</time>
      </trkpt>
      <trkpt lat="45.94213" lon="4.83975">
        <ele>328.9</ele>
        <time>2013-07-21T16:02:40.000Z</time>
      </trkpt>
      <trkpt lat="45.94212" lon="4.83982">
        <ele>329.1</ele>
        <time>2013-07-21T16:02:41.000Z</time>
      </trkpt>
      <trkpt lat="45.94206" lon="4.83988">
        <ele>328.9</ele>
        <time>2013-07-21T16:02:42.000Z</time>
      </trkpt>
      <trkpt lat="45.94203" lon="4.83996">
        <ele>328.1</ele>
        <time>2013-07-21T16:02:43.000Z</time>
      </trkpt>
      <trkpt lat="45.94201" lon="4.84001">
        <ele>328.1</ele>
        <time>2013-07-21T16:02:44.000Z</time>
      </trkpt>
      <trkpt lat="45.94198" lon="4.84007">
        <ele>327.4</ele>
        <time>2013-07-21T16:02:45.000Z</time>
      </trkpt>
      <trkpt lat="45.94195" lon="4.84012">
        <ele>326.6</ele>
        <time>2013-07-21T16:02:46.000Z</time>
      </trkpt>
      <trkpt lat="45.94193" lon="4.84018">
        <ele>325.6</ele>
        <time>2013-07-21T16:02:47.000Z</time>
      </trkpt>
      <trkpt lat="45.94192" lon="4.84024">
        <ele>325.2</ele>
        <time>2013-07-21T16:02:48.000Z</time>
      </trkpt>
      <trkpt lat="45.94188" lon="4.84029">
        <ele>325.7</ele>
        <time>2013-07-21T16:02:49.000Z</time>
      </trkpt>
      <trkpt lat="45.94186" lon="4.84034">
        <ele>325.6</ele>
        <time>2013-07-21T16:02:50.000Z</time>
      </trkpt>
      <trkpt lat="45.94178" lon="4.84035">
        <ele>327.4</ele>
        <time>2013-07-21T16:02:51.000Z</time>
      </trkpt>
      <trkpt lat="45.94172" lon="4.84038">
        <ele>327.5</ele>
        <time>2013-07-21T16:02:52.000Z</time>
      </trkpt>
      <trkpt lat="45.94168" lon="4.84041">
        <ele>327.7</ele>
        <time>2013-07-21T16:02:53.000Z</time>
      </trkpt>
      <trkpt lat="45.94164" lon="4.84045">
        <ele>327.3</ele>
        <time>2013-07-21T16:02:54.000Z</time>
      </trkpt>
      <trkpt lat="45.94161" lon="4.84051">
        <ele>329.4</ele>
        <time>2013-07-21T16:02:55.566Z</time>
      </trkpt>
      <trkpt lat="45.94158" lon="4.84056">
        <ele>329.8</ele>
        <time>2013-07-21T16:02:57.000Z</time>
      </trkpt>
      <trkpt lat="45.94157" lon="4.84059">
        <ele>330</ele>
        <time>2013-07-21T16:02:58.000Z</time>
      </trkpt>
      <trkpt lat="45.94157" lon="4.84063">
        <ele>330.6</ele>
        <time>2013-07-21T16:02:59.000Z</time>
      </trkpt>
      <trkpt lat="45.94156" lon="4.84068">
        <ele>330.9</ele>
        <time>2013-07-21T16:03:00.000Z</time>
      </trkpt>
      <trkpt lat="45.94154" lon="4.84076">
        <ele>331.6</ele>
        <time>2013-07-21T16:03:01.000Z</time>
      </trkpt>
      <trkpt lat="45.94154" lon="4.84083">
        <ele>331.1</ele>
        <time>2013-07-21T16:03:02.000Z</time>
      </trkpt>
      <trkpt lat="45.94151" lon="4.84088">
        <ele>330.7</ele>
        <time>2013-07-21T16:03:03.000Z</time>
      </trkpt>
      <trkpt lat="45.94151" lon="4.84094">
        <ele>331</ele>
        <time>2013-07-21T16:03:04.000Z</time>
      </trkpt>
      <trkpt lat="45.9415" lon="4.84099">
        <ele>329.8</ele>
        <time>2013-07-21T16:03:05.000Z</time>
      </trkpt>
      <trkpt lat="45.94149" lon="4.84105">
        <ele>328.9</ele>
        <time>2013-07-21T16:03:06.000Z</time>
      </trkpt>
      <trkpt lat="45.94148" lon="4.84111">
        <ele>328.8</ele>
        <time>2013-07-21T16:03:07.000Z</time>
      </trkpt>
      <trkpt lat="45.94146" lon="4.84117">
        <ele>329.9</ele>
        <time>2013-07-21T16:03:08.000Z</time>
      </trkpt>
      <trkpt lat="45.94144" lon="4.84123">
        <ele>328.9</ele>
        <time>2013-07-21T16:03:09.000Z</time>
      </trkpt>
      <trkpt lat="45.94142" lon="4.84128">
        <ele>328</ele>
        <time>2013-07-21T16:03:10.000Z</time>
      </trkpt>
      <trkpt lat="45.94139" lon="4.84134">
        <ele>327.1</ele>
        <time>2013-07-21T16:03:11.000Z</time>
      </trkpt>
      <trkpt lat="45.94135" lon="4.8414">
        <ele>327.7</ele>
        <time>2013-07-21T16:03:12.000Z</time>
      </trkpt>
      <trkpt lat="45.94131" lon="4.84144">
        <ele>328.2</ele>
        <time>2013-07-21T16:03:13.000Z</time>
      </trkpt>
      <trkpt lat="45.94128" lon="4.84148">
        <ele>326.6</ele>
        <time>2013-07-21T16:03:14.000Z</time>
      </trkpt>
      <trkpt lat="45.94124" lon="4.84151">
        <ele>326.6</ele>
        <time>2013-07-21T16:03:15.000Z</time>
      </trkpt>
      <trkpt lat="45.94121" lon="4.84154">
        <ele>327.7</ele>
        <time>2013-07-21T16:03:16.000Z</time>
      </trkpt>
      <trkpt lat="45.94118" lon="4.84157">
        <ele>328.2</ele>
        <time>2013-07-21T16:03:17.000Z</time>
      </trkpt>
      <trkpt lat="45.94115" lon="4.8416">
        <ele>328.4</ele>
        <time>2013-07-21T16:03:18.000Z</time>
      </trkpt>
      <trkpt lat="45.94112" lon="4.84162">
        <ele>328</ele>
        <time>2013-07-21T16:03:19.000Z</time>
      </trkpt>
      <trkpt lat="45.94109" lon="4.84165">
        <ele>327.6</ele>
        <time>2013-07-21T16:03:20.000Z</time>
      </trkpt>
      <trkpt lat="45.94105" lon="4.84168">
        <ele>327.9</ele>
        <time>2013-07-21T16:03:21.000Z</time>
      </trkpt>
      <trkpt lat="45.94103" lon="4.84172">
        <ele>327.4</ele>
        <time>2013-07-21T16:03:22.000Z</time>
      </trkpt>
      <trkpt lat="45.94101" lon="4.84176">
        <ele>326.5</ele>
        <time>2013-07-21T16:03:23.000Z</time>
      </trkpt>
      <trkpt lat="45.941" lon="4.84182">
        <ele>327.4</ele>
        <time>2013-07-21T16:03:24.000Z</time>
      </trkpt>
      <trkpt lat="45.941" lon="4.84188">
        <ele>326</ele>
        <time>2013-07-21T16:03:25.000Z</time>
      </trkpt>
      <trkpt lat="45.941" lon="4.84193">
        <ele>326.6</ele>
        <time>2013-07-21T16:03:26.000Z</time>
      </trkpt>
      <trkpt lat="45.94101" lon="4.84202">
        <ele>326.5</ele>
        <time>2013-07-21T16:03:27.000Z</time>
      </trkpt>
      <trkpt lat="45.941" lon="4.84208">
        <ele>327.1</ele>
        <time>2013-07-21T16:03:28.000Z</time>
      </trkpt>
      <trkpt lat="45.94101" lon="4.84213">
        <ele>326.2</ele>
        <time>2013-07-21T16:03:29.000Z</time>
      </trkpt>
      <trkpt lat="45.94101" lon="4.84221">
        <ele>327.5</ele>
        <time>2013-07-21T16:03:30.000Z</time>
      </trkpt>
      <trkpt lat="45.94104" lon="4.84227">
        <ele>326.7</ele>
        <time>2013-07-21T16:03:31.000Z</time>
      </trkpt>
      <trkpt lat="45.94104" lon="4.84234">
        <ele>327.3</ele>
        <time>2013-07-21T16:03:32.000Z</time>
      </trkpt>
      <trkpt lat="45.94105" lon="4.84241">
        <ele>327.9</ele>
        <time>2013-07-21T16:03:33.000Z</time>
      </trkpt>
      <trkpt lat="45.94105" lon="4.84247">
        <ele>327.3</ele>
        <time>2013-07-21T16:03:34.000Z</time>
      </trkpt>
      <trkpt lat="45.94106" lon="4.84253">
        <ele>327.7</ele>
        <time>2013-07-21T16:03:35.000Z</time>
      </trkpt>
      <trkpt lat="45.94106" lon="4.84261">
        <ele>325.8</ele>
        <time>2013-07-21T16:03:36.000Z</time>
      </trkpt>
      <trkpt lat="45.94106" lon="4.84267">
        <ele>325.1</ele>
        <time>2013-07-21T16:03:37.000Z</time>
      </trkpt>
      <trkpt lat="45.94106" lon="4.84275">
        <ele>324.6</ele>
        <time>2013-07-21T16:03:38.000Z</time>
      </trkpt>
      <trkpt lat="45.94107" lon="4.84281">
        <ele>325</ele>
        <time>2013-07-21T16:03:39.000Z</time>
      </trkpt>
      <trkpt lat="45.94107" lon="4.84288">
        <ele>325.5</ele>
        <time>2013-07-21T16:03:40.000Z</time>
      </trkpt>
      <trkpt lat="45.94108" lon="4.84295">
        <ele>324.2</ele>
        <time>2013-07-21T16:03:41.000Z</time>
      </trkpt>
      <trkpt lat="45.9411" lon="4.84302">
        <ele>324.9</ele>
        <time>2013-07-21T16:03:42.000Z</time>
      </trkpt>
      <trkpt lat="45.9411" lon="4.84309">
        <ele>323.9</ele>
        <time>2013-07-21T16:03:43.000Z</time>
      </trkpt>
      <trkpt lat="45.94109" lon="4.84316">
        <ele>324.8</ele>
        <time>2013-07-21T16:03:44.000Z</time>
      </trkpt>
      <trkpt lat="45.94109" lon="4.84323">
        <ele>325.3</ele>
        <time>2013-07-21T16:03:45.000Z</time>
      </trkpt>
      <trkpt lat="45.94109" lon="4.8433">
        <ele>325.7</ele>
        <time>2013-07-21T16:03:46.000Z</time>
      </trkpt>
      <trkpt lat="45.94109" lon="4.84339">
        <ele>325.3</ele>
        <time>2013-07-21T16:03:47.000Z</time>
      </trkpt>
      <trkpt lat="45.94109" lon="4.84347">
        <ele>325.8</ele>
        <time>2013-07-21T16:03:48.000Z</time>
      </trkpt>
      <trkpt lat="45.94111" lon="4.84355">
        <ele>325.2</ele>
        <time>2013-07-21T16:03:49.000Z</time>
      </trkpt>
      <trkpt lat="45.94111" lon="4.84363">
        <ele>324.2</ele>
        <time>2013-07-21T16:03:50.000Z</time>
      </trkpt>
      <trkpt lat="45.94112" lon="4.84369">
        <ele>325.5</ele>
        <time>2013-07-21T16:03:51.000Z</time>
      </trkpt>
      <trkpt lat="45.94112" lon="4.84376">
        <ele>325.6</ele>
        <time>2013-07-21T16:03:52.000Z</time>
      </trkpt>
      <trkpt lat="45.94112" lon="4.84384">
        <ele>325.4</ele>
        <time>2013-07-21T16:03:53.000Z</time>
      </trkpt>
      <trkpt lat="45.94112" lon="4.84391">
        <ele>325.7</ele>
        <time>2013-07-21T16:03:54.000Z</time>
      </trkpt>
      <trkpt lat="45.94113" lon="4.84402">
        <ele>325.9</ele>
        <time>2013-07-21T16:03:55.556Z</time>
      </trkpt>
      <trkpt lat="45.94114" lon="4.84413">
        <ele>325.7</ele>
        <time>2013-07-21T16:03:57.000Z</time>
      </trkpt>
      <trkpt lat="45.94114" lon="4.84421">
        <ele>326.4</ele>
        <time>2013-07-21T16:03:58.000Z</time>
      </trkpt>
      <trkpt lat="45.94116" lon="4.84428">
        <ele>326.1</ele>
        <time>2013-07-21T16:03:59.000Z</time>
      </trkpt>
      <trkpt lat="45.94117" lon="4.84436">
        <ele>326.2</ele>
        <time>2013-07-21T16:04:00.000Z</time>
      </trkpt>
      <trkpt lat="45.94118" lon="4.84444">
        <ele>326.3</ele>
        <time>2013-07-21T16:04:01.000Z</time>
      </trkpt>
      <trkpt lat="45.94118" lon="4.8445">
        <ele>326.7</ele>
        <time>2013-07-21T16:04:02.000Z</time>
      </trkpt>
      <trkpt lat="45.94119" lon="4.84456">
        <ele>327.1</ele>
        <time>2013-07-21T16:04:03.000Z</time>
      </trkpt>
      <trkpt lat="45.94121" lon="4.84462">
        <ele>327.2</ele>
        <time>2013-07-21T16:04:04.000Z</time>
      </trkpt>
      <trkpt lat="45.9412" lon="4.84469">
        <ele>327.6</ele>
        <time>2013-07-21T16:04:05.000Z</time>
      </trkpt>
      <trkpt lat="45.94123" lon="4.84476">
        <ele>326.5</ele>
        <time>2013-07-21T16:04:06.000Z</time>
      </trkpt>
      <trkpt lat="45.94125" lon="4.84483">
        <ele>325.5</ele>
        <time>2013-07-21T16:04:07.000Z</time>
      </trkpt>
      <trkpt lat="45.94124" lon="4.84489">
        <ele>326.3</ele>
        <time>2013-07-21T16:04:08.000Z</time>
      </trkpt>
      <trkpt lat="45.94124" lon="4.84495">
        <ele>327.7</ele>
        <time>2013-07-21T16:04:09.000Z</time>
      </trkpt>
      <trkpt lat="45.94124" lon="4.84501">
        <ele>328.9</ele>
        <time>2013-07-21T16:04:10.000Z</time>
      </trkpt>
      <trkpt lat="45.94125" lon="4.8451">
        <ele>327.7</ele>
        <time>2013-07-21T16:04:11.000Z</time>
      </trkpt>
      <trkpt lat="45.94125" lon="4.84517">
        <ele>327.9</ele>
        <time>2013-07-21T16:04:12.000Z</time>
      </trkpt>
      <trkpt lat="45.94126" lon="4.84523">
        <ele>327.6</ele>
        <time>2013-07-21T16:04:13.000Z</time>
      </trkpt>
      <trkpt lat="45.94126" lon="4.84531">
        <ele>327.9</ele>
        <time>2013-07-21T16:04:14.000Z</time>
      </trkpt>
      <trkpt lat="45.94127" lon="4.84538">
        <ele>328.1</ele>
        <time>2013-07-21T16:04:15.000Z</time>
      </trkpt>
      <trkpt lat="45.94129" lon="4.84543">
        <ele>328.4</ele>
        <time>2013-07-21T16:04:16.000Z</time>
      </trkpt>
      <trkpt lat="45.9413" lon="4.8455">
        <ele>328.4</ele>
        <time>2013-07-21T16:04:17.000Z</time>
      </trkpt>
      <trkpt lat="45.94132" lon="4.84558">
        <ele>329.1</ele>
        <time>2013-07-21T16:04:18.000Z</time>
      </trkpt>
      <trkpt lat="45.94132" lon="4.84565">
        <ele>329.8</ele>
        <time>2013-07-21T16:04:19.000Z</time>
      </trkpt>
      <trkpt lat="45.94134" lon="4.84573">
        <ele>329.4</ele>
        <time>2013-07-21T16:04:20.000Z</time>
      </trkpt>
      <trkpt lat="45.94135" lon="4.8458">
        <ele>330.2</ele>
        <time>2013-07-21T16:04:21.000Z</time>
      </trkpt>
      <trkpt lat="45.94135" lon="4.84588">
        <ele>330.5</ele>
        <time>2013-07-21T16:04:22.000Z</time>
      </trkpt>
      <trkpt lat="45.94136" lon="4.84595">
        <ele>329.8</ele>
        <time>2013-07-21T16:04:23.000Z</time>
      </trkpt>
      <trkpt lat="45.94139" lon="4.84601">
        <ele>329.6</ele>
        <time>2013-07-21T16:04:24.000Z</time>
      </trkpt>
      <trkpt lat="45.9414" lon="4.84607">
        <ele>329.6</ele>
        <time>2013-07-21T16:04:25.000Z</time>
      </trkpt>
      <trkpt lat="45.94139" lon="4.84615">
        <ele>329.9</ele>
        <time>2013-07-21T16:04:26.000Z</time>
      </trkpt>
      <trkpt lat="45.94141" lon="4.84621">
        <ele>331</ele>
        <time>2013-07-21T16:04:27.000Z</time>
      </trkpt>
      <trkpt lat="45.94142" lon="4.84628">
        <ele>331.1</ele>
        <time>2013-07-21T16:04:28.000Z</time>
      </trkpt>
      <trkpt lat="45.94143" lon="4.84635">
        <ele>331.4</ele>
        <time>2013-07-21T16:04:29.000Z</time>
      </trkpt>
      <trkpt lat="45.94141" lon="4.84643">
        <ele>330.9</ele>
        <time>2013-07-21T16:04:30.000Z</time>
      </trkpt>
      <trkpt lat="45.94142" lon="4.8465">
        <ele>330.6</ele>
        <time>2013-07-21T16:04:31.000Z</time>
      </trkpt>
      <trkpt lat="45.94144" lon="4.84658">
        <ele>330.1</ele>
        <time>2013-07-21T16:04:32.000Z</time>
      </trkpt>
      <trkpt lat="45.94146" lon="4.84666">
        <ele>329.9</ele>
        <time>2013-07-21T16:04:33.000Z</time>
      </trkpt>
      <trkpt lat="45.94145" lon="4.84673">
        <ele>329.2</ele>
        <time>2013-07-21T16:04:34.000Z</time>
      </trkpt>
      <trkpt lat="45.94146" lon="4.8468">
        <ele>329.6</ele>
        <time>2013-07-21T16:04:35.000Z</time>
      </trkpt>
      <trkpt lat="45.94147" lon="4.84688">
        <ele>329.9</ele>
        <time>2013-07-21T16:04:36.000Z</time>
      </trkpt>
      <trkpt lat="45.94149" lon="4.84695">
        <ele>330.2</ele>
        <time>2013-07-21T16:04:37.000Z</time>
      </trkpt>
      <trkpt lat="45.94148" lon="4.84704">
        <ele>330.4</ele>
        <time>2013-07-21T16:04:38.000Z</time>
      </trkpt>
      <trkpt lat="45.9415" lon="4.84712">
        <ele>331.3</ele>
        <time>2013-07-21T16:04:39.000Z</time>
      </trkpt>
      <trkpt lat="45.94149" lon="4.84719">
        <ele>331.5</ele>
        <time>2013-07-21T16:04:40.000Z</time>
      </trkpt>
      <trkpt lat="45.94152" lon="4.84726">
        <ele>331.6</ele>
        <time>2013-07-21T16:04:41.000Z</time>
      </trkpt>
      <trkpt lat="45.94153" lon="4.84735">
        <ele>331.7</ele>
        <time>2013-07-21T16:04:42.000Z</time>
      </trkpt>
      <trkpt lat="45.94153" lon="4.84741">
        <ele>331.6</ele>
        <time>2013-07-21T16:04:43.000Z</time>
      </trkpt>
      <trkpt lat="45.94153" lon="4.84748">
        <ele>331.3</ele>
        <time>2013-07-21T16:04:44.000Z</time>
      </trkpt>
      <trkpt lat="45.94154" lon="4.84756">
        <ele>331.6</ele>
        <time>2013-07-21T16:04:45.000Z</time>
      </trkpt>
      <trkpt lat="45.94155" lon="4.84763">
        <ele>332.1</ele>
        <time>2013-07-21T16:04:46.000Z</time>
      </trkpt>
      <trkpt lat="45.94155" lon="4.84771">
        <ele>332.3</ele>
        <time>2013-07-21T16:04:47.000Z</time>
      </trkpt>
      <trkpt lat="45.94155" lon="4.84778">
        <ele>332.5</ele>
        <time>2013-07-21T16:04:48.000Z</time>
      </trkpt>
      <trkpt lat="45.9415" lon="4.84785">
        <ele>332.4</ele>
        <time>2013-07-21T16:04:49.000Z</time>
      </trkpt>
      <trkpt lat="45.9415" lon="4.84792">
        <ele>332.4</ele>
        <time>2013-07-21T16:04:50.000Z</time>
      </trkpt>
      <trkpt lat="45.94152" lon="4.848">
        <ele>332.3</ele>
        <time>2013-07-21T16:04:51.000Z</time>
      </trkpt>
      <trkpt lat="45.94154" lon="4.84808">
        <ele>331.9</ele>
        <time>2013-07-21T16:04:52.000Z</time>
      </trkpt>
      <trkpt lat="45.94155" lon="4.84812">
        <ele>332.5</ele>
        <time>2013-07-21T16:04:53.000Z</time>
      </trkpt>
      <trkpt lat="45.94155" lon="4.84819">
        <ele>333.5</ele>
        <time>2013-07-21T16:04:54.000Z</time>
      </trkpt>
      <trkpt lat="45.94157" lon="4.8483">
        <ele>334.4</ele>
        <time>2013-07-21T16:04:55.569Z</time>
      </trkpt>
      <trkpt lat="45.94158" lon="4.8484">
        <ele>334.6</ele>
        <time>2013-07-21T16:04:57.000Z</time>
      </trkpt>
      <trkpt lat="45.94157" lon="4.84846">
        <ele>334.7</ele>
        <time>2013-07-21T16:04:58.000Z</time>
      </trkpt>
      <trkpt lat="45.94179" lon="4.85052">
        <ele>353.2</ele>
        <time>2013-07-21T16:05:30.000Z</time>
      </trkpt>
      <trkpt lat="45.94181" lon="4.85057">
        <ele>348.5</ele>
        <time>2013-07-21T16:05:31.000Z</time>
      </trkpt>
      <trkpt lat="45.9418" lon="4.85062">
        <ele>344.1</ele>
        <time>2013-07-21T16:05:32.000Z</time>
      </trkpt>
      <trkpt lat="45.9418" lon="4.85069">
        <ele>339</ele>
        <time>2013-07-21T16:05:33.000Z</time>
      </trkpt>
      <trkpt lat="45.94181" lon="4.85075">
        <ele>338.1</ele>
        <time>2013-07-21T16:05:34.000Z</time>
      </trkpt>
      <trkpt lat="45.94182" lon="4.85082">
        <ele>335.8</ele>
        <time>2013-07-21T16:05:35.000Z</time>
      </trkpt>
      <trkpt lat="45.94183" lon="4.85088">
        <ele>338.8</ele>
        <time>2013-07-21T16:05:36.000Z</time>
      </trkpt>
      <trkpt lat="45.94184" lon="4.85094">
        <ele>339.1</ele>
        <time>2013-07-21T16:05:37.000Z</time>
      </trkpt>
      <trkpt lat="45.94185" lon="4.851">
        <ele>336.7</ele>
        <time>2013-07-21T16:05:38.000Z</time>
      </trkpt>
      <trkpt lat="45.94186" lon="4.85107">
        <ele>337.4</ele>
        <time>2013-07-21T16:05:39.000Z</time>
      </trkpt>
      <trkpt lat="45.94187" lon="4.85113">
        <ele>339.6</ele>
        <time>2013-07-21T16:05:40.000Z</time>
      </trkpt>
      <trkpt lat="45.94188" lon="4.85119">
        <ele>339.8</ele>
        <time>2013-07-21T16:05:41.000Z</time>
      </trkpt>
      <trkpt lat="45.94187" lon="4.85125">
        <ele>342.1</ele>
        <time>2013-07-21T16:05:42.000Z</time>
      </trkpt>
      <trkpt lat="45.94188" lon="4.85131">
        <ele>342.2</ele>
        <time>2013-07-21T16:05:43.000Z</time>
      </trkpt>
      <trkpt lat="45.94193" lon="4.8513">
        <ele>342.7</ele>
        <time>2013-07-21T16:05:44.000Z</time>
      </trkpt>
      <trkpt lat="45.94196" lon="4.85129">
        <ele>342.3</ele>
        <time>2013-07-21T16:05:45.000Z</time>
      </trkpt>
      <trkpt lat="45.94199" lon="4.85129">
        <ele>342</ele>
        <time>2013-07-21T16:05:46.000Z</time>
      </trkpt>
      <trkpt lat="45.94202" lon="4.8513">
        <ele>340.7</ele>
        <time>2013-07-21T16:05:47.000Z</time>
      </trkpt>
      <trkpt lat="45.94206" lon="4.85129">
        <ele>339</ele>
        <time>2013-07-21T16:05:48.000Z</time>
      </trkpt>
      <trkpt lat="45.94211" lon="4.85127">
        <ele>340.7</ele>
        <time>2013-07-21T16:05:49.000Z</time>
      </trkpt>
      <trkpt lat="45.94215" lon="4.85122">
        <ele>341.8</ele>
        <time>2013-07-21T16:05:50.000Z</time>
      </trkpt>
      <trkpt lat="45.9422" lon="4.85121">
        <ele>343.2</ele>
        <time>2013-07-21T16:05:51.000Z</time>
      </trkpt>
      <trkpt lat="45.94224" lon="4.8512">
        <ele>343.4</ele>
        <time>2013-07-21T16:05:52.000Z</time>
      </trkpt>
      <trkpt lat="45.94228" lon="4.85117">
        <ele>344.2</ele>
        <time>2013-07-21T16:05:53.000Z</time>
      </trkpt>
      <trkpt lat="45.94233" lon="4.85114">
        <ele>344.7</ele>
        <time>2013-07-21T16:05:54.000Z</time>
      </trkpt>
      <trkpt lat="45.94244" lon="4.85122">
        <ele>344</ele>
        <time>2013-07-21T16:05:55.554Z</time>
      </trkpt>
      <trkpt lat="45.94249" lon="4.85116">
        <ele>342</ele>
        <time>2013-07-21T16:05:57.000Z</time>
      </trkpt>
      <trkpt lat="45.94253" lon="4.85116">
        <ele>341.6</ele>
        <time>2013-07-21T16:05:58.000Z</time>
      </trkpt>
      <trkpt lat="45.94258" lon="4.85115">
        <ele>341.7</ele>
        <time>2013-07-21T16:05:59.000Z</time>
      </trkpt>
      <trkpt lat="45.94262" lon="4.85114">
        <ele>341.3</ele>
        <time>2013-07-21T16:06:00.000Z</time>
      </trkpt>
      <trkpt lat="45.94265" lon="4.8511">
        <ele>343.5</ele>
        <time>2013-07-21T16:06:01.000Z</time>
      </trkpt>
      <trkpt lat="45.9427" lon="4.85111">
        <ele>346.1</ele>
        <time>2013-07-21T16:06:02.000Z</time>
      </trkpt>
      <trkpt lat="45.94275" lon="4.8511">
        <ele>346.2</ele>
        <time>2013-07-21T16:06:03.000Z</time>
      </trkpt>
      <trkpt lat="45.94278" lon="4.85108">
        <ele>345.4</ele>
        <time>2013-07-21T16:06:04.000Z</time>
      </trkpt>
      <trkpt lat="45.94283" lon="4.85107">
        <ele>344.9</ele>
        <time>2013-07-21T16:06:05.000Z</time>
      </trkpt>
      <trkpt lat="45.94287" lon="4.85106">
        <ele>345.1</ele>
        <time>2013-07-21T16:06:06.000Z</time>
      </trkpt>
      <trkpt lat="45.94292" lon="4.85105">
        <ele>345</ele>
        <time>2013-07-21T16:06:07.000Z</time>
      </trkpt>
      <trkpt lat="45.94297" lon="4.85104">
        <ele>346.2</ele>
        <time>2013-07-21T16:06:08.000Z</time>
      </trkpt>
      <trkpt lat="45.94302" lon="4.85103">
        <ele>346.3</ele>
        <time>2013-07-21T16:06:09.000Z</time>
      </trkpt>
      <trkpt lat="45.94308" lon="4.85102">
        <ele>343.1</ele>
        <time>2013-07-21T16:06:10.000Z</time>
      </trkpt>
      <trkpt lat="45.94313" lon="4.85099">
        <ele>343.2</ele>
        <time>2013-07-21T16:06:11.000Z</time>
      </trkpt>
      <trkpt lat="45.94318" lon="4.85098">
        <ele>342.9</ele>
        <time>2013-07-21T16:06:12.000Z</time>
      </trkpt>
      <trkpt lat="45.94321" lon="4.85095">
        <ele>343.9</ele>
        <time>2013-07-21T16:06:13.000Z</time>
      </trkpt>
      <trkpt lat="45.94326" lon="4.85093">
        <ele>344.5</ele>
        <time>2013-07-21T16:06:14.000Z</time>
      </trkpt>
      <trkpt lat="45.94331" lon="4.85091">
        <ele>344</ele>
        <time>2013-07-21T16:06:15.000Z</time>
      </trkpt>
      <trkpt lat="45.94337" lon="4.8509">
        <ele>344.1</ele>
        <time>2013-07-21T16:06:16.000Z</time>
      </trkpt>
      <trkpt lat="45.94341" lon="4.8509">
        <ele>343.4</ele>
        <time>2013-07-21T16:06:17.000Z</time>
      </trkpt>
      <trkpt lat="45.94346" lon="4.85088">
        <ele>343.4</ele>
        <time>2013-07-21T16:06:18.000Z</time>
      </trkpt>
      <trkpt lat="45.9435" lon="4.85087">
        <ele>342.9</ele>
        <time>2013-07-21T16:06:19.000Z</time>
      </trkpt>
      <trkpt lat="45.94355" lon="4.85086">
        <ele>343.6</ele>
        <time>2013-07-21T16:06:20.000Z</time>
      </trkpt>
      <trkpt lat="45.94362" lon="4.85086">
        <ele>343.7</ele>
        <time>2013-07-21T16:06:21.000Z</time>
      </trkpt>
      <trkpt lat="45.94365" lon="4.85089">
        <ele>344.6</ele>
        <time>2013-07-21T16:06:22.000Z</time>
      </trkpt>
      <trkpt lat="45.94368" lon="4.85092">
        <ele>344.5</ele>
        <time>2013-07-21T16:06:23.000Z</time>
      </trkpt>
      <trkpt lat="45.94372" lon="4.85095">
        <ele>344.1</ele>
        <time>2013-07-21T16:06:24.000Z</time>
      </trkpt>
      <trkpt lat="45.94373" lon="4.85104">
        <ele>342.4</ele>
        <time>2013-07-21T16:06:25.000Z</time>
      </trkpt>
      <trkpt lat="45.94373" lon="4.85111">
        <ele>341.7</ele>
        <time>2013-07-21T16:06:26.000Z</time>
      </trkpt>
      <trkpt lat="45.94373" lon="4.85118">
        <ele>340.1</ele>
        <time>2013-07-21T16:06:27.000Z</time>
      </trkpt>
      <trkpt lat="45.94373" lon="4.85125">
        <ele>340</ele>
        <time>2013-07-21T16:06:28.000Z</time>
      </trkpt>
      <trkpt lat="45.94372" lon="4.8513">
        <ele>339.9</ele>
        <time>2013-07-21T16:06:29.000Z</time>
      </trkpt>
      <trkpt lat="45.94373" lon="4.85137">
        <ele>340.8</ele>
        <time>2013-07-21T16:06:30.000Z</time>
      </trkpt>
      <trkpt lat="45.94375" lon="4.85141">
        <ele>340.6</ele>
        <time>2013-07-21T16:06:31.000Z</time>
      </trkpt>
      <trkpt lat="45.94377" lon="4.85148">
        <ele>339.9</ele>
        <time>2013-07-21T16:06:32.000Z</time>
      </trkpt>
      <trkpt lat="45.94377" lon="4.85154">
        <ele>339.4</ele>
        <time>2013-07-21T16:06:33.000Z</time>
      </trkpt>
      <trkpt lat="45.94378" lon="4.8516">
        <ele>339.2</ele>
        <time>2013-07-21T16:06:34.000Z</time>
      </trkpt>
      <trkpt lat="45.94379" lon="4.85167">
        <ele>338.6</ele>
        <time>2013-07-21T16:06:35.000Z</time>
      </trkpt>
      <trkpt lat="45.9438" lon="4.85173">
        <ele>338</ele>
        <time>2013-07-21T16:06:36.000Z</time>
      </trkpt>
      <trkpt lat="45.9438" lon="4.85179">
        <ele>338</ele>
        <time>2013-07-21T16:06:37.000Z</time>
      </trkpt>
      <trkpt lat="45.94381" lon="4.85186">
        <ele>337.5</ele>
        <time>2013-07-21T16:06:38.000Z</time>
      </trkpt>
      <trkpt lat="45.94381" lon="4.85192">
        <ele>336.8</ele>
        <time>2013-07-21T16:06:39.000Z</time>
      </trkpt>
      <trkpt lat="45.94383" lon="4.85197">
        <ele>336.7</ele>
        <time>2013-07-21T16:06:40.000Z</time>
      </trkpt>
      <trkpt lat="45.94384" lon="4.85203">
        <ele>336.8</ele>
        <time>2013-07-21T16:06:41.000Z</time>
      </trkpt>
      <trkpt lat="45.94383" lon="4.85211">
        <ele>336.7</ele>
        <time>2013-07-21T16:06:42.000Z</time>
      </trkpt>
      <trkpt lat="45.94384" lon="4.85218">
        <ele>336.8</ele>
        <time>2013-07-21T16:06:43.000Z</time>
      </trkpt>
      <trkpt lat="45.94383" lon="4.85226">
        <ele>336.8</ele>
        <time>2013-07-21T16:06:44.000Z</time>
      </trkpt>
      <trkpt lat="45.94383" lon="4.85233">
        <ele>336.6</ele>
        <time>2013-07-21T16:06:45.000Z</time>
      </trkpt>
      <trkpt lat="45.94383" lon="4.8524">
        <ele>336.6</ele>
        <time>2013-07-21T16:06:46.000Z</time>
      </trkpt>
      <trkpt lat="45.94384" lon="4.85247">
        <ele>336.6</ele>
        <time>2013-07-21T16:06:47.000Z</time>
      </trkpt>
      <trkpt lat="45.94385" lon="4.85248">
        <ele>336.5</ele>
        <time>2013-07-21T16:06:48.000Z</time>
      </trkpt>
      <trkpt lat="45.94387" lon="4.85253">
        <ele>336.6</ele>
        <time>2013-07-21T16:06:49.000Z</time>
      </trkpt>
      <trkpt lat="45.9439" lon="4.85259">
        <ele>336.5</ele>
        <time>2013-07-21T16:06:50.000Z</time>
      </trkpt>
      <trkpt lat="45.94392" lon="4.85264">
        <ele>336.5</ele>
        <time>2013-07-21T16:06:51.000Z</time>
      </trkpt>
      <trkpt lat="45.94389" lon="4.85269">
        <ele>336.7</ele>
        <time>2013-07-21T16:06:52.000Z</time>
      </trkpt>
      <trkpt lat="45.94387" lon="4.85273">
        <ele>337.2</ele>
        <time>2013-07-21T16:06:53.000Z</time>
      </trkpt>
      <trkpt lat="45.94386" lon="4.85279">
        <ele>337.5</ele>
        <time>2013-07-21T16:06:54.000Z</time>
      </trkpt>
      <trkpt lat="45.94386" lon="4.85283">
        <ele>337.7</ele>
        <time>2013-07-21T16:06:55.000Z</time>
      </trkpt>
      <trkpt lat="45.94386" lon="4.85288">
        <ele>337.3</ele>
        <time>2013-07-21T16:06:55.989Z</time>
      </trkpt>
      <trkpt lat="45.94386" lon="4.85295">
        <ele>337.3</ele>
        <time>2013-07-21T16:06:57.000Z</time>
      </trkpt>
      <trkpt lat="45.94388" lon="4.85303">
        <ele>338.2</ele>
        <time>2013-07-21T16:06:58.000Z</time>
      </trkpt>
      <trkpt lat="45.94388" lon="4.85308">
        <ele>338.4</ele>
        <time>2013-07-21T16:06:59.000Z</time>
      </trkpt>
      <trkpt lat="45.94389" lon="4.85315">
        <ele>338.4</ele>
        <time>2013-07-21T16:07:00.000Z</time>
      </trkpt>
      <trkpt lat="45.94388" lon="4.85322">
        <ele>337.9</ele>
        <time>2013-07-21T16:07:01.000Z</time>
      </trkpt>
      <trkpt lat="45.94387" lon="4.85331">
        <ele>337.4</ele>
        <time>2013-07-21T16:07:02.000Z</time>
      </trkpt>
      <trkpt lat="45.94387" lon="4.85338">
        <ele>337.4</ele>
        <time>2013-07-21T16:07:03.000Z</time>
      </trkpt>
      <trkpt lat="45.94388" lon="4.85344">
        <ele>337</ele>
        <time>2013-07-21T16:07:04.000Z</time>
      </trkpt>
      <trkpt lat="45.94388" lon="4.85349">
        <ele>337.4</ele>
        <time>2013-07-21T16:07:05.000Z</time>
      </trkpt>
      <trkpt lat="45.94389" lon="4.85355">
        <ele>337.3</ele>
        <time>2013-07-21T16:07:06.000Z</time>
      </trkpt>
      <trkpt lat="45.9439" lon="4.8536">
        <ele>337.4</ele>
        <time>2013-07-21T16:07:07.000Z</time>
      </trkpt>
      <trkpt lat="45.94393" lon="4.85356">
        <ele>339.5</ele>
        <time>2013-07-21T16:07:12.000Z</time>
      </trkpt>
      <trkpt lat="45.94397" lon="4.85356">
        <ele>339.9</ele>
        <time>2013-07-21T16:07:13.000Z</time>
      </trkpt>
      <trkpt lat="45.94402" lon="4.85354">
        <ele>339.1</ele>
        <time>2013-07-21T16:07:14.000Z</time>
      </trkpt>
      <trkpt lat="45.94406" lon="4.85352">
        <ele>339.4</ele>
        <time>2013-07-21T16:07:15.000Z</time>
      </trkpt>
      <trkpt lat="45.9441" lon="4.85351">
        <ele>339.3</ele>
        <time>2013-07-21T16:07:16.000Z</time>
      </trkpt>
      <trkpt lat="45.94413" lon="4.85351">
        <ele>339.4</ele>
        <time>2013-07-21T16:07:17.000Z</time>
      </trkpt>
      <trkpt lat="45.94418" lon="4.8535">
        <ele>338.6</ele>
        <time>2013-07-21T16:07:18.000Z</time>
      </trkpt>
      <trkpt lat="45.94423" lon="4.85351">
        <ele>339.5</ele>
        <time>2013-07-21T16:07:19.000Z</time>
      </trkpt>
      <trkpt lat="45.94428" lon="4.8535">
        <ele>340</ele>
        <time>2013-07-21T16:07:20.000Z</time>
      </trkpt>
      <trkpt lat="45.94432" lon="4.85348">
        <ele>341.5</ele>
        <time>2013-07-21T16:07:21.000Z</time>
      </trkpt>
      <trkpt lat="45.94436" lon="4.85347">
        <ele>341.6</ele>
        <time>2013-07-21T16:07:22.000Z</time>
      </trkpt>
      <trkpt lat="45.9444" lon="4.85346">
        <ele>341.5</ele>
        <time>2013-07-21T16:07:23.000Z</time>
      </trkpt>
      <trkpt lat="45.94446" lon="4.85345">
        <ele>342.2</ele>
        <time>2013-07-21T16:07:24.000Z</time>
      </trkpt>
      <trkpt lat="45.94451" lon="4.85343">
        <ele>341.8</ele>
        <time>2013-07-21T16:07:25.000Z</time>
      </trkpt>
      <trkpt lat="45.94456" lon="4.85343">
        <ele>340.8</ele>
        <time>2013-07-21T16:07:26.000Z</time>
      </trkpt>
      <trkpt lat="45.94461" lon="4.85341">
        <ele>340.7</ele>
        <time>2013-07-21T16:07:27.000Z</time>
      </trkpt>
      <trkpt lat="45.94466" lon="4.8534">
        <ele>340.7</ele>
        <time>2013-07-21T16:07:28.000Z</time>
      </trkpt>
      <trkpt lat="45.94471" lon="4.85338">
        <ele>341.3</ele>
        <time>2013-07-21T16:07:29.000Z</time>
      </trkpt>
      <trkpt lat="45.94475" lon="4.85337">
        <ele>343.1</ele>
        <time>2013-07-21T16:07:30.000Z</time>
      </trkpt>
      <trkpt lat="45.9448" lon="4.85336">
        <ele>343.2</ele>
        <time>2013-07-21T16:07:31.000Z</time>
      </trkpt>
      <trkpt lat="45.94484" lon="4.85335">
        <ele>343.8</ele>
        <time>2013-07-21T16:07:32.000Z</time>
      </trkpt>
      <trkpt lat="45.94488" lon="4.85333">
        <ele>343.7</ele>
        <time>2013-07-21T16:07:33.000Z</time>
      </trkpt>
      <trkpt lat="45.94493" lon="4.85331">
        <ele>343.3</ele>
        <time>2013-07-21T16:07:34.000Z</time>
      </trkpt>
      <trkpt lat="45.94498" lon="4.85331">
        <ele>345</ele>
        <time>2013-07-21T16:07:35.000Z</time>
      </trkpt>
      <trkpt lat="45.94504" lon="4.85332">
        <ele>345.1</ele>
        <time>2013-07-21T16:07:36.000Z</time>
      </trkpt>
      <trkpt lat="45.94509" lon="4.85328">
        <ele>345.2</ele>
        <time>2013-07-21T16:07:37.000Z</time>
      </trkpt>
      <trkpt lat="45.94513" lon="4.85324">
        <ele>345.7</ele>
        <time>2013-07-21T16:07:38.000Z</time>
      </trkpt>
      <trkpt lat="45.9452" lon="4.85321">
        <ele>345</ele>
        <time>2013-07-21T16:07:39.000Z</time>
      </trkpt>
      <trkpt lat="45.94526" lon="4.85318">
        <ele>346.5</ele>
        <time>2013-07-21T16:07:40.000Z</time>
      </trkpt>
      <trkpt lat="45.9453" lon="4.85315">
        <ele>346.7</ele>
        <time>2013-07-21T16:07:41.000Z</time>
      </trkpt>
      <trkpt lat="45.94534" lon="4.85314">
        <ele>347.6</ele>
        <time>2013-07-21T16:07:42.000Z</time>
      </trkpt>
      <trkpt lat="45.94538" lon="4.85312">
        <ele>347.3</ele>
        <time>2013-07-21T16:07:43.000Z</time>
      </trkpt>
      <trkpt lat="45.94543" lon="4.85311">
        <ele>347.2</ele>
        <time>2013-07-21T16:07:44.000Z</time>
      </trkpt>
      <trkpt lat="45.94548" lon="4.85311">
        <ele>347.5</ele>
        <time>2013-07-21T16:07:45.000Z</time>
      </trkpt>
      <trkpt lat="45.94553" lon="4.85309">
        <ele>347.1</ele>
        <time>2013-07-21T16:07:46.000Z</time>
      </trkpt>
      <trkpt lat="45.94558" lon="4.85309">
        <ele>348.1</ele>
        <time>2013-07-21T16:07:47.000Z</time>
      </trkpt>
      <trkpt lat="45.94563" lon="4.85308">
        <ele>348.9</ele>
        <time>2013-07-21T16:07:48.000Z</time>
      </trkpt>
      <trkpt lat="45.94568" lon="4.85307">
        <ele>349.4</ele>
        <time>2013-07-21T16:07:49.000Z</time>
      </trkpt>
      <trkpt lat="45.94572" lon="4.85306">
        <ele>349.6</ele>
        <time>2013-07-21T16:07:50.000Z</time>
      </trkpt>
      <trkpt lat="45.94578" lon="4.85305">
        <ele>349.2</ele>
        <time>2013-07-21T16:07:51.000Z</time>
      </trkpt>
      <trkpt lat="45.94583" lon="4.85304">
        <ele>349.7</ele>
        <time>2013-07-21T16:07:52.000Z</time>
      </trkpt>
      <trkpt lat="45.94588" lon="4.85303">
        <ele>350.7</ele>
        <time>2013-07-21T16:07:53.000Z</time>
      </trkpt>
      <trkpt lat="45.94593" lon="4.85303">
        <ele>351</ele>
        <time>2013-07-21T16:07:54.000Z</time>
      </trkpt>
      <trkpt lat="45.94597" lon="4.85301">
        <ele>351.7</ele>
        <time>2013-07-21T16:07:55.000Z</time>
      </trkpt>
      <trkpt lat="45.94602" lon="4.85299">
        <ele>353.1</ele>
        <time>2013-07-21T16:07:56.035Z</time>
      </trkpt>
      <trkpt lat="45.94606" lon="4.85297">
        <ele>353.1</ele>
        <time>2013-07-21T16:07:57.000Z</time>
      </trkpt>
      <trkpt lat="45.9461" lon="4.85296">
        <ele>352.9</ele>
        <time>2013-07-21T16:07:58.000Z</time>
      </trkpt>
      <trkpt lat="45.94615" lon="4.85295">
        <ele>352.7</ele>
        <time>2013-07-21T16:07:59.000Z</time>
      </trkpt>
      <trkpt lat="45.94619" lon="4.85293">
        <ele>354.5</ele>
        <time>2013-07-21T16:08:00.000Z</time>
      </trkpt>
      <trkpt lat="45.94622" lon="4.85291">
        <ele>356.1</ele>
        <time>2013-07-21T16:08:01.000Z</time>
      </trkpt>
      <trkpt lat="45.94626" lon="4.85289">
        <ele>356.9</ele>
        <time>2013-07-21T16:08:02.000Z</time>
      </trkpt>
      <trkpt lat="45.94631" lon="4.85287">
        <ele>357.3</ele>
        <time>2013-07-21T16:08:03.000Z</time>
      </trkpt>
      <trkpt lat="45.94638" lon="4.85288">
        <ele>357.5</ele>
        <time>2013-07-21T16:08:04.000Z</time>
      </trkpt>
      <trkpt lat="45.94643" lon="4.85285">
        <ele>357.2</ele>
        <time>2013-07-21T16:08:05.000Z</time>
      </trkpt>
      <trkpt lat="45.94648" lon="4.85285">
        <ele>357.2</ele>
        <time>2013-07-21T16:08:06.000Z</time>
      </trkpt>
      <trkpt lat="45.94653" lon="4.85284">
        <ele>357.6</ele>
        <time>2013-07-21T16:08:07.000Z</time>
      </trkpt>
      <trkpt lat="45.94657" lon="4.85282">
        <ele>358.3</ele>
        <time>2013-07-21T16:08:08.000Z</time>
      </trkpt>
      <trkpt lat="45.94661" lon="4.85281">
        <ele>358.6</ele>
        <time>2013-07-21T16:08:09.000Z</time>
      </trkpt>
      <trkpt lat="45.94666" lon="4.85278">
        <ele>356.3</ele>
        <time>2013-07-21T16:08:10.000Z</time>
      </trkpt>
      <trkpt lat="45.94671" lon="4.85275">
        <ele>354.2</ele>
        <time>2013-07-21T16:08:11.000Z</time>
      </trkpt>
      <trkpt lat="45.94675" lon="4.85271">
        <ele>354.8</ele>
        <time>2013-07-21T16:08:12.000Z</time>
      </trkpt>
      <trkpt lat="45.94679" lon="4.85268">
        <ele>354.2</ele>
        <time>2013-07-21T16:08:13.000Z</time>
      </trkpt>
      <trkpt lat="45.94683" lon="4.85267">
        <ele>354.4</ele>
        <time>2013-07-21T16:08:14.000Z</time>
      </trkpt>
      <trkpt lat="45.94685" lon="4.8526">
        <ele>354.1</ele>
        <time>2013-07-21T16:08:15.000Z</time>
      </trkpt>
      <trkpt lat="45.94687" lon="4.85259">
        <ele>355.3</ele>
        <time>2013-07-21T16:08:16.000Z</time>
      </trkpt>
      <trkpt lat="45.9469" lon="4.85255">
        <ele>356.2</ele>
        <time>2013-07-21T16:08:17.000Z</time>
      </trkpt>
      <trkpt lat="45.94692" lon="4.85252">
        <ele>357.8</ele>
        <time>2013-07-21T16:08:18.000Z</time>
      </trkpt>
      <trkpt lat="45.94695" lon="4.85248">
        <ele>358.8</ele>
        <time>2013-07-21T16:08:19.000Z</time>
      </trkpt>
      <trkpt lat="45.94698" lon="4.85245">
        <ele>358.5</ele>
        <time>2013-07-21T16:08:20.000Z</time>
      </trkpt>
      <trkpt lat="45.94701" lon="4.85242">
        <ele>357.3</ele>
        <time>2013-07-21T16:08:21.000Z</time>
      </trkpt>
      <trkpt lat="45.94704" lon="4.8524">
        <ele>357.6</ele>
        <time>2013-07-21T16:08:22.000Z</time>
      </trkpt>
      <trkpt lat="45.94706" lon="4.85238">
        <ele>356.7</ele>
        <time>2013-07-21T16:08:23.000Z</time>
      </trkpt>
      <trkpt lat="45.94708" lon="4.85236">
        <ele>357</ele>
        <time>2013-07-21T16:08:24.000Z</time>
      </trkpt>
      <trkpt lat="45.94711" lon="4.85235">
        <ele>356.1</ele>
        <time>2013-07-21T16:08:25.000Z</time>
      </trkpt>
      <trkpt lat="45.94713" lon="4.85234">
        <ele>356</ele>
        <time>2013-07-21T16:08:26.000Z</time>
      </trkpt>
      <trkpt lat="45.94716" lon="4.85233">
        <ele>354.9</ele>
        <time>2013-07-21T16:08:27.000Z</time>
      </trkpt>
      <trkpt lat="45.94718" lon="4.85231">
        <ele>355.3</ele>
        <time>2013-07-21T16:08:28.000Z</time>
      </trkpt>
      <trkpt lat="45.94722" lon="4.85227">
        <ele>352.9</ele>
        <time>2013-07-21T16:08:29.000Z</time>
      </trkpt>
      <trkpt lat="45.94725" lon="4.85224">
        <ele>352.3</ele>
        <time>2013-07-21T16:08:30.000Z</time>
      </trkpt>
      <trkpt lat="45.94729" lon="4.85218">
        <ele>352.3</ele>
        <time>2013-07-21T16:08:31.000Z</time>
      </trkpt>
      <trkpt lat="45.94733" lon="4.85214">
        <ele>352.6</ele>
        <time>2013-07-21T16:08:32.000Z</time>
      </trkpt>
      <trkpt lat="45.94737" lon="4.85209">
        <ele>352.5</ele>
        <time>2013-07-21T16:08:33.000Z</time>
      </trkpt>
      <trkpt lat="45.94741" lon="4.85205">
        <ele>351.8</ele>
        <time>2013-07-21T16:08:34.000Z</time>
      </trkpt>
      <trkpt lat="45.94746" lon="4.852">
        <ele>352.2</ele>
        <time>2013-07-21T16:08:35.000Z</time>
      </trkpt>
      <trkpt lat="45.94748" lon="4.85196">
        <ele>352.5</ele>
        <time>2013-07-21T16:08:36.000Z</time>
      </trkpt>
      <trkpt lat="45.94752" lon="4.85193">
        <ele>352.2</ele>
        <time>2013-07-21T16:08:37.000Z</time>
      </trkpt>
      <trkpt lat="45.94756" lon="4.85188">
        <ele>352.9</ele>
        <time>2013-07-21T16:08:38.000Z</time>
      </trkpt>
      <trkpt lat="45.9476" lon="4.85186">
        <ele>352.6</ele>
        <time>2013-07-21T16:08:39.000Z</time>
      </trkpt>
      <trkpt lat="45.94763" lon="4.85182">
        <ele>353.4</ele>
        <time>2013-07-21T16:08:40.000Z</time>
      </trkpt>
      <trkpt lat="45.94767" lon="4.85178">
        <ele>353.9</ele>
        <time>2013-07-21T16:08:41.000Z</time>
      </trkpt>
      <trkpt lat="45.9477" lon="4.85172">
        <ele>353.8</ele>
        <time>2013-07-21T16:08:42.000Z</time>
      </trkpt>
      <trkpt lat="45.94775" lon="4.85168">
        <ele>353.8</ele>
        <time>2013-07-21T16:08:43.000Z</time>
      </trkpt>
      <trkpt lat="45.94779" lon="4.85161">
        <ele>353.7</ele>
        <time>2013-07-21T16:08:44.000Z</time>
      </trkpt>
      <trkpt lat="45.94783" lon="4.85157">
        <ele>354</ele>
        <time>2013-07-21T16:08:45.000Z</time>
      </trkpt>
      <trkpt lat="45.94787" lon="4.85153">
        <ele>354.5</ele>
        <time>2013-07-21T16:08:46.000Z</time>
      </trkpt>
      <trkpt lat="45.94792" lon="4.85148">
        <ele>355.2</ele>
        <time>2013-07-21T16:08:47.000Z</time>
      </trkpt>
      <trkpt lat="45.94796" lon="4.85143">
        <ele>355.3</ele>
        <time>2013-07-21T16:08:48.000Z</time>
      </trkpt>
      <trkpt lat="45.948" lon="4.85139">
        <ele>356.1</ele>
        <time>2013-07-21T16:08:49.000Z</time>
      </trkpt>
      <trkpt lat="45.94804" lon="4.85134">
        <ele>356.2</ele>
        <time>2013-07-21T16:08:50.000Z</time>
      </trkpt>
      <trkpt lat="45.94808" lon="4.85129">
        <ele>356.2</ele>
        <time>2013-07-21T16:08:51.000Z</time>
      </trkpt>
      <trkpt lat="45.94815" lon="4.85126">
        <ele>354.2</ele>
        <time>2013-07-21T16:08:52.000Z</time>
      </trkpt>
      <trkpt lat="45.94819" lon="4.85122">
        <ele>353.4</ele>
        <time>2013-07-21T16:08:53.000Z</time>
      </trkpt>
      <trkpt lat="45.94824" lon="4.85117">
        <ele>352</ele>
        <time>2013-07-21T16:08:54.000Z</time>
      </trkpt>
      <trkpt lat="45.94829" lon="4.85112">
        <ele>350.9</ele>
        <time>2013-07-21T16:08:55.000Z</time>
      </trkpt>
      <trkpt lat="45.94834" lon="4.85108">
        <ele>350.8</ele>
        <time>2013-07-21T16:08:56.059Z</time>
      </trkpt>
      <trkpt lat="45.94838" lon="4.85104">
        <ele>350.6</ele>
        <time>2013-07-21T16:08:57.000Z</time>
      </trkpt>
      <trkpt lat="45.94843" lon="4.85099">
        <ele>350.3</ele>
        <time>2013-07-21T16:08:58.000Z</time>
      </trkpt>
      <trkpt lat="45.94848" lon="4.85093">
        <ele>349.5</ele>
        <time>2013-07-21T16:08:59.000Z</time>
      </trkpt>
      <trkpt lat="45.94852" lon="4.85088">
        <ele>349.2</ele>
        <time>2013-07-21T16:09:00.000Z</time>
      </trkpt>
      <trkpt lat="45.94857" lon="4.85084">
        <ele>349</ele>
        <time>2013-07-21T16:09:01.000Z</time>
      </trkpt>
      <trkpt lat="45.94862" lon="4.85079">
        <ele>349.2</ele>
        <time>2013-07-21T16:09:02.000Z</time>
      </trkpt>
      <trkpt lat="45.94866" lon="4.85076">
        <ele>348.7</ele>
        <time>2013-07-21T16:09:03.000Z</time>
      </trkpt>
      <trkpt lat="45.9487" lon="4.8507">
        <ele>348</ele>
        <time>2013-07-21T16:09:04.000Z</time>
      </trkpt>
      <trkpt lat="45.94874" lon="4.85065">
        <ele>348.1</ele>
        <time>2013-07-21T16:09:05.000Z</time>
      </trkpt>
      <trkpt lat="45.94878" lon="4.85061">
        <ele>348.9</ele>
        <time>2013-07-21T16:09:06.000Z</time>
      </trkpt>
      <trkpt lat="45.94882" lon="4.85056">
        <ele>349.7</ele>
        <time>2013-07-21T16:09:07.000Z</time>
      </trkpt>
      <trkpt lat="45.94888" lon="4.85052">
        <ele>349.6</ele>
        <time>2013-07-21T16:09:08.000Z</time>
      </trkpt>
      <trkpt lat="45.94892" lon="4.85049">
        <ele>348.9</ele>
        <time>2013-07-21T16:09:09.000Z</time>
      </trkpt>
      <trkpt lat="45.94897" lon="4.85045">
        <ele>348.4</ele>
        <time>2013-07-21T16:09:10.000Z</time>
      </trkpt>
      <trkpt lat="45.94902" lon="4.85039">
        <ele>348.4</ele>
        <time>2013-07-21T16:09:11.000Z</time>
      </trkpt>
      <trkpt lat="45.94908" lon="4.85033">
        <ele>348.3</ele>
        <time>2013-07-21T16:09:12.000Z</time>
      </trkpt>
      <trkpt lat="45.94913" lon="4.85026">
        <ele>348.4</ele>
        <time>2013-07-21T16:09:13.000Z</time>
      </trkpt>
      <trkpt lat="45.94919" lon="4.85019">
        <ele>347.4</ele>
        <time>2013-07-21T16:09:14.000Z</time>
      </trkpt>
      <trkpt lat="45.94921" lon="4.85018">
        <ele>346.8</ele>
        <time>2013-07-21T16:09:15.000Z</time>
      </trkpt>
      <trkpt lat="45.94925" lon="4.85015">
        <ele>345.6</ele>
        <time>2013-07-21T16:09:16.000Z</time>
      </trkpt>
      <trkpt lat="45.94926" lon="4.85012">
        <ele>345.3</ele>
        <time>2013-07-21T16:09:17.000Z</time>
      </trkpt>
      <trkpt lat="45.94929" lon="4.85008">
        <ele>344.8</ele>
        <time>2013-07-21T16:09:18.000Z</time>
      </trkpt>
      <trkpt lat="45.94934" lon="4.85003">
        <ele>345.9</ele>
        <time>2013-07-21T16:09:19.000Z</time>
      </trkpt>
      <trkpt lat="45.94938" lon="4.84999">
        <ele>345.4</ele>
        <time>2013-07-21T16:09:20.000Z</time>
      </trkpt>
      <trkpt lat="45.94942" lon="4.84995">
        <ele>344.5</ele>
        <time>2013-07-21T16:09:21.000Z</time>
      </trkpt>
      <trkpt lat="45.94946" lon="4.8499">
        <ele>343.3</ele>
        <time>2013-07-21T16:09:22.000Z</time>
      </trkpt>
      <trkpt lat="45.94951" lon="4.84985">
        <ele>343.2</ele>
        <time>2013-07-21T16:09:23.000Z</time>
      </trkpt>
      <trkpt lat="45.94956" lon="4.84981">
        <ele>342.2</ele>
        <time>2013-07-21T16:09:24.000Z</time>
      </trkpt>
      <trkpt lat="45.94961" lon="4.84976">
        <ele>342</ele>
        <time>2013-07-21T16:09:25.000Z</time>
      </trkpt>
      <trkpt lat="45.94965" lon="4.8497">
        <ele>341.2</ele>
        <time>2013-07-21T16:09:26.000Z</time>
      </trkpt>
      <trkpt lat="45.9497" lon="4.84966">
        <ele>341.8</ele>
        <time>2013-07-21T16:09:27.000Z</time>
      </trkpt>
      <trkpt lat="45.94976" lon="4.84963">
        <ele>341.8</ele>
        <time>2013-07-21T16:09:28.000Z</time>
      </trkpt>
      <trkpt lat="45.94982" lon="4.84957">
        <ele>341.7</ele>
        <time>2013-07-21T16:09:29.000Z</time>
      </trkpt>
      <trkpt lat="45.94984" lon="4.84955">
        <ele>342.3</ele>
        <time>2013-07-21T16:09:30.000Z</time>
      </trkpt>
      <trkpt lat="45.94987" lon="4.84952">
        <ele>342.6</ele>
        <time>2013-07-21T16:09:31.000Z</time>
      </trkpt>
      <trkpt lat="45.94992" lon="4.84947">
        <ele>342.2</ele>
        <time>2013-07-21T16:09:32.000Z</time>
      </trkpt>
      <trkpt lat="45.94995" lon="4.84943">
        <ele>341.8</ele>
        <time>2013-07-21T16:09:33.000Z</time>
      </trkpt>
      <trkpt lat="45.94999" lon="4.8494">
        <ele>342.4</ele>
        <time>2013-07-21T16:09:34.000Z</time>
      </trkpt>
      <trkpt lat="45.95003" lon="4.84938">
        <ele>340.7</ele>
        <time>2013-07-21T16:09:35.000Z</time>
      </trkpt>
      <trkpt lat="45.95006" lon="4.84935">
        <ele>340.7</ele>
        <time>2013-07-21T16:09:36.000Z</time>
      </trkpt>
      <trkpt lat="45.95009" lon="4.84931">
        <ele>340.1</ele>
        <time>2013-07-21T16:09:37.000Z</time>
      </trkpt>
      <trkpt lat="45.95011" lon="4.84929">
        <ele>341</ele>
        <time>2013-07-21T16:09:38.000Z</time>
      </trkpt>
      <trkpt lat="45.95015" lon="4.84927">
        <ele>341.8</ele>
        <time>2013-07-21T16:09:39.000Z</time>
      </trkpt>
      <trkpt lat="45.95018" lon="4.84923">
        <ele>341.3</ele>
        <time>2013-07-21T16:09:40.000Z</time>
      </trkpt>
      <trkpt lat="45.95022" lon="4.8492">
        <ele>340.7</ele>
        <time>2013-07-21T16:09:41.000Z</time>
      </trkpt>
      <trkpt lat="45.95026" lon="4.84916">
        <ele>340.6</ele>
        <time>2013-07-21T16:09:42.000Z</time>
      </trkpt>
      <trkpt lat="45.9503" lon="4.84913">
        <ele>340.6</ele>
        <time>2013-07-21T16:09:43.000Z</time>
      </trkpt>
      <trkpt lat="45.95034" lon="4.8491">
        <ele>340.4</ele>
        <time>2013-07-21T16:09:44.000Z</time>
      </trkpt>
      <trkpt lat="45.95037" lon="4.84906">
        <ele>340.4</ele>
        <time>2013-07-21T16:09:45.000Z</time>
      </trkpt>
      <trkpt lat="45.9504" lon="4.84901">
        <ele>339.8</ele>
        <time>2013-07-21T16:09:46.000Z</time>
      </trkpt>
      <trkpt lat="45.95042" lon="4.84895">
        <ele>340.5</ele>
        <time>2013-07-21T16:09:47.000Z</time>
      </trkpt>
      <trkpt lat="45.95044" lon="4.8489">
        <ele>340.4</ele>
        <time>2013-07-21T16:09:48.000Z</time>
      </trkpt>
      <trkpt lat="45.95043" lon="4.84883">
        <ele>339.7</ele>
        <time>2013-07-21T16:09:49.000Z</time>
      </trkpt>
      <trkpt lat="45.95042" lon="4.84878">
        <ele>339.2</ele>
        <time>2013-07-21T16:09:50.000Z</time>
      </trkpt>
      <trkpt lat="45.95043" lon="4.84871">
        <ele>338.7</ele>
        <time>2013-07-21T16:09:51.000Z</time>
      </trkpt>
      <trkpt lat="45.95041" lon="4.84862">
        <ele>338.6</ele>
        <time>2013-07-21T16:09:52.000Z</time>
      </trkpt>
      <trkpt lat="45.95041" lon="4.84854">
        <ele>338</ele>
        <time>2013-07-21T16:09:53.000Z</time>
      </trkpt>
      <trkpt lat="45.95042" lon="4.84844">
        <ele>337.1</ele>
        <time>2013-07-21T16:09:54.000Z</time>
      </trkpt>
      <trkpt lat="45.95042" lon="4.84837">
        <ele>337.2</ele>
        <time>2013-07-21T16:09:55.000Z</time>
      </trkpt>
      <trkpt lat="45.95038" lon="4.84822">
        <ele>336.5</ele>
        <time>2013-07-21T16:09:56.921Z</time>
      </trkpt>
      <trkpt lat="45.95037" lon="4.84813">
        <ele>336.5</ele>
        <time>2013-07-21T16:09:58.000Z</time>
      </trkpt>
      <trkpt lat="45.95146" lon="4.84637">
        <ele>318.9</ele>
        <time>2013-07-21T16:10:31.000Z</time>
      </trkpt>
      <trkpt lat="45.95153" lon="4.8463">
        <ele>316.3</ele>
        <time>2013-07-21T16:10:32.000Z</time>
      </trkpt>
      <trkpt lat="45.95162" lon="4.84624">
        <ele>316.9</ele>
        <time>2013-07-21T16:10:34.000Z</time>
      </trkpt>
      <trkpt lat="45.95167" lon="4.84622">
        <ele>320.4</ele>
        <time>2013-07-21T16:10:35.000Z</time>
      </trkpt>
      <trkpt lat="45.9517" lon="4.84621">
        <ele>323.5</ele>
        <time>2013-07-21T16:10:36.000Z</time>
      </trkpt>
      <trkpt lat="45.95175" lon="4.84619">
        <ele>324.7</ele>
        <time>2013-07-21T16:10:37.000Z</time>
      </trkpt>
      <trkpt lat="45.9518" lon="4.84616">
        <ele>325.7</ele>
        <time>2013-07-21T16:10:38.000Z</time>
      </trkpt>
      <trkpt lat="45.95185" lon="4.84613">
        <ele>326.7</ele>
        <time>2013-07-21T16:10:39.000Z</time>
      </trkpt>
      <trkpt lat="45.95189" lon="4.84611">
        <ele>325.1</ele>
        <time>2013-07-21T16:10:40.000Z</time>
      </trkpt>
      <trkpt lat="45.95195" lon="4.84607">
        <ele>322.3</ele>
        <time>2013-07-21T16:10:41.000Z</time>
      </trkpt>
      <trkpt lat="45.95199" lon="4.84604">
        <ele>322.3</ele>
        <time>2013-07-21T16:10:42.000Z</time>
      </trkpt>
      <trkpt lat="45.95202" lon="4.84601">
        <ele>321.7</ele>
        <time>2013-07-21T16:10:43.000Z</time>
      </trkpt>
      <trkpt lat="45.95205" lon="4.84598">
        <ele>323.7</ele>
        <time>2013-07-21T16:10:44.000Z</time>
      </trkpt>
      <trkpt lat="45.95209" lon="4.84595">
        <ele>324.1</ele>
        <time>2013-07-21T16:10:45.000Z</time>
      </trkpt>
      <trkpt lat="45.95211" lon="4.84593">
        <ele>325.1</ele>
        <time>2013-07-21T16:10:46.000Z</time>
      </trkpt>
      <trkpt lat="45.95215" lon="4.84591">
        <ele>324.1</ele>
        <time>2013-07-21T16:10:47.000Z</time>
      </trkpt>
      <trkpt lat="45.95218" lon="4.84588">
        <ele>325</ele>
        <time>2013-07-21T16:10:48.000Z</time>
      </trkpt>
      <trkpt lat="45.95222" lon="4.84587">
        <ele>326.5</ele>
        <time>2013-07-21T16:10:49.000Z</time>
      </trkpt>
      <trkpt lat="45.95225" lon="4.84584">
        <ele>326.4</ele>
        <time>2013-07-21T16:10:50.000Z</time>
      </trkpt>
      <trkpt lat="45.95228" lon="4.84583">
        <ele>328.3</ele>
        <time>2013-07-21T16:10:51.000Z</time>
      </trkpt>
      <trkpt lat="45.95231" lon="4.84581">
        <ele>330</ele>
        <time>2013-07-21T16:10:52.000Z</time>
      </trkpt>
      <trkpt lat="45.95233" lon="4.84579">
        <ele>330.1</ele>
        <time>2013-07-21T16:10:53.000Z</time>
      </trkpt>
      <trkpt lat="45.95236" lon="4.84578">
        <ele>330</ele>
        <time>2013-07-21T16:10:54.000Z</time>
      </trkpt>
      <trkpt lat="45.95239" lon="4.84577">
        <ele>330.1</ele>
        <time>2013-07-21T16:10:55.000Z</time>
      </trkpt>
      <trkpt lat="45.95242" lon="4.84578">
        <ele>330</ele>
        <time>2013-07-21T16:10:55.948Z</time>
      </trkpt>
      <trkpt lat="45.95245" lon="4.8458">
        <ele>330.2</ele>
        <time>2013-07-21T16:10:57.000Z</time>
      </trkpt>
      <trkpt lat="45.95247" lon="4.84586">
        <ele>333.6</ele>
        <time>2013-07-21T16:10:58.000Z</time>
      </trkpt>
      <trkpt lat="45.95249" lon="4.84589">
        <ele>334</ele>
        <time>2013-07-21T16:10:59.000Z</time>
      </trkpt>
      <trkpt lat="45.9525" lon="4.84599">
        <ele>333.3</ele>
        <time>2013-07-21T16:11:00.000Z</time>
      </trkpt>
      <trkpt lat="45.95253" lon="4.84604">
        <ele>333.7</ele>
        <time>2013-07-21T16:11:01.000Z</time>
      </trkpt>
      <trkpt lat="45.95257" lon="4.84608">
        <ele>333.9</ele>
        <time>2013-07-21T16:11:02.000Z</time>
      </trkpt>
      <trkpt lat="45.95262" lon="4.84614">
        <ele>332.7</ele>
        <time>2013-07-21T16:11:03.000Z</time>
      </trkpt>
      <trkpt lat="45.95266" lon="4.84618">
        <ele>332.6</ele>
        <time>2013-07-21T16:11:04.000Z</time>
      </trkpt>
      <trkpt lat="45.95269" lon="4.84623">
        <ele>332</ele>
        <time>2013-07-21T16:11:05.000Z</time>
      </trkpt>
      <trkpt lat="45.95272" lon="4.84626">
        <ele>333.3</ele>
        <time>2013-07-21T16:11:06.000Z</time>
      </trkpt>
      <trkpt lat="45.95275" lon="4.84629">
        <ele>334</ele>
        <time>2013-07-21T16:11:07.000Z</time>
      </trkpt>
      <trkpt lat="45.95278" lon="4.84632">
        <ele>334.6</ele>
        <time>2013-07-21T16:11:08.000Z</time>
      </trkpt>
      <trkpt lat="45.95281" lon="4.84636">
        <ele>335.3</ele>
        <time>2013-07-21T16:11:09.000Z</time>
      </trkpt>
      <trkpt lat="45.95285" lon="4.84639">
        <ele>335.7</ele>
        <time>2013-07-21T16:11:10.000Z</time>
      </trkpt>
      <trkpt lat="45.95288" lon="4.84642">
        <ele>335.9</ele>
        <time>2013-07-21T16:11:11.000Z</time>
      </trkpt>
      <trkpt lat="45.95292" lon="4.84645">
        <ele>335.8</ele>
        <time>2013-07-21T16:11:12.000Z</time>
      </trkpt>
      <trkpt lat="45.95295" lon="4.84648">
        <ele>336</ele>
        <time>2013-07-21T16:11:13.000Z</time>
      </trkpt>
      <trkpt lat="45.95299" lon="4.8465">
        <ele>336.5</ele>
        <time>2013-07-21T16:11:14.000Z</time>
      </trkpt>
      <trkpt lat="45.95303" lon="4.84652">
        <ele>336.4</ele>
        <time>2013-07-21T16:11:15.000Z</time>
      </trkpt>
      <trkpt lat="45.95307" lon="4.84654">
        <ele>336.8</ele>
        <time>2013-07-21T16:11:16.000Z</time>
      </trkpt>
      <trkpt lat="45.9531" lon="4.84657">
        <ele>336</ele>
        <time>2013-07-21T16:11:17.000Z</time>
      </trkpt>
      <trkpt lat="45.95314" lon="4.84661">
        <ele>336.5</ele>
        <time>2013-07-21T16:11:18.000Z</time>
      </trkpt>
      <trkpt lat="45.95318" lon="4.84664">
        <ele>336.8</ele>
        <time>2013-07-21T16:11:19.000Z</time>
      </trkpt>
      <trkpt lat="45.95322" lon="4.84668">
        <ele>337.3</ele>
        <time>2013-07-21T16:11:20.000Z</time>
      </trkpt>
      <trkpt lat="45.95325" lon="4.84672">
        <ele>337.6</ele>
        <time>2013-07-21T16:11:21.000Z</time>
      </trkpt>
      <trkpt lat="45.95329" lon="4.84676">
        <ele>337.5</ele>
        <time>2013-07-21T16:11:22.000Z</time>
      </trkpt>
      <trkpt lat="45.95332" lon="4.84679">
        <ele>337.6</ele>
        <time>2013-07-21T16:11:23.000Z</time>
      </trkpt>
      <trkpt lat="45.95337" lon="4.84684">
        <ele>336.4</ele>
        <time>2013-07-21T16:11:24.000Z</time>
      </trkpt>
      <trkpt lat="45.9534" lon="4.84688">
        <ele>336.4</ele>
        <time>2013-07-21T16:11:25.000Z</time>
      </trkpt>
      <trkpt lat="45.95345" lon="4.84692">
        <ele>336.1</ele>
        <time>2013-07-21T16:11:26.000Z</time>
      </trkpt>
      <trkpt lat="45.95348" lon="4.84695">
        <ele>336.8</ele>
        <time>2013-07-21T16:11:27.000Z</time>
      </trkpt>
      <trkpt lat="45.95351" lon="4.84698">
        <ele>336.4</ele>
        <time>2013-07-21T16:11:28.000Z</time>
      </trkpt>
      <trkpt lat="45.95355" lon="4.84702">
        <ele>336.1</ele>
        <time>2013-07-21T16:11:29.000Z</time>
      </trkpt>
      <trkpt lat="45.95359" lon="4.84705">
        <ele>336.6</ele>
        <time>2013-07-21T16:11:30.000Z</time>
      </trkpt>
      <trkpt lat="45.95363" lon="4.84708">
        <ele>336.5</ele>
        <time>2013-07-21T16:11:31.000Z</time>
      </trkpt>
      <trkpt lat="45.95366" lon="4.84711">
        <ele>336.6</ele>
        <time>2013-07-21T16:11:32.000Z</time>
      </trkpt>
      <trkpt lat="45.9537" lon="4.84714">
        <ele>336.5</ele>
        <time>2013-07-21T16:11:33.000Z</time>
      </trkpt>
      <trkpt lat="45.95375" lon="4.8472">
        <ele>336.2</ele>
        <time>2013-07-21T16:11:34.000Z</time>
      </trkpt>
      <trkpt lat="45.95379" lon="4.84723">
        <ele>336</ele>
        <time>2013-07-21T16:11:35.000Z</time>
      </trkpt>
      <trkpt lat="45.95382" lon="4.84726">
        <ele>336.1</ele>
        <time>2013-07-21T16:11:36.000Z</time>
      </trkpt>
      <trkpt lat="45.95388" lon="4.84731">
        <ele>333.3</ele>
        <time>2013-07-21T16:11:37.000Z</time>
      </trkpt>
      <trkpt lat="45.95391" lon="4.84735">
        <ele>333.3</ele>
        <time>2013-07-21T16:11:38.000Z</time>
      </trkpt>
      <trkpt lat="45.95396" lon="4.8474">
        <ele>332.7</ele>
        <time>2013-07-21T16:11:39.000Z</time>
      </trkpt>
      <trkpt lat="45.954" lon="4.84744">
        <ele>332.2</ele>
        <time>2013-07-21T16:11:40.000Z</time>
      </trkpt>
      <trkpt lat="45.95404" lon="4.84748">
        <ele>331.9</ele>
        <time>2013-07-21T16:11:41.000Z</time>
      </trkpt>
      <trkpt lat="45.95409" lon="4.84751">
        <ele>331.7</ele>
        <time>2013-07-21T16:11:42.000Z</time>
      </trkpt>
      <trkpt lat="45.95411" lon="4.84755">
        <ele>332.5</ele>
        <time>2013-07-21T16:11:43.000Z</time>
      </trkpt>
      <trkpt lat="45.95414" lon="4.84757">
        <ele>334.1</ele>
        <time>2013-07-21T16:11:44.000Z</time>
      </trkpt>
      <trkpt lat="45.95416" lon="4.84759">
        <ele>335.6</ele>
        <time>2013-07-21T16:11:45.000Z</time>
      </trkpt>
      <trkpt lat="45.95419" lon="4.84763">
        <ele>335.9</ele>
        <time>2013-07-21T16:11:46.000Z</time>
      </trkpt>
      <trkpt lat="45.95422" lon="4.84765">
        <ele>337</ele>
        <time>2013-07-21T16:11:47.000Z</time>
      </trkpt>
      <trkpt lat="45.95426" lon="4.84769">
        <ele>337.7</ele>
        <time>2013-07-21T16:11:48.000Z</time>
      </trkpt>
      <trkpt lat="45.95429" lon="4.84773">
        <ele>338.3</ele>
        <time>2013-07-21T16:11:49.000Z</time>
      </trkpt>
      <trkpt lat="45.95432" lon="4.84777">
        <ele>338.6</ele>
        <time>2013-07-21T16:11:50.000Z</time>
      </trkpt>
      <trkpt lat="45.95435" lon="4.84781">
        <ele>339.3</ele>
        <time>2013-07-21T16:11:51.000Z</time>
      </trkpt>
      <trkpt lat="45.95437" lon="4.8478">
        <ele>342.8</ele>
        <time>2013-07-21T16:11:52.000Z</time>
      </trkpt>
      <trkpt lat="45.95439" lon="4.84782">
        <ele>344.3</ele>
        <time>2013-07-21T16:11:53.000Z</time>
      </trkpt>
      <trkpt lat="45.95443" lon="4.84786">
        <ele>343.1</ele>
        <time>2013-07-21T16:11:54.000Z</time>
      </trkpt>
      <trkpt lat="45.95446" lon="4.8479">
        <ele>343.9</ele>
        <time>2013-07-21T16:11:55.000Z</time>
      </trkpt>
      <trkpt lat="45.9545" lon="4.84794">
        <ele>343.7</ele>
        <time>2013-07-21T16:11:56.103Z</time>
      </trkpt>
      <trkpt lat="45.95453" lon="4.84797">
        <ele>343.6</ele>
        <time>2013-07-21T16:11:57.000Z</time>
      </trkpt>
      <trkpt lat="45.95456" lon="4.84801">
        <ele>342.9</ele>
        <time>2013-07-21T16:11:58.000Z</time>
      </trkpt>
      <trkpt lat="45.95459" lon="4.84805">
        <ele>344</ele>
        <time>2013-07-21T16:11:59.000Z</time>
      </trkpt>
      <trkpt lat="45.95462" lon="4.84809">
        <ele>345</ele>
        <time>2013-07-21T16:12:00.000Z</time>
      </trkpt>
      <trkpt lat="45.95465" lon="4.84812">
        <ele>345.7</ele>
        <time>2013-07-21T16:12:01.000Z</time>
      </trkpt>
      <trkpt lat="45.95467" lon="4.84817">
        <ele>346.9</ele>
        <time>2013-07-21T16:12:02.000Z</time>
      </trkpt>
      <trkpt lat="45.9547" lon="4.8482">
        <ele>347.8</ele>
        <time>2013-07-21T16:12:03.000Z</time>
      </trkpt>
      <trkpt lat="45.95473" lon="4.84825">
        <ele>346.9</ele>
        <time>2013-07-21T16:12:04.000Z</time>
      </trkpt>
      <trkpt lat="45.95476" lon="4.84829">
        <ele>347.4</ele>
        <time>2013-07-21T16:12:05.000Z</time>
      </trkpt>
      <trkpt lat="45.95483" lon="4.84837">
        <ele>344.9</ele>
        <time>2013-07-21T16:12:06.000Z</time>
      </trkpt>
      <trkpt lat="45.95486" lon="4.84842">
        <ele>345.2</ele>
        <time>2013-07-21T16:12:07.000Z</time>
      </trkpt>
      <trkpt lat="45.95489" lon="4.84846">
        <ele>346.2</ele>
        <time>2013-07-21T16:12:08.000Z</time>
      </trkpt>
      <trkpt lat="45.95492" lon="4.8485">
        <ele>347.8</ele>
        <time>2013-07-21T16:12:09.000Z</time>
      </trkpt>
      <trkpt lat="45.95496" lon="4.84855">
        <ele>345.5</ele>
        <time>2013-07-21T16:12:10.000Z</time>
      </trkpt>
      <trkpt lat="45.95499" lon="4.84859">
        <ele>346.1</ele>
        <time>2013-07-21T16:12:11.000Z</time>
      </trkpt>
      <trkpt lat="45.95503" lon="4.84863">
        <ele>346.5</ele>
        <time>2013-07-21T16:12:12.000Z</time>
      </trkpt>
      <trkpt lat="45.95506" lon="4.84867">
        <ele>346.7</ele>
        <time>2013-07-21T16:12:13.000Z</time>
      </trkpt>
      <trkpt lat="45.9551" lon="4.8487">
        <ele>346.3</ele>
        <time>2013-07-21T16:12:14.000Z</time>
      </trkpt>
      <trkpt lat="45.95513" lon="4.84874">
        <ele>346.5</ele>
        <time>2013-07-21T16:12:15.000Z</time>
      </trkpt>
      <trkpt lat="45.95517" lon="4.84877">
        <ele>346.9</ele>
        <time>2013-07-21T16:12:16.000Z</time>
      </trkpt>
      <trkpt lat="45.95521" lon="4.8488">
        <ele>346.1</ele>
        <time>2013-07-21T16:12:17.000Z</time>
      </trkpt>
      <trkpt lat="45.95525" lon="4.84884">
        <ele>345.8</ele>
        <time>2013-07-21T16:12:18.000Z</time>
      </trkpt>
      <trkpt lat="45.95529" lon="4.84888">
        <ele>345.7</ele>
        <time>2013-07-21T16:12:19.000Z</time>
      </trkpt>
      <trkpt lat="45.95533" lon="4.84889">
        <ele>345.6</ele>
        <time>2013-07-21T16:12:20.000Z</time>
      </trkpt>
      <trkpt lat="45.95535" lon="4.8489">
        <ele>346.4</ele>
        <time>2013-07-21T16:12:21.000Z</time>
      </trkpt>
      <trkpt lat="45.95539" lon="4.84894">
        <ele>346.7</ele>
        <time>2013-07-21T16:12:22.000Z</time>
      </trkpt>
      <trkpt lat="45.95543" lon="4.84896">
        <ele>346.8</ele>
        <time>2013-07-21T16:12:23.000Z</time>
      </trkpt>
      <trkpt lat="45.95546" lon="4.84898">
        <ele>347.3</ele>
        <time>2013-07-21T16:12:24.000Z</time>
      </trkpt>
      <trkpt lat="45.9555" lon="4.849">
        <ele>346.6</ele>
        <time>2013-07-21T16:12:25.000Z</time>
      </trkpt>
      <trkpt lat="45.95554" lon="4.84903">
        <ele>346.2</ele>
        <time>2013-07-21T16:12:26.000Z</time>
      </trkpt>
      <trkpt lat="45.95558" lon="4.84904">
        <ele>346.5</ele>
        <time>2013-07-21T16:12:27.000Z</time>
      </trkpt>
      <trkpt lat="45.95561" lon="4.84906">
        <ele>347.2</ele>
        <time>2013-07-21T16:12:28.000Z</time>
      </trkpt>
      <trkpt lat="45.95565" lon="4.84906">
        <ele>346.8</ele>
        <time>2013-07-21T16:12:29.000Z</time>
      </trkpt>
      <trkpt lat="45.9557" lon="4.84908">
        <ele>346.2</ele>
        <time>2013-07-21T16:12:30.000Z</time>
      </trkpt>
      <trkpt lat="45.95574" lon="4.8491">
        <ele>345.9</ele>
        <time>2013-07-21T16:12:31.000Z</time>
      </trkpt>
      <trkpt lat="45.95577" lon="4.84912">
        <ele>348.1</ele>
        <time>2013-07-21T16:12:32.000Z</time>
      </trkpt>
      <trkpt lat="45.9558" lon="4.84914">
        <ele>347.6</ele>
        <time>2013-07-21T16:12:33.000Z</time>
      </trkpt>
      <trkpt lat="45.95584" lon="4.84918">
        <ele>348.1</ele>
        <time>2013-07-21T16:12:34.000Z</time>
      </trkpt>
      <trkpt lat="45.95589" lon="4.84922">
        <ele>346</ele>
        <time>2013-07-21T16:12:35.000Z</time>
      </trkpt>
      <trkpt lat="45.95595" lon="4.84925">
        <ele>343.4</ele>
        <time>2013-07-21T16:12:36.000Z</time>
      </trkpt>
      <trkpt lat="45.95599" lon="4.84929">
        <ele>342.9</ele>
        <time>2013-07-21T16:12:37.000Z</time>
      </trkpt>
      <trkpt lat="45.95604" lon="4.84933">
        <ele>341.3</ele>
        <time>2013-07-21T16:12:38.000Z</time>
      </trkpt>
      <trkpt lat="45.95609" lon="4.84936">
        <ele>339.8</ele>
        <time>2013-07-21T16:12:39.000Z</time>
      </trkpt>
      <trkpt lat="45.95613" lon="4.8494">
        <ele>339.9</ele>
        <time>2013-07-21T16:12:40.000Z</time>
      </trkpt>
      <trkpt lat="45.95617" lon="4.8494">
        <ele>338.8</ele>
        <time>2013-07-21T16:12:41.000Z</time>
      </trkpt>
      <trkpt lat="45.95621" lon="4.84944">
        <ele>339.3</ele>
        <time>2013-07-21T16:12:42.000Z</time>
      </trkpt>
      <trkpt lat="45.95624" lon="4.84948">
        <ele>339</ele>
        <time>2013-07-21T16:12:43.000Z</time>
      </trkpt>
      <trkpt lat="45.95628" lon="4.84951">
        <ele>339</ele>
        <time>2013-07-21T16:12:44.000Z</time>
      </trkpt>
      <trkpt lat="45.95631" lon="4.84955">
        <ele>339.4</ele>
        <time>2013-07-21T16:12:45.000Z</time>
      </trkpt>
      <trkpt lat="45.95634" lon="4.84957">
        <ele>339.4</ele>
        <time>2013-07-21T16:12:46.000Z</time>
      </trkpt>
      <trkpt lat="45.95636" lon="4.8496">
        <ele>339.5</ele>
        <time>2013-07-21T16:12:47.000Z</time>
      </trkpt>
      <trkpt lat="45.95639" lon="4.84964">
        <ele>340.3</ele>
        <time>2013-07-21T16:12:48.000Z</time>
      </trkpt>
      <trkpt lat="45.95642" lon="4.84966">
        <ele>340.9</ele>
        <time>2013-07-21T16:12:49.000Z</time>
      </trkpt>
      <trkpt lat="45.95646" lon="4.84971">
        <ele>340.7</ele>
        <time>2013-07-21T16:12:50.000Z</time>
      </trkpt>
      <trkpt lat="45.95649" lon="4.84975">
        <ele>340.5</ele>
        <time>2013-07-21T16:12:51.000Z</time>
      </trkpt>
      <trkpt lat="45.95652" lon="4.8498">
        <ele>339.7</ele>
        <time>2013-07-21T16:12:52.000Z</time>
      </trkpt>
      <trkpt lat="45.95656" lon="4.84985">
        <ele>339.4</ele>
        <time>2013-07-21T16:12:53.000Z</time>
      </trkpt>
      <trkpt lat="45.95658" lon="4.84988">
        <ele>339.7</ele>
        <time>2013-07-21T16:12:54.000Z</time>
      </trkpt>
      <trkpt lat="45.95661" lon="4.84992">
        <ele>340.1</ele>
        <time>2013-07-21T16:12:55.000Z</time>
      </trkpt>
      <trkpt lat="45.95664" lon="4.84995">
        <ele>340.1</ele>
        <time>2013-07-21T16:12:56.020Z</time>
      </trkpt>
      <trkpt lat="45.95667" lon="4.84999">
        <ele>340.3</ele>
        <time>2013-07-21T16:12:57.000Z</time>
      </trkpt>
      <trkpt lat="45.9567" lon="4.85003">
        <ele>339.7</ele>
        <time>2013-07-21T16:12:58.000Z</time>
      </trkpt>
      <trkpt lat="45.95673" lon="4.85007">
        <ele>338.9</ele>
        <time>2013-07-21T16:12:59.000Z</time>
      </trkpt>
      <trkpt lat="45.95676" lon="4.85012">
        <ele>337.9</ele>
        <time>2013-07-21T16:13:00.000Z</time>
      </trkpt>
      <trkpt lat="45.95678" lon="4.85016">
        <ele>338.2</ele>
        <time>2013-07-21T16:13:01.000Z</time>
      </trkpt>
      <trkpt lat="45.9568" lon="4.8502">
        <ele>338.2</ele>
        <time>2013-07-21T16:13:02.000Z</time>
      </trkpt>
      <trkpt lat="45.95683" lon="4.85023">
        <ele>338</ele>
        <time>2013-07-21T16:13:03.000Z</time>
      </trkpt>
      <trkpt lat="45.95684" lon="4.85027">
        <ele>337.6</ele>
        <time>2013-07-21T16:13:04.000Z</time>
      </trkpt>
      <trkpt lat="45.95686" lon="4.8503">
        <ele>337.7</ele>
        <time>2013-07-21T16:13:05.000Z</time>
      </trkpt>
      <trkpt lat="45.95688" lon="4.85033">
        <ele>337.8</ele>
        <time>2013-07-21T16:13:06.000Z</time>
      </trkpt>
      <trkpt lat="45.9569" lon="4.85036">
        <ele>338.4</ele>
        <time>2013-07-21T16:13:07.000Z</time>
      </trkpt>
      <trkpt lat="45.95691" lon="4.85039">
        <ele>338.4</ele>
        <time>2013-07-21T16:13:08.000Z</time>
      </trkpt>
      <trkpt lat="45.95693" lon="4.85042">
        <ele>338.5</ele>
        <time>2013-07-21T16:13:09.000Z</time>
      </trkpt>
      <trkpt lat="45.95695" lon="4.85045">
        <ele>338.4</ele>
        <time>2013-07-21T16:13:10.000Z</time>
      </trkpt>
      <trkpt lat="45.95696" lon="4.85047">
        <ele>338.6</ele>
        <time>2013-07-21T16:13:11.000Z</time>
      </trkpt>
      <trkpt lat="45.95698" lon="4.8505">
        <ele>338.6</ele>
        <time>2013-07-21T16:13:12.000Z</time>
      </trkpt>
      <trkpt lat="45.957" lon="4.85055">
        <ele>339.3</ele>
        <time>2013-07-21T16:13:14.000Z</time>
      </trkpt>
      <trkpt lat="45.95701" lon="4.85058">
        <ele>339.5</ele>
        <time>2013-07-21T16:13:15.000Z</time>
      </trkpt>
      <trkpt lat="45.95703" lon="4.85062">
        <ele>340</ele>
        <time>2013-07-21T16:13:16.000Z</time>
      </trkpt>
      <trkpt lat="45.95704" lon="4.85065">
        <ele>340.1</ele>
        <time>2013-07-21T16:13:17.000Z</time>
      </trkpt>
      <trkpt lat="45.95704" lon="4.8507">
        <ele>339.7</ele>
        <time>2013-07-21T16:13:19.000Z</time>
      </trkpt>
      <trkpt lat="45.95703" lon="4.85072">
        <ele>339.3</ele>
        <time>2013-07-21T16:13:20.000Z</time>
      </trkpt>
      <trkpt lat="45.95701" lon="4.85076">
        <ele>339.2</ele>
        <time>2013-07-21T16:13:22.000Z</time>
      </trkpt>
      <trkpt lat="45.957" lon="4.85077">
        <ele>338.8</ele>
        <time>2013-07-21T16:13:23.000Z</time>
      </trkpt>
      <trkpt lat="45.95698" lon="4.85081">
        <ele>338.3</ele>
        <time>2013-07-21T16:13:25.000Z</time>
      </trkpt>
      <trkpt lat="45.95697" lon="4.85083">
        <ele>338.3</ele>
        <time>2013-07-21T16:13:26.000Z</time>
      </trkpt>
      <trkpt lat="45.95695" lon="4.85087">
        <ele>338.1</ele>
        <time>2013-07-21T16:13:28.000Z</time>
      </trkpt>
      <trkpt lat="45.95695" lon="4.8509">
        <ele>335.7</ele>
        <time>2013-07-21T16:13:29.000Z</time>
      </trkpt>
      <trkpt lat="45.95693" lon="4.85095">
        <ele>336.4</ele>
        <time>2013-07-21T16:13:40.000Z</time>
      </trkpt>
      <trkpt lat="45.95691" lon="4.85096">
        <ele>335.9</ele>
        <time>2013-07-21T16:13:41.000Z</time>
      </trkpt>
      <trkpt lat="45.95689" lon="4.85097">
        <ele>335.5</ele>
        <time>2013-07-21T16:13:42.000Z</time>
      </trkpt>
      <trkpt lat="45.95685" lon="4.85097">
        <ele>335.4</ele>
        <time>2013-07-21T16:13:43.000Z</time>
      </trkpt>
      <trkpt lat="45.95682" lon="4.85098">
        <ele>330.8</ele>
        <time>2013-07-21T16:13:44.000Z</time>
      </trkpt>
      <trkpt lat="45.95679" lon="4.85098">
        <ele>329</ele>
        <time>2013-07-21T16:13:45.000Z</time>
      </trkpt>
      <trkpt lat="45.95675" lon="4.85099">
        <ele>328.9</ele>
        <time>2013-07-21T16:13:46.000Z</time>
      </trkpt>
      <trkpt lat="45.9567" lon="4.85099">
        <ele>328.2</ele>
        <time>2013-07-21T16:13:47.000Z</time>
      </trkpt>
      <trkpt lat="45.95664" lon="4.851">
        <ele>329.3</ele>
        <time>2013-07-21T16:13:48.000Z</time>
      </trkpt>
      <trkpt lat="45.95658" lon="4.851">
        <ele>329</ele>
        <time>2013-07-21T16:13:49.000Z</time>
      </trkpt>
      <trkpt lat="45.95653" lon="4.85101">
        <ele>328.7</ele>
        <time>2013-07-21T16:13:50.000Z</time>
      </trkpt>
      <trkpt lat="45.9565" lon="4.85102">
        <ele>328.8</ele>
        <time>2013-07-21T16:13:51.000Z</time>
      </trkpt>
      <trkpt lat="45.95644" lon="4.85103">
        <ele>329</ele>
        <time>2013-07-21T16:13:52.000Z</time>
      </trkpt>
      <trkpt lat="45.9564" lon="4.85105">
        <ele>329.2</ele>
        <time>2013-07-21T16:13:53.000Z</time>
      </trkpt>
      <trkpt lat="45.95637" lon="4.85108">
        <ele>327.9</ele>
        <time>2013-07-21T16:13:54.000Z</time>
      </trkpt>
      <trkpt lat="45.95635" lon="4.85111">
        <ele>325.7</ele>
        <time>2013-07-21T16:13:55.000Z</time>
      </trkpt>
      <trkpt lat="45.95632" lon="4.85114">
        <ele>327</ele>
        <time>2013-07-21T16:13:55.975Z</time>
      </trkpt>
      <trkpt lat="45.95631" lon="4.85118">
        <ele>328.2</ele>
        <time>2013-07-21T16:13:57.000Z</time>
      </trkpt>
      <trkpt lat="45.95629" lon="4.85121">
        <ele>328.6</ele>
        <time>2013-07-21T16:13:58.000Z</time>
      </trkpt>
      <trkpt lat="45.95628" lon="4.85124">
        <ele>329.1</ele>
        <time>2013-07-21T16:13:59.000Z</time>
      </trkpt>
      <trkpt lat="45.95626" lon="4.85128">
        <ele>327.1</ele>
        <time>2013-07-21T16:14:00.000Z</time>
      </trkpt>
      <trkpt lat="45.95624" lon="4.8513">
        <ele>326.2</ele>
        <time>2013-07-21T16:14:01.000Z</time>
      </trkpt>
      <trkpt lat="45.95623" lon="4.85133">
        <ele>326.1</ele>
        <time>2013-07-21T16:14:02.000Z</time>
      </trkpt>
      <trkpt lat="45.95621" lon="4.85136">
        <ele>326.4</ele>
        <time>2013-07-21T16:14:03.000Z</time>
      </trkpt>
      <trkpt lat="45.95619" lon="4.85139">
        <ele>326.2</ele>
        <time>2013-07-21T16:14:04.000Z</time>
      </trkpt>
      <trkpt lat="45.95616" lon="4.85141">
        <ele>326.5</ele>
        <time>2013-07-21T16:14:05.000Z</time>
      </trkpt>
      <trkpt lat="45.95614" lon="4.85143">
        <ele>326.5</ele>
        <time>2013-07-21T16:14:06.000Z</time>
      </trkpt>
      <trkpt lat="45.95611" lon="4.85144">
        <ele>326.5</ele>
        <time>2013-07-21T16:14:07.000Z</time>
      </trkpt>
      <trkpt lat="45.95607" lon="4.85145">
        <ele>326.1</ele>
        <time>2013-07-21T16:14:08.000Z</time>
      </trkpt>
      <trkpt lat="45.95605" lon="4.85146">
        <ele>326</ele>
        <time>2013-07-21T16:14:09.000Z</time>
      </trkpt>
      <trkpt lat="45.95601" lon="4.85147">
        <ele>326.3</ele>
        <time>2013-07-21T16:14:10.000Z</time>
      </trkpt>
      <trkpt lat="45.95597" lon="4.85148">
        <ele>325.9</ele>
        <time>2013-07-21T16:14:11.000Z</time>
      </trkpt>
      <trkpt lat="45.95592" lon="4.85149">
        <ele>325.9</ele>
        <time>2013-07-21T16:14:12.000Z</time>
      </trkpt>
      <trkpt lat="45.95588" lon="4.8515">
        <ele>326.3</ele>
        <time>2013-07-21T16:14:13.000Z</time>
      </trkpt>
      <trkpt lat="45.95585" lon="4.85151">
        <ele>326.4</ele>
        <time>2013-07-21T16:14:14.000Z</time>
      </trkpt>
      <trkpt lat="45.9558" lon="4.85151">
        <ele>326.7</ele>
        <time>2013-07-21T16:14:15.000Z</time>
      </trkpt>
      <trkpt lat="45.95575" lon="4.85152">
        <ele>326.6</ele>
        <time>2013-07-21T16:14:16.000Z</time>
      </trkpt>
      <trkpt lat="45.9557" lon="4.85153">
        <ele>326.6</ele>
        <time>2013-07-21T16:14:17.000Z</time>
      </trkpt>
      <trkpt lat="45.95566" lon="4.85156">
        <ele>325.9</ele>
        <time>2013-07-21T16:14:18.000Z</time>
      </trkpt>
      <trkpt lat="45.95563" lon="4.85158">
        <ele>326</ele>
        <time>2013-07-21T16:14:19.000Z</time>
      </trkpt>
      <trkpt lat="45.95559" lon="4.85161">
        <ele>325.9</ele>
        <time>2013-07-21T16:14:20.000Z</time>
      </trkpt>
      <trkpt lat="45.95556" lon="4.85167">
        <ele>324.4</ele>
        <time>2013-07-21T16:14:21.000Z</time>
      </trkpt>
      <trkpt lat="45.95553" lon="4.85172">
        <ele>321.9</ele>
        <time>2013-07-21T16:14:22.000Z</time>
      </trkpt>
      <trkpt lat="45.95551" lon="4.85177">
        <ele>321.3</ele>
        <time>2013-07-21T16:14:23.000Z</time>
      </trkpt>
      <trkpt lat="45.9555" lon="4.85183">
        <ele>319.7</ele>
        <time>2013-07-21T16:14:24.000Z</time>
      </trkpt>
      <trkpt lat="45.9555" lon="4.85187">
        <ele>319.7</ele>
        <time>2013-07-21T16:14:25.000Z</time>
      </trkpt>
      <trkpt lat="45.95546" lon="4.85192">
        <ele>321.7</ele>
        <time>2013-07-21T16:14:26.000Z</time>
      </trkpt>
      <trkpt lat="45.95544" lon="4.85195">
        <ele>322.7</ele>
        <time>2013-07-21T16:14:27.000Z</time>
      </trkpt>
      <trkpt lat="45.95542" lon="4.85198">
        <ele>322.7</ele>
        <time>2013-07-21T16:14:28.000Z</time>
      </trkpt>
      <trkpt lat="45.9554" lon="4.85201">
        <ele>323.8</ele>
        <time>2013-07-21T16:14:29.000Z</time>
      </trkpt>
      <trkpt lat="45.95537" lon="4.85204">
        <ele>325.5</ele>
        <time>2013-07-21T16:14:30.000Z</time>
      </trkpt>
      <trkpt lat="45.95535" lon="4.85207">
        <ele>326.1</ele>
        <time>2013-07-21T16:14:31.000Z</time>
      </trkpt>
      <trkpt lat="45.95531" lon="4.85208">
        <ele>326.1</ele>
        <time>2013-07-21T16:14:32.000Z</time>
      </trkpt>
      <trkpt lat="45.95528" lon="4.8521">
        <ele>326.5</ele>
        <time>2013-07-21T16:14:33.000Z</time>
      </trkpt>
      <trkpt lat="45.95524" lon="4.85211">
        <ele>328.1</ele>
        <time>2013-07-21T16:14:34.000Z</time>
      </trkpt>
      <trkpt lat="45.9552" lon="4.85212">
        <ele>328.9</ele>
        <time>2013-07-21T16:14:35.000Z</time>
      </trkpt>
      <trkpt lat="45.95516" lon="4.85212">
        <ele>329.5</ele>
        <time>2013-07-21T16:14:36.000Z</time>
      </trkpt>
      <trkpt lat="45.95512" lon="4.85212">
        <ele>330.1</ele>
        <time>2013-07-21T16:14:37.000Z</time>
      </trkpt>
      <trkpt lat="45.95507" lon="4.85213">
        <ele>330.5</ele>
        <time>2013-07-21T16:14:38.000Z</time>
      </trkpt>
      <trkpt lat="45.95502" lon="4.85214">
        <ele>330.9</ele>
        <time>2013-07-21T16:14:39.000Z</time>
      </trkpt>
      <trkpt lat="45.95497" lon="4.85215">
        <ele>330.9</ele>
        <time>2013-07-21T16:14:40.000Z</time>
      </trkpt>
      <trkpt lat="45.95491" lon="4.85216">
        <ele>331.3</ele>
        <time>2013-07-21T16:14:41.000Z</time>
      </trkpt>
      <trkpt lat="45.95486" lon="4.85218">
        <ele>332</ele>
        <time>2013-07-21T16:14:42.000Z</time>
      </trkpt>
      <trkpt lat="45.95472" lon="4.85221">
        <ele>332.5</ele>
        <time>2013-07-21T16:14:43.000Z</time>
      </trkpt>
      <trkpt lat="45.95467" lon="4.85223">
        <ele>332.3</ele>
        <time>2013-07-21T16:14:44.000Z</time>
      </trkpt>
      <trkpt lat="45.95463" lon="4.85227">
        <ele>329.7</ele>
        <time>2013-07-21T16:14:45.000Z</time>
      </trkpt>
      <trkpt lat="45.95459" lon="4.8523">
        <ele>329.2</ele>
        <time>2013-07-21T16:14:46.000Z</time>
      </trkpt>
      <trkpt lat="45.95456" lon="4.85235">
        <ele>325.8</ele>
        <time>2013-07-21T16:14:47.000Z</time>
      </trkpt>
      <trkpt lat="45.9545" lon="4.85238">
        <ele>324</ele>
        <time>2013-07-21T16:14:48.000Z</time>
      </trkpt>
      <trkpt lat="45.95445" lon="4.85242">
        <ele>322.5</ele>
        <time>2013-07-21T16:14:49.000Z</time>
      </trkpt>
      <trkpt lat="45.95436" lon="4.85245">
        <ele>323.5</ele>
        <time>2013-07-21T16:14:50.000Z</time>
      </trkpt>
      <trkpt lat="45.95428" lon="4.85248">
        <ele>323.5</ele>
        <time>2013-07-21T16:14:51.000Z</time>
      </trkpt>
      <trkpt lat="45.95423" lon="4.85251">
        <ele>323.3</ele>
        <time>2013-07-21T16:14:52.000Z</time>
      </trkpt>
      <trkpt lat="45.95415" lon="4.85251">
        <ele>323.9</ele>
        <time>2013-07-21T16:14:53.000Z</time>
      </trkpt>
      <trkpt lat="45.9541" lon="4.85252">
        <ele>323.9</ele>
        <time>2013-07-21T16:14:54.000Z</time>
      </trkpt>
      <trkpt lat="45.95402" lon="4.85254">
        <ele>324.2</ele>
        <time>2013-07-21T16:14:55.000Z</time>
      </trkpt>
      <trkpt lat="45.95398" lon="4.85257">
        <ele>324.3</ele>
        <time>2013-07-21T16:14:56.025Z</time>
      </trkpt>
      <trkpt lat="45.95393" lon="4.85261">
        <ele>324.3</ele>
        <time>2013-07-21T16:14:57.000Z</time>
      </trkpt>
      <trkpt lat="45.95388" lon="4.85262">
        <ele>325.4</ele>
        <time>2013-07-21T16:14:58.000Z</time>
      </trkpt>
      <trkpt lat="45.95382" lon="4.85266">
        <ele>326</ele>
        <time>2013-07-21T16:14:59.000Z</time>
      </trkpt>
      <trkpt lat="45.95349" lon="4.85292">
        <ele>327.3</ele>
        <time>2013-07-21T16:15:05.298Z</time>
      </trkpt>
      <trkpt lat="45.9534" lon="4.85295">
        <ele>327.5</ele>
        <time>2013-07-21T16:15:07.000Z</time>
      </trkpt>
      <trkpt lat="45.95339" lon="4.85301">
        <ele>324.2</ele>
        <time>2013-07-21T16:15:08.000Z</time>
      </trkpt>
      <trkpt lat="45.95335" lon="4.85306">
        <ele>321.9</ele>
        <time>2013-07-21T16:15:09.000Z</time>
      </trkpt>
      <trkpt lat="45.95332" lon="4.85311">
        <ele>320.9</ele>
        <time>2013-07-21T16:15:10.000Z</time>
      </trkpt>
      <trkpt lat="45.9533" lon="4.85313">
        <ele>320.4</ele>
        <time>2013-07-21T16:15:11.000Z</time>
      </trkpt>
      <trkpt lat="45.95324" lon="4.85313">
        <ele>320.9</ele>
        <time>2013-07-21T16:15:12.000Z</time>
      </trkpt>
      <trkpt lat="45.95321" lon="4.85316">
        <ele>320.5</ele>
        <time>2013-07-21T16:15:13.000Z</time>
      </trkpt>
      <trkpt lat="45.95316" lon="4.85319">
        <ele>320.7</ele>
        <time>2013-07-21T16:15:14.000Z</time>
      </trkpt>
      <trkpt lat="45.95309" lon="4.8532">
        <ele>320.6</ele>
        <time>2013-07-21T16:15:15.000Z</time>
      </trkpt>
      <trkpt lat="45.95302" lon="4.85321">
        <ele>319.2</ele>
        <time>2013-07-21T16:15:16.000Z</time>
      </trkpt>
      <trkpt lat="45.95297" lon="4.8532">
        <ele>319.4</ele>
        <time>2013-07-21T16:15:17.000Z</time>
      </trkpt>
      <trkpt lat="45.95293" lon="4.85322">
        <ele>319.3</ele>
        <time>2013-07-21T16:15:18.000Z</time>
      </trkpt>
      <trkpt lat="45.95285" lon="4.85325">
        <ele>317.5</ele>
        <time>2013-07-21T16:15:19.000Z</time>
      </trkpt>
      <trkpt lat="45.95277" lon="4.85324">
        <ele>317.8</ele>
        <time>2013-07-21T16:15:20.000Z</time>
      </trkpt>
      <trkpt lat="45.95272" lon="4.85326">
        <ele>318.4</ele>
        <time>2013-07-21T16:15:21.000Z</time>
      </trkpt>
      <trkpt lat="45.95266" lon="4.8533">
        <ele>319.2</ele>
        <time>2013-07-21T16:15:22.000Z</time>
      </trkpt>
      <trkpt lat="45.95265" lon="4.85337">
        <ele>319.4</ele>
        <time>2013-07-21T16:15:23.000Z</time>
      </trkpt>
      <trkpt lat="45.95262" lon="4.85341">
        <ele>319.7</ele>
        <time>2013-07-21T16:15:24.000Z</time>
      </trkpt>
      <trkpt lat="45.9526" lon="4.85346">
        <ele>319.9</ele>
        <time>2013-07-21T16:15:25.000Z</time>
      </trkpt>
      <trkpt lat="45.95262" lon="4.85351">
        <ele>321.8</ele>
        <time>2013-07-21T16:15:26.000Z</time>
      </trkpt>
      <trkpt lat="45.95261" lon="4.85356">
        <ele>323.4</ele>
        <time>2013-07-21T16:15:27.000Z</time>
      </trkpt>
      <trkpt lat="45.95263" lon="4.85358">
        <ele>324.6</ele>
        <time>2013-07-21T16:15:28.000Z</time>
      </trkpt>
      <trkpt lat="45.95264" lon="4.85361">
        <ele>325</ele>
        <time>2013-07-21T16:15:29.000Z</time>
      </trkpt>
      <trkpt lat="45.95265" lon="4.85364">
        <ele>325.1</ele>
        <time>2013-07-21T16:15:30.000Z</time>
      </trkpt>
      <trkpt lat="45.95266" lon="4.85368">
        <ele>324.8</ele>
        <time>2013-07-21T16:15:31.000Z</time>
      </trkpt>
      <trkpt lat="45.95266" lon="4.85373">
        <ele>325.6</ele>
        <time>2013-07-21T16:15:33.000Z</time>
      </trkpt>
      <trkpt lat="45.95266" lon="4.85376">
        <ele>325.5</ele>
        <time>2013-07-21T16:15:34.000Z</time>
      </trkpt>
      <trkpt lat="45.95266" lon="4.85381">
        <ele>322.9</ele>
        <time>2013-07-21T16:15:35.000Z</time>
      </trkpt>
      <trkpt lat="45.95266" lon="4.85386">
        <ele>322.9</ele>
        <time>2013-07-21T16:15:36.000Z</time>
      </trkpt>
      <trkpt lat="45.95266" lon="4.85389">
        <ele>322.1</ele>
        <time>2013-07-21T16:15:37.000Z</time>
      </trkpt>
      <trkpt lat="45.95265" lon="4.85393">
        <ele>322.4</ele>
        <time>2013-07-21T16:15:38.000Z</time>
      </trkpt>
      <trkpt lat="45.95262" lon="4.85398">
        <ele>319.8</ele>
        <time>2013-07-21T16:15:40.000Z</time>
      </trkpt>
      <trkpt lat="45.95262" lon="4.854">
        <ele>318.8</ele>
        <time>2013-07-21T16:15:41.000Z</time>
      </trkpt>
      <trkpt lat="45.95259" lon="4.85403">
        <ele>319.6</ele>
        <time>2013-07-21T16:15:42.000Z</time>
      </trkpt>
      <trkpt lat="45.95258" lon="4.85405">
        <ele>319.1</ele>
        <time>2013-07-21T16:15:43.000Z</time>
      </trkpt>
      <trkpt lat="45.95256" lon="4.85407">
        <ele>319.6</ele>
        <time>2013-07-21T16:15:44.000Z</time>
      </trkpt>
      <trkpt lat="45.95255" lon="4.85412">
        <ele>320.9</ele>
        <time>2013-07-21T16:15:45.000Z</time>
      </trkpt>
      <trkpt lat="45.95253" lon="4.85415">
        <ele>322.6</ele>
        <time>2013-07-21T16:15:46.000Z</time>
      </trkpt>
      <trkpt lat="45.95252" lon="4.85419">
        <ele>320.8</ele>
        <time>2013-07-21T16:15:47.000Z</time>
      </trkpt>
      <trkpt lat="45.95252" lon="4.85423">
        <ele>322.3</ele>
        <time>2013-07-21T16:15:48.000Z</time>
      </trkpt>
      <trkpt lat="45.95252" lon="4.85426">
        <ele>322.5</ele>
        <time>2013-07-21T16:15:49.000Z</time>
      </trkpt>
      <trkpt lat="45.9525" lon="4.8543">
        <ele>328.1</ele>
        <time>2013-07-21T16:15:51.000Z</time>
      </trkpt>
      <trkpt lat="45.95249" lon="4.85433">
        <ele>328.2</ele>
        <time>2013-07-21T16:15:52.000Z</time>
      </trkpt>
      <trkpt lat="45.95245" lon="4.85432">
        <ele>333.6</ele>
        <time>2013-07-21T16:15:54.000Z</time>
      </trkpt>
      <trkpt lat="45.95243" lon="4.85433">
        <ele>334.4</ele>
        <time>2013-07-21T16:15:55.000Z</time>
      </trkpt>
      <trkpt lat="45.95241" lon="4.85434">
        <ele>334.9</ele>
        <time>2013-07-21T16:15:56.055Z</time>
      </trkpt>
      <trkpt lat="45.95238" lon="4.85433">
        <ele>336.2</ele>
        <time>2013-07-21T16:15:57.000Z</time>
      </trkpt>
      <trkpt lat="45.95235" lon="4.85433">
        <ele>336.6</ele>
        <time>2013-07-21T16:15:58.000Z</time>
      </trkpt>
      <trkpt lat="45.95233" lon="4.85432">
        <ele>337.2</ele>
        <time>2013-07-21T16:15:59.000Z</time>
      </trkpt>
      <trkpt lat="45.95228" lon="4.85432">
        <ele>339.3</ele>
        <time>2013-07-21T16:16:00.000Z</time>
      </trkpt>
      <trkpt lat="45.95225" lon="4.85433">
        <ele>340</ele>
        <time>2013-07-21T16:16:01.000Z</time>
      </trkpt>
      <trkpt lat="45.95221" lon="4.85435">
        <ele>337.5</ele>
        <time>2013-07-21T16:16:02.000Z</time>
      </trkpt>
      <trkpt lat="45.95221" lon="4.85438">
        <ele>336.7</ele>
        <time>2013-07-21T16:16:03.000Z</time>
      </trkpt>
      <trkpt lat="45.95217" lon="4.8544">
        <ele>337.4</ele>
        <time>2013-07-21T16:16:04.000Z</time>
      </trkpt>
      <trkpt lat="45.95215" lon="4.85443">
        <ele>336.9</ele>
        <time>2013-07-21T16:16:05.000Z</time>
      </trkpt>
      <trkpt lat="45.95213" lon="4.85445">
        <ele>335</ele>
        <time>2013-07-21T16:16:06.000Z</time>
      </trkpt>
      <trkpt lat="45.95212" lon="4.85448">
        <ele>334.7</ele>
        <time>2013-07-21T16:16:07.000Z</time>
      </trkpt>
      <trkpt lat="45.9521" lon="4.85451">
        <ele>334.3</ele>
        <time>2013-07-21T16:16:08.000Z</time>
      </trkpt>
      <trkpt lat="45.95208" lon="4.85453">
        <ele>334.8</ele>
        <time>2013-07-21T16:16:09.000Z</time>
      </trkpt>
      <trkpt lat="45.95205" lon="4.85455">
        <ele>335.1</ele>
        <time>2013-07-21T16:16:10.000Z</time>
      </trkpt>
      <trkpt lat="45.95201" lon="4.85457">
        <ele>334.3</ele>
        <time>2013-07-21T16:16:11.000Z</time>
      </trkpt>
      <trkpt lat="45.95197" lon="4.85459">
        <ele>334.4</ele>
        <time>2013-07-21T16:16:12.000Z</time>
      </trkpt>
      <trkpt lat="45.95192" lon="4.8546">
        <ele>334.3</ele>
        <time>2013-07-21T16:16:13.000Z</time>
      </trkpt>
      <trkpt lat="45.95186" lon="4.85462">
        <ele>334</ele>
        <time>2013-07-21T16:16:14.000Z</time>
      </trkpt>
      <trkpt lat="45.95181" lon="4.85464">
        <ele>333</ele>
        <time>2013-07-21T16:16:15.000Z</time>
      </trkpt>
      <trkpt lat="45.95177" lon="4.85465">
        <ele>333</ele>
        <time>2013-07-21T16:16:16.000Z</time>
      </trkpt>
      <trkpt lat="45.95174" lon="4.85471">
        <ele>331</ele>
        <time>2013-07-21T16:16:17.000Z</time>
      </trkpt>
      <trkpt lat="45.95171" lon="4.85475">
        <ele>331.7</ele>
        <time>2013-07-21T16:16:18.000Z</time>
      </trkpt>
      <trkpt lat="45.95169" lon="4.8548">
        <ele>331.4</ele>
        <time>2013-07-21T16:16:19.000Z</time>
      </trkpt>
      <trkpt lat="45.95168" lon="4.85485">
        <ele>332.1</ele>
        <time>2013-07-21T16:16:20.000Z</time>
      </trkpt>
      <trkpt lat="45.95169" lon="4.85488">
        <ele>333</ele>
        <time>2013-07-21T16:16:21.000Z</time>
      </trkpt>
      <trkpt lat="45.95168" lon="4.85492">
        <ele>333.7</ele>
        <time>2013-07-21T16:16:22.000Z</time>
      </trkpt>
      <trkpt lat="45.95169" lon="4.85498">
        <ele>335.3</ele>
        <time>2013-07-21T16:16:24.000Z</time>
      </trkpt>
      <trkpt lat="45.9517" lon="4.85501">
        <ele>336.6</ele>
        <time>2013-07-21T16:16:25.000Z</time>
      </trkpt>
      <trkpt lat="45.9517" lon="4.85507">
        <ele>337.2</ele>
        <time>2013-07-21T16:16:27.000Z</time>
      </trkpt>
      <trkpt lat="45.9517" lon="4.8551">
        <ele>337.3</ele>
        <time>2013-07-21T16:16:28.000Z</time>
      </trkpt>
      <trkpt lat="45.9517" lon="4.85515">
        <ele>338.7</ele>
        <time>2013-07-21T16:16:30.000Z</time>
      </trkpt>
      <trkpt lat="45.9517" lon="4.85518">
        <ele>338.7</ele>
        <time>2013-07-21T16:16:31.000Z</time>
      </trkpt>
      <trkpt lat="45.95172" lon="4.85523">
        <ele>338.2</ele>
        <time>2013-07-21T16:16:33.000Z</time>
      </trkpt>
      <trkpt lat="45.95173" lon="4.85526">
        <ele>338.5</ele>
        <time>2013-07-21T16:16:34.000Z</time>
      </trkpt>
      <trkpt lat="45.95173" lon="4.85531">
        <ele>343.3</ele>
        <time>2013-07-21T16:16:36.000Z</time>
      </trkpt>
      <trkpt lat="45.95173" lon="4.85534">
        <ele>343.9</ele>
        <time>2013-07-21T16:16:37.000Z</time>
      </trkpt>
      <trkpt lat="45.95173" lon="4.85539">
        <ele>344.5</ele>
        <time>2013-07-21T16:16:39.000Z</time>
      </trkpt>
      <trkpt lat="45.95174" lon="4.85545">
        <ele>342.4</ele>
        <time>2013-07-21T16:16:40.000Z</time>
      </trkpt>
      <trkpt lat="45.95174" lon="4.85549">
        <ele>342.4</ele>
        <time>2013-07-21T16:16:41.000Z</time>
      </trkpt>
      <trkpt lat="45.95174" lon="4.85553">
        <ele>344.1</ele>
        <time>2013-07-21T16:16:42.000Z</time>
      </trkpt>
      <trkpt lat="45.95175" lon="4.85556">
        <ele>344.1</ele>
        <time>2013-07-21T16:16:43.000Z</time>
      </trkpt>
      <trkpt lat="45.95175" lon="4.85561">
        <ele>343.9</ele>
        <time>2013-07-21T16:16:44.000Z</time>
      </trkpt>
      <trkpt lat="45.95175" lon="4.85565">
        <ele>344</ele>
        <time>2013-07-21T16:16:45.000Z</time>
      </trkpt>
      <trkpt lat="45.95175" lon="4.85569">
        <ele>344.1</ele>
        <time>2013-07-21T16:16:46.000Z</time>
      </trkpt>
      <trkpt lat="45.95174" lon="4.85572">
        <ele>343.5</ele>
        <time>2013-07-21T16:16:47.000Z</time>
      </trkpt>
      <trkpt lat="45.95173" lon="4.85575">
        <ele>343.7</ele>
        <time>2013-07-21T16:16:48.000Z</time>
      </trkpt>
      <trkpt lat="45.95171" lon="4.85577">
        <ele>344</ele>
        <time>2013-07-21T16:16:49.000Z</time>
      </trkpt>
      <trkpt lat="45.95169" lon="4.8558">
        <ele>343.6</ele>
        <time>2013-07-21T16:16:50.000Z</time>
      </trkpt>
      <trkpt lat="45.95167" lon="4.85581">
        <ele>344.2</ele>
        <time>2013-07-21T16:16:51.000Z</time>
      </trkpt>
      <trkpt lat="45.95165" lon="4.85582">
        <ele>344.3</ele>
        <time>2013-07-21T16:16:52.000Z</time>
      </trkpt>
      <trkpt lat="45.95162" lon="4.85584">
        <ele>345.7</ele>
        <time>2013-07-21T16:16:53.000Z</time>
      </trkpt>
      <trkpt lat="45.9516" lon="4.85586">
        <ele>345.3</ele>
        <time>2013-07-21T16:16:54.000Z</time>
      </trkpt>
      <trkpt lat="45.95157" lon="4.85588">
        <ele>344.7</ele>
        <time>2013-07-21T16:16:55.000Z</time>
      </trkpt>
      <trkpt lat="45.95155" lon="4.85589">
        <ele>344.1</ele>
        <time>2013-07-21T16:16:55.936Z</time>
      </trkpt>
      <trkpt lat="45.95152" lon="4.8559">
        <ele>344.2</ele>
        <time>2013-07-21T16:16:57.000Z</time>
      </trkpt>
      <trkpt lat="45.95149" lon="4.85591">
        <ele>344.4</ele>
        <time>2013-07-21T16:16:58.000Z</time>
      </trkpt>
      <trkpt lat="45.95145" lon="4.85591">
        <ele>346.9</ele>
        <time>2013-07-21T16:16:59.000Z</time>
      </trkpt>
      <trkpt lat="45.95143" lon="4.85591">
        <ele>346.9</ele>
        <time>2013-07-21T16:17:00.000Z</time>
      </trkpt>
      <trkpt lat="45.95141" lon="4.85596">
        <ele>342.1</ele>
        <time>2013-07-21T16:17:03.000Z</time>
      </trkpt>
      <trkpt lat="45.9514" lon="4.85598">
        <ele>341.8</ele>
        <time>2013-07-21T16:17:04.000Z</time>
      </trkpt>
      <trkpt lat="45.9514" lon="4.85604">
        <ele>340.6</ele>
        <time>2013-07-21T16:17:06.000Z</time>
      </trkpt>
      <trkpt lat="45.95139" lon="4.85606">
        <ele>339.9</ele>
        <time>2013-07-21T16:17:07.000Z</time>
      </trkpt>
      <trkpt lat="45.95138" lon="4.85612">
        <ele>339.6</ele>
        <time>2013-07-21T16:17:09.000Z</time>
      </trkpt>
      <trkpt lat="45.95136" lon="4.85615">
        <ele>339.7</ele>
        <time>2013-07-21T16:17:10.000Z</time>
      </trkpt>
      <trkpt lat="45.95136" lon="4.85619">
        <ele>336.6</ele>
        <time>2013-07-21T16:17:11.000Z</time>
      </trkpt>
      <trkpt lat="45.95135" lon="4.85623">
        <ele>335.4</ele>
        <time>2013-07-21T16:17:12.000Z</time>
      </trkpt>
      <trkpt lat="45.95135" lon="4.85625">
        <ele>334.2</ele>
        <time>2013-07-21T16:17:13.000Z</time>
      </trkpt>
      <trkpt lat="45.95131" lon="4.85628">
        <ele>332.2</ele>
        <time>2013-07-21T16:17:14.000Z</time>
      </trkpt>
      <trkpt lat="45.95129" lon="4.85631">
        <ele>331.5</ele>
        <time>2013-07-21T16:17:15.000Z</time>
      </trkpt>
      <trkpt lat="45.95126" lon="4.85633">
        <ele>330.8</ele>
        <time>2013-07-21T16:17:16.000Z</time>
      </trkpt>
      <trkpt lat="45.95123" lon="4.85635">
        <ele>331</ele>
        <time>2013-07-21T16:17:17.000Z</time>
      </trkpt>
      <trkpt lat="45.95119" lon="4.85636">
        <ele>332</ele>
        <time>2013-07-21T16:17:18.000Z</time>
      </trkpt>
      <trkpt lat="45.95118" lon="4.85636">
        <ele>331.9</ele>
        <time>2013-07-21T16:17:19.000Z</time>
      </trkpt>
      <trkpt lat="45.95111" lon="4.85637">
        <ele>331.7</ele>
        <time>2013-07-21T16:17:20.000Z</time>
      </trkpt>
      <trkpt lat="45.95109" lon="4.85637">
        <ele>331</ele>
        <time>2013-07-21T16:17:21.000Z</time>
      </trkpt>
      <trkpt lat="45.95104" lon="4.85638">
        <ele>330.7</ele>
        <time>2013-07-21T16:17:22.000Z</time>
      </trkpt>
      <trkpt lat="45.95099" lon="4.85639">
        <ele>330.4</ele>
        <time>2013-07-21T16:17:23.000Z</time>
      </trkpt>
      <trkpt lat="45.95076" lon="4.85643">
        <ele>329.2</ele>
        <time>2013-07-21T16:17:24.000Z</time>
      </trkpt>
      <trkpt lat="45.95071" lon="4.85645">
        <ele>329.1</ele>
        <time>2013-07-21T16:17:25.000Z</time>
      </trkpt>
      <trkpt lat="45.95064" lon="4.85646">
        <ele>331.5</ele>
        <time>2013-07-21T16:17:26.000Z</time>
      </trkpt>
      <trkpt lat="45.95057" lon="4.85648">
        <ele>331.6</ele>
        <time>2013-07-21T16:17:27.000Z</time>
      </trkpt>
      <trkpt lat="45.95051" lon="4.85649">
        <ele>330.1</ele>
        <time>2013-07-21T16:17:28.000Z</time>
      </trkpt>
      <trkpt lat="45.95047" lon="4.85651">
        <ele>330.5</ele>
        <time>2013-07-21T16:17:29.000Z</time>
      </trkpt>
      <trkpt lat="45.95043" lon="4.85654">
        <ele>331</ele>
        <time>2013-07-21T16:17:30.000Z</time>
      </trkpt>
      <trkpt lat="45.95041" lon="4.85657">
        <ele>331.7</ele>
        <time>2013-07-21T16:17:31.000Z</time>
      </trkpt>
      <trkpt lat="45.95039" lon="4.85661">
        <ele>332.6</ele>
        <time>2013-07-21T16:17:32.000Z</time>
      </trkpt>
      <trkpt lat="45.95039" lon="4.85665">
        <ele>333.4</ele>
        <time>2013-07-21T16:17:33.000Z</time>
      </trkpt>
      <trkpt lat="45.95038" lon="4.85669">
        <ele>332.9</ele>
        <time>2013-07-21T16:17:34.000Z</time>
      </trkpt>
      <trkpt lat="45.95036" lon="4.85673">
        <ele>333.8</ele>
        <time>2013-07-21T16:17:35.000Z</time>
      </trkpt>
      <trkpt lat="45.95036" lon="4.85677">
        <ele>333.9</ele>
        <time>2013-07-21T16:17:36.000Z</time>
      </trkpt>
      <trkpt lat="45.95031" lon="4.85693">
        <ele>332.4</ele>
        <time>2013-07-21T16:17:37.000Z</time>
      </trkpt>
      <trkpt lat="45.95029" lon="4.85701">
        <ele>332.7</ele>
        <time>2013-07-21T16:17:38.000Z</time>
      </trkpt>
      <trkpt lat="45.9503" lon="4.85709">
        <ele>332.6</ele>
        <time>2013-07-21T16:17:39.000Z</time>
      </trkpt>
      <trkpt lat="45.95029" lon="4.8572">
        <ele>332.5</ele>
        <time>2013-07-21T16:17:40.000Z</time>
      </trkpt>
      <trkpt lat="45.95029" lon="4.85731">
        <ele>332.2</ele>
        <time>2013-07-21T16:17:41.000Z</time>
      </trkpt>
      <trkpt lat="45.95029" lon="4.85741">
        <ele>331.9</ele>
        <time>2013-07-21T16:17:42.000Z</time>
      </trkpt>
      <trkpt lat="45.95028" lon="4.85754">
        <ele>331.7</ele>
        <time>2013-07-21T16:17:43.000Z</time>
      </trkpt>
      <trkpt lat="45.95027" lon="4.85765">
        <ele>332</ele>
        <time>2013-07-21T16:17:44.000Z</time>
      </trkpt>
      <trkpt lat="45.95028" lon="4.85777">
        <ele>330.9</ele>
        <time>2013-07-21T16:17:45.000Z</time>
      </trkpt>
      <trkpt lat="45.95029" lon="4.85788">
        <ele>330</ele>
        <time>2013-07-21T16:17:46.000Z</time>
      </trkpt>
      <trkpt lat="45.95029" lon="4.85801">
        <ele>329</ele>
        <time>2013-07-21T16:17:47.000Z</time>
      </trkpt>
      <trkpt lat="45.9503" lon="4.85813">
        <ele>329</ele>
        <time>2013-07-21T16:17:48.000Z</time>
      </trkpt>
      <trkpt lat="45.9503" lon="4.85819">
        <ele>329.1</ele>
        <time>2013-07-21T16:17:49.000Z</time>
      </trkpt>
      <trkpt lat="45.95031" lon="4.85827">
        <ele>328.2</ele>
        <time>2013-07-21T16:17:50.000Z</time>
      </trkpt>
      <trkpt lat="45.95031" lon="4.85834">
        <ele>327.4</ele>
        <time>2013-07-21T16:17:51.000Z</time>
      </trkpt>
      <trkpt lat="45.95031" lon="4.85841">
        <ele>327.3</ele>
        <time>2013-07-21T16:17:52.000Z</time>
      </trkpt>
      <trkpt lat="45.95028" lon="4.85846">
        <ele>326.7</ele>
        <time>2013-07-21T16:17:53.000Z</time>
      </trkpt>
      <trkpt lat="45.95024" lon="4.8585">
        <ele>326.4</ele>
        <time>2013-07-21T16:17:54.000Z</time>
      </trkpt>
      <trkpt lat="45.9502" lon="4.85853">
        <ele>327.2</ele>
        <time>2013-07-21T16:17:55.000Z</time>
      </trkpt>
      <trkpt lat="45.95016" lon="4.85856">
        <ele>326.5</ele>
        <time>2013-07-21T16:17:55.987Z</time>
      </trkpt>
      <trkpt lat="45.95012" lon="4.85857">
        <ele>327</ele>
        <time>2013-07-21T16:17:57.000Z</time>
      </trkpt>
      <trkpt lat="45.95007" lon="4.85859">
        <ele>326.6</ele>
        <time>2013-07-21T16:17:58.000Z</time>
      </trkpt>
      <trkpt lat="45.95003" lon="4.85861">
        <ele>326.7</ele>
        <time>2013-07-21T16:17:59.000Z</time>
      </trkpt>
      <trkpt lat="45.94998" lon="4.85863">
        <ele>326.6</ele>
        <time>2013-07-21T16:18:00.000Z</time>
      </trkpt>
      <trkpt lat="45.94992" lon="4.85863">
        <ele>326.2</ele>
        <time>2013-07-21T16:18:01.000Z</time>
      </trkpt>
      <trkpt lat="45.94988" lon="4.85864">
        <ele>326</ele>
        <time>2013-07-21T16:18:02.000Z</time>
      </trkpt>
      <trkpt lat="45.94983" lon="4.85865">
        <ele>326.3</ele>
        <time>2013-07-21T16:18:03.000Z</time>
      </trkpt>
      <trkpt lat="45.94978" lon="4.85866">
        <ele>324.7</ele>
        <time>2013-07-21T16:18:04.000Z</time>
      </trkpt>
      <trkpt lat="45.94973" lon="4.85866">
        <ele>325.1</ele>
        <time>2013-07-21T16:18:05.000Z</time>
      </trkpt>
      <trkpt lat="45.94968" lon="4.85867">
        <ele>325.6</ele>
        <time>2013-07-21T16:18:06.000Z</time>
      </trkpt>
      <trkpt lat="45.94963" lon="4.85867">
        <ele>325.6</ele>
        <time>2013-07-21T16:18:07.000Z</time>
      </trkpt>
      <trkpt lat="45.94959" lon="4.85868">
        <ele>325.5</ele>
        <time>2013-07-21T16:18:08.000Z</time>
      </trkpt>
      <trkpt lat="45.94954" lon="4.85869">
        <ele>325.6</ele>
        <time>2013-07-21T16:18:09.000Z</time>
      </trkpt>
      <trkpt lat="45.9495" lon="4.8587">
        <ele>325.6</ele>
        <time>2013-07-21T16:18:10.000Z</time>
      </trkpt>
      <trkpt lat="45.94945" lon="4.8587">
        <ele>326</ele>
        <time>2013-07-21T16:18:11.000Z</time>
      </trkpt>
      <trkpt lat="45.9494" lon="4.85871">
        <ele>325.6</ele>
        <time>2013-07-21T16:18:12.000Z</time>
      </trkpt>
      <trkpt lat="45.94936" lon="4.85871">
        <ele>327</ele>
        <time>2013-07-21T16:18:13.000Z</time>
      </trkpt>
      <trkpt lat="45.94931" lon="4.8587">
        <ele>327.3</ele>
        <time>2013-07-21T16:18:14.000Z</time>
      </trkpt>
      <trkpt lat="45.94927" lon="4.8587">
        <ele>325.7</ele>
        <time>2013-07-21T16:18:15.000Z</time>
      </trkpt>
      <trkpt lat="45.94922" lon="4.85871">
        <ele>325.5</ele>
        <time>2013-07-21T16:18:16.000Z</time>
      </trkpt>
      <trkpt lat="45.94918" lon="4.85871">
        <ele>326.4</ele>
        <time>2013-07-21T16:18:17.000Z</time>
      </trkpt>
      <trkpt lat="45.94914" lon="4.85871">
        <ele>326.4</ele>
        <time>2013-07-21T16:18:18.000Z</time>
      </trkpt>
      <trkpt lat="45.94909" lon="4.85869">
        <ele>324.5</ele>
        <time>2013-07-21T16:18:19.000Z</time>
      </trkpt>
      <trkpt lat="45.94905" lon="4.85868">
        <ele>324.2</ele>
        <time>2013-07-21T16:18:20.000Z</time>
      </trkpt>
      <trkpt lat="45.949" lon="4.85867">
        <ele>324.2</ele>
        <time>2013-07-21T16:18:21.000Z</time>
      </trkpt>
      <trkpt lat="45.94895" lon="4.85866">
        <ele>324.2</ele>
        <time>2013-07-21T16:18:22.000Z</time>
      </trkpt>
      <trkpt lat="45.9489" lon="4.85865">
        <ele>324</ele>
        <time>2013-07-21T16:18:23.000Z</time>
      </trkpt>
      <trkpt lat="45.94885" lon="4.85865">
        <ele>324</ele>
        <time>2013-07-21T16:18:24.000Z</time>
      </trkpt>
      <trkpt lat="45.94882" lon="4.85867">
        <ele>322.3</ele>
        <time>2013-07-21T16:18:25.000Z</time>
      </trkpt>
      <trkpt lat="45.94878" lon="4.85868">
        <ele>322.4</ele>
        <time>2013-07-21T16:18:26.000Z</time>
      </trkpt>
      <trkpt lat="45.94874" lon="4.85869">
        <ele>322.6</ele>
        <time>2013-07-21T16:18:27.000Z</time>
      </trkpt>
      <trkpt lat="45.94871" lon="4.85871">
        <ele>322.3</ele>
        <time>2013-07-21T16:18:28.000Z</time>
      </trkpt>
      <trkpt lat="45.94868" lon="4.85872">
        <ele>322.3</ele>
        <time>2013-07-21T16:18:29.000Z</time>
      </trkpt>
      <trkpt lat="45.94864" lon="4.85873">
        <ele>322.4</ele>
        <time>2013-07-21T16:18:30.000Z</time>
      </trkpt>
      <trkpt lat="45.94861" lon="4.85873">
        <ele>323.9</ele>
        <time>2013-07-21T16:18:31.000Z</time>
      </trkpt>
      <trkpt lat="45.94858" lon="4.85873">
        <ele>324</ele>
        <time>2013-07-21T16:18:32.000Z</time>
      </trkpt>
      <trkpt lat="45.94855" lon="4.85873">
        <ele>324.6</ele>
        <time>2013-07-21T16:18:33.000Z</time>
      </trkpt>
      <trkpt lat="45.94853" lon="4.85873">
        <ele>323.4</ele>
        <time>2013-07-21T16:18:34.000Z</time>
      </trkpt>
      <trkpt lat="45.9485" lon="4.85873">
        <ele>323.2</ele>
        <time>2013-07-21T16:18:35.000Z</time>
      </trkpt>
      <trkpt lat="45.94846" lon="4.85873">
        <ele>322.6</ele>
        <time>2013-07-21T16:18:38.000Z</time>
      </trkpt>
      <trkpt lat="45.94844" lon="4.85874">
        <ele>324.1</ele>
        <time>2013-07-21T16:18:39.000Z</time>
      </trkpt>
      <trkpt lat="45.94841" lon="4.85876">
        <ele>324.3</ele>
        <time>2013-07-21T16:18:41.000Z</time>
      </trkpt>
      <trkpt lat="45.94838" lon="4.85877">
        <ele>325.5</ele>
        <time>2013-07-21T16:18:42.000Z</time>
      </trkpt>
      <trkpt lat="45.94834" lon="4.85878">
        <ele>325.5</ele>
        <time>2013-07-21T16:18:43.000Z</time>
      </trkpt>
      <trkpt lat="45.94831" lon="4.85879">
        <ele>326.2</ele>
        <time>2013-07-21T16:18:44.000Z</time>
      </trkpt>
      <trkpt lat="45.94828" lon="4.85879">
        <ele>326</ele>
        <time>2013-07-21T16:18:45.000Z</time>
      </trkpt>
      <trkpt lat="45.94824" lon="4.8588">
        <ele>326.3</ele>
        <time>2013-07-21T16:18:46.000Z</time>
      </trkpt>
      <trkpt lat="45.94819" lon="4.85881">
        <ele>325.9</ele>
        <time>2013-07-21T16:18:47.000Z</time>
      </trkpt>
      <trkpt lat="45.94815" lon="4.85881">
        <ele>325.6</ele>
        <time>2013-07-21T16:18:48.000Z</time>
      </trkpt>
      <trkpt lat="45.94811" lon="4.85881">
        <ele>327.5</ele>
        <time>2013-07-21T16:18:49.000Z</time>
      </trkpt>
      <trkpt lat="45.94807" lon="4.85881">
        <ele>327.5</ele>
        <time>2013-07-21T16:18:50.000Z</time>
      </trkpt>
      <trkpt lat="45.94803" lon="4.85881">
        <ele>328.3</ele>
        <time>2013-07-21T16:18:51.000Z</time>
      </trkpt>
      <trkpt lat="45.94799" lon="4.85881">
        <ele>329</ele>
        <time>2013-07-21T16:18:52.000Z</time>
      </trkpt>
      <trkpt lat="45.94795" lon="4.85881">
        <ele>328.7</ele>
        <time>2013-07-21T16:18:53.000Z</time>
      </trkpt>
      <trkpt lat="45.9479" lon="4.85881">
        <ele>328</ele>
        <time>2013-07-21T16:18:54.000Z</time>
      </trkpt>
      <trkpt lat="45.94786" lon="4.85881">
        <ele>327.4</ele>
        <time>2013-07-21T16:18:55.000Z</time>
      </trkpt>
      <trkpt lat="45.94782" lon="4.85881">
        <ele>327.8</ele>
        <time>2013-07-21T16:18:56.002Z</time>
      </trkpt>
      <trkpt lat="45.94778" lon="4.85882">
        <ele>327.6</ele>
        <time>2013-07-21T16:18:57.000Z</time>
      </trkpt>
      <trkpt lat="45.94773" lon="4.85882">
        <ele>328.2</ele>
        <time>2013-07-21T16:18:58.000Z</time>
      </trkpt>
      <trkpt lat="45.94768" lon="4.85883">
        <ele>328.4</ele>
        <time>2013-07-21T16:18:59.000Z</time>
      </trkpt>
      <trkpt lat="45.94763" lon="4.85883">
        <ele>328.8</ele>
        <time>2013-07-21T16:19:00.000Z</time>
      </trkpt>
      <trkpt lat="45.94759" lon="4.85884">
        <ele>328.6</ele>
        <time>2013-07-21T16:19:01.000Z</time>
      </trkpt>
      <trkpt lat="45.94754" lon="4.85884">
        <ele>328.1</ele>
        <time>2013-07-21T16:19:02.000Z</time>
      </trkpt>
      <trkpt lat="45.9475" lon="4.85885">
        <ele>328.1</ele>
        <time>2013-07-21T16:19:03.000Z</time>
      </trkpt>
      <trkpt lat="45.94746" lon="4.85887">
        <ele>328.6</ele>
        <time>2013-07-21T16:19:04.000Z</time>
      </trkpt>
      <trkpt lat="45.94742" lon="4.85887">
        <ele>328.9</ele>
        <time>2013-07-21T16:19:05.000Z</time>
      </trkpt>
      <trkpt lat="45.94738" lon="4.85887">
        <ele>329</ele>
        <time>2013-07-21T16:19:06.000Z</time>
      </trkpt>
      <trkpt lat="45.94733" lon="4.85888">
        <ele>329.9</ele>
        <time>2013-07-21T16:19:07.000Z</time>
      </trkpt>
      <trkpt lat="45.94727" lon="4.85887">
        <ele>330.7</ele>
        <time>2013-07-21T16:19:08.000Z</time>
      </trkpt>
      <trkpt lat="45.94722" lon="4.85888">
        <ele>331.1</ele>
        <time>2013-07-21T16:19:09.000Z</time>
      </trkpt>
      <trkpt lat="45.94716" lon="4.85888">
        <ele>330.6</ele>
        <time>2013-07-21T16:19:10.000Z</time>
      </trkpt>
      <trkpt lat="45.9471" lon="4.85887">
        <ele>331.2</ele>
        <time>2013-07-21T16:19:11.000Z</time>
      </trkpt>
      <trkpt lat="45.94705" lon="4.85887">
        <ele>331.4</ele>
        <time>2013-07-21T16:19:12.000Z</time>
      </trkpt>
      <trkpt lat="45.94702" lon="4.85888">
        <ele>332.3</ele>
        <time>2013-07-21T16:19:13.000Z</time>
      </trkpt>
      <trkpt lat="45.94697" lon="4.85889">
        <ele>332</ele>
        <time>2013-07-21T16:19:14.000Z</time>
      </trkpt>
      <trkpt lat="45.94692" lon="4.85891">
        <ele>332</ele>
        <time>2013-07-21T16:19:15.000Z</time>
      </trkpt>
      <trkpt lat="45.94689" lon="4.85891">
        <ele>332.9</ele>
        <time>2013-07-21T16:19:16.000Z</time>
      </trkpt>
      <trkpt lat="45.94685" lon="4.85892">
        <ele>334</ele>
        <time>2013-07-21T16:19:17.000Z</time>
      </trkpt>
      <trkpt lat="45.9468" lon="4.85893">
        <ele>332.5</ele>
        <time>2013-07-21T16:19:18.000Z</time>
      </trkpt>
      <trkpt lat="45.94676" lon="4.85893">
        <ele>331.8</ele>
        <time>2013-07-21T16:19:19.000Z</time>
      </trkpt>
      <trkpt lat="45.94672" lon="4.85894">
        <ele>331.4</ele>
        <time>2013-07-21T16:19:20.000Z</time>
      </trkpt>
      <trkpt lat="45.94667" lon="4.85896">
        <ele>331</ele>
        <time>2013-07-21T16:19:21.000Z</time>
      </trkpt>
      <trkpt lat="45.94662" lon="4.85897">
        <ele>332.2</ele>
        <time>2013-07-21T16:19:22.000Z</time>
      </trkpt>
      <trkpt lat="45.94657" lon="4.85898">
        <ele>332.6</ele>
        <time>2013-07-21T16:19:23.000Z</time>
      </trkpt>
      <trkpt lat="45.94655" lon="4.859">
        <ele>332.1</ele>
        <time>2013-07-21T16:19:24.000Z</time>
      </trkpt>
      <trkpt lat="45.94651" lon="4.859">
        <ele>332.3</ele>
        <time>2013-07-21T16:19:25.000Z</time>
      </trkpt>
      <trkpt lat="45.94648" lon="4.85902">
        <ele>331.5</ele>
        <time>2013-07-21T16:19:26.000Z</time>
      </trkpt>
      <trkpt lat="45.94646" lon="4.85903">
        <ele>330.5</ele>
        <time>2013-07-21T16:19:27.000Z</time>
      </trkpt>
      <trkpt lat="45.94642" lon="4.85905">
        <ele>329.8</ele>
        <time>2013-07-21T16:19:28.000Z</time>
      </trkpt>
      <trkpt lat="45.94639" lon="4.85905">
        <ele>329.9</ele>
        <time>2013-07-21T16:19:29.000Z</time>
      </trkpt>
      <trkpt lat="45.94635" lon="4.85906">
        <ele>330.7</ele>
        <time>2013-07-21T16:19:30.000Z</time>
      </trkpt>
      <trkpt lat="45.94632" lon="4.85907">
        <ele>330.6</ele>
        <time>2013-07-21T16:19:31.000Z</time>
      </trkpt>
      <trkpt lat="45.94628" lon="4.85906">
        <ele>330.4</ele>
        <time>2013-07-21T16:19:32.000Z</time>
      </trkpt>
      <trkpt lat="45.94623" lon="4.85906">
        <ele>332.5</ele>
        <time>2013-07-21T16:19:33.000Z</time>
      </trkpt>
      <trkpt lat="45.94619" lon="4.85906">
        <ele>332.9</ele>
        <time>2013-07-21T16:19:34.000Z</time>
      </trkpt>
      <trkpt lat="45.94615" lon="4.85906">
        <ele>332.9</ele>
        <time>2013-07-21T16:19:35.000Z</time>
      </trkpt>
      <trkpt lat="45.94611" lon="4.85906">
        <ele>333.2</ele>
        <time>2013-07-21T16:19:36.000Z</time>
      </trkpt>
      <trkpt lat="45.94607" lon="4.85905">
        <ele>333.3</ele>
        <time>2013-07-21T16:19:37.000Z</time>
      </trkpt>
      <trkpt lat="45.94603" lon="4.85905">
        <ele>332.7</ele>
        <time>2013-07-21T16:19:38.000Z</time>
      </trkpt>
      <trkpt lat="45.94598" lon="4.85904">
        <ele>332.4</ele>
        <time>2013-07-21T16:19:39.000Z</time>
      </trkpt>
      <trkpt lat="45.94594" lon="4.85904">
        <ele>332.4</ele>
        <time>2013-07-21T16:19:40.000Z</time>
      </trkpt>
      <trkpt lat="45.9459" lon="4.85903">
        <ele>332.3</ele>
        <time>2013-07-21T16:19:41.000Z</time>
      </trkpt>
      <trkpt lat="45.94583" lon="4.859">
        <ele>332.3</ele>
        <time>2013-07-21T16:19:42.000Z</time>
      </trkpt>
      <trkpt lat="45.94579" lon="4.85899">
        <ele>332.9</ele>
        <time>2013-07-21T16:19:43.000Z</time>
      </trkpt>
      <trkpt lat="45.94575" lon="4.85898">
        <ele>333.6</ele>
        <time>2013-07-21T16:19:44.000Z</time>
      </trkpt>
      <trkpt lat="45.9457" lon="4.85897">
        <ele>333.4</ele>
        <time>2013-07-21T16:19:45.000Z</time>
      </trkpt>
      <trkpt lat="45.94566" lon="4.85896">
        <ele>332.4</ele>
        <time>2013-07-21T16:19:46.000Z</time>
      </trkpt>
      <trkpt lat="45.94562" lon="4.85896">
        <ele>332.3</ele>
        <time>2013-07-21T16:19:47.000Z</time>
      </trkpt>
      <trkpt lat="45.94557" lon="4.85895">
        <ele>331.8</ele>
        <time>2013-07-21T16:19:48.000Z</time>
      </trkpt>
      <trkpt lat="45.94552" lon="4.85895">
        <ele>331.5</ele>
        <time>2013-07-21T16:19:49.000Z</time>
      </trkpt>
      <trkpt lat="45.94547" lon="4.85894">
        <ele>332.2</ele>
        <time>2013-07-21T16:19:50.000Z</time>
      </trkpt>
      <trkpt lat="45.94542" lon="4.85893">
        <ele>332.6</ele>
        <time>2013-07-21T16:19:51.000Z</time>
      </trkpt>
      <trkpt lat="45.94537" lon="4.85892">
        <ele>333.2</ele>
        <time>2013-07-21T16:19:52.000Z</time>
      </trkpt>
      <trkpt lat="45.9453" lon="4.85891">
        <ele>334.2</ele>
        <time>2013-07-21T16:19:53.000Z</time>
      </trkpt>
      <trkpt lat="45.94524" lon="4.85891">
        <ele>335.2</ele>
        <time>2013-07-21T16:19:54.000Z</time>
      </trkpt>
      <trkpt lat="45.9452" lon="4.85889">
        <ele>334.9</ele>
        <time>2013-07-21T16:19:55.000Z</time>
      </trkpt>
      <trkpt lat="45.94514" lon="4.85888">
        <ele>335.1</ele>
        <time>2013-07-21T16:19:56.030Z</time>
      </trkpt>
      <trkpt lat="45.94508" lon="4.85886">
        <ele>335.1</ele>
        <time>2013-07-21T16:19:57.000Z</time>
      </trkpt>
      <trkpt lat="45.94503" lon="4.85886">
        <ele>335</ele>
        <time>2013-07-21T16:19:58.000Z</time>
      </trkpt>
      <trkpt lat="45.94498" lon="4.85884">
        <ele>334.8</ele>
        <time>2013-07-21T16:19:59.000Z</time>
      </trkpt>
      <trkpt lat="45.94493" lon="4.85883">
        <ele>334.5</ele>
        <time>2013-07-21T16:20:00.000Z</time>
      </trkpt>
      <trkpt lat="45.94488" lon="4.8588">
        <ele>334.9</ele>
        <time>2013-07-21T16:20:01.000Z</time>
      </trkpt>
      <trkpt lat="45.94482" lon="4.85879">
        <ele>334.9</ele>
        <time>2013-07-21T16:20:02.000Z</time>
      </trkpt>
      <trkpt lat="45.94477" lon="4.85878">
        <ele>334.1</ele>
        <time>2013-07-21T16:20:03.000Z</time>
      </trkpt>
      <trkpt lat="45.94472" lon="4.85876">
        <ele>334.1</ele>
        <time>2013-07-21T16:20:04.000Z</time>
      </trkpt>
      <trkpt lat="45.94467" lon="4.85875">
        <ele>333.4</ele>
        <time>2013-07-21T16:20:05.000Z</time>
      </trkpt>
      <trkpt lat="45.94462" lon="4.85875">
        <ele>332.5</ele>
        <time>2013-07-21T16:20:06.000Z</time>
      </trkpt>
      <trkpt lat="45.94457" lon="4.85874">
        <ele>331.4</ele>
        <time>2013-07-21T16:20:07.000Z</time>
      </trkpt>
      <trkpt lat="45.94451" lon="4.85873">
        <ele>331.2</ele>
        <time>2013-07-21T16:20:08.000Z</time>
      </trkpt>
      <trkpt lat="45.94446" lon="4.85873">
        <ele>331.9</ele>
        <time>2013-07-21T16:20:09.000Z</time>
      </trkpt>
      <trkpt lat="45.94441" lon="4.85874">
        <ele>333.5</ele>
        <time>2013-07-21T16:20:10.000Z</time>
      </trkpt>
      <trkpt lat="45.94436" lon="4.85874">
        <ele>333.6</ele>
        <time>2013-07-21T16:20:11.000Z</time>
      </trkpt>
      <trkpt lat="45.94431" lon="4.85874">
        <ele>334</ele>
        <time>2013-07-21T16:20:12.000Z</time>
      </trkpt>
      <trkpt lat="45.94424" lon="4.85876">
        <ele>333</ele>
        <time>2013-07-21T16:20:13.000Z</time>
      </trkpt>
      <trkpt lat="45.94418" lon="4.85877">
        <ele>332.7</ele>
        <time>2013-07-21T16:20:14.000Z</time>
      </trkpt>
      <trkpt lat="45.94412" lon="4.85879">
        <ele>332.4</ele>
        <time>2013-07-21T16:20:15.000Z</time>
      </trkpt>
      <trkpt lat="45.94405" lon="4.85879">
        <ele>331.9</ele>
        <time>2013-07-21T16:20:16.000Z</time>
      </trkpt>
      <trkpt lat="45.94399" lon="4.85879">
        <ele>331.6</ele>
        <time>2013-07-21T16:20:17.000Z</time>
      </trkpt>
      <trkpt lat="45.94393" lon="4.8588">
        <ele>332.1</ele>
        <time>2013-07-21T16:20:18.000Z</time>
      </trkpt>
      <trkpt lat="45.94388" lon="4.8588">
        <ele>331.4</ele>
        <time>2013-07-21T16:20:19.000Z</time>
      </trkpt>
      <trkpt lat="45.94384" lon="4.85879">
        <ele>331.9</ele>
        <time>2013-07-21T16:20:20.000Z</time>
      </trkpt>
      <trkpt lat="45.94379" lon="4.8588">
        <ele>332</ele>
        <time>2013-07-21T16:20:21.000Z</time>
      </trkpt>
      <trkpt lat="45.94374" lon="4.8588">
        <ele>331.6</ele>
        <time>2013-07-21T16:20:22.000Z</time>
      </trkpt>
      <trkpt lat="45.94369" lon="4.85883">
        <ele>331.6</ele>
        <time>2013-07-21T16:20:23.000Z</time>
      </trkpt>
      <trkpt lat="45.94364" lon="4.85884">
        <ele>331.6</ele>
        <time>2013-07-21T16:20:24.000Z</time>
      </trkpt>
      <trkpt lat="45.94357" lon="4.85884">
        <ele>333.7</ele>
        <time>2013-07-21T16:20:25.000Z</time>
      </trkpt>
      <trkpt lat="45.94349" lon="4.85884">
        <ele>334.2</ele>
        <time>2013-07-21T16:20:26.000Z</time>
      </trkpt>
      <trkpt lat="45.94344" lon="4.85887">
        <ele>333.4</ele>
        <time>2013-07-21T16:20:27.000Z</time>
      </trkpt>
      <trkpt lat="45.94339" lon="4.85887">
        <ele>333</ele>
        <time>2013-07-21T16:20:28.000Z</time>
      </trkpt>
      <trkpt lat="45.94335" lon="4.85886">
        <ele>332.9</ele>
        <time>2013-07-21T16:20:29.000Z</time>
      </trkpt>
      <trkpt lat="45.9433" lon="4.85886">
        <ele>333.4</ele>
        <time>2013-07-21T16:20:30.000Z</time>
      </trkpt>
      <trkpt lat="45.94325" lon="4.85886">
        <ele>334.3</ele>
        <time>2013-07-21T16:20:31.000Z</time>
      </trkpt>
      <trkpt lat="45.94319" lon="4.85889">
        <ele>333.6</ele>
        <time>2013-07-21T16:20:32.000Z</time>
      </trkpt>
      <trkpt lat="45.94313" lon="4.8589">
        <ele>333.6</ele>
        <time>2013-07-21T16:20:33.000Z</time>
      </trkpt>
      <trkpt lat="45.94308" lon="4.85892">
        <ele>334.5</ele>
        <time>2013-07-21T16:20:34.000Z</time>
      </trkpt>
      <trkpt lat="45.94302" lon="4.85893">
        <ele>334.7</ele>
        <time>2013-07-21T16:20:35.000Z</time>
      </trkpt>
      <trkpt lat="45.94297" lon="4.85894">
        <ele>334.7</ele>
        <time>2013-07-21T16:20:36.000Z</time>
      </trkpt>
      <trkpt lat="45.94291" lon="4.85895">
        <ele>335.1</ele>
        <time>2013-07-21T16:20:37.000Z</time>
      </trkpt>
      <trkpt lat="45.94286" lon="4.85896">
        <ele>334.2</ele>
        <time>2013-07-21T16:20:38.000Z</time>
      </trkpt>
      <trkpt lat="45.94282" lon="4.85897">
        <ele>333.5</ele>
        <time>2013-07-21T16:20:39.000Z</time>
      </trkpt>
      <trkpt lat="45.94276" lon="4.85899">
        <ele>333.4</ele>
        <time>2013-07-21T16:20:40.000Z</time>
      </trkpt>
      <trkpt lat="45.9427" lon="4.85899">
        <ele>333.6</ele>
        <time>2013-07-21T16:20:41.000Z</time>
      </trkpt>
      <trkpt lat="45.94263" lon="4.859">
        <ele>335.2</ele>
        <time>2013-07-21T16:20:42.000Z</time>
      </trkpt>
      <trkpt lat="45.94257" lon="4.859">
        <ele>334.8</ele>
        <time>2013-07-21T16:20:43.000Z</time>
      </trkpt>
      <trkpt lat="45.94251" lon="4.85901">
        <ele>335</ele>
        <time>2013-07-21T16:20:44.000Z</time>
      </trkpt>
      <trkpt lat="45.94246" lon="4.85902">
        <ele>335.2</ele>
        <time>2013-07-21T16:20:45.000Z</time>
      </trkpt>
      <trkpt lat="45.94243" lon="4.85904">
        <ele>333.9</ele>
        <time>2013-07-21T16:20:46.000Z</time>
      </trkpt>
      <trkpt lat="45.94238" lon="4.85904">
        <ele>333.2</ele>
        <time>2013-07-21T16:20:47.000Z</time>
      </trkpt>
      <trkpt lat="45.94233" lon="4.85906">
        <ele>332.7</ele>
        <time>2013-07-21T16:20:48.000Z</time>
      </trkpt>
      <trkpt lat="45.94229" lon="4.85907">
        <ele>332.4</ele>
        <time>2013-07-21T16:20:49.000Z</time>
      </trkpt>
      <trkpt lat="45.94225" lon="4.8591">
        <ele>333</ele>
        <time>2013-07-21T16:20:50.000Z</time>
      </trkpt>
      <trkpt lat="45.94218" lon="4.8591">
        <ele>332.6</ele>
        <time>2013-07-21T16:20:51.000Z</time>
      </trkpt>
      <trkpt lat="45.94214" lon="4.85909">
        <ele>332.6</ele>
        <time>2013-07-21T16:20:52.000Z</time>
      </trkpt>
      <trkpt lat="45.94209" lon="4.8591">
        <ele>333.6</ele>
        <time>2013-07-21T16:20:53.000Z</time>
      </trkpt>
      <trkpt lat="45.94204" lon="4.85911">
        <ele>334.1</ele>
        <time>2013-07-21T16:20:54.000Z</time>
      </trkpt>
      <trkpt lat="45.94198" lon="4.85911">
        <ele>334.2</ele>
        <time>2013-07-21T16:20:55.000Z</time>
      </trkpt>
      <trkpt lat="45.94194" lon="4.85912">
        <ele>334.5</ele>
        <time>2013-07-21T16:20:56.000Z</time>
      </trkpt>
      <trkpt lat="45.94191" lon="4.85913">
        <ele>334</ele>
        <time>2013-07-21T16:20:57.000Z</time>
      </trkpt>
      <trkpt lat="45.94187" lon="4.85914">
        <ele>333</ele>
        <time>2013-07-21T16:20:58.000Z</time>
      </trkpt>
      <trkpt lat="45.94181" lon="4.85915">
        <ele>333.2</ele>
        <time>2013-07-21T16:20:59.000Z</time>
      </trkpt>
      <trkpt lat="45.94176" lon="4.85915">
        <ele>332.8</ele>
        <time>2013-07-21T16:21:00.000Z</time>
      </trkpt>
      <trkpt lat="45.94171" lon="4.85915">
        <ele>332.3</ele>
        <time>2013-07-21T16:21:01.000Z</time>
      </trkpt>
      <trkpt lat="45.94167" lon="4.85917">
        <ele>333.5</ele>
        <time>2013-07-21T16:21:02.000Z</time>
      </trkpt>
      <trkpt lat="45.94161" lon="4.85917">
        <ele>332.6</ele>
        <time>2013-07-21T16:21:03.000Z</time>
      </trkpt>
      <trkpt lat="45.94156" lon="4.85918">
        <ele>330.7</ele>
        <time>2013-07-21T16:21:04.000Z</time>
      </trkpt>
      <trkpt lat="45.9415" lon="4.85917">
        <ele>332.8</ele>
        <time>2013-07-21T16:21:05.000Z</time>
      </trkpt>
      <trkpt lat="45.94145" lon="4.85916">
        <ele>333.5</ele>
        <time>2013-07-21T16:21:06.000Z</time>
      </trkpt>
      <trkpt lat="45.94139" lon="4.85918">
        <ele>334.6</ele>
        <time>2013-07-21T16:21:07.000Z</time>
      </trkpt>
      <trkpt lat="45.94135" lon="4.85918">
        <ele>335</ele>
        <time>2013-07-21T16:21:08.000Z</time>
      </trkpt>
      <trkpt lat="45.94128" lon="4.85918">
        <ele>336.3</ele>
        <time>2013-07-21T16:21:09.000Z</time>
      </trkpt>
      <trkpt lat="45.94125" lon="4.85918">
        <ele>335.7</ele>
        <time>2013-07-21T16:21:10.000Z</time>
      </trkpt>
      <trkpt lat="45.94119" lon="4.85917">
        <ele>336</ele>
        <time>2013-07-21T16:21:11.000Z</time>
      </trkpt>
      <trkpt lat="45.94113" lon="4.85917">
        <ele>336.7</ele>
        <time>2013-07-21T16:21:12.000Z</time>
      </trkpt>
      <trkpt lat="45.94108" lon="4.85915">
        <ele>336.2</ele>
        <time>2013-07-21T16:21:13.000Z</time>
      </trkpt>
      <trkpt lat="45.94101" lon="4.85918">
        <ele>336.2</ele>
        <time>2013-07-21T16:21:14.000Z</time>
      </trkpt>
      <trkpt lat="45.94095" lon="4.85919">
        <ele>336.1</ele>
        <time>2013-07-21T16:21:15.000Z</time>
      </trkpt>
      <trkpt lat="45.9409" lon="4.85921">
        <ele>337.2</ele>
        <time>2013-07-21T16:21:16.000Z</time>
      </trkpt>
      <trkpt lat="45.94084" lon="4.85921">
        <ele>337.4</ele>
        <time>2013-07-21T16:21:17.000Z</time>
      </trkpt>
      <trkpt lat="45.94079" lon="4.85923">
        <ele>335.6</ele>
        <time>2013-07-21T16:21:18.000Z</time>
      </trkpt>
      <trkpt lat="45.94076" lon="4.85922">
        <ele>335.5</ele>
        <time>2013-07-21T16:21:19.000Z</time>
      </trkpt>
      <trkpt lat="45.94071" lon="4.85922">
        <ele>335.1</ele>
        <time>2013-07-21T16:21:20.000Z</time>
      </trkpt>
      <trkpt lat="45.94064" lon="4.85922">
        <ele>335.1</ele>
        <time>2013-07-21T16:21:21.000Z</time>
      </trkpt>
      <trkpt lat="45.94059" lon="4.85922">
        <ele>333.7</ele>
        <time>2013-07-21T16:21:22.000Z</time>
      </trkpt>
      <trkpt lat="45.94053" lon="4.85924">
        <ele>333.2</ele>
        <time>2013-07-21T16:21:23.000Z</time>
      </trkpt>
      <trkpt lat="45.94048" lon="4.85925">
        <ele>334</ele>
        <time>2013-07-21T16:21:24.000Z</time>
      </trkpt>
      <trkpt lat="45.94042" lon="4.85927">
        <ele>334.1</ele>
        <time>2013-07-21T16:21:25.000Z</time>
      </trkpt>
      <trkpt lat="45.94037" lon="4.85928">
        <ele>334</ele>
        <time>2013-07-21T16:21:26.000Z</time>
      </trkpt>
      <trkpt lat="45.94032" lon="4.8593">
        <ele>334.5</ele>
        <time>2013-07-21T16:21:27.000Z</time>
      </trkpt>
      <trkpt lat="45.94026" lon="4.85931">
        <ele>334.8</ele>
        <time>2013-07-21T16:21:28.000Z</time>
      </trkpt>
      <trkpt lat="45.94021" lon="4.8593">
        <ele>334.4</ele>
        <time>2013-07-21T16:21:29.000Z</time>
      </trkpt>
      <trkpt lat="45.94015" lon="4.85929">
        <ele>335</ele>
        <time>2013-07-21T16:21:30.000Z</time>
      </trkpt>
      <trkpt lat="45.94009" lon="4.85928">
        <ele>334.9</ele>
        <time>2013-07-21T16:21:31.000Z</time>
      </trkpt>
      <trkpt lat="45.94005" lon="4.85926">
        <ele>334.9</ele>
        <time>2013-07-21T16:21:32.000Z</time>
      </trkpt>
      <trkpt lat="45.93998" lon="4.85928">
        <ele>334.7</ele>
        <time>2013-07-21T16:21:33.000Z</time>
      </trkpt>
      <trkpt lat="45.93992" lon="4.85929">
        <ele>334.7</ele>
        <time>2013-07-21T16:21:34.000Z</time>
      </trkpt>
      <trkpt lat="45.93987" lon="4.8593">
        <ele>335</ele>
        <time>2013-07-21T16:21:35.000Z</time>
      </trkpt>
      <trkpt lat="45.93982" lon="4.85931">
        <ele>333.7</ele>
        <time>2013-07-21T16:21:36.000Z</time>
      </trkpt>
      <trkpt lat="45.93976" lon="4.85933">
        <ele>334.3</ele>
        <time>2013-07-21T16:21:37.000Z</time>
      </trkpt>
      <trkpt lat="45.9397" lon="4.85934">
        <ele>334.4</ele>
        <time>2013-07-21T16:21:38.000Z</time>
      </trkpt>
      <trkpt lat="45.93965" lon="4.85932">
        <ele>335.7</ele>
        <time>2013-07-21T16:21:39.000Z</time>
      </trkpt>
      <trkpt lat="45.9396" lon="4.85932">
        <ele>336</ele>
        <time>2013-07-21T16:21:40.000Z</time>
      </trkpt>
      <trkpt lat="45.93953" lon="4.85933">
        <ele>335.2</ele>
        <time>2013-07-21T16:21:41.000Z</time>
      </trkpt>
      <trkpt lat="45.93947" lon="4.85934">
        <ele>335.2</ele>
        <time>2013-07-21T16:21:42.000Z</time>
      </trkpt>
      <trkpt lat="45.93942" lon="4.85935">
        <ele>335.9</ele>
        <time>2013-07-21T16:21:43.000Z</time>
      </trkpt>
      <trkpt lat="45.93938" lon="4.85933">
        <ele>335.7</ele>
        <time>2013-07-21T16:21:44.000Z</time>
      </trkpt>
      <trkpt lat="45.93933" lon="4.85934">
        <ele>335.6</ele>
        <time>2013-07-21T16:21:45.000Z</time>
      </trkpt>
      <trkpt lat="45.93927" lon="4.85934">
        <ele>336</ele>
        <time>2013-07-21T16:21:46.000Z</time>
      </trkpt>
      <trkpt lat="45.93922" lon="4.85932">
        <ele>335.1</ele>
        <time>2013-07-21T16:21:47.000Z</time>
      </trkpt>
      <trkpt lat="45.93917" lon="4.85932">
        <ele>336.1</ele>
        <time>2013-07-21T16:21:48.000Z</time>
      </trkpt>
      <trkpt lat="45.93913" lon="4.85931">
        <ele>336.2</ele>
        <time>2013-07-21T16:21:49.000Z</time>
      </trkpt>
      <trkpt lat="45.93909" lon="4.85927">
        <ele>333.8</ele>
        <time>2013-07-21T16:21:50.000Z</time>
      </trkpt>
      <trkpt lat="45.93904" lon="4.85925">
        <ele>333.6</ele>
        <time>2013-07-21T16:21:51.000Z</time>
      </trkpt>
      <trkpt lat="45.93898" lon="4.85923">
        <ele>333.9</ele>
        <time>2013-07-21T16:21:52.000Z</time>
      </trkpt>
      <trkpt lat="45.93894" lon="4.85921">
        <ele>333.8</ele>
        <time>2013-07-21T16:21:53.000Z</time>
      </trkpt>
      <trkpt lat="45.93887" lon="4.85919">
        <ele>334</ele>
        <time>2013-07-21T16:21:54.000Z</time>
      </trkpt>
      <trkpt lat="45.93883" lon="4.85916">
        <ele>334.1</ele>
        <time>2013-07-21T16:21:55.000Z</time>
      </trkpt>
      <trkpt lat="45.93877" lon="4.85919">
        <ele>333.5</ele>
        <time>2013-07-21T16:21:56.039Z</time>
      </trkpt>
      <trkpt lat="45.93874" lon="4.85917">
        <ele>333.7</ele>
        <time>2013-07-21T16:21:57.000Z</time>
      </trkpt>
      <trkpt lat="45.93871" lon="4.85916">
        <ele>334</ele>
        <time>2013-07-21T16:21:58.000Z</time>
      </trkpt>
      <trkpt lat="45.93868" lon="4.85916">
        <ele>334.1</ele>
        <time>2013-07-21T16:22:00.000Z</time>
      </trkpt>
      <trkpt lat="45.93866" lon="4.85915">
        <ele>333.9</ele>
        <time>2013-07-21T16:22:01.000Z</time>
      </trkpt>
      <trkpt lat="45.93861" lon="4.85914">
        <ele>334.4</ele>
        <time>2013-07-21T16:22:03.000Z</time>
      </trkpt>
      <trkpt lat="45.93861" lon="4.85913">
        <ele>333</ele>
        <time>2013-07-21T16:22:04.000Z</time>
      </trkpt>
      <trkpt lat="45.93857" lon="4.85916">
        <ele>333.9</ele>
        <time>2013-07-21T16:22:05.000Z</time>
      </trkpt>
      <trkpt lat="45.93855" lon="4.85917">
        <ele>334.7</ele>
        <time>2013-07-21T16:22:06.000Z</time>
      </trkpt>
      <trkpt lat="45.93852" lon="4.8592">
        <ele>334.5</ele>
        <time>2013-07-21T16:22:07.000Z</time>
      </trkpt>
      <trkpt lat="45.9385" lon="4.85923">
        <ele>334.5</ele>
        <time>2013-07-21T16:22:08.000Z</time>
      </trkpt>
      <trkpt lat="45.93847" lon="4.85927">
        <ele>334.6</ele>
        <time>2013-07-21T16:22:09.000Z</time>
      </trkpt>
      <trkpt lat="45.93843" lon="4.8593">
        <ele>336.7</ele>
        <time>2013-07-21T16:22:10.000Z</time>
      </trkpt>
      <trkpt lat="45.9384" lon="4.85931">
        <ele>337.5</ele>
        <time>2013-07-21T16:22:11.000Z</time>
      </trkpt>
      <trkpt lat="45.93835" lon="4.85933">
        <ele>338.2</ele>
        <time>2013-07-21T16:22:12.000Z</time>
      </trkpt>
      <trkpt lat="45.93829" lon="4.85932">
        <ele>339.4</ele>
        <time>2013-07-21T16:22:13.000Z</time>
      </trkpt>
      <trkpt lat="45.93825" lon="4.85932">
        <ele>339.5</ele>
        <time>2013-07-21T16:22:14.000Z</time>
      </trkpt>
      <trkpt lat="45.93821" lon="4.85932">
        <ele>339.9</ele>
        <time>2013-07-21T16:22:15.000Z</time>
      </trkpt>
      <trkpt lat="45.93818" lon="4.85932">
        <ele>339.9</ele>
        <time>2013-07-21T16:22:16.000Z</time>
      </trkpt>
      <trkpt lat="45.93814" lon="4.85932">
        <ele>339.8</ele>
        <time>2013-07-21T16:22:17.000Z</time>
      </trkpt>
      <trkpt lat="45.93809" lon="4.85931">
        <ele>339.8</ele>
        <time>2013-07-21T16:22:18.000Z</time>
      </trkpt>
      <trkpt lat="45.93804" lon="4.85928">
        <ele>340.1</ele>
        <time>2013-07-21T16:22:19.000Z</time>
      </trkpt>
      <trkpt lat="45.93801" lon="4.85925">
        <ele>340.1</ele>
        <time>2013-07-21T16:22:20.000Z</time>
      </trkpt>
      <trkpt lat="45.93797" lon="4.85921">
        <ele>339.8</ele>
        <time>2013-07-21T16:22:21.000Z</time>
      </trkpt>
      <trkpt lat="45.93795" lon="4.85919">
        <ele>340</ele>
        <time>2013-07-21T16:22:22.000Z</time>
      </trkpt>
      <trkpt lat="45.93793" lon="4.85915">
        <ele>339.8</ele>
        <time>2013-07-21T16:22:23.000Z</time>
      </trkpt>
      <trkpt lat="45.9379" lon="4.85912">
        <ele>339.8</ele>
        <time>2013-07-21T16:22:24.000Z</time>
      </trkpt>
      <trkpt lat="45.93786" lon="4.8591">
        <ele>342.9</ele>
        <time>2013-07-21T16:22:25.000Z</time>
      </trkpt>
      <trkpt lat="45.93782" lon="4.85906">
        <ele>343.1</ele>
        <time>2013-07-21T16:22:26.000Z</time>
      </trkpt>
      <trkpt lat="45.93779" lon="4.85903">
        <ele>344.1</ele>
        <time>2013-07-21T16:22:27.000Z</time>
      </trkpt>
      <trkpt lat="45.93775" lon="4.859">
        <ele>344.6</ele>
        <time>2013-07-21T16:22:28.000Z</time>
      </trkpt>
      <trkpt lat="45.93771" lon="4.85897">
        <ele>343.4</ele>
        <time>2013-07-21T16:22:29.000Z</time>
      </trkpt>
      <trkpt lat="45.93765" lon="4.85891">
        <ele>344.1</ele>
        <time>2013-07-21T16:22:30.000Z</time>
      </trkpt>
      <trkpt lat="45.93762" lon="4.85887">
        <ele>344.2</ele>
        <time>2013-07-21T16:22:31.000Z</time>
      </trkpt>
      <trkpt lat="45.93755" lon="4.85883">
        <ele>345.5</ele>
        <time>2013-07-21T16:22:32.000Z</time>
      </trkpt>
      <trkpt lat="45.93751" lon="4.85877">
        <ele>345.6</ele>
        <time>2013-07-21T16:22:33.000Z</time>
      </trkpt>
      <trkpt lat="45.93746" lon="4.85871">
        <ele>345.5</ele>
        <time>2013-07-21T16:22:34.000Z</time>
      </trkpt>
      <trkpt lat="45.93744" lon="4.85865">
        <ele>344.8</ele>
        <time>2013-07-21T16:22:35.000Z</time>
      </trkpt>
      <trkpt lat="45.93741" lon="4.85855">
        <ele>344.6</ele>
        <time>2013-07-21T16:22:36.000Z</time>
      </trkpt>
      <trkpt lat="45.93737" lon="4.85847">
        <ele>344.7</ele>
        <time>2013-07-21T16:22:37.000Z</time>
      </trkpt>
      <trkpt lat="45.93734" lon="4.8584">
        <ele>344.7</ele>
        <time>2013-07-21T16:22:38.000Z</time>
      </trkpt>
      <trkpt lat="45.9373" lon="4.85835">
        <ele>344.1</ele>
        <time>2013-07-21T16:22:39.000Z</time>
      </trkpt>
      <trkpt lat="45.93727" lon="4.85827">
        <ele>344.5</ele>
        <time>2013-07-21T16:22:40.000Z</time>
      </trkpt>
      <trkpt lat="45.93723" lon="4.85819">
        <ele>343.8</ele>
        <time>2013-07-21T16:22:41.000Z</time>
      </trkpt>
      <trkpt lat="45.93719" lon="4.85813">
        <ele>343.7</ele>
        <time>2013-07-21T16:22:42.000Z</time>
      </trkpt>
      <trkpt lat="45.93717" lon="4.85805">
        <ele>342.7</ele>
        <time>2013-07-21T16:22:43.000Z</time>
      </trkpt>
      <trkpt lat="45.93714" lon="4.85797">
        <ele>341.5</ele>
        <time>2013-07-21T16:22:44.000Z</time>
      </trkpt>
      <trkpt lat="45.93711" lon="4.85789">
        <ele>342</ele>
        <time>2013-07-21T16:22:45.000Z</time>
      </trkpt>
      <trkpt lat="45.93709" lon="4.8578">
        <ele>342.5</ele>
        <time>2013-07-21T16:22:46.000Z</time>
      </trkpt>
      <trkpt lat="45.93707" lon="4.85772">
        <ele>342.7</ele>
        <time>2013-07-21T16:22:47.000Z</time>
      </trkpt>
      <trkpt lat="45.93705" lon="4.85763">
        <ele>341.6</ele>
        <time>2013-07-21T16:22:48.000Z</time>
      </trkpt>
      <trkpt lat="45.93701" lon="4.85756">
        <ele>341.1</ele>
        <time>2013-07-21T16:22:49.000Z</time>
      </trkpt>
      <trkpt lat="45.93697" lon="4.85749">
        <ele>340.8</ele>
        <time>2013-07-21T16:22:50.000Z</time>
      </trkpt>
      <trkpt lat="45.93695" lon="4.85744">
        <ele>340</ele>
        <time>2013-07-21T16:22:51.000Z</time>
      </trkpt>
      <trkpt lat="45.93692" lon="4.85738">
        <ele>340</ele>
        <time>2013-07-21T16:22:52.000Z</time>
      </trkpt>
      <trkpt lat="45.93688" lon="4.8573">
        <ele>339.2</ele>
        <time>2013-07-21T16:22:53.000Z</time>
      </trkpt>
      <trkpt lat="45.93682" lon="4.85722">
        <ele>338.6</ele>
        <time>2013-07-21T16:22:54.000Z</time>
      </trkpt>
      <trkpt lat="45.93678" lon="4.85716">
        <ele>338.6</ele>
        <time>2013-07-21T16:22:55.000Z</time>
      </trkpt>
      <trkpt lat="45.93674" lon="4.8571">
        <ele>337.4</ele>
        <time>2013-07-21T16:22:56.004Z</time>
      </trkpt>
      <trkpt lat="45.93669" lon="4.85705">
        <ele>336.2</ele>
        <time>2013-07-21T16:22:57.000Z</time>
      </trkpt>
      <trkpt lat="45.93665" lon="4.857">
        <ele>336.5</ele>
        <time>2013-07-21T16:22:58.000Z</time>
      </trkpt>
      <trkpt lat="45.9366" lon="4.85696">
        <ele>336.4</ele>
        <time>2013-07-21T16:22:59.000Z</time>
      </trkpt>
      <trkpt lat="45.93656" lon="4.85691">
        <ele>336.7</ele>
        <time>2013-07-21T16:23:00.000Z</time>
      </trkpt>
      <trkpt lat="45.93652" lon="4.85684">
        <ele>336.1</ele>
        <time>2013-07-21T16:23:01.000Z</time>
      </trkpt>
      <trkpt lat="45.93649" lon="4.85678">
        <ele>335.8</ele>
        <time>2013-07-21T16:23:02.000Z</time>
      </trkpt>
      <trkpt lat="45.93644" lon="4.85673">
        <ele>335.6</ele>
        <time>2013-07-21T16:23:03.000Z</time>
      </trkpt>
      <trkpt lat="45.93639" lon="4.85667">
        <ele>336.6</ele>
        <time>2013-07-21T16:23:04.000Z</time>
      </trkpt>
      <trkpt lat="45.93634" lon="4.85661">
        <ele>336.5</ele>
        <time>2013-07-21T16:23:05.000Z</time>
      </trkpt>
      <trkpt lat="45.93631" lon="4.85656">
        <ele>336.6</ele>
        <time>2013-07-21T16:23:06.000Z</time>
      </trkpt>
      <trkpt lat="45.93627" lon="4.8565">
        <ele>336.9</ele>
        <time>2013-07-21T16:23:07.000Z</time>
      </trkpt>
      <trkpt lat="45.93622" lon="4.85642">
        <ele>336.4</ele>
        <time>2013-07-21T16:23:08.000Z</time>
      </trkpt>
      <trkpt lat="45.93616" lon="4.85635">
        <ele>336.9</ele>
        <time>2013-07-21T16:23:09.000Z</time>
      </trkpt>
      <trkpt lat="45.93611" lon="4.8563">
        <ele>337.4</ele>
        <time>2013-07-21T16:23:10.000Z</time>
      </trkpt>
      <trkpt lat="45.93607" lon="4.85623">
        <ele>336.9</ele>
        <time>2013-07-21T16:23:11.000Z</time>
      </trkpt>
      <trkpt lat="45.93602" lon="4.85617">
        <ele>336.9</ele>
        <time>2013-07-21T16:23:12.000Z</time>
      </trkpt>
      <trkpt lat="45.93596" lon="4.8561">
        <ele>336.2</ele>
        <time>2013-07-21T16:23:13.000Z</time>
      </trkpt>
      <trkpt lat="45.93591" lon="4.85604">
        <ele>335.7</ele>
        <time>2013-07-21T16:23:14.000Z</time>
      </trkpt>
      <trkpt lat="45.93585" lon="4.85598">
        <ele>335.7</ele>
        <time>2013-07-21T16:23:15.000Z</time>
      </trkpt>
      <trkpt lat="45.9358" lon="4.85591">
        <ele>335</ele>
        <time>2013-07-21T16:23:16.000Z</time>
      </trkpt>
      <trkpt lat="45.93575" lon="4.85584">
        <ele>335</ele>
        <time>2013-07-21T16:23:17.000Z</time>
      </trkpt>
      <trkpt lat="45.9357" lon="4.85579">
        <ele>334.2</ele>
        <time>2013-07-21T16:23:18.000Z</time>
      </trkpt>
      <trkpt lat="45.93565" lon="4.85575">
        <ele>333.8</ele>
        <time>2013-07-21T16:23:19.000Z</time>
      </trkpt>
      <trkpt lat="45.9356" lon="4.85569">
        <ele>333.7</ele>
        <time>2013-07-21T16:23:20.000Z</time>
      </trkpt>
      <trkpt lat="45.93556" lon="4.85564">
        <ele>333.9</ele>
        <time>2013-07-21T16:23:21.000Z</time>
      </trkpt>
      <trkpt lat="45.9355" lon="4.85558">
        <ele>334.7</ele>
        <time>2013-07-21T16:23:22.000Z</time>
      </trkpt>
      <trkpt lat="45.93545" lon="4.85553">
        <ele>334.7</ele>
        <time>2013-07-21T16:23:23.000Z</time>
      </trkpt>
      <trkpt lat="45.9354" lon="4.85548">
        <ele>333.9</ele>
        <time>2013-07-21T16:23:24.000Z</time>
      </trkpt>
      <trkpt lat="45.93535" lon="4.85543">
        <ele>333.6</ele>
        <time>2013-07-21T16:23:25.000Z</time>
      </trkpt>
      <trkpt lat="45.93531" lon="4.85538">
        <ele>333.1</ele>
        <time>2013-07-21T16:23:26.000Z</time>
      </trkpt>
      <trkpt lat="45.93526" lon="4.85533">
        <ele>333.2</ele>
        <time>2013-07-21T16:23:27.000Z</time>
      </trkpt>
      <trkpt lat="45.93522" lon="4.85529">
        <ele>333.8</ele>
        <time>2013-07-21T16:23:28.000Z</time>
      </trkpt>
      <trkpt lat="45.93517" lon="4.85524">
        <ele>334</ele>
        <time>2013-07-21T16:23:29.000Z</time>
      </trkpt>
      <trkpt lat="45.93513" lon="4.85519">
        <ele>333.3</ele>
        <time>2013-07-21T16:23:30.000Z</time>
      </trkpt>
      <trkpt lat="45.93508" lon="4.85513">
        <ele>333.5</ele>
        <time>2013-07-21T16:23:31.000Z</time>
      </trkpt>
      <trkpt lat="45.93502" lon="4.85508">
        <ele>334.3</ele>
        <time>2013-07-21T16:23:32.000Z</time>
      </trkpt>
      <trkpt lat="45.93497" lon="4.85503">
        <ele>333.4</ele>
        <time>2013-07-21T16:23:33.000Z</time>
      </trkpt>
      <trkpt lat="45.93493" lon="4.85498">
        <ele>333</ele>
        <time>2013-07-21T16:23:34.000Z</time>
      </trkpt>
      <trkpt lat="45.93488" lon="4.85493">
        <ele>333.4</ele>
        <time>2013-07-21T16:23:35.000Z</time>
      </trkpt>
      <trkpt lat="45.93482" lon="4.85489">
        <ele>334</ele>
        <time>2013-07-21T16:23:36.000Z</time>
      </trkpt>
      <trkpt lat="45.93476" lon="4.85483">
        <ele>334.3</ele>
        <time>2013-07-21T16:23:37.000Z</time>
      </trkpt>
      <trkpt lat="45.93471" lon="4.85479">
        <ele>333.9</ele>
        <time>2013-07-21T16:23:38.000Z</time>
      </trkpt>
      <trkpt lat="45.93466" lon="4.85475">
        <ele>333.9</ele>
        <time>2013-07-21T16:23:39.000Z</time>
      </trkpt>
      <trkpt lat="45.93461" lon="4.85471">
        <ele>333.1</ele>
        <time>2013-07-21T16:23:40.000Z</time>
      </trkpt>
      <trkpt lat="45.93456" lon="4.85467">
        <ele>332.3</ele>
        <time>2013-07-21T16:23:41.000Z</time>
      </trkpt>
      <trkpt lat="45.93451" lon="4.85463">
        <ele>332.6</ele>
        <time>2013-07-21T16:23:42.000Z</time>
      </trkpt>
      <trkpt lat="45.93447" lon="4.8546">
        <ele>332.3</ele>
        <time>2013-07-21T16:23:43.000Z</time>
      </trkpt>
      <trkpt lat="45.93441" lon="4.85456">
        <ele>331.3</ele>
        <time>2013-07-21T16:23:44.000Z</time>
      </trkpt>
      <trkpt lat="45.93435" lon="4.85453">
        <ele>331.1</ele>
        <time>2013-07-21T16:23:45.000Z</time>
      </trkpt>
      <trkpt lat="45.93429" lon="4.85451">
        <ele>330.4</ele>
        <time>2013-07-21T16:23:46.000Z</time>
      </trkpt>
      <trkpt lat="45.93424" lon="4.85449">
        <ele>329.8</ele>
        <time>2013-07-21T16:23:47.000Z</time>
      </trkpt>
      <trkpt lat="45.93418" lon="4.85447">
        <ele>329.6</ele>
        <time>2013-07-21T16:23:48.000Z</time>
      </trkpt>
      <trkpt lat="45.93413" lon="4.85443">
        <ele>330.2</ele>
        <time>2013-07-21T16:23:49.000Z</time>
      </trkpt>
      <trkpt lat="45.93408" lon="4.8544">
        <ele>330.1</ele>
        <time>2013-07-21T16:23:50.000Z</time>
      </trkpt>
      <trkpt lat="45.93402" lon="4.85439">
        <ele>330.4</ele>
        <time>2013-07-21T16:23:51.000Z</time>
      </trkpt>
      <trkpt lat="45.93396" lon="4.85436">
        <ele>330.3</ele>
        <time>2013-07-21T16:23:52.000Z</time>
      </trkpt>
      <trkpt lat="45.9339" lon="4.85434">
        <ele>330.3</ele>
        <time>2013-07-21T16:23:53.000Z</time>
      </trkpt>
      <trkpt lat="45.93384" lon="4.85432">
        <ele>329.9</ele>
        <time>2013-07-21T16:23:54.000Z</time>
      </trkpt>
      <trkpt lat="45.93378" lon="4.8543">
        <ele>329.5</ele>
        <time>2013-07-21T16:23:55.000Z</time>
      </trkpt>
      <trkpt lat="45.93372" lon="4.85427">
        <ele>328.9</ele>
        <time>2013-07-21T16:23:56.040Z</time>
      </trkpt>
      <trkpt lat="45.93366" lon="4.85425">
        <ele>328.7</ele>
        <time>2013-07-21T16:23:57.000Z</time>
      </trkpt>
      <trkpt lat="45.93361" lon="4.85422">
        <ele>329.9</ele>
        <time>2013-07-21T16:23:58.000Z</time>
      </trkpt>
      <trkpt lat="45.93356" lon="4.85419">
        <ele>330.1</ele>
        <time>2013-07-21T16:23:59.000Z</time>
      </trkpt>
      <trkpt lat="45.93351" lon="4.85417">
        <ele>330.5</ele>
        <time>2013-07-21T16:24:00.000Z</time>
      </trkpt>
      <trkpt lat="45.93346" lon="4.85413">
        <ele>330.4</ele>
        <time>2013-07-21T16:24:01.000Z</time>
      </trkpt>
      <trkpt lat="45.93341" lon="4.8541">
        <ele>330.5</ele>
        <time>2013-07-21T16:24:02.000Z</time>
      </trkpt>
      <trkpt lat="45.93336" lon="4.85407">
        <ele>330.6</ele>
        <time>2013-07-21T16:24:03.000Z</time>
      </trkpt>
      <trkpt lat="45.93332" lon="4.85402">
        <ele>330.4</ele>
        <time>2013-07-21T16:24:04.000Z</time>
      </trkpt>
      <trkpt lat="45.93329" lon="4.85399">
        <ele>330.3</ele>
        <time>2013-07-21T16:24:05.000Z</time>
      </trkpt>
      <trkpt lat="45.93326" lon="4.85394">
        <ele>330.9</ele>
        <time>2013-07-21T16:24:06.000Z</time>
      </trkpt>
      <trkpt lat="45.93322" lon="4.85388">
        <ele>332.3</ele>
        <time>2013-07-21T16:24:07.000Z</time>
      </trkpt>
      <trkpt lat="45.9332" lon="4.85383">
        <ele>332.7</ele>
        <time>2013-07-21T16:24:08.000Z</time>
      </trkpt>
      <trkpt lat="45.93318" lon="4.85379">
        <ele>332.5</ele>
        <time>2013-07-21T16:24:09.000Z</time>
      </trkpt>
      <trkpt lat="45.93316" lon="4.85374">
        <ele>332.4</ele>
        <time>2013-07-21T16:24:10.000Z</time>
      </trkpt>
      <trkpt lat="45.93314" lon="4.85366">
        <ele>332.2</ele>
        <time>2013-07-21T16:24:11.000Z</time>
      </trkpt>
      <trkpt lat="45.93311" lon="4.85361">
        <ele>332.2</ele>
        <time>2013-07-21T16:24:12.000Z</time>
      </trkpt>
      <trkpt lat="45.93308" lon="4.85354">
        <ele>332.1</ele>
        <time>2013-07-21T16:24:13.000Z</time>
      </trkpt>
      <trkpt lat="45.93305" lon="4.85347">
        <ele>332.2</ele>
        <time>2013-07-21T16:24:14.000Z</time>
      </trkpt>
      <trkpt lat="45.93301" lon="4.85342">
        <ele>332.8</ele>
        <time>2013-07-21T16:24:15.000Z</time>
      </trkpt>
      <trkpt lat="45.93297" lon="4.85338">
        <ele>332.1</ele>
        <time>2013-07-21T16:24:16.000Z</time>
      </trkpt>
      <trkpt lat="45.93293" lon="4.85336">
        <ele>332.6</ele>
        <time>2013-07-21T16:24:17.000Z</time>
      </trkpt>
      <trkpt lat="45.9329" lon="4.85332">
        <ele>332.2</ele>
        <time>2013-07-21T16:24:18.000Z</time>
      </trkpt>
      <trkpt lat="45.93286" lon="4.85329">
        <ele>332.8</ele>
        <time>2013-07-21T16:24:19.000Z</time>
      </trkpt>
      <trkpt lat="45.93281" lon="4.85323">
        <ele>333.8</ele>
        <time>2013-07-21T16:24:20.000Z</time>
      </trkpt>
      <trkpt lat="45.93276" lon="4.85322">
        <ele>334.4</ele>
        <time>2013-07-21T16:24:21.000Z</time>
      </trkpt>
      <trkpt lat="45.93271" lon="4.85321">
        <ele>333.9</ele>
        <time>2013-07-21T16:24:22.000Z</time>
      </trkpt>
      <trkpt lat="45.93266" lon="4.85318">
        <ele>334.2</ele>
        <time>2013-07-21T16:24:23.000Z</time>
      </trkpt>
      <trkpt lat="45.93261" lon="4.85316">
        <ele>333.8</ele>
        <time>2013-07-21T16:24:24.000Z</time>
      </trkpt>
      <trkpt lat="45.93257" lon="4.85314">
        <ele>334.7</ele>
        <time>2013-07-21T16:24:25.000Z</time>
      </trkpt>
      <trkpt lat="45.93252" lon="4.85312">
        <ele>332.5</ele>
        <time>2013-07-21T16:24:26.000Z</time>
      </trkpt>
      <trkpt lat="45.93248" lon="4.85309">
        <ele>331.7</ele>
        <time>2013-07-21T16:24:27.000Z</time>
      </trkpt>
      <trkpt lat="45.93242" lon="4.85306">
        <ele>331.2</ele>
        <time>2013-07-21T16:24:28.000Z</time>
      </trkpt>
      <trkpt lat="45.93237" lon="4.85304">
        <ele>331.3</ele>
        <time>2013-07-21T16:24:29.000Z</time>
      </trkpt>
      <trkpt lat="45.93232" lon="4.85302">
        <ele>330.9</ele>
        <time>2013-07-21T16:24:30.000Z</time>
      </trkpt>
      <trkpt lat="45.93226" lon="4.85298">
        <ele>331.3</ele>
        <time>2013-07-21T16:24:31.000Z</time>
      </trkpt>
      <trkpt lat="45.9322" lon="4.85296">
        <ele>331.6</ele>
        <time>2013-07-21T16:24:32.000Z</time>
      </trkpt>
      <trkpt lat="45.93215" lon="4.85294">
        <ele>331.5</ele>
        <time>2013-07-21T16:24:33.000Z</time>
      </trkpt>
      <trkpt lat="45.93209" lon="4.85291">
        <ele>332.2</ele>
        <time>2013-07-21T16:24:34.000Z</time>
      </trkpt>
      <trkpt lat="45.93204" lon="4.85288">
        <ele>332.7</ele>
        <time>2013-07-21T16:24:35.000Z</time>
      </trkpt>
      <trkpt lat="45.93198" lon="4.85286">
        <ele>333.1</ele>
        <time>2013-07-21T16:24:36.000Z</time>
      </trkpt>
      <trkpt lat="45.93192" lon="4.85283">
        <ele>333.2</ele>
        <time>2013-07-21T16:24:37.000Z</time>
      </trkpt>
      <trkpt lat="45.93186" lon="4.8528">
        <ele>333.4</ele>
        <time>2013-07-21T16:24:38.000Z</time>
      </trkpt>
      <trkpt lat="45.9318" lon="4.85277">
        <ele>333.5</ele>
        <time>2013-07-21T16:24:39.000Z</time>
      </trkpt>
      <trkpt lat="45.93175" lon="4.85276">
        <ele>332.9</ele>
        <time>2013-07-21T16:24:40.000Z</time>
      </trkpt>
      <trkpt lat="45.93169" lon="4.85273">
        <ele>333</ele>
        <time>2013-07-21T16:24:41.000Z</time>
      </trkpt>
      <trkpt lat="45.93163" lon="4.8527">
        <ele>333</ele>
        <time>2013-07-21T16:24:42.000Z</time>
      </trkpt>
      <trkpt lat="45.93158" lon="4.85268">
        <ele>333.1</ele>
        <time>2013-07-21T16:24:43.000Z</time>
      </trkpt>
      <trkpt lat="45.93153" lon="4.85265">
        <ele>333.2</ele>
        <time>2013-07-21T16:24:44.000Z</time>
      </trkpt>
      <trkpt lat="45.93147" lon="4.85263">
        <ele>333.4</ele>
        <time>2013-07-21T16:24:45.000Z</time>
      </trkpt>
      <trkpt lat="45.93142" lon="4.85262">
        <ele>335</ele>
        <time>2013-07-21T16:24:46.000Z</time>
      </trkpt>
      <trkpt lat="45.93137" lon="4.8526">
        <ele>334</ele>
        <time>2013-07-21T16:24:47.000Z</time>
      </trkpt>
      <trkpt lat="45.93133" lon="4.85259">
        <ele>334.2</ele>
        <time>2013-07-21T16:24:48.000Z</time>
      </trkpt>
      <trkpt lat="45.93128" lon="4.85257">
        <ele>334.6</ele>
        <time>2013-07-21T16:24:49.000Z</time>
      </trkpt>
      <trkpt lat="45.93123" lon="4.85253">
        <ele>333.8</ele>
        <time>2013-07-21T16:24:50.000Z</time>
      </trkpt>
      <trkpt lat="45.93119" lon="4.85251">
        <ele>333.8</ele>
        <time>2013-07-21T16:24:51.000Z</time>
      </trkpt>
      <trkpt lat="45.93114" lon="4.85248">
        <ele>333.9</ele>
        <time>2013-07-21T16:24:52.000Z</time>
      </trkpt>
      <trkpt lat="45.9311" lon="4.85246">
        <ele>334.1</ele>
        <time>2013-07-21T16:24:53.000Z</time>
      </trkpt>
      <trkpt lat="45.93105" lon="4.85245">
        <ele>334.2</ele>
        <time>2013-07-21T16:24:54.000Z</time>
      </trkpt>
      <trkpt lat="45.93101" lon="4.85248">
        <ele>333.6</ele>
        <time>2013-07-21T16:24:55.000Z</time>
      </trkpt>
      <trkpt lat="45.93097" lon="4.85247">
        <ele>333.4</ele>
        <time>2013-07-21T16:24:55.941Z</time>
      </trkpt>
      <trkpt lat="45.93095" lon="4.85251">
        <ele>333.2</ele>
        <time>2013-07-21T16:24:57.000Z</time>
      </trkpt>
      <trkpt lat="45.93094" lon="4.85257">
        <ele>333.5</ele>
        <time>2013-07-21T16:24:58.000Z</time>
      </trkpt>
      <trkpt lat="45.93094" lon="4.85262">
        <ele>333.4</ele>
        <time>2013-07-21T16:24:59.000Z</time>
      </trkpt>
      <trkpt lat="45.93094" lon="4.85269">
        <ele>333.1</ele>
        <time>2013-07-21T16:25:00.000Z</time>
      </trkpt>
      <trkpt lat="45.93093" lon="4.85275">
        <ele>332.3</ele>
        <time>2013-07-21T16:25:01.000Z</time>
      </trkpt>
      <trkpt lat="45.93093" lon="4.85281">
        <ele>332.5</ele>
        <time>2013-07-21T16:25:02.000Z</time>
      </trkpt>
      <trkpt lat="45.93092" lon="4.85286">
        <ele>332.2</ele>
        <time>2013-07-21T16:25:03.000Z</time>
      </trkpt>
      <trkpt lat="45.93091" lon="4.85294">
        <ele>333</ele>
        <time>2013-07-21T16:25:04.000Z</time>
      </trkpt>
      <trkpt lat="45.93091" lon="4.853">
        <ele>333</ele>
        <time>2013-07-21T16:25:05.000Z</time>
      </trkpt>
      <trkpt lat="45.9309" lon="4.8531">
        <ele>331.5</ele>
        <time>2013-07-21T16:25:06.000Z</time>
      </trkpt>
      <trkpt lat="45.9309" lon="4.85317">
        <ele>331.3</ele>
        <time>2013-07-21T16:25:07.000Z</time>
      </trkpt>
      <trkpt lat="45.93089" lon="4.85324">
        <ele>331.5</ele>
        <time>2013-07-21T16:25:08.000Z</time>
      </trkpt>
      <trkpt lat="45.93091" lon="4.85331">
        <ele>331.1</ele>
        <time>2013-07-21T16:25:09.000Z</time>
      </trkpt>
      <trkpt lat="45.93092" lon="4.85339">
        <ele>330.9</ele>
        <time>2013-07-21T16:25:10.000Z</time>
      </trkpt>
      <trkpt lat="45.93092" lon="4.85347">
        <ele>331.7</ele>
        <time>2013-07-21T16:25:11.000Z</time>
      </trkpt>
      <trkpt lat="45.93091" lon="4.85354">
        <ele>331.7</ele>
        <time>2013-07-21T16:25:12.000Z</time>
      </trkpt>
      <trkpt lat="45.9309" lon="4.85362">
        <ele>331.9</ele>
        <time>2013-07-21T16:25:13.000Z</time>
      </trkpt>
      <trkpt lat="45.93089" lon="4.85367">
        <ele>331.9</ele>
        <time>2013-07-21T16:25:14.000Z</time>
      </trkpt>
      <trkpt lat="45.93084" lon="4.85374">
        <ele>331.8</ele>
        <time>2013-07-21T16:25:15.000Z</time>
      </trkpt>
      <trkpt lat="45.93081" lon="4.85381">
        <ele>332.1</ele>
        <time>2013-07-21T16:25:16.000Z</time>
      </trkpt>
      <trkpt lat="45.93081" lon="4.85389">
        <ele>332.2</ele>
        <time>2013-07-21T16:25:17.000Z</time>
      </trkpt>
      <trkpt lat="45.93081" lon="4.85396">
        <ele>331.5</ele>
        <time>2013-07-21T16:25:18.000Z</time>
      </trkpt>
      <trkpt lat="45.9308" lon="4.85403">
        <ele>331.8</ele>
        <time>2013-07-21T16:25:19.000Z</time>
      </trkpt>
      <trkpt lat="45.93079" lon="4.8541">
        <ele>332</ele>
        <time>2013-07-21T16:25:20.000Z</time>
      </trkpt>
      <trkpt lat="45.93078" lon="4.85418">
        <ele>331.1</ele>
        <time>2013-07-21T16:25:21.000Z</time>
      </trkpt>
      <trkpt lat="45.93078" lon="4.85425">
        <ele>330.2</ele>
        <time>2013-07-21T16:25:22.000Z</time>
      </trkpt>
      <trkpt lat="45.93077" lon="4.85433">
        <ele>329.2</ele>
        <time>2013-07-21T16:25:23.000Z</time>
      </trkpt>
      <trkpt lat="45.93077" lon="4.85438">
        <ele>328.9</ele>
        <time>2013-07-21T16:25:24.000Z</time>
      </trkpt>
      <trkpt lat="45.93076" lon="4.85446">
        <ele>329.1</ele>
        <time>2013-07-21T16:25:25.000Z</time>
      </trkpt>
      <trkpt lat="45.93077" lon="4.85452">
        <ele>328.3</ele>
        <time>2013-07-21T16:25:26.000Z</time>
      </trkpt>
      <trkpt lat="45.93077" lon="4.85459">
        <ele>328.3</ele>
        <time>2013-07-21T16:25:27.000Z</time>
      </trkpt>
      <trkpt lat="45.93074" lon="4.85467">
        <ele>328</ele>
        <time>2013-07-21T16:25:28.000Z</time>
      </trkpt>
      <trkpt lat="45.93072" lon="4.85475">
        <ele>328</ele>
        <time>2013-07-21T16:25:29.000Z</time>
      </trkpt>
      <trkpt lat="45.93071" lon="4.85482">
        <ele>327.4</ele>
        <time>2013-07-21T16:25:30.000Z</time>
      </trkpt>
      <trkpt lat="45.9307" lon="4.8549">
        <ele>328.6</ele>
        <time>2013-07-21T16:25:31.000Z</time>
      </trkpt>
      <trkpt lat="45.93068" lon="4.85496">
        <ele>328.6</ele>
        <time>2013-07-21T16:25:32.000Z</time>
      </trkpt>
      <trkpt lat="45.93065" lon="4.85503">
        <ele>328.6</ele>
        <time>2013-07-21T16:25:33.000Z</time>
      </trkpt>
      <trkpt lat="45.93062" lon="4.85509">
        <ele>329</ele>
        <time>2013-07-21T16:25:34.000Z</time>
      </trkpt>
      <trkpt lat="45.93061" lon="4.85516">
        <ele>329.2</ele>
        <time>2013-07-21T16:25:35.000Z</time>
      </trkpt>
      <trkpt lat="45.93059" lon="4.85523">
        <ele>328.8</ele>
        <time>2013-07-21T16:25:36.000Z</time>
      </trkpt>
      <trkpt lat="45.93059" lon="4.85529">
        <ele>329.4</ele>
        <time>2013-07-21T16:25:37.000Z</time>
      </trkpt>
      <trkpt lat="45.93058" lon="4.85536">
        <ele>328.8</ele>
        <time>2013-07-21T16:25:38.000Z</time>
      </trkpt>
      <trkpt lat="45.93056" lon="4.85543">
        <ele>328.5</ele>
        <time>2013-07-21T16:25:39.000Z</time>
      </trkpt>
      <trkpt lat="45.93055" lon="4.85549">
        <ele>328.4</ele>
        <time>2013-07-21T16:25:40.000Z</time>
      </trkpt>
      <trkpt lat="45.93053" lon="4.85555">
        <ele>327.9</ele>
        <time>2013-07-21T16:25:41.000Z</time>
      </trkpt>
      <trkpt lat="45.93051" lon="4.85562">
        <ele>327.5</ele>
        <time>2013-07-21T16:25:42.000Z</time>
      </trkpt>
      <trkpt lat="45.93051" lon="4.85569">
        <ele>327.4</ele>
        <time>2013-07-21T16:25:43.000Z</time>
      </trkpt>
      <trkpt lat="45.9305" lon="4.85575">
        <ele>327.3</ele>
        <time>2013-07-21T16:25:44.000Z</time>
      </trkpt>
      <trkpt lat="45.93046" lon="4.85581">
        <ele>327.8</ele>
        <time>2013-07-21T16:25:45.000Z</time>
      </trkpt>
      <trkpt lat="45.93045" lon="4.85587">
        <ele>328.9</ele>
        <time>2013-07-21T16:25:46.000Z</time>
      </trkpt>
      <trkpt lat="45.93043" lon="4.85593">
        <ele>329.3</ele>
        <time>2013-07-21T16:25:47.000Z</time>
      </trkpt>
      <trkpt lat="45.93039" lon="4.85596">
        <ele>330.2</ele>
        <time>2013-07-21T16:25:48.000Z</time>
      </trkpt>
      <trkpt lat="45.93036" lon="4.85601">
        <ele>331</ele>
        <time>2013-07-21T16:25:49.000Z</time>
      </trkpt>
      <trkpt lat="45.93034" lon="4.85605">
        <ele>331.8</ele>
        <time>2013-07-21T16:25:50.000Z</time>
      </trkpt>
      <trkpt lat="45.93031" lon="4.85609">
        <ele>332</ele>
        <time>2013-07-21T16:25:51.000Z</time>
      </trkpt>
      <trkpt lat="45.9303" lon="4.85614">
        <ele>333.5</ele>
        <time>2013-07-21T16:25:52.000Z</time>
      </trkpt>
      <trkpt lat="45.93027" lon="4.85617">
        <ele>335.4</ele>
        <time>2013-07-21T16:25:53.000Z</time>
      </trkpt>
      <trkpt lat="45.93025" lon="4.8562">
        <ele>337.4</ele>
        <time>2013-07-21T16:25:54.000Z</time>
      </trkpt>
      <trkpt lat="45.93022" lon="4.85625">
        <ele>337</ele>
        <time>2013-07-21T16:25:55.000Z</time>
      </trkpt>
      <trkpt lat="45.93019" lon="4.85629">
        <ele>336.5</ele>
        <time>2013-07-21T16:25:56.084Z</time>
      </trkpt>
      <trkpt lat="45.93017" lon="4.85633">
        <ele>336.4</ele>
        <time>2013-07-21T16:25:57.000Z</time>
      </trkpt>
      <trkpt lat="45.93016" lon="4.85638">
        <ele>336</ele>
        <time>2013-07-21T16:25:58.000Z</time>
      </trkpt>
      <trkpt lat="45.93014" lon="4.85642">
        <ele>334.5</ele>
        <time>2013-07-21T16:25:59.000Z</time>
      </trkpt>
      <trkpt lat="45.93013" lon="4.85647">
        <ele>334.5</ele>
        <time>2013-07-21T16:26:00.000Z</time>
      </trkpt>
      <trkpt lat="45.93011" lon="4.85652">
        <ele>334.5</ele>
        <time>2013-07-21T16:26:01.000Z</time>
      </trkpt>
      <trkpt lat="45.93009" lon="4.85656">
        <ele>334.7</ele>
        <time>2013-07-21T16:26:02.000Z</time>
      </trkpt>
      <trkpt lat="45.93007" lon="4.85661">
        <ele>335.8</ele>
        <time>2013-07-21T16:26:03.000Z</time>
      </trkpt>
      <trkpt lat="45.93004" lon="4.85666">
        <ele>336.2</ele>
        <time>2013-07-21T16:26:04.000Z</time>
      </trkpt>
      <trkpt lat="45.93001" lon="4.8567">
        <ele>336.4</ele>
        <time>2013-07-21T16:26:05.000Z</time>
      </trkpt>
      <trkpt lat="45.92999" lon="4.85674">
        <ele>336.9</ele>
        <time>2013-07-21T16:26:06.000Z</time>
      </trkpt>
      <trkpt lat="45.92996" lon="4.85678">
        <ele>337</ele>
        <time>2013-07-21T16:26:07.000Z</time>
      </trkpt>
      <trkpt lat="45.92994" lon="4.85682">
        <ele>336.8</ele>
        <time>2013-07-21T16:26:08.000Z</time>
      </trkpt>
      <trkpt lat="45.92991" lon="4.85686">
        <ele>337.3</ele>
        <time>2013-07-21T16:26:09.000Z</time>
      </trkpt>
      <trkpt lat="45.92989" lon="4.8569">
        <ele>337.3</ele>
        <time>2013-07-21T16:26:10.000Z</time>
      </trkpt>
      <trkpt lat="45.92987" lon="4.85694">
        <ele>337.3</ele>
        <time>2013-07-21T16:26:11.000Z</time>
      </trkpt>
      <trkpt lat="45.92985" lon="4.85697">
        <ele>338.1</ele>
        <time>2013-07-21T16:26:12.000Z</time>
      </trkpt>
      <trkpt lat="45.92982" lon="4.85701">
        <ele>338.7</ele>
        <time>2013-07-21T16:26:13.000Z</time>
      </trkpt>
      <trkpt lat="45.9298" lon="4.85705">
        <ele>338.6</ele>
        <time>2013-07-21T16:26:14.000Z</time>
      </trkpt>
      <trkpt lat="45.92978" lon="4.85708">
        <ele>338.9</ele>
        <time>2013-07-21T16:26:15.000Z</time>
      </trkpt>
      <trkpt lat="45.92976" lon="4.85713">
        <ele>338.9</ele>
        <time>2013-07-21T16:26:16.000Z</time>
      </trkpt>
      <trkpt lat="45.92974" lon="4.85717">
        <ele>338.5</ele>
        <time>2013-07-21T16:26:17.000Z</time>
      </trkpt>
      <trkpt lat="45.92972" lon="4.85722">
        <ele>338.5</ele>
        <time>2013-07-21T16:26:18.000Z</time>
      </trkpt>
      <trkpt lat="45.92971" lon="4.85728">
        <ele>336.9</ele>
        <time>2013-07-21T16:26:19.000Z</time>
      </trkpt>
      <trkpt lat="45.92969" lon="4.85734">
        <ele>336.2</ele>
        <time>2013-07-21T16:26:20.000Z</time>
      </trkpt>
      <trkpt lat="45.92966" lon="4.85745">
        <ele>336.3</ele>
        <time>2013-07-21T16:26:21.000Z</time>
      </trkpt>
      <trkpt lat="45.92963" lon="4.85752">
        <ele>335.7</ele>
        <time>2013-07-21T16:26:22.000Z</time>
      </trkpt>
      <trkpt lat="45.92962" lon="4.85759">
        <ele>335.7</ele>
        <time>2013-07-21T16:26:23.000Z</time>
      </trkpt>
      <trkpt lat="45.9296" lon="4.85766">
        <ele>334.7</ele>
        <time>2013-07-21T16:26:24.000Z</time>
      </trkpt>
      <trkpt lat="45.92959" lon="4.85773">
        <ele>335</ele>
        <time>2013-07-21T16:26:25.000Z</time>
      </trkpt>
      <trkpt lat="45.92957" lon="4.85783">
        <ele>334.6</ele>
        <time>2013-07-21T16:26:26.000Z</time>
      </trkpt>
      <trkpt lat="45.92956" lon="4.85791">
        <ele>333.8</ele>
        <time>2013-07-21T16:26:27.000Z</time>
      </trkpt>
      <trkpt lat="45.92952" lon="4.85795">
        <ele>334.5</ele>
        <time>2013-07-21T16:26:28.000Z</time>
      </trkpt>
      <trkpt lat="45.92951" lon="4.85801">
        <ele>335.1</ele>
        <time>2013-07-21T16:26:29.000Z</time>
      </trkpt>
      <trkpt lat="45.92952" lon="4.85808">
        <ele>334.3</ele>
        <time>2013-07-21T16:26:30.000Z</time>
      </trkpt>
      <trkpt lat="45.92952" lon="4.85815">
        <ele>333.7</ele>
        <time>2013-07-21T16:26:31.000Z</time>
      </trkpt>
      <trkpt lat="45.92952" lon="4.85821">
        <ele>333.7</ele>
        <time>2013-07-21T16:26:32.000Z</time>
      </trkpt>
      <trkpt lat="45.92949" lon="4.85829">
        <ele>333.3</ele>
        <time>2013-07-21T16:26:33.000Z</time>
      </trkpt>
      <trkpt lat="45.92948" lon="4.85835">
        <ele>333.6</ele>
        <time>2013-07-21T16:26:34.000Z</time>
      </trkpt>
      <trkpt lat="45.92948" lon="4.85842">
        <ele>334.2</ele>
        <time>2013-07-21T16:26:35.000Z</time>
      </trkpt>
      <trkpt lat="45.92947" lon="4.85848">
        <ele>334</ele>
        <time>2013-07-21T16:26:36.000Z</time>
      </trkpt>
      <trkpt lat="45.92946" lon="4.85853">
        <ele>333.3</ele>
        <time>2013-07-21T16:26:37.000Z</time>
      </trkpt>
      <trkpt lat="45.92945" lon="4.8586">
        <ele>332.9</ele>
        <time>2013-07-21T16:26:38.000Z</time>
      </trkpt>
      <trkpt lat="45.92943" lon="4.85867">
        <ele>333.2</ele>
        <time>2013-07-21T16:26:39.000Z</time>
      </trkpt>
      <trkpt lat="45.92942" lon="4.85873">
        <ele>333.5</ele>
        <time>2013-07-21T16:26:40.000Z</time>
      </trkpt>
      <trkpt lat="45.92941" lon="4.85882">
        <ele>332.3</ele>
        <time>2013-07-21T16:26:41.000Z</time>
      </trkpt>
      <trkpt lat="45.92939" lon="4.8589">
        <ele>333</ele>
        <time>2013-07-21T16:26:42.000Z</time>
      </trkpt>
      <trkpt lat="45.92938" lon="4.85898">
        <ele>332.9</ele>
        <time>2013-07-21T16:26:43.000Z</time>
      </trkpt>
      <trkpt lat="45.92937" lon="4.85904">
        <ele>333.1</ele>
        <time>2013-07-21T16:26:44.000Z</time>
      </trkpt>
      <trkpt lat="45.92936" lon="4.85912">
        <ele>333.4</ele>
        <time>2013-07-21T16:26:45.000Z</time>
      </trkpt>
      <trkpt lat="45.92935" lon="4.85918">
        <ele>333.8</ele>
        <time>2013-07-21T16:26:46.000Z</time>
      </trkpt>
      <trkpt lat="45.92934" lon="4.85927">
        <ele>333.1</ele>
        <time>2013-07-21T16:26:47.000Z</time>
      </trkpt>
      <trkpt lat="45.92933" lon="4.85935">
        <ele>333</ele>
        <time>2013-07-21T16:26:48.000Z</time>
      </trkpt>
      <trkpt lat="45.92932" lon="4.85942">
        <ele>333</ele>
        <time>2013-07-21T16:26:49.000Z</time>
      </trkpt>
      <trkpt lat="45.92931" lon="4.85949">
        <ele>333.5</ele>
        <time>2013-07-21T16:26:50.000Z</time>
      </trkpt>
      <trkpt lat="45.92933" lon="4.85958">
        <ele>332.7</ele>
        <time>2013-07-21T16:26:51.000Z</time>
      </trkpt>
      <trkpt lat="45.92933" lon="4.85966">
        <ele>331.6</ele>
        <time>2013-07-21T16:26:52.000Z</time>
      </trkpt>
      <trkpt lat="45.92933" lon="4.85976">
        <ele>331.2</ele>
        <time>2013-07-21T16:26:53.000Z</time>
      </trkpt>
      <trkpt lat="45.92933" lon="4.85985">
        <ele>331.5</ele>
        <time>2013-07-21T16:26:54.000Z</time>
      </trkpt>
      <trkpt lat="45.92933" lon="4.85992">
        <ele>332.1</ele>
        <time>2013-07-21T16:26:55.000Z</time>
      </trkpt>
      <trkpt lat="45.92934" lon="4.86">
        <ele>333.2</ele>
        <time>2013-07-21T16:26:56.050Z</time>
      </trkpt>
      <trkpt lat="45.92934" lon="4.86007">
        <ele>333.4</ele>
        <time>2013-07-21T16:26:57.000Z</time>
      </trkpt>
      <trkpt lat="45.92933" lon="4.86016">
        <ele>332.6</ele>
        <time>2013-07-21T16:26:58.000Z</time>
      </trkpt>
      <trkpt lat="45.92933" lon="4.86024">
        <ele>333.9</ele>
        <time>2013-07-21T16:26:59.000Z</time>
      </trkpt>
      <trkpt lat="45.92936" lon="4.86033">
        <ele>333.9</ele>
        <time>2013-07-21T16:27:00.000Z</time>
      </trkpt>
      <trkpt lat="45.92936" lon="4.8604">
        <ele>333.7</ele>
        <time>2013-07-21T16:27:01.000Z</time>
      </trkpt>
      <trkpt lat="45.92936" lon="4.86047">
        <ele>334.7</ele>
        <time>2013-07-21T16:27:02.000Z</time>
      </trkpt>
      <trkpt lat="45.92936" lon="4.86055">
        <ele>334.5</ele>
        <time>2013-07-21T16:27:03.000Z</time>
      </trkpt>
      <trkpt lat="45.92935" lon="4.86063">
        <ele>335.1</ele>
        <time>2013-07-21T16:27:04.000Z</time>
      </trkpt>
      <trkpt lat="45.92936" lon="4.86072">
        <ele>335.3</ele>
        <time>2013-07-21T16:27:05.000Z</time>
      </trkpt>
      <trkpt lat="45.92936" lon="4.86079">
        <ele>334.8</ele>
        <time>2013-07-21T16:27:06.000Z</time>
      </trkpt>
      <trkpt lat="45.92935" lon="4.86086">
        <ele>335.2</ele>
        <time>2013-07-21T16:27:07.000Z</time>
      </trkpt>
      <trkpt lat="45.92933" lon="4.86094">
        <ele>335.3</ele>
        <time>2013-07-21T16:27:08.000Z</time>
      </trkpt>
      <trkpt lat="45.92932" lon="4.86103">
        <ele>335.4</ele>
        <time>2013-07-21T16:27:09.000Z</time>
      </trkpt>
      <trkpt lat="45.92931" lon="4.8611">
        <ele>336</ele>
        <time>2013-07-21T16:27:10.000Z</time>
      </trkpt>
      <trkpt lat="45.9293" lon="4.86118">
        <ele>336.1</ele>
        <time>2013-07-21T16:27:11.000Z</time>
      </trkpt>
      <trkpt lat="45.9293" lon="4.86125">
        <ele>336.6</ele>
        <time>2013-07-21T16:27:12.000Z</time>
      </trkpt>
      <trkpt lat="45.92929" lon="4.86133">
        <ele>336.6</ele>
        <time>2013-07-21T16:27:13.000Z</time>
      </trkpt>
      <trkpt lat="45.92929" lon="4.8614">
        <ele>336.3</ele>
        <time>2013-07-21T16:27:14.000Z</time>
      </trkpt>
      <trkpt lat="45.92927" lon="4.86148">
        <ele>336.8</ele>
        <time>2013-07-21T16:27:15.000Z</time>
      </trkpt>
      <trkpt lat="45.92926" lon="4.86154">
        <ele>337.5</ele>
        <time>2013-07-21T16:27:16.000Z</time>
      </trkpt>
      <trkpt lat="45.92922" lon="4.86162">
        <ele>338.3</ele>
        <time>2013-07-21T16:27:17.000Z</time>
      </trkpt>
      <trkpt lat="45.92918" lon="4.86169">
        <ele>339.1</ele>
        <time>2013-07-21T16:27:18.000Z</time>
      </trkpt>
      <trkpt lat="45.9292" lon="4.86178">
        <ele>339.6</ele>
        <time>2013-07-21T16:27:19.000Z</time>
      </trkpt>
      <trkpt lat="45.92921" lon="4.86186">
        <ele>339.9</ele>
        <time>2013-07-21T16:27:20.000Z</time>
      </trkpt>
      <trkpt lat="45.92922" lon="4.86195">
        <ele>340.1</ele>
        <time>2013-07-21T16:27:21.000Z</time>
      </trkpt>
      <trkpt lat="45.9292" lon="4.86202">
        <ele>340.7</ele>
        <time>2013-07-21T16:27:22.000Z</time>
      </trkpt>
      <trkpt lat="45.92919" lon="4.8621">
        <ele>341.8</ele>
        <time>2013-07-21T16:27:23.000Z</time>
      </trkpt>
      <trkpt lat="45.92919" lon="4.86217">
        <ele>342.4</ele>
        <time>2013-07-21T16:27:24.000Z</time>
      </trkpt>
      <trkpt lat="45.92918" lon="4.86224">
        <ele>342.7</ele>
        <time>2013-07-21T16:27:25.000Z</time>
      </trkpt>
      <trkpt lat="45.92918" lon="4.86233">
        <ele>342.4</ele>
        <time>2013-07-21T16:27:26.000Z</time>
      </trkpt>
      <trkpt lat="45.92917" lon="4.86241">
        <ele>342.4</ele>
        <time>2013-07-21T16:27:27.000Z</time>
      </trkpt>
      <trkpt lat="45.92917" lon="4.86249">
        <ele>342.6</ele>
        <time>2013-07-21T16:27:28.000Z</time>
      </trkpt>
      <trkpt lat="45.92919" lon="4.86258">
        <ele>341.5</ele>
        <time>2013-07-21T16:27:29.000Z</time>
      </trkpt>
      <trkpt lat="45.92918" lon="4.86265">
        <ele>342.1</ele>
        <time>2013-07-21T16:27:30.000Z</time>
      </trkpt>
      <trkpt lat="45.92918" lon="4.86274">
        <ele>341.3</ele>
        <time>2013-07-21T16:27:31.000Z</time>
      </trkpt>
      <trkpt lat="45.92918" lon="4.86281">
        <ele>341</ele>
        <time>2013-07-21T16:27:32.000Z</time>
      </trkpt>
      <trkpt lat="45.92916" lon="4.86289">
        <ele>340.4</ele>
        <time>2013-07-21T16:27:33.000Z</time>
      </trkpt>
      <trkpt lat="45.92915" lon="4.86295">
        <ele>341.3</ele>
        <time>2013-07-21T16:27:34.000Z</time>
      </trkpt>
      <trkpt lat="45.92915" lon="4.86303">
        <ele>340.9</ele>
        <time>2013-07-21T16:27:35.000Z</time>
      </trkpt>
      <trkpt lat="45.92913" lon="4.8631">
        <ele>341.1</ele>
        <time>2013-07-21T16:27:36.000Z</time>
      </trkpt>
      <trkpt lat="45.92912" lon="4.86316">
        <ele>341.7</ele>
        <time>2013-07-21T16:27:37.000Z</time>
      </trkpt>
      <trkpt lat="45.9291" lon="4.86323">
        <ele>342</ele>
        <time>2013-07-21T16:27:38.000Z</time>
      </trkpt>
      <trkpt lat="45.92908" lon="4.86331">
        <ele>341</ele>
        <time>2013-07-21T16:27:39.000Z</time>
      </trkpt>
      <trkpt lat="45.92907" lon="4.86341">
        <ele>339.1</ele>
        <time>2013-07-21T16:27:40.000Z</time>
      </trkpt>
      <trkpt lat="45.92906" lon="4.8635">
        <ele>338.4</ele>
        <time>2013-07-21T16:27:41.000Z</time>
      </trkpt>
      <trkpt lat="45.92907" lon="4.86354">
        <ele>339.6</ele>
        <time>2013-07-21T16:27:42.000Z</time>
      </trkpt>
      <trkpt lat="45.92906" lon="4.86359">
        <ele>340.1</ele>
        <time>2013-07-21T16:27:43.000Z</time>
      </trkpt>
      <trkpt lat="45.92907" lon="4.86367">
        <ele>339.3</ele>
        <time>2013-07-21T16:27:44.000Z</time>
      </trkpt>
      <trkpt lat="45.92907" lon="4.86373">
        <ele>338.8</ele>
        <time>2013-07-21T16:27:45.000Z</time>
      </trkpt>
      <trkpt lat="45.92906" lon="4.86379">
        <ele>340</ele>
        <time>2013-07-21T16:27:46.000Z</time>
      </trkpt>
      <trkpt lat="45.92904" lon="4.86385">
        <ele>340.8</ele>
        <time>2013-07-21T16:27:47.000Z</time>
      </trkpt>
      <trkpt lat="45.92903" lon="4.86391">
        <ele>341.3</ele>
        <time>2013-07-21T16:27:48.000Z</time>
      </trkpt>
      <trkpt lat="45.92902" lon="4.86397">
        <ele>341</ele>
        <time>2013-07-21T16:27:49.000Z</time>
      </trkpt>
      <trkpt lat="45.92901" lon="4.86403">
        <ele>341</ele>
        <time>2013-07-21T16:27:50.000Z</time>
      </trkpt>
      <trkpt lat="45.92903" lon="4.86414">
        <ele>338.2</ele>
        <time>2013-07-21T16:27:51.000Z</time>
      </trkpt>
      <trkpt lat="45.92904" lon="4.86422">
        <ele>335.9</ele>
        <time>2013-07-21T16:27:52.000Z</time>
      </trkpt>
      <trkpt lat="45.92905" lon="4.86428">
        <ele>336</ele>
        <time>2013-07-21T16:27:53.000Z</time>
      </trkpt>
      <trkpt lat="45.92906" lon="4.86436">
        <ele>335.2</ele>
        <time>2013-07-21T16:27:54.000Z</time>
      </trkpt>
      <trkpt lat="45.92904" lon="4.86441">
        <ele>335.2</ele>
        <time>2013-07-21T16:27:56.000Z</time>
      </trkpt>
      <trkpt lat="45.92901" lon="4.86448">
        <ele>334.7</ele>
        <time>2013-07-21T16:27:57.000Z</time>
      </trkpt>
      <trkpt lat="45.929" lon="4.86455">
        <ele>334</ele>
        <time>2013-07-21T16:27:58.000Z</time>
      </trkpt>
      <trkpt lat="45.92899" lon="4.86459">
        <ele>333.5</ele>
        <time>2013-07-21T16:27:59.000Z</time>
      </trkpt>
      <trkpt lat="45.92897" lon="4.8646">
        <ele>334.8</ele>
        <time>2013-07-21T16:28:00.000Z</time>
      </trkpt>
      <trkpt lat="45.92897" lon="4.86465">
        <ele>334.8</ele>
        <time>2013-07-21T16:28:01.000Z</time>
      </trkpt>
      <trkpt lat="45.92897" lon="4.8647">
        <ele>334.5</ele>
        <time>2013-07-21T16:28:02.000Z</time>
      </trkpt>
      <trkpt lat="45.92897" lon="4.86476">
        <ele>334.3</ele>
        <time>2013-07-21T16:28:03.000Z</time>
      </trkpt>
      <trkpt lat="45.92896" lon="4.86481">
        <ele>334.3</ele>
        <time>2013-07-21T16:28:04.000Z</time>
      </trkpt>
      <trkpt lat="45.92896" lon="4.86485">
        <ele>335.3</ele>
        <time>2013-07-21T16:28:05.000Z</time>
      </trkpt>
      <trkpt lat="45.92896" lon="4.86491">
        <ele>334.5</ele>
        <time>2013-07-21T16:28:06.000Z</time>
      </trkpt>
      <trkpt lat="45.92896" lon="4.86496">
        <ele>334.7</ele>
        <time>2013-07-21T16:28:07.000Z</time>
      </trkpt>
      <trkpt lat="45.92896" lon="4.86502">
        <ele>334.6</ele>
        <time>2013-07-21T16:28:08.000Z</time>
      </trkpt>
      <trkpt lat="45.92895" lon="4.86507">
        <ele>335.5</ele>
        <time>2013-07-21T16:28:09.000Z</time>
      </trkpt>
      <trkpt lat="45.92894" lon="4.86511">
        <ele>335.2</ele>
        <time>2013-07-21T16:28:10.000Z</time>
      </trkpt>
      <trkpt lat="45.92893" lon="4.86515">
        <ele>335.1</ele>
        <time>2013-07-21T16:28:11.000Z</time>
      </trkpt>
      <trkpt lat="45.92891" lon="4.86517">
        <ele>335.4</ele>
        <time>2013-07-21T16:28:12.000Z</time>
      </trkpt>
      <trkpt lat="45.92889" lon="4.86519">
        <ele>335.5</ele>
        <time>2013-07-21T16:28:13.000Z</time>
      </trkpt>
      <trkpt lat="45.92885" lon="4.86518">
        <ele>335.5</ele>
        <time>2013-07-21T16:28:14.000Z</time>
      </trkpt>
      <trkpt lat="45.92881" lon="4.86517">
        <ele>336.4</ele>
        <time>2013-07-21T16:28:15.000Z</time>
      </trkpt>
      <trkpt lat="45.92878" lon="4.86516">
        <ele>337.3</ele>
        <time>2013-07-21T16:28:16.000Z</time>
      </trkpt>
      <trkpt lat="45.92872" lon="4.86513">
        <ele>338.4</ele>
        <time>2013-07-21T16:28:17.000Z</time>
      </trkpt>
      <trkpt lat="45.92867" lon="4.86511">
        <ele>338.9</ele>
        <time>2013-07-21T16:28:18.000Z</time>
      </trkpt>
      <trkpt lat="45.92863" lon="4.8651">
        <ele>338.4</ele>
        <time>2013-07-21T16:28:19.000Z</time>
      </trkpt>
      <trkpt lat="45.92858" lon="4.86509">
        <ele>337.9</ele>
        <time>2013-07-21T16:28:20.000Z</time>
      </trkpt>
      <trkpt lat="45.92854" lon="4.86508">
        <ele>338.5</ele>
        <time>2013-07-21T16:28:21.000Z</time>
      </trkpt>
      <trkpt lat="45.92849" lon="4.86507">
        <ele>338.9</ele>
        <time>2013-07-21T16:28:22.000Z</time>
      </trkpt>
      <trkpt lat="45.92841" lon="4.86506">
        <ele>339.2</ele>
        <time>2013-07-21T16:28:23.000Z</time>
      </trkpt>
      <trkpt lat="45.92836" lon="4.86505">
        <ele>338.8</ele>
        <time>2013-07-21T16:28:24.000Z</time>
      </trkpt>
      <trkpt lat="45.92832" lon="4.86504">
        <ele>339.9</ele>
        <time>2013-07-21T16:28:25.000Z</time>
      </trkpt>
      <trkpt lat="45.92828" lon="4.86503">
        <ele>340.1</ele>
        <time>2013-07-21T16:28:26.000Z</time>
      </trkpt>
      <trkpt lat="45.92823" lon="4.86502">
        <ele>340.9</ele>
        <time>2013-07-21T16:28:27.000Z</time>
      </trkpt>
      <trkpt lat="45.92819" lon="4.86501">
        <ele>340.2</ele>
        <time>2013-07-21T16:28:28.000Z</time>
      </trkpt>
      <trkpt lat="45.92815" lon="4.86501">
        <ele>340.4</ele>
        <time>2013-07-21T16:28:29.000Z</time>
      </trkpt>
      <trkpt lat="45.92809" lon="4.86498">
        <ele>338.6</ele>
        <time>2013-07-21T16:28:30.000Z</time>
      </trkpt>
      <trkpt lat="45.92803" lon="4.86497">
        <ele>339.3</ele>
        <time>2013-07-21T16:28:31.000Z</time>
      </trkpt>
      <trkpt lat="45.92798" lon="4.86495">
        <ele>339.9</ele>
        <time>2013-07-21T16:28:32.000Z</time>
      </trkpt>
      <trkpt lat="45.92793" lon="4.86493">
        <ele>340.2</ele>
        <time>2013-07-21T16:28:33.000Z</time>
      </trkpt>
      <trkpt lat="45.92789" lon="4.86493">
        <ele>340.2</ele>
        <time>2013-07-21T16:28:34.000Z</time>
      </trkpt>
      <trkpt lat="45.92784" lon="4.86491">
        <ele>340.7</ele>
        <time>2013-07-21T16:28:35.000Z</time>
      </trkpt>
      <trkpt lat="45.9278" lon="4.8649">
        <ele>340.8</ele>
        <time>2013-07-21T16:28:36.000Z</time>
      </trkpt>
      <trkpt lat="45.92774" lon="4.86487">
        <ele>341</ele>
        <time>2013-07-21T16:28:37.000Z</time>
      </trkpt>
      <trkpt lat="45.92768" lon="4.86484">
        <ele>340.5</ele>
        <time>2013-07-21T16:28:38.000Z</time>
      </trkpt>
      <trkpt lat="45.92764" lon="4.86482">
        <ele>340.5</ele>
        <time>2013-07-21T16:28:39.000Z</time>
      </trkpt>
      <trkpt lat="45.92759" lon="4.86479">
        <ele>340.5</ele>
        <time>2013-07-21T16:28:40.000Z</time>
      </trkpt>
      <trkpt lat="45.92754" lon="4.86476">
        <ele>340.5</ele>
        <time>2013-07-21T16:28:41.000Z</time>
      </trkpt>
      <trkpt lat="45.92751" lon="4.8647">
        <ele>340.9</ele>
        <time>2013-07-21T16:28:42.000Z</time>
      </trkpt>
      <trkpt lat="45.92746" lon="4.86465">
        <ele>341</ele>
        <time>2013-07-21T16:28:43.000Z</time>
      </trkpt>
      <trkpt lat="45.92743" lon="4.86461">
        <ele>341.6</ele>
        <time>2013-07-21T16:28:44.000Z</time>
      </trkpt>
      <trkpt lat="45.92741" lon="4.86456">
        <ele>341.4</ele>
        <time>2013-07-21T16:28:45.000Z</time>
      </trkpt>
      <trkpt lat="45.92738" lon="4.86451">
        <ele>341.2</ele>
        <time>2013-07-21T16:28:46.000Z</time>
      </trkpt>
      <trkpt lat="45.92736" lon="4.86445">
        <ele>341.6</ele>
        <time>2013-07-21T16:28:47.000Z</time>
      </trkpt>
      <trkpt lat="45.92734" lon="4.86441">
        <ele>340.8</ele>
        <time>2013-07-21T16:28:48.000Z</time>
      </trkpt>
      <trkpt lat="45.92732" lon="4.86436">
        <ele>340.8</ele>
        <time>2013-07-21T16:28:49.000Z</time>
      </trkpt>
      <trkpt lat="45.9273" lon="4.86429">
        <ele>341.1</ele>
        <time>2013-07-21T16:28:50.000Z</time>
      </trkpt>
      <trkpt lat="45.92727" lon="4.86425">
        <ele>340.9</ele>
        <time>2013-07-21T16:28:51.000Z</time>
      </trkpt>
      <trkpt lat="45.92724" lon="4.86418">
        <ele>341.6</ele>
        <time>2013-07-21T16:28:52.000Z</time>
      </trkpt>
      <trkpt lat="45.92722" lon="4.86412">
        <ele>341.8</ele>
        <time>2013-07-21T16:28:53.000Z</time>
      </trkpt>
      <trkpt lat="45.9272" lon="4.86407">
        <ele>342.4</ele>
        <time>2013-07-21T16:28:54.000Z</time>
      </trkpt>
      <trkpt lat="45.92717" lon="4.864">
        <ele>342.4</ele>
        <time>2013-07-21T16:28:55.000Z</time>
      </trkpt>
      <trkpt lat="45.92712" lon="4.86388">
        <ele>341.8</ele>
        <time>2013-07-21T16:28:56.900Z</time>
      </trkpt>
      <trkpt lat="45.92709" lon="4.86384">
        <ele>341.6</ele>
        <time>2013-07-21T16:28:58.000Z</time>
      </trkpt>
      <trkpt lat="45.92707" lon="4.86379">
        <ele>341.5</ele>
        <time>2013-07-21T16:28:59.000Z</time>
      </trkpt>
      <trkpt lat="45.92704" lon="4.86372">
        <ele>340.8</ele>
        <time>2013-07-21T16:29:00.000Z</time>
      </trkpt>
      <trkpt lat="45.92703" lon="4.86364">
        <ele>340.9</ele>
        <time>2013-07-21T16:29:01.000Z</time>
      </trkpt>
      <trkpt lat="45.92701" lon="4.86357">
        <ele>339.8</ele>
        <time>2013-07-21T16:29:02.000Z</time>
      </trkpt>
      <trkpt lat="45.92698" lon="4.86351">
        <ele>340.4</ele>
        <time>2013-07-21T16:29:03.000Z</time>
      </trkpt>
      <trkpt lat="45.92696" lon="4.86344">
        <ele>341</ele>
        <time>2013-07-21T16:29:04.000Z</time>
      </trkpt>
      <trkpt lat="45.92693" lon="4.86337">
        <ele>341</ele>
        <time>2013-07-21T16:29:05.000Z</time>
      </trkpt>
      <trkpt lat="45.92691" lon="4.86331">
        <ele>341.6</ele>
        <time>2013-07-21T16:29:06.000Z</time>
      </trkpt>
      <trkpt lat="45.92689" lon="4.86325">
        <ele>340.9</ele>
        <time>2013-07-21T16:29:07.000Z</time>
      </trkpt>
      <trkpt lat="45.92686" lon="4.86319">
        <ele>340.6</ele>
        <time>2013-07-21T16:29:08.000Z</time>
      </trkpt>
      <trkpt lat="45.92682" lon="4.86313">
        <ele>340.4</ele>
        <time>2013-07-21T16:29:09.000Z</time>
      </trkpt>
      <trkpt lat="45.92678" lon="4.8631">
        <ele>340.2</ele>
        <time>2013-07-21T16:29:10.000Z</time>
      </trkpt>
      <trkpt lat="45.92674" lon="4.86304">
        <ele>339.4</ele>
        <time>2013-07-21T16:29:11.000Z</time>
      </trkpt>
      <trkpt lat="45.92668" lon="4.86301">
        <ele>339.2</ele>
        <time>2013-07-21T16:29:12.000Z</time>
      </trkpt>
      <trkpt lat="45.92664" lon="4.86297">
        <ele>340.3</ele>
        <time>2013-07-21T16:29:13.000Z</time>
      </trkpt>
      <trkpt lat="45.9266" lon="4.86294">
        <ele>340.7</ele>
        <time>2013-07-21T16:29:14.000Z</time>
      </trkpt>
      <trkpt lat="45.92656" lon="4.86292">
        <ele>341.4</ele>
        <time>2013-07-21T16:29:15.000Z</time>
      </trkpt>
      <trkpt lat="45.92652" lon="4.8629">
        <ele>341.6</ele>
        <time>2013-07-21T16:29:16.000Z</time>
      </trkpt>
      <trkpt lat="45.92649" lon="4.86289">
        <ele>341.7</ele>
        <time>2013-07-21T16:29:17.000Z</time>
      </trkpt>
      <trkpt lat="45.92645" lon="4.86287">
        <ele>341.7</ele>
        <time>2013-07-21T16:29:18.000Z</time>
      </trkpt>
      <trkpt lat="45.92642" lon="4.86286">
        <ele>342.1</ele>
        <time>2013-07-21T16:29:19.000Z</time>
      </trkpt>
      <trkpt lat="45.9264" lon="4.86286">
        <ele>342</ele>
        <time>2013-07-21T16:29:20.000Z</time>
      </trkpt>
      <trkpt lat="45.92636" lon="4.86284">
        <ele>341.5</ele>
        <time>2013-07-21T16:29:21.000Z</time>
      </trkpt>
      <trkpt lat="45.92631" lon="4.86281">
        <ele>341</ele>
        <time>2013-07-21T16:29:22.000Z</time>
      </trkpt>
      <trkpt lat="45.92628" lon="4.86279">
        <ele>342.5</ele>
        <time>2013-07-21T16:29:23.000Z</time>
      </trkpt>
      <trkpt lat="45.92626" lon="4.86276">
        <ele>346.3</ele>
        <time>2013-07-21T16:29:24.000Z</time>
      </trkpt>
      <trkpt lat="45.92622" lon="4.86275">
        <ele>348</ele>
        <time>2013-07-21T16:29:25.000Z</time>
      </trkpt>
      <trkpt lat="45.92618" lon="4.86274">
        <ele>347.2</ele>
        <time>2013-07-21T16:29:26.000Z</time>
      </trkpt>
      <trkpt lat="45.92615" lon="4.86272">
        <ele>346.9</ele>
        <time>2013-07-21T16:29:27.000Z</time>
      </trkpt>
      <trkpt lat="45.92611" lon="4.86271">
        <ele>347.8</ele>
        <time>2013-07-21T16:29:28.000Z</time>
      </trkpt>
      <trkpt lat="45.92607" lon="4.86269">
        <ele>347.7</ele>
        <time>2013-07-21T16:29:29.000Z</time>
      </trkpt>
      <trkpt lat="45.92604" lon="4.86268">
        <ele>345.8</ele>
        <time>2013-07-21T16:29:30.000Z</time>
      </trkpt>
      <trkpt lat="45.926" lon="4.86266">
        <ele>346.1</ele>
        <time>2013-07-21T16:29:31.000Z</time>
      </trkpt>
      <trkpt lat="45.92596" lon="4.86264">
        <ele>346.4</ele>
        <time>2013-07-21T16:29:32.000Z</time>
      </trkpt>
      <trkpt lat="45.92594" lon="4.8626">
        <ele>345.3</ele>
        <time>2013-07-21T16:29:33.000Z</time>
      </trkpt>
      <trkpt lat="45.92591" lon="4.86257">
        <ele>345.4</ele>
        <time>2013-07-21T16:29:34.000Z</time>
      </trkpt>
      <trkpt lat="45.92588" lon="4.86253">
        <ele>345.8</ele>
        <time>2013-07-21T16:29:35.000Z</time>
      </trkpt>
      <trkpt lat="45.92586" lon="4.86249">
        <ele>346.2</ele>
        <time>2013-07-21T16:29:36.000Z</time>
      </trkpt>
      <trkpt lat="45.92585" lon="4.86244">
        <ele>346.7</ele>
        <time>2013-07-21T16:29:37.000Z</time>
      </trkpt>
      <trkpt lat="45.92585" lon="4.8624">
        <ele>347.3</ele>
        <time>2013-07-21T16:29:38.000Z</time>
      </trkpt>
      <trkpt lat="45.92585" lon="4.86235">
        <ele>347.3</ele>
        <time>2013-07-21T16:29:39.000Z</time>
      </trkpt>
      <trkpt lat="45.92586" lon="4.8623">
        <ele>346.7</ele>
        <time>2013-07-21T16:29:40.000Z</time>
      </trkpt>
      <trkpt lat="45.92587" lon="4.86225">
        <ele>344.8</ele>
        <time>2013-07-21T16:29:41.000Z</time>
      </trkpt>
      <trkpt lat="45.92587" lon="4.8622">
        <ele>344.3</ele>
        <time>2013-07-21T16:29:42.000Z</time>
      </trkpt>
      <trkpt lat="45.92587" lon="4.86215">
        <ele>344.4</ele>
        <time>2013-07-21T16:29:43.000Z</time>
      </trkpt>
      <trkpt lat="45.92588" lon="4.86209">
        <ele>344.6</ele>
        <time>2013-07-21T16:29:44.000Z</time>
      </trkpt>
      <trkpt lat="45.92588" lon="4.86203">
        <ele>344.9</ele>
        <time>2013-07-21T16:29:45.000Z</time>
      </trkpt>
      <trkpt lat="45.92588" lon="4.86197">
        <ele>344.6</ele>
        <time>2013-07-21T16:29:46.000Z</time>
      </trkpt>
      <trkpt lat="45.92588" lon="4.86191">
        <ele>344.9</ele>
        <time>2013-07-21T16:29:47.000Z</time>
      </trkpt>
      <trkpt lat="45.92588" lon="4.86184">
        <ele>344.6</ele>
        <time>2013-07-21T16:29:48.000Z</time>
      </trkpt>
      <trkpt lat="45.92587" lon="4.86178">
        <ele>344</ele>
        <time>2013-07-21T16:29:49.000Z</time>
      </trkpt>
      <trkpt lat="45.92587" lon="4.86171">
        <ele>343.9</ele>
        <time>2013-07-21T16:29:50.000Z</time>
      </trkpt>
      <trkpt lat="45.92584" lon="4.86157">
        <ele>344.2</ele>
        <time>2013-07-21T16:29:51.000Z</time>
      </trkpt>
      <trkpt lat="45.92585" lon="4.86145">
        <ele>345.5</ele>
        <time>2013-07-21T16:29:52.000Z</time>
      </trkpt>
      <trkpt lat="45.92585" lon="4.86136">
        <ele>345.8</ele>
        <time>2013-07-21T16:29:53.000Z</time>
      </trkpt>
      <trkpt lat="45.92585" lon="4.86127">
        <ele>345.8</ele>
        <time>2013-07-21T16:29:54.000Z</time>
      </trkpt>
      <trkpt lat="45.92585" lon="4.8612">
        <ele>346</ele>
        <time>2013-07-21T16:29:55.000Z</time>
      </trkpt>
      <trkpt lat="45.92584" lon="4.86111">
        <ele>344.8</ele>
        <time>2013-07-21T16:29:56.024Z</time>
      </trkpt>
      <trkpt lat="45.92582" lon="4.86106">
        <ele>344</ele>
        <time>2013-07-21T16:29:57.000Z</time>
      </trkpt>
      <trkpt lat="45.92583" lon="4.86098">
        <ele>343.8</ele>
        <time>2013-07-21T16:29:58.000Z</time>
      </trkpt>
      <trkpt lat="45.92585" lon="4.86089">
        <ele>343.7</ele>
        <time>2013-07-21T16:29:59.000Z</time>
      </trkpt>
      <trkpt lat="45.92584" lon="4.86082">
        <ele>344.2</ele>
        <time>2013-07-21T16:30:00.000Z</time>
      </trkpt>
      <trkpt lat="45.92584" lon="4.86074">
        <ele>344.5</ele>
        <time>2013-07-21T16:30:01.000Z</time>
      </trkpt>
      <trkpt lat="45.92584" lon="4.86066">
        <ele>343</ele>
        <time>2013-07-21T16:30:02.000Z</time>
      </trkpt>
      <trkpt lat="45.92585" lon="4.86059">
        <ele>343.3</ele>
        <time>2013-07-21T16:30:03.000Z</time>
      </trkpt>
      <trkpt lat="45.92586" lon="4.86051">
        <ele>343.1</ele>
        <time>2013-07-21T16:30:04.000Z</time>
      </trkpt>
      <trkpt lat="45.92586" lon="4.86043">
        <ele>343.7</ele>
        <time>2013-07-21T16:30:05.000Z</time>
      </trkpt>
      <trkpt lat="45.92586" lon="4.86035">
        <ele>343.6</ele>
        <time>2013-07-21T16:30:06.000Z</time>
      </trkpt>
      <trkpt lat="45.92586" lon="4.86027">
        <ele>343.3</ele>
        <time>2013-07-21T16:30:07.000Z</time>
      </trkpt>
      <trkpt lat="45.92587" lon="4.86018">
        <ele>343.8</ele>
        <time>2013-07-21T16:30:08.000Z</time>
      </trkpt>
      <trkpt lat="45.92587" lon="4.86009">
        <ele>344</ele>
        <time>2013-07-21T16:30:09.000Z</time>
      </trkpt>
      <trkpt lat="45.92587" lon="4.86">
        <ele>343.8</ele>
        <time>2013-07-21T16:30:10.000Z</time>
      </trkpt>
      <trkpt lat="45.92587" lon="4.85992">
        <ele>343.9</ele>
        <time>2013-07-21T16:30:11.000Z</time>
      </trkpt>
      <trkpt lat="45.92587" lon="4.85984">
        <ele>343.8</ele>
        <time>2013-07-21T16:30:12.000Z</time>
      </trkpt>
      <trkpt lat="45.92586" lon="4.85978">
        <ele>344.5</ele>
        <time>2013-07-21T16:30:13.000Z</time>
      </trkpt>
      <trkpt lat="45.92587" lon="4.85972">
        <ele>343.7</ele>
        <time>2013-07-21T16:30:14.000Z</time>
      </trkpt>
      <trkpt lat="45.92587" lon="4.85965">
        <ele>343.6</ele>
        <time>2013-07-21T16:30:15.000Z</time>
      </trkpt>
      <trkpt lat="45.92589" lon="4.85958">
        <ele>344.1</ele>
        <time>2013-07-21T16:30:16.000Z</time>
      </trkpt>
      <trkpt lat="45.92589" lon="4.85948">
        <ele>344.8</ele>
        <time>2013-07-21T16:30:17.000Z</time>
      </trkpt>
      <trkpt lat="45.92589" lon="4.85941">
        <ele>344.8</ele>
        <time>2013-07-21T16:30:18.000Z</time>
      </trkpt>
      <trkpt lat="45.9259" lon="4.85935">
        <ele>343.9</ele>
        <time>2013-07-21T16:30:19.000Z</time>
      </trkpt>
      <trkpt lat="45.92591" lon="4.85927">
        <ele>343.4</ele>
        <time>2013-07-21T16:30:20.000Z</time>
      </trkpt>
      <trkpt lat="45.92592" lon="4.85921">
        <ele>344</ele>
        <time>2013-07-21T16:30:21.000Z</time>
      </trkpt>
      <trkpt lat="45.92592" lon="4.85913">
        <ele>344.4</ele>
        <time>2013-07-21T16:30:22.000Z</time>
      </trkpt>
      <trkpt lat="45.92593" lon="4.85905">
        <ele>344.3</ele>
        <time>2013-07-21T16:30:23.000Z</time>
      </trkpt>
      <trkpt lat="45.92593" lon="4.85897">
        <ele>344.1</ele>
        <time>2013-07-21T16:30:24.000Z</time>
      </trkpt>
      <trkpt lat="45.92593" lon="4.85888">
        <ele>343.9</ele>
        <time>2013-07-21T16:30:25.000Z</time>
      </trkpt>
      <trkpt lat="45.92595" lon="4.8588">
        <ele>343.7</ele>
        <time>2013-07-21T16:30:26.000Z</time>
      </trkpt>
      <trkpt lat="45.92595" lon="4.85872">
        <ele>342.9</ele>
        <time>2013-07-21T16:30:27.000Z</time>
      </trkpt>
      <trkpt lat="45.92595" lon="4.85865">
        <ele>342.9</ele>
        <time>2013-07-21T16:30:28.000Z</time>
      </trkpt>
      <trkpt lat="45.92597" lon="4.85857">
        <ele>342.6</ele>
        <time>2013-07-21T16:30:29.000Z</time>
      </trkpt>
      <trkpt lat="45.92597" lon="4.85848">
        <ele>342.3</ele>
        <time>2013-07-21T16:30:30.000Z</time>
      </trkpt>
      <trkpt lat="45.92596" lon="4.85841">
        <ele>341.9</ele>
        <time>2013-07-21T16:30:31.000Z</time>
      </trkpt>
      <trkpt lat="45.92596" lon="4.85833">
        <ele>341.9</ele>
        <time>2013-07-21T16:30:32.000Z</time>
      </trkpt>
      <trkpt lat="45.92596" lon="4.85824">
        <ele>341.9</ele>
        <time>2013-07-21T16:30:33.000Z</time>
      </trkpt>
      <trkpt lat="45.92599" lon="4.85817">
        <ele>342.8</ele>
        <time>2013-07-21T16:30:34.000Z</time>
      </trkpt>
      <trkpt lat="45.92601" lon="4.85807">
        <ele>342.3</ele>
        <time>2013-07-21T16:30:35.000Z</time>
      </trkpt>
      <trkpt lat="45.926" lon="4.85802">
        <ele>343.2</ele>
        <time>2013-07-21T16:30:36.000Z</time>
      </trkpt>
      <trkpt lat="45.926" lon="4.85795">
        <ele>343.2</ele>
        <time>2013-07-21T16:30:37.000Z</time>
      </trkpt>
      <trkpt lat="45.92599" lon="4.8579">
        <ele>342.7</ele>
        <time>2013-07-21T16:30:38.000Z</time>
      </trkpt>
      <trkpt lat="45.926" lon="4.85784">
        <ele>343</ele>
        <time>2013-07-21T16:30:39.000Z</time>
      </trkpt>
      <trkpt lat="45.92599" lon="4.85777">
        <ele>344.1</ele>
        <time>2013-07-21T16:30:40.000Z</time>
      </trkpt>
      <trkpt lat="45.92598" lon="4.85772">
        <ele>344.1</ele>
        <time>2013-07-21T16:30:41.000Z</time>
      </trkpt>
      <trkpt lat="45.92595" lon="4.85766">
        <ele>342.9</ele>
        <time>2013-07-21T16:30:42.000Z</time>
      </trkpt>
      <trkpt lat="45.92593" lon="4.8576">
        <ele>342.8</ele>
        <time>2013-07-21T16:30:43.000Z</time>
      </trkpt>
      <trkpt lat="45.92591" lon="4.85754">
        <ele>343.1</ele>
        <time>2013-07-21T16:30:44.000Z</time>
      </trkpt>
      <trkpt lat="45.92589" lon="4.85746">
        <ele>343</ele>
        <time>2013-07-21T16:30:45.000Z</time>
      </trkpt>
      <trkpt lat="45.92587" lon="4.8574">
        <ele>343.5</ele>
        <time>2013-07-21T16:30:46.000Z</time>
      </trkpt>
      <trkpt lat="45.92584" lon="4.85733">
        <ele>343.4</ele>
        <time>2013-07-21T16:30:47.000Z</time>
      </trkpt>
      <trkpt lat="45.92582" lon="4.85725">
        <ele>344.4</ele>
        <time>2013-07-21T16:30:48.000Z</time>
      </trkpt>
      <trkpt lat="45.9258" lon="4.85718">
        <ele>344.4</ele>
        <time>2013-07-21T16:30:49.000Z</time>
      </trkpt>
      <trkpt lat="45.92576" lon="4.85713">
        <ele>345.1</ele>
        <time>2013-07-21T16:30:50.000Z</time>
      </trkpt>
      <trkpt lat="45.92574" lon="4.85705">
        <ele>344.9</ele>
        <time>2013-07-21T16:30:51.000Z</time>
      </trkpt>
      <trkpt lat="45.92572" lon="4.85699">
        <ele>344.8</ele>
        <time>2013-07-21T16:30:52.000Z</time>
      </trkpt>
      <trkpt lat="45.9257" lon="4.85692">
        <ele>344.7</ele>
        <time>2013-07-21T16:30:53.000Z</time>
      </trkpt>
      <trkpt lat="45.92568" lon="4.85687">
        <ele>344.2</ele>
        <time>2013-07-21T16:30:54.000Z</time>
      </trkpt>
      <trkpt lat="45.92566" lon="4.85681">
        <ele>344.3</ele>
        <time>2013-07-21T16:30:55.000Z</time>
      </trkpt>
      <trkpt lat="45.92564" lon="4.85675">
        <ele>344.3</ele>
        <time>2013-07-21T16:30:56.000Z</time>
      </trkpt>
      <trkpt lat="45.92564" lon="4.8567">
        <ele>344.4</ele>
        <time>2013-07-21T16:30:58.000Z</time>
      </trkpt>
      <trkpt lat="45.92564" lon="4.85663">
        <ele>344.4</ele>
        <time>2013-07-21T16:30:59.000Z</time>
      </trkpt>
      <trkpt lat="45.92563" lon="4.85657">
        <ele>343.7</ele>
        <time>2013-07-21T16:31:00.000Z</time>
      </trkpt>
      <trkpt lat="45.92562" lon="4.85651">
        <ele>343.6</ele>
        <time>2013-07-21T16:31:01.000Z</time>
      </trkpt>
      <trkpt lat="45.92561" lon="4.85645">
        <ele>343.6</ele>
        <time>2013-07-21T16:31:02.000Z</time>
      </trkpt>
      <trkpt lat="45.92561" lon="4.85638">
        <ele>344.8</ele>
        <time>2013-07-21T16:31:03.000Z</time>
      </trkpt>
      <trkpt lat="45.9256" lon="4.85631">
        <ele>345.2</ele>
        <time>2013-07-21T16:31:04.000Z</time>
      </trkpt>
      <trkpt lat="45.92559" lon="4.85624">
        <ele>345.6</ele>
        <time>2013-07-21T16:31:05.000Z</time>
      </trkpt>
      <trkpt lat="45.92558" lon="4.85618">
        <ele>345.2</ele>
        <time>2013-07-21T16:31:06.000Z</time>
      </trkpt>
      <trkpt lat="45.92558" lon="4.85611">
        <ele>345.4</ele>
        <time>2013-07-21T16:31:07.000Z</time>
      </trkpt>
      <trkpt lat="45.92558" lon="4.85605">
        <ele>346</ele>
        <time>2013-07-21T16:31:08.000Z</time>
      </trkpt>
      <trkpt lat="45.92557" lon="4.85599">
        <ele>345.3</ele>
        <time>2013-07-21T16:31:09.000Z</time>
      </trkpt>
      <trkpt lat="45.92556" lon="4.85593">
        <ele>345.4</ele>
        <time>2013-07-21T16:31:10.000Z</time>
      </trkpt>
      <trkpt lat="45.92557" lon="4.85587">
        <ele>345.4</ele>
        <time>2013-07-21T16:31:11.000Z</time>
      </trkpt>
      <trkpt lat="45.92556" lon="4.8558">
        <ele>345.3</ele>
        <time>2013-07-21T16:31:12.000Z</time>
      </trkpt>
      <trkpt lat="45.92556" lon="4.85574">
        <ele>345.3</ele>
        <time>2013-07-21T16:31:13.000Z</time>
      </trkpt>
      <trkpt lat="45.92555" lon="4.85568">
        <ele>344.5</ele>
        <time>2013-07-21T16:31:14.000Z</time>
      </trkpt>
      <trkpt lat="45.92553" lon="4.85562">
        <ele>345</ele>
        <time>2013-07-21T16:31:15.000Z</time>
      </trkpt>
      <trkpt lat="45.92552" lon="4.85556">
        <ele>345.7</ele>
        <time>2013-07-21T16:31:16.000Z</time>
      </trkpt>
      <trkpt lat="45.9255" lon="4.85553">
        <ele>345</ele>
        <time>2013-07-21T16:31:17.000Z</time>
      </trkpt>
      <trkpt lat="45.92552" lon="4.85542">
        <ele>342</ele>
        <time>2013-07-21T16:31:18.000Z</time>
      </trkpt>
      <trkpt lat="45.92552" lon="4.85535">
        <ele>340.6</ele>
        <time>2013-07-21T16:31:19.000Z</time>
      </trkpt>
      <trkpt lat="45.9255" lon="4.8553">
        <ele>341</ele>
        <time>2013-07-21T16:31:20.000Z</time>
      </trkpt>
      <trkpt lat="45.92549" lon="4.85525">
        <ele>340.3</ele>
        <time>2013-07-21T16:31:21.000Z</time>
      </trkpt>
      <trkpt lat="45.92548" lon="4.85518">
        <ele>340.2</ele>
        <time>2013-07-21T16:31:22.000Z</time>
      </trkpt>
      <trkpt lat="45.92545" lon="4.85511">
        <ele>340.7</ele>
        <time>2013-07-21T16:31:23.000Z</time>
      </trkpt>
      <trkpt lat="45.92544" lon="4.85503">
        <ele>339.6</ele>
        <time>2013-07-21T16:31:24.000Z</time>
      </trkpt>
      <trkpt lat="45.92544" lon="4.85496">
        <ele>340</ele>
        <time>2013-07-21T16:31:25.000Z</time>
      </trkpt>
      <trkpt lat="45.92543" lon="4.8549">
        <ele>340.3</ele>
        <time>2013-07-21T16:31:26.000Z</time>
      </trkpt>
      <trkpt lat="45.92542" lon="4.85484">
        <ele>340.6</ele>
        <time>2013-07-21T16:31:27.000Z</time>
      </trkpt>
      <trkpt lat="45.92541" lon="4.85478">
        <ele>340.6</ele>
        <time>2013-07-21T16:31:28.000Z</time>
      </trkpt>
      <trkpt lat="45.92541" lon="4.85471">
        <ele>340.7</ele>
        <time>2013-07-21T16:31:29.000Z</time>
      </trkpt>
      <trkpt lat="45.92539" lon="4.85465">
        <ele>340.8</ele>
        <time>2013-07-21T16:31:30.000Z</time>
      </trkpt>
      <trkpt lat="45.92537" lon="4.85459">
        <ele>341.2</ele>
        <time>2013-07-21T16:31:31.000Z</time>
      </trkpt>
      <trkpt lat="45.92536" lon="4.85453">
        <ele>341.6</ele>
        <time>2013-07-21T16:31:32.000Z</time>
      </trkpt>
      <trkpt lat="45.92532" lon="4.85447">
        <ele>341.8</ele>
        <time>2013-07-21T16:31:33.000Z</time>
      </trkpt>
      <trkpt lat="45.9253" lon="4.85442">
        <ele>341.9</ele>
        <time>2013-07-21T16:31:34.000Z</time>
      </trkpt>
      <trkpt lat="45.92527" lon="4.85437">
        <ele>341.9</ele>
        <time>2013-07-21T16:31:35.000Z</time>
      </trkpt>
      <trkpt lat="45.92524" lon="4.8543">
        <ele>342.1</ele>
        <time>2013-07-21T16:31:36.000Z</time>
      </trkpt>
      <trkpt lat="45.92522" lon="4.85426">
        <ele>341.8</ele>
        <time>2013-07-21T16:31:37.000Z</time>
      </trkpt>
      <trkpt lat="45.92519" lon="4.8542">
        <ele>341.8</ele>
        <time>2013-07-21T16:31:38.000Z</time>
      </trkpt>
      <trkpt lat="45.92516" lon="4.85413">
        <ele>341.7</ele>
        <time>2013-07-21T16:31:39.000Z</time>
      </trkpt>
      <trkpt lat="45.92513" lon="4.85407">
        <ele>341.3</ele>
        <time>2013-07-21T16:31:40.000Z</time>
      </trkpt>
      <trkpt lat="45.92511" lon="4.85401">
        <ele>341.2</ele>
        <time>2013-07-21T16:31:41.000Z</time>
      </trkpt>
      <trkpt lat="45.92507" lon="4.85392">
        <ele>341</ele>
        <time>2013-07-21T16:31:42.000Z</time>
      </trkpt>
      <trkpt lat="45.92504" lon="4.85386">
        <ele>341.2</ele>
        <time>2013-07-21T16:31:43.000Z</time>
      </trkpt>
      <trkpt lat="45.92502" lon="4.8538">
        <ele>341.2</ele>
        <time>2013-07-21T16:31:44.000Z</time>
      </trkpt>
      <trkpt lat="45.92498" lon="4.85373">
        <ele>340.8</ele>
        <time>2013-07-21T16:31:45.000Z</time>
      </trkpt>
      <trkpt lat="45.92498" lon="4.85368">
        <ele>340</ele>
        <time>2013-07-21T16:31:46.000Z</time>
      </trkpt>
      <trkpt lat="45.92496" lon="4.85362">
        <ele>339.8</ele>
        <time>2013-07-21T16:31:47.000Z</time>
      </trkpt>
      <trkpt lat="45.92494" lon="4.85355">
        <ele>339.5</ele>
        <time>2013-07-21T16:31:48.000Z</time>
      </trkpt>
      <trkpt lat="45.92492" lon="4.85348">
        <ele>340.6</ele>
        <time>2013-07-21T16:31:49.000Z</time>
      </trkpt>
      <trkpt lat="45.92489" lon="4.85343">
        <ele>340.6</ele>
        <time>2013-07-21T16:31:50.000Z</time>
      </trkpt>
      <trkpt lat="45.92486" lon="4.85338">
        <ele>340.8</ele>
        <time>2013-07-21T16:31:51.000Z</time>
      </trkpt>
      <trkpt lat="45.92482" lon="4.85331">
        <ele>341.2</ele>
        <time>2013-07-21T16:31:52.000Z</time>
      </trkpt>
      <trkpt lat="45.92478" lon="4.85326">
        <ele>341.4</ele>
        <time>2013-07-21T16:31:53.000Z</time>
      </trkpt>
      <trkpt lat="45.92475" lon="4.8532">
        <ele>341.4</ele>
        <time>2013-07-21T16:31:54.000Z</time>
      </trkpt>
      <trkpt lat="45.92473" lon="4.85314">
        <ele>341.7</ele>
        <time>2013-07-21T16:31:55.000Z</time>
      </trkpt>
      <trkpt lat="45.92469" lon="4.85307">
        <ele>341.8</ele>
        <time>2013-07-21T16:31:56.069Z</time>
      </trkpt>
      <trkpt lat="45.92467" lon="4.85302">
        <ele>341.8</ele>
        <time>2013-07-21T16:31:57.000Z</time>
      </trkpt>
      <trkpt lat="45.92463" lon="4.85297">
        <ele>341.6</ele>
        <time>2013-07-21T16:31:58.000Z</time>
      </trkpt>
      <trkpt lat="45.9246" lon="4.85292">
        <ele>341.6</ele>
        <time>2013-07-21T16:31:59.000Z</time>
      </trkpt>
      <trkpt lat="45.92458" lon="4.85286">
        <ele>341.6</ele>
        <time>2013-07-21T16:32:00.000Z</time>
      </trkpt>
      <trkpt lat="45.92454" lon="4.85281">
        <ele>341.8</ele>
        <time>2013-07-21T16:32:01.000Z</time>
      </trkpt>
      <trkpt lat="45.92452" lon="4.85276">
        <ele>342.1</ele>
        <time>2013-07-21T16:32:02.000Z</time>
      </trkpt>
      <trkpt lat="45.92449" lon="4.85272">
        <ele>342.3</ele>
        <time>2013-07-21T16:32:03.000Z</time>
      </trkpt>
      <trkpt lat="45.92444" lon="4.85265">
        <ele>343.2</ele>
        <time>2013-07-21T16:32:04.000Z</time>
      </trkpt>
      <trkpt lat="45.92441" lon="4.8526">
        <ele>343.4</ele>
        <time>2013-07-21T16:32:05.000Z</time>
      </trkpt>
      <trkpt lat="45.92438" lon="4.85255">
        <ele>343.1</ele>
        <time>2013-07-21T16:32:06.000Z</time>
      </trkpt>
      <trkpt lat="45.92434" lon="4.85249">
        <ele>342.5</ele>
        <time>2013-07-21T16:32:07.000Z</time>
      </trkpt>
      <trkpt lat="45.92431" lon="4.85243">
        <ele>343.1</ele>
        <time>2013-07-21T16:32:08.000Z</time>
      </trkpt>
      <trkpt lat="45.92428" lon="4.85237">
        <ele>343.3</ele>
        <time>2013-07-21T16:32:09.000Z</time>
      </trkpt>
      <trkpt lat="45.92425" lon="4.85231">
        <ele>342.5</ele>
        <time>2013-07-21T16:32:10.000Z</time>
      </trkpt>
      <trkpt lat="45.92422" lon="4.85224">
        <ele>342.4</ele>
        <time>2013-07-21T16:32:11.000Z</time>
      </trkpt>
      <trkpt lat="45.92419" lon="4.85218">
        <ele>343.1</ele>
        <time>2013-07-21T16:32:12.000Z</time>
      </trkpt>
      <trkpt lat="45.92416" lon="4.85212">
        <ele>343.4</ele>
        <time>2013-07-21T16:32:13.000Z</time>
      </trkpt>
      <trkpt lat="45.92413" lon="4.85206">
        <ele>342.5</ele>
        <time>2013-07-21T16:32:14.000Z</time>
      </trkpt>
      <trkpt lat="45.9241" lon="4.85201">
        <ele>342.3</ele>
        <time>2013-07-21T16:32:15.000Z</time>
      </trkpt>
      <trkpt lat="45.92406" lon="4.85195">
        <ele>342.2</ele>
        <time>2013-07-21T16:32:16.000Z</time>
      </trkpt>
      <trkpt lat="45.92404" lon="4.8519">
        <ele>342.2</ele>
        <time>2013-07-21T16:32:17.000Z</time>
      </trkpt>
      <trkpt lat="45.92401" lon="4.85185">
        <ele>342</ele>
        <time>2013-07-21T16:32:18.000Z</time>
      </trkpt>
      <trkpt lat="45.92398" lon="4.8518">
        <ele>342.2</ele>
        <time>2013-07-21T16:32:19.000Z</time>
      </trkpt>
      <trkpt lat="45.92396" lon="4.85175">
        <ele>342.4</ele>
        <time>2013-07-21T16:32:20.000Z</time>
      </trkpt>
      <trkpt lat="45.92393" lon="4.8517">
        <ele>342.3</ele>
        <time>2013-07-21T16:32:21.000Z</time>
      </trkpt>
      <trkpt lat="45.92391" lon="4.85166">
        <ele>340.8</ele>
        <time>2013-07-21T16:32:22.000Z</time>
      </trkpt>
      <trkpt lat="45.92388" lon="4.85162">
        <ele>340.5</ele>
        <time>2013-07-21T16:32:23.000Z</time>
      </trkpt>
      <trkpt lat="45.92385" lon="4.85158">
        <ele>341.1</ele>
        <time>2013-07-21T16:32:24.000Z</time>
      </trkpt>
      <trkpt lat="45.92382" lon="4.85154">
        <ele>341.1</ele>
        <time>2013-07-21T16:32:25.000Z</time>
      </trkpt>
      <trkpt lat="45.92379" lon="4.85147">
        <ele>339.9</ele>
        <time>2013-07-21T16:32:26.000Z</time>
      </trkpt>
      <trkpt lat="45.92376" lon="4.85141">
        <ele>339.7</ele>
        <time>2013-07-21T16:32:27.000Z</time>
      </trkpt>
      <trkpt lat="45.92374" lon="4.85135">
        <ele>340</ele>
        <time>2013-07-21T16:32:28.000Z</time>
      </trkpt>
      <trkpt lat="45.92371" lon="4.85132">
        <ele>340.4</ele>
        <time>2013-07-21T16:32:29.000Z</time>
      </trkpt>
      <trkpt lat="45.92368" lon="4.85125">
        <ele>340</ele>
        <time>2013-07-21T16:32:30.000Z</time>
      </trkpt>
      <trkpt lat="45.92365" lon="4.85117">
        <ele>339</ele>
        <time>2013-07-21T16:32:31.000Z</time>
      </trkpt>
      <trkpt lat="45.92363" lon="4.85111">
        <ele>338.7</ele>
        <time>2013-07-21T16:32:32.000Z</time>
      </trkpt>
      <trkpt lat="45.9236" lon="4.85105">
        <ele>338.8</ele>
        <time>2013-07-21T16:32:33.000Z</time>
      </trkpt>
      <trkpt lat="45.92358" lon="4.85099">
        <ele>338.5</ele>
        <time>2013-07-21T16:32:34.000Z</time>
      </trkpt>
      <trkpt lat="45.92355" lon="4.85092">
        <ele>338.4</ele>
        <time>2013-07-21T16:32:35.000Z</time>
      </trkpt>
      <trkpt lat="45.92352" lon="4.85085">
        <ele>338</ele>
        <time>2013-07-21T16:32:36.000Z</time>
      </trkpt>
      <trkpt lat="45.92348" lon="4.85079">
        <ele>337.5</ele>
        <time>2013-07-21T16:32:37.000Z</time>
      </trkpt>
      <trkpt lat="45.92344" lon="4.85073">
        <ele>337.4</ele>
        <time>2013-07-21T16:32:38.000Z</time>
      </trkpt>
      <trkpt lat="45.9234" lon="4.85066">
        <ele>337.3</ele>
        <time>2013-07-21T16:32:39.000Z</time>
      </trkpt>
      <trkpt lat="45.92336" lon="4.8506">
        <ele>337.3</ele>
        <time>2013-07-21T16:32:40.000Z</time>
      </trkpt>
      <trkpt lat="45.92331" lon="4.85055">
        <ele>336.7</ele>
        <time>2013-07-21T16:32:41.000Z</time>
      </trkpt>
      <trkpt lat="45.92326" lon="4.85052">
        <ele>336.8</ele>
        <time>2013-07-21T16:32:42.000Z</time>
      </trkpt>
      <trkpt lat="45.92323" lon="4.85047">
        <ele>336.8</ele>
        <time>2013-07-21T16:32:43.000Z</time>
      </trkpt>
      <trkpt lat="45.92318" lon="4.85042">
        <ele>336.6</ele>
        <time>2013-07-21T16:32:44.000Z</time>
      </trkpt>
      <trkpt lat="45.92314" lon="4.85039">
        <ele>336.6</ele>
        <time>2013-07-21T16:32:45.000Z</time>
      </trkpt>
      <trkpt lat="45.92309" lon="4.85032">
        <ele>336.9</ele>
        <time>2013-07-21T16:32:46.000Z</time>
      </trkpt>
      <trkpt lat="45.92305" lon="4.85026">
        <ele>336.6</ele>
        <time>2013-07-21T16:32:47.000Z</time>
      </trkpt>
      <trkpt lat="45.923" lon="4.85021">
        <ele>336.5</ele>
        <time>2013-07-21T16:32:48.000Z</time>
      </trkpt>
      <trkpt lat="45.92295" lon="4.85017">
        <ele>336.8</ele>
        <time>2013-07-21T16:32:49.000Z</time>
      </trkpt>
      <trkpt lat="45.92292" lon="4.85013">
        <ele>336.9</ele>
        <time>2013-07-21T16:32:50.000Z</time>
      </trkpt>
      <trkpt lat="45.92288" lon="4.85009">
        <ele>336.8</ele>
        <time>2013-07-21T16:32:51.000Z</time>
      </trkpt>
      <trkpt lat="45.92283" lon="4.85005">
        <ele>336.8</ele>
        <time>2013-07-21T16:32:52.000Z</time>
      </trkpt>
      <trkpt lat="45.92278" lon="4.85">
        <ele>337.1</ele>
        <time>2013-07-21T16:32:53.000Z</time>
      </trkpt>
      <trkpt lat="45.92273" lon="4.84997">
        <ele>336.4</ele>
        <time>2013-07-21T16:32:54.000Z</time>
      </trkpt>
      <trkpt lat="45.92268" lon="4.84993">
        <ele>336.5</ele>
        <time>2013-07-21T16:32:55.000Z</time>
      </trkpt>
      <trkpt lat="45.92263" lon="4.84986">
        <ele>335.7</ele>
        <time>2013-07-21T16:32:56.000Z</time>
      </trkpt>
      <trkpt lat="45.92258" lon="4.84981">
        <ele>334.2</ele>
        <time>2013-07-21T16:32:57.000Z</time>
      </trkpt>
      <trkpt lat="45.92254" lon="4.84976">
        <ele>333.7</ele>
        <time>2013-07-21T16:32:58.000Z</time>
      </trkpt>
      <trkpt lat="45.92249" lon="4.84972">
        <ele>333.9</ele>
        <time>2013-07-21T16:32:59.000Z</time>
      </trkpt>
      <trkpt lat="45.92244" lon="4.84967">
        <ele>333.7</ele>
        <time>2013-07-21T16:33:00.000Z</time>
      </trkpt>
      <trkpt lat="45.92239" lon="4.84964">
        <ele>332.6</ele>
        <time>2013-07-21T16:33:01.000Z</time>
      </trkpt>
      <trkpt lat="45.92235" lon="4.84961">
        <ele>332.3</ele>
        <time>2013-07-21T16:33:02.000Z</time>
      </trkpt>
      <trkpt lat="45.9223" lon="4.84956">
        <ele>332.6</ele>
        <time>2013-07-21T16:33:03.000Z</time>
      </trkpt>
      <trkpt lat="45.92226" lon="4.84951">
        <ele>332.8</ele>
        <time>2013-07-21T16:33:04.000Z</time>
      </trkpt>
      <trkpt lat="45.92221" lon="4.84946">
        <ele>332.8</ele>
        <time>2013-07-21T16:33:05.000Z</time>
      </trkpt>
      <trkpt lat="45.92216" lon="4.84942">
        <ele>332.9</ele>
        <time>2013-07-21T16:33:06.000Z</time>
      </trkpt>
      <trkpt lat="45.92213" lon="4.84936">
        <ele>333.3</ele>
        <time>2013-07-21T16:33:07.000Z</time>
      </trkpt>
      <trkpt lat="45.92208" lon="4.84933">
        <ele>333.5</ele>
        <time>2013-07-21T16:33:08.000Z</time>
      </trkpt>
      <trkpt lat="45.92203" lon="4.84929">
        <ele>333.5</ele>
        <time>2013-07-21T16:33:09.000Z</time>
      </trkpt>
      <trkpt lat="45.92199" lon="4.84925">
        <ele>333.9</ele>
        <time>2013-07-21T16:33:10.000Z</time>
      </trkpt>
      <trkpt lat="45.92194" lon="4.84922">
        <ele>333.8</ele>
        <time>2013-07-21T16:33:11.000Z</time>
      </trkpt>
      <trkpt lat="45.9219" lon="4.84918">
        <ele>333.7</ele>
        <time>2013-07-21T16:33:12.000Z</time>
      </trkpt>
      <trkpt lat="45.92185" lon="4.84914">
        <ele>333.1</ele>
        <time>2013-07-21T16:33:13.000Z</time>
      </trkpt>
      <trkpt lat="45.92181" lon="4.84912">
        <ele>332.5</ele>
        <time>2013-07-21T16:33:14.000Z</time>
      </trkpt>
      <trkpt lat="45.92176" lon="4.84909">
        <ele>332.6</ele>
        <time>2013-07-21T16:33:15.000Z</time>
      </trkpt>
      <trkpt lat="45.92172" lon="4.84907">
        <ele>332.4</ele>
        <time>2013-07-21T16:33:16.000Z</time>
      </trkpt>
      <trkpt lat="45.92167" lon="4.84905">
        <ele>332</ele>
        <time>2013-07-21T16:33:17.000Z</time>
      </trkpt>
      <trkpt lat="45.92163" lon="4.84903">
        <ele>330.4</ele>
        <time>2013-07-21T16:33:18.000Z</time>
      </trkpt>
      <trkpt lat="45.9216" lon="4.84899">
        <ele>329.2</ele>
        <time>2013-07-21T16:33:19.000Z</time>
      </trkpt>
      <trkpt lat="45.92156" lon="4.84895">
        <ele>329</ele>
        <time>2013-07-21T16:33:20.000Z</time>
      </trkpt>
      <trkpt lat="45.92152" lon="4.84892">
        <ele>330.6</ele>
        <time>2013-07-21T16:33:21.000Z</time>
      </trkpt>
      <trkpt lat="45.92147" lon="4.84888">
        <ele>331</ele>
        <time>2013-07-21T16:33:22.000Z</time>
      </trkpt>
      <trkpt lat="45.92142" lon="4.84885">
        <ele>330</ele>
        <time>2013-07-21T16:33:23.000Z</time>
      </trkpt>
      <trkpt lat="45.92138" lon="4.84881">
        <ele>330</ele>
        <time>2013-07-21T16:33:24.000Z</time>
      </trkpt>
      <trkpt lat="45.92132" lon="4.84878">
        <ele>329.5</ele>
        <time>2013-07-21T16:33:25.000Z</time>
      </trkpt>
      <trkpt lat="45.92127" lon="4.84873">
        <ele>329.8</ele>
        <time>2013-07-21T16:33:26.000Z</time>
      </trkpt>
      <trkpt lat="45.92122" lon="4.84869">
        <ele>329.8</ele>
        <time>2013-07-21T16:33:27.000Z</time>
      </trkpt>
      <trkpt lat="45.92118" lon="4.84863">
        <ele>329.7</ele>
        <time>2013-07-21T16:33:28.000Z</time>
      </trkpt>
      <trkpt lat="45.92114" lon="4.84858">
        <ele>329.3</ele>
        <time>2013-07-21T16:33:29.000Z</time>
      </trkpt>
      <trkpt lat="45.92109" lon="4.84853">
        <ele>329.6</ele>
        <time>2013-07-21T16:33:30.000Z</time>
      </trkpt>
      <trkpt lat="45.92104" lon="4.84848">
        <ele>329.7</ele>
        <time>2013-07-21T16:33:31.000Z</time>
      </trkpt>
      <trkpt lat="45.92099" lon="4.84844">
        <ele>329.6</ele>
        <time>2013-07-21T16:33:32.000Z</time>
      </trkpt>
      <trkpt lat="45.92097" lon="4.8484">
        <ele>329.7</ele>
        <time>2013-07-21T16:33:33.000Z</time>
      </trkpt>
      <trkpt lat="45.92093" lon="4.84836">
        <ele>329.8</ele>
        <time>2013-07-21T16:33:34.000Z</time>
      </trkpt>
      <trkpt lat="45.92089" lon="4.84832">
        <ele>329.9</ele>
        <time>2013-07-21T16:33:35.000Z</time>
      </trkpt>
      <trkpt lat="45.92086" lon="4.84828">
        <ele>330</ele>
        <time>2013-07-21T16:33:36.000Z</time>
      </trkpt>
      <trkpt lat="45.92082" lon="4.84821">
        <ele>330.4</ele>
        <time>2013-07-21T16:33:37.000Z</time>
      </trkpt>
      <trkpt lat="45.92079" lon="4.84817">
        <ele>330.5</ele>
        <time>2013-07-21T16:33:38.000Z</time>
      </trkpt>
      <trkpt lat="45.92075" lon="4.84811">
        <ele>331.3</ele>
        <time>2013-07-21T16:33:39.000Z</time>
      </trkpt>
      <trkpt lat="45.92073" lon="4.84807">
        <ele>332.5</ele>
        <time>2013-07-21T16:33:41.000Z</time>
      </trkpt>
      <trkpt lat="45.92071" lon="4.84802">
        <ele>331.5</ele>
        <time>2013-07-21T16:33:42.000Z</time>
      </trkpt>
      <trkpt lat="45.92069" lon="4.84799">
        <ele>331.7</ele>
        <time>2013-07-21T16:33:43.000Z</time>
      </trkpt>
      <trkpt lat="45.92069" lon="4.84796">
        <ele>331.4</ele>
        <time>2013-07-21T16:33:44.000Z</time>
      </trkpt>
      <trkpt lat="45.92068" lon="4.84792">
        <ele>331.6</ele>
        <time>2013-07-21T16:33:45.000Z</time>
      </trkpt>
      <trkpt lat="45.92068" lon="4.84787">
        <ele>331.3</ele>
        <time>2013-07-21T16:33:46.000Z</time>
      </trkpt>
      <trkpt lat="45.92065" lon="4.84781">
        <ele>331.8</ele>
        <time>2013-07-21T16:33:47.000Z</time>
      </trkpt>
      <trkpt lat="45.92063" lon="4.84777">
        <ele>331.3</ele>
        <time>2013-07-21T16:33:48.000Z</time>
      </trkpt>
      <trkpt lat="45.92061" lon="4.84774">
        <ele>331.4</ele>
        <time>2013-07-21T16:33:49.000Z</time>
      </trkpt>
      <trkpt lat="45.92057" lon="4.8477">
        <ele>332.1</ele>
        <time>2013-07-21T16:33:50.000Z</time>
      </trkpt>
      <trkpt lat="45.92055" lon="4.84766">
        <ele>331.7</ele>
        <time>2013-07-21T16:33:51.000Z</time>
      </trkpt>
      <trkpt lat="45.92053" lon="4.84763">
        <ele>332.2</ele>
        <time>2013-07-21T16:33:52.000Z</time>
      </trkpt>
      <trkpt lat="45.92051" lon="4.84759">
        <ele>332.3</ele>
        <time>2013-07-21T16:33:53.000Z</time>
      </trkpt>
      <trkpt lat="45.92048" lon="4.84753">
        <ele>334</ele>
        <time>2013-07-21T16:33:54.000Z</time>
      </trkpt>
      <trkpt lat="45.92046" lon="4.84747">
        <ele>335.3</ele>
        <time>2013-07-21T16:33:55.000Z</time>
      </trkpt>
      <trkpt lat="45.92044" lon="4.84739">
        <ele>337.9</ele>
        <time>2013-07-21T16:33:55.998Z</time>
      </trkpt>
      <trkpt lat="45.92042" lon="4.84732">
        <ele>339.4</ele>
        <time>2013-07-21T16:33:57.000Z</time>
      </trkpt>
      <trkpt lat="45.9204" lon="4.84724">
        <ele>338.8</ele>
        <time>2013-07-21T16:33:58.000Z</time>
      </trkpt>
      <trkpt lat="45.92038" lon="4.84718">
        <ele>339.1</ele>
        <time>2013-07-21T16:33:59.000Z</time>
      </trkpt>
      <trkpt lat="45.92034" lon="4.84706">
        <ele>338.6</ele>
        <time>2013-07-21T16:34:00.000Z</time>
      </trkpt>
      <trkpt lat="45.92032" lon="4.84699">
        <ele>338.7</ele>
        <time>2013-07-21T16:34:01.000Z</time>
      </trkpt>
      <trkpt lat="45.9203" lon="4.8469">
        <ele>337.8</ele>
        <time>2013-07-21T16:34:02.000Z</time>
      </trkpt>
      <trkpt lat="45.92024" lon="4.8468">
        <ele>338.4</ele>
        <time>2013-07-21T16:34:03.000Z</time>
      </trkpt>
      <trkpt lat="45.92019" lon="4.84671">
        <ele>338.8</ele>
        <time>2013-07-21T16:34:04.000Z</time>
      </trkpt>
      <trkpt lat="45.92014" lon="4.84663">
        <ele>338.9</ele>
        <time>2013-07-21T16:34:05.000Z</time>
      </trkpt>
      <trkpt lat="45.9201" lon="4.84653">
        <ele>338.6</ele>
        <time>2013-07-21T16:34:06.000Z</time>
      </trkpt>
      <trkpt lat="45.92006" lon="4.84645">
        <ele>337.9</ele>
        <time>2013-07-21T16:34:07.000Z</time>
      </trkpt>
      <trkpt lat="45.92001" lon="4.84636">
        <ele>337.5</ele>
        <time>2013-07-21T16:34:08.000Z</time>
      </trkpt>
      <trkpt lat="45.91996" lon="4.84628">
        <ele>337.1</ele>
        <time>2013-07-21T16:34:09.000Z</time>
      </trkpt>
      <trkpt lat="45.91991" lon="4.84621">
        <ele>336.7</ele>
        <time>2013-07-21T16:34:10.000Z</time>
      </trkpt>
      <trkpt lat="45.91986" lon="4.84611">
        <ele>336.5</ele>
        <time>2013-07-21T16:34:11.000Z</time>
      </trkpt>
      <trkpt lat="45.91979" lon="4.84601">
        <ele>336</ele>
        <time>2013-07-21T16:34:12.000Z</time>
      </trkpt>
      <trkpt lat="45.91971" lon="4.8459">
        <ele>335.4</ele>
        <time>2013-07-21T16:34:13.000Z</time>
      </trkpt>
      <trkpt lat="45.91966" lon="4.84581">
        <ele>333.7</ele>
        <time>2013-07-21T16:34:14.000Z</time>
      </trkpt>
      <trkpt lat="45.91961" lon="4.84572">
        <ele>332.9</ele>
        <time>2013-07-21T16:34:15.000Z</time>
      </trkpt>
      <trkpt lat="45.91955" lon="4.84563">
        <ele>332.7</ele>
        <time>2013-07-21T16:34:16.000Z</time>
      </trkpt>
      <trkpt lat="45.9195" lon="4.84553">
        <ele>331.1</ele>
        <time>2013-07-21T16:34:17.000Z</time>
      </trkpt>
      <trkpt lat="45.91944" lon="4.84543">
        <ele>330</ele>
        <time>2013-07-21T16:34:18.000Z</time>
      </trkpt>
      <trkpt lat="45.91939" lon="4.84531">
        <ele>328.5</ele>
        <time>2013-07-21T16:34:19.000Z</time>
      </trkpt>
      <trkpt lat="45.91934" lon="4.84523">
        <ele>327.8</ele>
        <time>2013-07-21T16:34:20.000Z</time>
      </trkpt>
      <trkpt lat="45.91929" lon="4.84512">
        <ele>328.4</ele>
        <time>2013-07-21T16:34:21.000Z</time>
      </trkpt>
      <trkpt lat="45.91923" lon="4.84501">
        <ele>328</ele>
        <time>2013-07-21T16:34:22.000Z</time>
      </trkpt>
      <trkpt lat="45.91919" lon="4.84491">
        <ele>327.1</ele>
        <time>2013-07-21T16:34:23.000Z</time>
      </trkpt>
      <trkpt lat="45.91914" lon="4.8448">
        <ele>326.1</ele>
        <time>2013-07-21T16:34:24.000Z</time>
      </trkpt>
      <trkpt lat="45.91909" lon="4.8447">
        <ele>325.8</ele>
        <time>2013-07-21T16:34:25.000Z</time>
      </trkpt>
      <trkpt lat="45.91906" lon="4.84459">
        <ele>325.9</ele>
        <time>2013-07-21T16:34:26.000Z</time>
      </trkpt>
      <trkpt lat="45.91902" lon="4.84448">
        <ele>325.4</ele>
        <time>2013-07-21T16:34:27.000Z</time>
      </trkpt>
      <trkpt lat="45.91897" lon="4.84438">
        <ele>324.8</ele>
        <time>2013-07-21T16:34:28.000Z</time>
      </trkpt>
      <trkpt lat="45.91892" lon="4.84427">
        <ele>324.2</ele>
        <time>2013-07-21T16:34:29.000Z</time>
      </trkpt>
      <trkpt lat="45.91887" lon="4.84415">
        <ele>324.5</ele>
        <time>2013-07-21T16:34:30.000Z</time>
      </trkpt>
      <trkpt lat="45.91881" lon="4.84403">
        <ele>324.1</ele>
        <time>2013-07-21T16:34:31.000Z</time>
      </trkpt>
      <trkpt lat="45.91876" lon="4.8439">
        <ele>323.9</ele>
        <time>2013-07-21T16:34:32.000Z</time>
      </trkpt>
      <trkpt lat="45.91872" lon="4.84377">
        <ele>323.6</ele>
        <time>2013-07-21T16:34:33.000Z</time>
      </trkpt>
      <trkpt lat="45.91868" lon="4.84361">
        <ele>322.6</ele>
        <time>2013-07-21T16:34:34.000Z</time>
      </trkpt>
      <trkpt lat="45.91863" lon="4.84346">
        <ele>321.7</ele>
        <time>2013-07-21T16:34:35.000Z</time>
      </trkpt>
      <trkpt lat="45.91859" lon="4.8433">
        <ele>321.1</ele>
        <time>2013-07-21T16:34:36.000Z</time>
      </trkpt>
      <trkpt lat="45.91857" lon="4.84314">
        <ele>320.7</ele>
        <time>2013-07-21T16:34:37.000Z</time>
      </trkpt>
      <trkpt lat="45.91855" lon="4.84298">
        <ele>320.4</ele>
        <time>2013-07-21T16:34:38.000Z</time>
      </trkpt>
      <trkpt lat="45.91853" lon="4.84283">
        <ele>319.9</ele>
        <time>2013-07-21T16:34:39.000Z</time>
      </trkpt>
      <trkpt lat="45.91851" lon="4.84264">
        <ele>319.7</ele>
        <time>2013-07-21T16:34:40.000Z</time>
      </trkpt>
      <trkpt lat="45.9185" lon="4.84249">
        <ele>319.6</ele>
        <time>2013-07-21T16:34:41.000Z</time>
      </trkpt>
      <trkpt lat="45.91849" lon="4.84235">
        <ele>319.2</ele>
        <time>2013-07-21T16:34:42.000Z</time>
      </trkpt>
      <trkpt lat="45.91847" lon="4.8422">
        <ele>319.7</ele>
        <time>2013-07-21T16:34:43.000Z</time>
      </trkpt>
      <trkpt lat="45.91845" lon="4.84209">
        <ele>319.3</ele>
        <time>2013-07-21T16:34:44.000Z</time>
      </trkpt>
      <trkpt lat="45.91842" lon="4.84198">
        <ele>318.7</ele>
        <time>2013-07-21T16:34:45.000Z</time>
      </trkpt>
      <trkpt lat="45.91839" lon="4.84188">
        <ele>318.1</ele>
        <time>2013-07-21T16:34:46.000Z</time>
      </trkpt>
      <trkpt lat="45.91835" lon="4.84179">
        <ele>317.4</ele>
        <time>2013-07-21T16:34:47.000Z</time>
      </trkpt>
      <trkpt lat="45.9183" lon="4.84165">
        <ele>316.2</ele>
        <time>2013-07-21T16:34:48.000Z</time>
      </trkpt>
      <trkpt lat="45.91826" lon="4.84151">
        <ele>314.2</ele>
        <time>2013-07-21T16:34:49.000Z</time>
      </trkpt>
      <trkpt lat="45.91821" lon="4.8414">
        <ele>314.5</ele>
        <time>2013-07-21T16:34:50.000Z</time>
      </trkpt>
      <trkpt lat="45.91816" lon="4.84124">
        <ele>313</ele>
        <time>2013-07-21T16:34:51.000Z</time>
      </trkpt>
      <trkpt lat="45.91811" lon="4.84113">
        <ele>312.6</ele>
        <time>2013-07-21T16:34:52.000Z</time>
      </trkpt>
      <trkpt lat="45.91806" lon="4.84102">
        <ele>312.6</ele>
        <time>2013-07-21T16:34:53.000Z</time>
      </trkpt>
      <trkpt lat="45.918" lon="4.84091">
        <ele>311.6</ele>
        <time>2013-07-21T16:34:54.000Z</time>
      </trkpt>
      <trkpt lat="45.91797" lon="4.84082">
        <ele>311.2</ele>
        <time>2013-07-21T16:34:55.000Z</time>
      </trkpt>
      <trkpt lat="45.91797" lon="4.84074">
        <ele>311.6</ele>
        <time>2013-07-21T16:34:55.981Z</time>
      </trkpt>
      <trkpt lat="45.91793" lon="4.84065">
        <ele>312</ele>
        <time>2013-07-21T16:34:57.000Z</time>
      </trkpt>
      <trkpt lat="45.9179" lon="4.84054">
        <ele>311.3</ele>
        <time>2013-07-21T16:34:58.000Z</time>
      </trkpt>
      <trkpt lat="45.91788" lon="4.84045">
        <ele>310.9</ele>
        <time>2013-07-21T16:34:59.000Z</time>
      </trkpt>
      <trkpt lat="45.91784" lon="4.84036">
        <ele>310.1</ele>
        <time>2013-07-21T16:35:00.000Z</time>
      </trkpt>
      <trkpt lat="45.91779" lon="4.84026">
        <ele>309.8</ele>
        <time>2013-07-21T16:35:01.000Z</time>
      </trkpt>
      <trkpt lat="45.91775" lon="4.84016">
        <ele>309.9</ele>
        <time>2013-07-21T16:35:02.000Z</time>
      </trkpt>
      <trkpt lat="45.91772" lon="4.84007">
        <ele>309.9</ele>
        <time>2013-07-21T16:35:03.000Z</time>
      </trkpt>
      <trkpt lat="45.91769" lon="4.83995">
        <ele>309.2</ele>
        <time>2013-07-21T16:35:04.000Z</time>
      </trkpt>
      <trkpt lat="45.91765" lon="4.83984">
        <ele>308.9</ele>
        <time>2013-07-21T16:35:05.000Z</time>
      </trkpt>
      <trkpt lat="45.91762" lon="4.83974">
        <ele>307.6</ele>
        <time>2013-07-21T16:35:06.000Z</time>
      </trkpt>
      <trkpt lat="45.9176" lon="4.83963">
        <ele>307.3</ele>
        <time>2013-07-21T16:35:07.000Z</time>
      </trkpt>
      <trkpt lat="45.91758" lon="4.83954">
        <ele>305.4</ele>
        <time>2013-07-21T16:35:08.000Z</time>
      </trkpt>
      <trkpt lat="45.91755" lon="4.83945">
        <ele>305.2</ele>
        <time>2013-07-21T16:35:09.000Z</time>
      </trkpt>
      <trkpt lat="45.91752" lon="4.83935">
        <ele>302.3</ele>
        <time>2013-07-21T16:35:10.000Z</time>
      </trkpt>
      <trkpt lat="45.9175" lon="4.83927">
        <ele>301.8</ele>
        <time>2013-07-21T16:35:11.000Z</time>
      </trkpt>
      <trkpt lat="45.91746" lon="4.83918">
        <ele>301.7</ele>
        <time>2013-07-21T16:35:12.000Z</time>
      </trkpt>
      <trkpt lat="45.91743" lon="4.83908">
        <ele>301.3</ele>
        <time>2013-07-21T16:35:13.000Z</time>
      </trkpt>
      <trkpt lat="45.91741" lon="4.83901">
        <ele>300</ele>
        <time>2013-07-21T16:35:14.000Z</time>
      </trkpt>
      <trkpt lat="45.91738" lon="4.83893">
        <ele>299.9</ele>
        <time>2013-07-21T16:35:15.000Z</time>
      </trkpt>
      <trkpt lat="45.91735" lon="4.83884">
        <ele>299.7</ele>
        <time>2013-07-21T16:35:16.000Z</time>
      </trkpt>
      <trkpt lat="45.91733" lon="4.83876">
        <ele>298.3</ele>
        <time>2013-07-21T16:35:17.000Z</time>
      </trkpt>
      <trkpt lat="45.91729" lon="4.83865">
        <ele>298.1</ele>
        <time>2013-07-21T16:35:18.000Z</time>
      </trkpt>
      <trkpt lat="45.91726" lon="4.83856">
        <ele>298.2</ele>
        <time>2013-07-21T16:35:19.000Z</time>
      </trkpt>
      <trkpt lat="45.91722" lon="4.83848">
        <ele>298.1</ele>
        <time>2013-07-21T16:35:20.000Z</time>
      </trkpt>
      <trkpt lat="45.91721" lon="4.8384">
        <ele>297.9</ele>
        <time>2013-07-21T16:35:21.000Z</time>
      </trkpt>
      <trkpt lat="45.91717" lon="4.83833">
        <ele>297.4</ele>
        <time>2013-07-21T16:35:22.000Z</time>
      </trkpt>
      <trkpt lat="45.91715" lon="4.83827">
        <ele>297.5</ele>
        <time>2013-07-21T16:35:23.000Z</time>
      </trkpt>
      <trkpt lat="45.91712" lon="4.83819">
        <ele>297</ele>
        <time>2013-07-21T16:35:24.000Z</time>
      </trkpt>
      <trkpt lat="45.91708" lon="4.83811">
        <ele>296</ele>
        <time>2013-07-21T16:35:25.000Z</time>
      </trkpt>
      <trkpt lat="45.91706" lon="4.83805">
        <ele>295.6</ele>
        <time>2013-07-21T16:35:26.000Z</time>
      </trkpt>
      <trkpt lat="45.91703" lon="4.83797">
        <ele>294.5</ele>
        <time>2013-07-21T16:35:27.000Z</time>
      </trkpt>
      <trkpt lat="45.917" lon="4.83791">
        <ele>294.4</ele>
        <time>2013-07-21T16:35:28.000Z</time>
      </trkpt>
      <trkpt lat="45.91697" lon="4.83784">
        <ele>295.3</ele>
        <time>2013-07-21T16:35:29.000Z</time>
      </trkpt>
      <trkpt lat="45.91693" lon="4.83779">
        <ele>294.2</ele>
        <time>2013-07-21T16:35:30.000Z</time>
      </trkpt>
      <trkpt lat="45.9169" lon="4.83771">
        <ele>293.7</ele>
        <time>2013-07-21T16:35:31.000Z</time>
      </trkpt>
      <trkpt lat="45.91687" lon="4.83762">
        <ele>294.5</ele>
        <time>2013-07-21T16:35:32.000Z</time>
      </trkpt>
      <trkpt lat="45.91684" lon="4.83755">
        <ele>294.5</ele>
        <time>2013-07-21T16:35:33.000Z</time>
      </trkpt>
      <trkpt lat="45.91681" lon="4.83748">
        <ele>295</ele>
        <time>2013-07-21T16:35:34.000Z</time>
      </trkpt>
      <trkpt lat="45.91679" lon="4.83742">
        <ele>294.3</ele>
        <time>2013-07-21T16:35:35.000Z</time>
      </trkpt>
      <trkpt lat="45.91676" lon="4.83734">
        <ele>294.2</ele>
        <time>2013-07-21T16:35:36.000Z</time>
      </trkpt>
      <trkpt lat="45.91674" lon="4.83729">
        <ele>294.2</ele>
        <time>2013-07-21T16:35:37.000Z</time>
      </trkpt>
      <trkpt lat="45.91671" lon="4.83722">
        <ele>294.2</ele>
        <time>2013-07-21T16:35:38.000Z</time>
      </trkpt>
      <trkpt lat="45.91669" lon="4.83716">
        <ele>294</ele>
        <time>2013-07-21T16:35:39.000Z</time>
      </trkpt>
      <trkpt lat="45.91665" lon="4.83709">
        <ele>294</ele>
        <time>2013-07-21T16:35:40.000Z</time>
      </trkpt>
      <trkpt lat="45.91662" lon="4.83701">
        <ele>293.7</ele>
        <time>2013-07-21T16:35:41.000Z</time>
      </trkpt>
      <trkpt lat="45.91659" lon="4.83696">
        <ele>293.5</ele>
        <time>2013-07-21T16:35:42.000Z</time>
      </trkpt>
      <trkpt lat="45.91656" lon="4.8369">
        <ele>292.5</ele>
        <time>2013-07-21T16:35:43.000Z</time>
      </trkpt>
      <trkpt lat="45.91653" lon="4.83685">
        <ele>292.6</ele>
        <time>2013-07-21T16:35:44.000Z</time>
      </trkpt>
      <trkpt lat="45.91652" lon="4.83679">
        <ele>291.9</ele>
        <time>2013-07-21T16:35:45.000Z</time>
      </trkpt>
      <trkpt lat="45.91649" lon="4.83672">
        <ele>291.5</ele>
        <time>2013-07-21T16:35:46.000Z</time>
      </trkpt>
      <trkpt lat="45.91647" lon="4.83667">
        <ele>291.5</ele>
        <time>2013-07-21T16:35:47.000Z</time>
      </trkpt>
      <trkpt lat="45.91642" lon="4.8366">
        <ele>291.5</ele>
        <time>2013-07-21T16:35:48.000Z</time>
      </trkpt>
      <trkpt lat="45.91638" lon="4.83655">
        <ele>290.6</ele>
        <time>2013-07-21T16:35:49.000Z</time>
      </trkpt>
      <trkpt lat="45.91634" lon="4.83648">
        <ele>290.8</ele>
        <time>2013-07-21T16:35:50.000Z</time>
      </trkpt>
      <trkpt lat="45.91633" lon="4.8364">
        <ele>290.9</ele>
        <time>2013-07-21T16:35:51.000Z</time>
      </trkpt>
      <trkpt lat="45.91628" lon="4.83633">
        <ele>289.7</ele>
        <time>2013-07-21T16:35:52.000Z</time>
      </trkpt>
      <trkpt lat="45.91626" lon="4.83625">
        <ele>289.7</ele>
        <time>2013-07-21T16:35:53.000Z</time>
      </trkpt>
      <trkpt lat="45.91623" lon="4.83618">
        <ele>289.3</ele>
        <time>2013-07-21T16:35:54.000Z</time>
      </trkpt>
      <trkpt lat="45.91618" lon="4.83608">
        <ele>289.7</ele>
        <time>2013-07-21T16:35:55.000Z</time>
      </trkpt>
      <trkpt lat="45.91615" lon="4.83601">
        <ele>289.7</ele>
        <time>2013-07-21T16:35:56.000Z</time>
      </trkpt>
      <trkpt lat="45.9161" lon="4.83593">
        <ele>290.4</ele>
        <time>2013-07-21T16:35:57.000Z</time>
      </trkpt>
      <trkpt lat="45.91607" lon="4.83584">
        <ele>289.9</ele>
        <time>2013-07-21T16:35:58.000Z</time>
      </trkpt>
      <trkpt lat="45.91604" lon="4.83577">
        <ele>289.9</ele>
        <time>2013-07-21T16:35:59.000Z</time>
      </trkpt>
      <trkpt lat="45.91602" lon="4.8357">
        <ele>289</ele>
        <time>2013-07-21T16:36:00.000Z</time>
      </trkpt>
      <trkpt lat="45.91599" lon="4.83564">
        <ele>288.5</ele>
        <time>2013-07-21T16:36:01.000Z</time>
      </trkpt>
      <trkpt lat="45.91595" lon="4.83556">
        <ele>287.7</ele>
        <time>2013-07-21T16:36:02.000Z</time>
      </trkpt>
      <trkpt lat="45.91591" lon="4.83548">
        <ele>287.6</ele>
        <time>2013-07-21T16:36:03.000Z</time>
      </trkpt>
      <trkpt lat="45.91586" lon="4.83539">
        <ele>286.7</ele>
        <time>2013-07-21T16:36:04.000Z</time>
      </trkpt>
      <trkpt lat="45.91582" lon="4.83533">
        <ele>286.7</ele>
        <time>2013-07-21T16:36:05.000Z</time>
      </trkpt>
      <trkpt lat="45.91579" lon="4.83526">
        <ele>287</ele>
        <time>2013-07-21T16:36:06.000Z</time>
      </trkpt>
      <trkpt lat="45.91575" lon="4.83519">
        <ele>286.8</ele>
        <time>2013-07-21T16:36:07.000Z</time>
      </trkpt>
      <trkpt lat="45.91572" lon="4.8351">
        <ele>287.3</ele>
        <time>2013-07-21T16:36:08.000Z</time>
      </trkpt>
      <trkpt lat="45.9157" lon="4.83501">
        <ele>287.2</ele>
        <time>2013-07-21T16:36:09.000Z</time>
      </trkpt>
      <trkpt lat="45.91567" lon="4.83492">
        <ele>287.2</ele>
        <time>2013-07-21T16:36:10.000Z</time>
      </trkpt>
      <trkpt lat="45.91564" lon="4.83486">
        <ele>286.7</ele>
        <time>2013-07-21T16:36:11.000Z</time>
      </trkpt>
      <trkpt lat="45.91561" lon="4.83477">
        <ele>287</ele>
        <time>2013-07-21T16:36:12.000Z</time>
      </trkpt>
      <trkpt lat="45.91556" lon="4.83469">
        <ele>287.1</ele>
        <time>2013-07-21T16:36:13.000Z</time>
      </trkpt>
      <trkpt lat="45.91554" lon="4.83461">
        <ele>287</ele>
        <time>2013-07-21T16:36:14.000Z</time>
      </trkpt>
      <trkpt lat="45.91551" lon="4.83453">
        <ele>287.2</ele>
        <time>2013-07-21T16:36:15.000Z</time>
      </trkpt>
      <trkpt lat="45.91548" lon="4.83446">
        <ele>287</ele>
        <time>2013-07-21T16:36:16.000Z</time>
      </trkpt>
      <trkpt lat="45.91545" lon="4.83437">
        <ele>286.2</ele>
        <time>2013-07-21T16:36:17.000Z</time>
      </trkpt>
      <trkpt lat="45.91541" lon="4.83428">
        <ele>286.4</ele>
        <time>2013-07-21T16:36:18.000Z</time>
      </trkpt>
      <trkpt lat="45.91537" lon="4.8342">
        <ele>285.8</ele>
        <time>2013-07-21T16:36:19.000Z</time>
      </trkpt>
      <trkpt lat="45.91533" lon="4.83411">
        <ele>285.8</ele>
        <time>2013-07-21T16:36:20.000Z</time>
      </trkpt>
      <trkpt lat="45.91531" lon="4.83404">
        <ele>285.8</ele>
        <time>2013-07-21T16:36:21.000Z</time>
      </trkpt>
      <trkpt lat="45.91527" lon="4.83396">
        <ele>284.8</ele>
        <time>2013-07-21T16:36:22.000Z</time>
      </trkpt>
      <trkpt lat="45.91523" lon="4.83388">
        <ele>284.4</ele>
        <time>2013-07-21T16:36:23.000Z</time>
      </trkpt>
      <trkpt lat="45.9152" lon="4.83381">
        <ele>284.4</ele>
        <time>2013-07-21T16:36:24.000Z</time>
      </trkpt>
      <trkpt lat="45.91516" lon="4.83375">
        <ele>283.3</ele>
        <time>2013-07-21T16:36:25.000Z</time>
      </trkpt>
      <trkpt lat="45.91512" lon="4.83366">
        <ele>283.2</ele>
        <time>2013-07-21T16:36:26.000Z</time>
      </trkpt>
      <trkpt lat="45.91508" lon="4.83358">
        <ele>283.5</ele>
        <time>2013-07-21T16:36:27.000Z</time>
      </trkpt>
      <trkpt lat="45.91505" lon="4.83352">
        <ele>283.1</ele>
        <time>2013-07-21T16:36:28.000Z</time>
      </trkpt>
      <trkpt lat="45.91502" lon="4.83346">
        <ele>282.8</ele>
        <time>2013-07-21T16:36:29.000Z</time>
      </trkpt>
      <trkpt lat="45.91499" lon="4.8334">
        <ele>283</ele>
        <time>2013-07-21T16:36:30.000Z</time>
      </trkpt>
      <trkpt lat="45.91496" lon="4.83334">
        <ele>283</ele>
        <time>2013-07-21T16:36:31.000Z</time>
      </trkpt>
      <trkpt lat="45.91493" lon="4.83328">
        <ele>283</ele>
        <time>2013-07-21T16:36:32.000Z</time>
      </trkpt>
      <trkpt lat="45.91491" lon="4.83323">
        <ele>283.3</ele>
        <time>2013-07-21T16:36:33.000Z</time>
      </trkpt>
      <trkpt lat="45.91487" lon="4.83319">
        <ele>283.5</ele>
        <time>2013-07-21T16:36:34.000Z</time>
      </trkpt>
      <trkpt lat="45.91484" lon="4.83313">
        <ele>283.8</ele>
        <time>2013-07-21T16:36:35.000Z</time>
      </trkpt>
      <trkpt lat="45.91481" lon="4.83307">
        <ele>283.9</ele>
        <time>2013-07-21T16:36:36.000Z</time>
      </trkpt>
      <trkpt lat="45.91475" lon="4.83297">
        <ele>284.8</ele>
        <time>2013-07-21T16:36:37.000Z</time>
      </trkpt>
      <trkpt lat="45.91474" lon="4.83289">
        <ele>286.3</ele>
        <time>2013-07-21T16:36:38.000Z</time>
      </trkpt>
      <trkpt lat="45.91471" lon="4.83283">
        <ele>286.3</ele>
        <time>2013-07-21T16:36:39.000Z</time>
      </trkpt>
      <trkpt lat="45.91469" lon="4.83276">
        <ele>285.7</ele>
        <time>2013-07-21T16:36:40.000Z</time>
      </trkpt>
      <trkpt lat="45.91467" lon="4.83269">
        <ele>285.6</ele>
        <time>2013-07-21T16:36:41.000Z</time>
      </trkpt>
      <trkpt lat="45.91462" lon="4.83262">
        <ele>286.1</ele>
        <time>2013-07-21T16:36:42.000Z</time>
      </trkpt>
      <trkpt lat="45.9146" lon="4.83255">
        <ele>288</ele>
        <time>2013-07-21T16:36:43.000Z</time>
      </trkpt>
      <trkpt lat="45.91457" lon="4.83245">
        <ele>287.8</ele>
        <time>2013-07-21T16:36:44.000Z</time>
      </trkpt>
      <trkpt lat="45.91454" lon="4.83241">
        <ele>288.8</ele>
        <time>2013-07-21T16:36:45.000Z</time>
      </trkpt>
      <trkpt lat="45.91451" lon="4.83235">
        <ele>289.2</ele>
        <time>2013-07-21T16:36:46.000Z</time>
      </trkpt>
      <trkpt lat="45.91447" lon="4.83227">
        <ele>289.5</ele>
        <time>2013-07-21T16:36:47.000Z</time>
      </trkpt>
      <trkpt lat="45.91444" lon="4.83221">
        <ele>289.4</ele>
        <time>2013-07-21T16:36:48.000Z</time>
      </trkpt>
      <trkpt lat="45.91442" lon="4.83215">
        <ele>288.7</ele>
        <time>2013-07-21T16:36:49.000Z</time>
      </trkpt>
      <trkpt lat="45.91438" lon="4.83207">
        <ele>287.8</ele>
        <time>2013-07-21T16:36:50.000Z</time>
      </trkpt>
      <trkpt lat="45.91436" lon="4.83201">
        <ele>287.7</ele>
        <time>2013-07-21T16:36:51.000Z</time>
      </trkpt>
      <trkpt lat="45.91432" lon="4.83194">
        <ele>287.4</ele>
        <time>2013-07-21T16:36:52.000Z</time>
      </trkpt>
      <trkpt lat="45.9143" lon="4.83192">
        <ele>289.2</ele>
        <time>2013-07-21T16:36:53.000Z</time>
      </trkpt>
      <trkpt lat="45.91428" lon="4.83186">
        <ele>289.8</ele>
        <time>2013-07-21T16:36:54.000Z</time>
      </trkpt>
      <trkpt lat="45.91424" lon="4.83182">
        <ele>289.2</ele>
        <time>2013-07-21T16:36:55.000Z</time>
      </trkpt>
      <trkpt lat="45.91419" lon="4.83174">
        <ele>290.1</ele>
        <time>2013-07-21T16:36:56.021Z</time>
      </trkpt>
      <trkpt lat="45.91416" lon="4.83167">
        <ele>289.6</ele>
        <time>2013-07-21T16:36:57.000Z</time>
      </trkpt>
      <trkpt lat="45.91413" lon="4.83161">
        <ele>289.2</ele>
        <time>2013-07-21T16:36:58.000Z</time>
      </trkpt>
      <trkpt lat="45.91409" lon="4.83161">
        <ele>289.3</ele>
        <time>2013-07-21T16:36:59.000Z</time>
      </trkpt>
      <trkpt lat="45.91406" lon="4.83156">
        <ele>289.3</ele>
        <time>2013-07-21T16:37:00.000Z</time>
      </trkpt>
      <trkpt lat="45.91402" lon="4.83146">
        <ele>288.3</ele>
        <time>2013-07-21T16:37:01.000Z</time>
      </trkpt>
      <trkpt lat="45.91397" lon="4.83139">
        <ele>289.1</ele>
        <time>2013-07-21T16:37:02.000Z</time>
      </trkpt>
      <trkpt lat="45.91394" lon="4.83133">
        <ele>289.2</ele>
        <time>2013-07-21T16:37:03.000Z</time>
      </trkpt>
      <trkpt lat="45.91389" lon="4.83125">
        <ele>289.4</ele>
        <time>2013-07-21T16:37:04.000Z</time>
      </trkpt>
      <trkpt lat="45.91385" lon="4.83119">
        <ele>288.8</ele>
        <time>2013-07-21T16:37:05.000Z</time>
      </trkpt>
      <trkpt lat="45.91378" lon="4.83112">
        <ele>287.8</ele>
        <time>2013-07-21T16:37:06.000Z</time>
      </trkpt>
      <trkpt lat="45.91375" lon="4.83106">
        <ele>287.4</ele>
        <time>2013-07-21T16:37:07.000Z</time>
      </trkpt>
      <trkpt lat="45.9137" lon="4.83101">
        <ele>287.5</ele>
        <time>2013-07-21T16:37:08.000Z</time>
      </trkpt>
      <trkpt lat="45.91362" lon="4.83094">
        <ele>286.1</ele>
        <time>2013-07-21T16:37:09.000Z</time>
      </trkpt>
      <trkpt lat="45.91357" lon="4.83089">
        <ele>286</ele>
        <time>2013-07-21T16:37:10.000Z</time>
      </trkpt>
      <trkpt lat="45.91353" lon="4.83084">
        <ele>286.4</ele>
        <time>2013-07-21T16:37:11.000Z</time>
      </trkpt>
      <trkpt lat="45.91347" lon="4.83075">
        <ele>286.2</ele>
        <time>2013-07-21T16:37:12.000Z</time>
      </trkpt>
      <trkpt lat="45.91345" lon="4.83069">
        <ele>285.4</ele>
        <time>2013-07-21T16:37:13.000Z</time>
      </trkpt>
      <trkpt lat="45.9134" lon="4.83061">
        <ele>284.7</ele>
        <time>2013-07-21T16:37:14.000Z</time>
      </trkpt>
      <trkpt lat="45.91337" lon="4.83053">
        <ele>284.8</ele>
        <time>2013-07-21T16:37:15.000Z</time>
      </trkpt>
      <trkpt lat="45.91335" lon="4.83046">
        <ele>285.2</ele>
        <time>2013-07-21T16:37:16.000Z</time>
      </trkpt>
      <trkpt lat="45.91332" lon="4.83038">
        <ele>285.2</ele>
        <time>2013-07-21T16:37:17.000Z</time>
      </trkpt>
      <trkpt lat="45.91332" lon="4.83029">
        <ele>284.9</ele>
        <time>2013-07-21T16:37:18.000Z</time>
      </trkpt>
      <trkpt lat="45.9133" lon="4.83022">
        <ele>284.9</ele>
        <time>2013-07-21T16:37:19.000Z</time>
      </trkpt>
      <trkpt lat="45.91327" lon="4.83015">
        <ele>284.7</ele>
        <time>2013-07-21T16:37:20.000Z</time>
      </trkpt>
      <trkpt lat="45.91325" lon="4.8301">
        <ele>284.2</ele>
        <time>2013-07-21T16:37:21.000Z</time>
      </trkpt>
      <trkpt lat="45.91321" lon="4.83004">
        <ele>283.6</ele>
        <time>2013-07-21T16:37:22.000Z</time>
      </trkpt>
      <trkpt lat="45.91318" lon="4.82996">
        <ele>283.7</ele>
        <time>2013-07-21T16:37:23.000Z</time>
      </trkpt>
      <trkpt lat="45.91314" lon="4.8299">
        <ele>283.4</ele>
        <time>2013-07-21T16:37:24.000Z</time>
      </trkpt>
      <trkpt lat="45.91311" lon="4.82984">
        <ele>283.1</ele>
        <time>2013-07-21T16:37:25.000Z</time>
      </trkpt>
      <trkpt lat="45.91307" lon="4.82978">
        <ele>283.1</ele>
        <time>2013-07-21T16:37:26.000Z</time>
      </trkpt>
      <trkpt lat="45.91303" lon="4.82974">
        <ele>283.5</ele>
        <time>2013-07-21T16:37:27.000Z</time>
      </trkpt>
      <trkpt lat="45.913" lon="4.82968">
        <ele>283.7</ele>
        <time>2013-07-21T16:37:28.000Z</time>
      </trkpt>
      <trkpt lat="45.91299" lon="4.82962">
        <ele>283.2</ele>
        <time>2013-07-21T16:37:29.000Z</time>
      </trkpt>
      <trkpt lat="45.91296" lon="4.82956">
        <ele>283.1</ele>
        <time>2013-07-21T16:37:30.000Z</time>
      </trkpt>
      <trkpt lat="45.91293" lon="4.82951">
        <ele>282.6</ele>
        <time>2013-07-21T16:37:31.000Z</time>
      </trkpt>
      <trkpt lat="45.9129" lon="4.82945">
        <ele>282.5</ele>
        <time>2013-07-21T16:37:32.000Z</time>
      </trkpt>
      <trkpt lat="45.91285" lon="4.82937">
        <ele>282.6</ele>
        <time>2013-07-21T16:37:33.000Z</time>
      </trkpt>
      <trkpt lat="45.91282" lon="4.82931">
        <ele>282.7</ele>
        <time>2013-07-21T16:37:34.000Z</time>
      </trkpt>
      <trkpt lat="45.91276" lon="4.82923">
        <ele>282.7</ele>
        <time>2013-07-21T16:37:35.000Z</time>
      </trkpt>
      <trkpt lat="45.91273" lon="4.82916">
        <ele>282.5</ele>
        <time>2013-07-21T16:37:36.000Z</time>
      </trkpt>
      <trkpt lat="45.91269" lon="4.82905">
        <ele>285.2</ele>
        <time>2013-07-21T16:37:37.000Z</time>
      </trkpt>
      <trkpt lat="45.91267" lon="4.82898">
        <ele>285.4</ele>
        <time>2013-07-21T16:37:38.000Z</time>
      </trkpt>
      <trkpt lat="45.91264" lon="4.82891">
        <ele>286</ele>
        <time>2013-07-21T16:37:39.000Z</time>
      </trkpt>
      <trkpt lat="45.91261" lon="4.82883">
        <ele>285.5</ele>
        <time>2013-07-21T16:37:40.000Z</time>
      </trkpt>
      <trkpt lat="45.91258" lon="4.82876">
        <ele>285.5</ele>
        <time>2013-07-21T16:37:41.000Z</time>
      </trkpt>
      <trkpt lat="45.91252" lon="4.82868">
        <ele>286.3</ele>
        <time>2013-07-21T16:37:42.000Z</time>
      </trkpt>
      <trkpt lat="45.91249" lon="4.82858">
        <ele>286.5</ele>
        <time>2013-07-21T16:37:43.000Z</time>
      </trkpt>
      <trkpt lat="45.91245" lon="4.82848">
        <ele>285.3</ele>
        <time>2013-07-21T16:37:44.000Z</time>
      </trkpt>
      <trkpt lat="45.91242" lon="4.82837">
        <ele>283.6</ele>
        <time>2013-07-21T16:37:45.000Z</time>
      </trkpt>
      <trkpt lat="45.91239" lon="4.8283">
        <ele>283.1</ele>
        <time>2013-07-21T16:37:46.000Z</time>
      </trkpt>
      <trkpt lat="45.91234" lon="4.82824">
        <ele>283.1</ele>
        <time>2013-07-21T16:37:47.000Z</time>
      </trkpt>
      <trkpt lat="45.91228" lon="4.82822">
        <ele>283.1</ele>
        <time>2013-07-21T16:37:48.000Z</time>
      </trkpt>
      <trkpt lat="45.91222" lon="4.82821">
        <ele>283.4</ele>
        <time>2013-07-21T16:37:49.000Z</time>
      </trkpt>
      <trkpt lat="45.91217" lon="4.8282">
        <ele>283.6</ele>
        <time>2013-07-21T16:37:50.000Z</time>
      </trkpt>
      <trkpt lat="45.91212" lon="4.82822">
        <ele>283.6</ele>
        <time>2013-07-21T16:37:51.000Z</time>
      </trkpt>
      <trkpt lat="45.91206" lon="4.82825">
        <ele>283.7</ele>
        <time>2013-07-21T16:37:52.000Z</time>
      </trkpt>
      <trkpt lat="45.912" lon="4.82827">
        <ele>283.5</ele>
        <time>2013-07-21T16:37:53.000Z</time>
      </trkpt>
      <trkpt lat="45.91196" lon="4.82828">
        <ele>284.1</ele>
        <time>2013-07-21T16:37:54.000Z</time>
      </trkpt>
      <trkpt lat="45.91191" lon="4.82826">
        <ele>283.6</ele>
        <time>2013-07-21T16:37:55.000Z</time>
      </trkpt>
      <trkpt lat="45.91188" lon="4.82831">
        <ele>283.3</ele>
        <time>2013-07-21T16:37:55.967Z</time>
      </trkpt>
      <trkpt lat="45.91185" lon="4.82833">
        <ele>283.5</ele>
        <time>2013-07-21T16:37:57.000Z</time>
      </trkpt>
      <trkpt lat="45.91182" lon="4.82838">
        <ele>284</ele>
        <time>2013-07-21T16:37:58.000Z</time>
      </trkpt>
      <trkpt lat="45.91178" lon="4.82841">
        <ele>283.7</ele>
        <time>2013-07-21T16:37:59.000Z</time>
      </trkpt>
      <trkpt lat="45.91177" lon="4.82847">
        <ele>284.2</ele>
        <time>2013-07-21T16:38:00.000Z</time>
      </trkpt>
      <trkpt lat="45.91175" lon="4.82849">
        <ele>284.3</ele>
        <time>2013-07-21T16:38:01.000Z</time>
      </trkpt>
      <trkpt lat="45.91167" lon="4.82851">
        <ele>283.6</ele>
        <time>2013-07-21T16:38:02.000Z</time>
      </trkpt>
      <trkpt lat="45.91167" lon="4.82857">
        <ele>285.2</ele>
        <time>2013-07-21T16:38:04.000Z</time>
      </trkpt>
      <trkpt lat="45.91166" lon="4.8286">
        <ele>285.5</ele>
        <time>2013-07-21T16:38:05.000Z</time>
      </trkpt>
      <trkpt lat="45.91151" lon="4.82859">
        <ele>284.8</ele>
        <time>2013-07-21T16:38:06.000Z</time>
      </trkpt>
      <trkpt lat="45.91145" lon="4.82867">
        <ele>286.6</ele>
        <time>2013-07-21T16:38:07.000Z</time>
      </trkpt>
      <trkpt lat="45.91139" lon="4.82872">
        <ele>285.9</ele>
        <time>2013-07-21T16:38:08.000Z</time>
      </trkpt>
      <trkpt lat="45.91133" lon="4.82876">
        <ele>285.9</ele>
        <time>2013-07-21T16:38:09.000Z</time>
      </trkpt>
      <trkpt lat="45.91126" lon="4.82879">
        <ele>285.7</ele>
        <time>2013-07-21T16:38:10.000Z</time>
      </trkpt>
      <trkpt lat="45.91116" lon="4.82881">
        <ele>286.5</ele>
        <time>2013-07-21T16:38:11.000Z</time>
      </trkpt>
      <trkpt lat="45.91108" lon="4.82881">
        <ele>286.1</ele>
        <time>2013-07-21T16:38:12.000Z</time>
      </trkpt>
      <trkpt lat="45.91101" lon="4.82882">
        <ele>286.3</ele>
        <time>2013-07-21T16:38:13.000Z</time>
      </trkpt>
      <trkpt lat="45.91097" lon="4.82883">
        <ele>285.5</ele>
        <time>2013-07-21T16:38:15.000Z</time>
      </trkpt>
      <trkpt lat="45.91093" lon="4.82883">
        <ele>286</ele>
        <time>2013-07-21T16:38:16.000Z</time>
      </trkpt>
      <trkpt lat="45.91089" lon="4.82884">
        <ele>286.4</ele>
        <time>2013-07-21T16:38:17.000Z</time>
      </trkpt>
      <trkpt lat="45.91084" lon="4.82884">
        <ele>285.3</ele>
        <time>2013-07-21T16:38:18.000Z</time>
      </trkpt>
      <trkpt lat="45.91081" lon="4.82884">
        <ele>284.8</ele>
        <time>2013-07-21T16:38:19.000Z</time>
      </trkpt>
      <trkpt lat="45.91078" lon="4.82884">
        <ele>284.9</ele>
        <time>2013-07-21T16:38:20.000Z</time>
      </trkpt>
      <trkpt lat="45.91075" lon="4.82883">
        <ele>282.4</ele>
        <time>2013-07-21T16:38:37.000Z</time>
      </trkpt>
    </trkseg>
  </trk>
</gpx>